<?xml version="1.0" encoding="UTF-8" standalone="no" ?>
<gpx xmlns="http://www.topografix.com/GPX/1/1" xmlns:xsi="http://www.w3.org/2001/XMLSchema-instance" xsi:schemaLocation="http://www.topografix.com/GPX/1/1 http://www.topografix.com/GPX/1/1/gpx.xsd" version="1.1" creator="VisuGPX - https://www.visugpx.com">
  <metadata>
    <name>Deuxième étape Trans Verdon</name>
    <desc><![CDATA[Préparation de Trans Vercors 2020
]]></desc>
  </metadata>
  <trk>
    <name><![CDATA[Tronçon 03 – De Colmars Les Alpes aux Lacs de Lignin]]></name>
    <trkseg>
      <trkpt lat="44.18353" lon="6.63011">
        <ele>1265</ele>
        <time>2020-03-21T14:48:21.882Z</time>
      </trkpt>
      <trkpt lat="44.18351" lon="6.63022">
        <ele>1265</ele>
        <time>2020-03-21T14:48:22.882Z</time>
      </trkpt>
      <trkpt lat="44.18351" lon="6.63026">
        <ele>1266</ele>
        <time>2020-03-21T14:48:23.882Z</time>
      </trkpt>
      <trkpt lat="44.18347" lon="6.63041">
        <ele>1267</ele>
        <time>2020-03-21T14:48:24.882Z</time>
      </trkpt>
      <trkpt lat="44.18343" lon="6.63064">
        <ele>1268</ele>
        <time>2020-03-21T14:48:25.882Z</time>
      </trkpt>
      <trkpt lat="44.18341" lon="6.63078">
        <ele>1269</ele>
        <time>2020-03-21T14:48:26.882Z</time>
      </trkpt>
      <trkpt lat="44.18338" lon="6.63087">
        <ele>1270</ele>
        <time>2020-03-21T14:48:27.882Z</time>
      </trkpt>
      <trkpt lat="44.18331" lon="6.631">
        <ele>1272</ele>
        <time>2020-03-21T14:48:28.882Z</time>
      </trkpt>
      <trkpt lat="44.18325" lon="6.6311">
        <ele>1273</ele>
        <time>2020-03-21T14:48:29.882Z</time>
      </trkpt>
      <trkpt lat="44.18313" lon="6.63121">
        <ele>1273</ele>
        <time>2020-03-21T14:48:30.882Z</time>
      </trkpt>
      <trkpt lat="44.18306" lon="6.63128">
        <ele>1274</ele>
        <time>2020-03-21T14:48:31.882Z</time>
      </trkpt>
      <trkpt lat="44.18297" lon="6.63131">
        <ele>1273</ele>
        <time>2020-03-21T14:48:32.882Z</time>
      </trkpt>
      <trkpt lat="44.18286" lon="6.6314">
        <ele>1274</ele>
        <time>2020-03-21T14:48:33.882Z</time>
      </trkpt>
      <trkpt lat="44.18278" lon="6.63147">
        <ele>1275</ele>
        <time>2020-03-21T14:48:34.882Z</time>
      </trkpt>
      <trkpt lat="44.1827" lon="6.63152">
        <ele>1275</ele>
        <time>2020-03-21T14:48:35.882Z</time>
      </trkpt>
      <trkpt lat="44.18263" lon="6.63153">
        <ele>1275</ele>
        <time>2020-03-21T14:48:36.882Z</time>
      </trkpt>
      <trkpt lat="44.18251" lon="6.6316">
        <ele>1276</ele>
        <time>2020-03-21T14:48:37.882Z</time>
      </trkpt>
      <trkpt lat="44.18239" lon="6.63167">
        <ele>1277</ele>
        <time>2020-03-21T14:48:38.882Z</time>
      </trkpt>
      <trkpt lat="44.18226" lon="6.63173">
        <ele>1279</ele>
        <time>2020-03-21T14:48:39.882Z</time>
      </trkpt>
      <trkpt lat="44.18212" lon="6.63177">
        <ele>1280</ele>
        <time>2020-03-21T14:48:40.882Z</time>
      </trkpt>
      <trkpt lat="44.18199" lon="6.63179">
        <ele>1280</ele>
        <time>2020-03-21T14:48:41.882Z</time>
      </trkpt>
      <trkpt lat="44.18187" lon="6.63179">
        <ele>1280</ele>
        <time>2020-03-21T14:48:42.882Z</time>
      </trkpt>
      <trkpt lat="44.18181" lon="6.6318">
        <ele>1280</ele>
        <time>2020-03-21T14:48:43.882Z</time>
      </trkpt>
      <trkpt lat="44.18171" lon="6.63179">
        <ele>1280</ele>
        <time>2020-03-21T14:48:44.882Z</time>
      </trkpt>
      <trkpt lat="44.18157" lon="6.6318">
        <ele>1280</ele>
        <time>2020-03-21T14:48:45.882Z</time>
      </trkpt>
      <trkpt lat="44.18144" lon="6.63181">
        <ele>1280</ele>
        <time>2020-03-21T14:48:46.882Z</time>
      </trkpt>
      <trkpt lat="44.18133" lon="6.63182">
        <ele>1280</ele>
        <time>2020-03-21T14:48:47.882Z</time>
      </trkpt>
      <trkpt lat="44.18122" lon="6.63181">
        <ele>1280</ele>
        <time>2020-03-21T14:48:48.882Z</time>
      </trkpt>
      <trkpt lat="44.18113" lon="6.63181">
        <ele>1280</ele>
        <time>2020-03-21T14:48:49.882Z</time>
      </trkpt>
      <trkpt lat="44.18101" lon="6.63182">
        <ele>1280</ele>
        <time>2020-03-21T14:48:50.882Z</time>
      </trkpt>
      <trkpt lat="44.18098" lon="6.63184">
        <ele>1281</ele>
        <time>2020-03-21T14:48:51.882Z</time>
      </trkpt>
      <trkpt lat="44.18089" lon="6.63188">
        <ele>1282</ele>
        <time>2020-03-21T14:48:52.882Z</time>
      </trkpt>
      <trkpt lat="44.18081" lon="6.63192">
        <ele>1283</ele>
        <time>2020-03-21T14:48:53.882Z</time>
      </trkpt>
      <trkpt lat="44.18071" lon="6.63194">
        <ele>1284</ele>
        <time>2020-03-21T14:48:54.882Z</time>
      </trkpt>
      <trkpt lat="44.18066" lon="6.63199">
        <ele>1285</ele>
        <time>2020-03-21T14:48:55.882Z</time>
      </trkpt>
      <trkpt lat="44.18056" lon="6.63211">
        <ele>1289</ele>
        <time>2020-03-21T14:48:56.882Z</time>
      </trkpt>
      <trkpt lat="44.18045" lon="6.63219">
        <ele>1291</ele>
        <time>2020-03-21T14:48:57.882Z</time>
      </trkpt>
      <trkpt lat="44.18037" lon="6.63226">
        <ele>1293</ele>
        <time>2020-03-21T14:48:58.882Z</time>
      </trkpt>
      <trkpt lat="44.18026" lon="6.63232">
        <ele>1294</ele>
        <time>2020-03-21T14:48:59.882Z</time>
      </trkpt>
      <trkpt lat="44.18017" lon="6.63236">
        <ele>1295</ele>
        <time>2020-03-21T14:49:00.882Z</time>
      </trkpt>
      <trkpt lat="44.18007" lon="6.63239">
        <ele>1296</ele>
        <time>2020-03-21T14:49:01.882Z</time>
      </trkpt>
      <trkpt lat="44.18" lon="6.6324">
        <ele>1296</ele>
        <time>2020-03-21T14:49:02.882Z</time>
      </trkpt>
      <trkpt lat="44.17989" lon="6.6324">
        <ele>1296</ele>
        <time>2020-03-21T14:49:03.882Z</time>
      </trkpt>
      <trkpt lat="44.17977" lon="6.63238">
        <ele>1295</ele>
        <time>2020-03-21T14:49:04.882Z</time>
      </trkpt>
      <trkpt lat="44.17972" lon="6.63246">
        <ele>1297</ele>
        <time>2020-03-21T14:49:05.882Z</time>
      </trkpt>
      <trkpt lat="44.17972" lon="6.63248">
        <ele>1298</ele>
        <time>2020-03-21T14:49:06.882Z</time>
      </trkpt>
      <trkpt lat="44.17979" lon="6.63254">
        <ele>1300</ele>
        <time>2020-03-21T14:49:07.882Z</time>
      </trkpt>
      <trkpt lat="44.17994" lon="6.63258">
        <ele>1302</ele>
        <time>2020-03-21T14:49:08.882Z</time>
      </trkpt>
      <trkpt lat="44.18003" lon="6.63262">
        <ele>1304</ele>
        <time>2020-03-21T14:49:09.882Z</time>
      </trkpt>
      <trkpt lat="44.18014" lon="6.63265">
        <ele>1305</ele>
        <time>2020-03-21T14:49:10.882Z</time>
      </trkpt>
      <trkpt lat="44.18016" lon="6.63265">
        <ele>1306</ele>
        <time>2020-03-21T14:49:11.882Z</time>
      </trkpt>
      <trkpt lat="44.18025" lon="6.63268">
        <ele>1307</ele>
        <time>2020-03-21T14:49:12.882Z</time>
      </trkpt>
      <trkpt lat="44.1804" lon="6.63265">
        <ele>1306</ele>
        <time>2020-03-21T14:49:13.882Z</time>
      </trkpt>
      <trkpt lat="44.18051" lon="6.63258">
        <ele>1303</ele>
        <time>2020-03-21T14:49:14.882Z</time>
      </trkpt>
      <trkpt lat="44.18063" lon="6.63254">
        <ele>1302</ele>
        <time>2020-03-21T14:49:15.882Z</time>
      </trkpt>
      <trkpt lat="44.18081" lon="6.63249">
        <ele>1301</ele>
        <time>2020-03-21T14:49:16.882Z</time>
      </trkpt>
      <trkpt lat="44.18094" lon="6.63241">
        <ele>1299</ele>
        <time>2020-03-21T14:49:17.882Z</time>
      </trkpt>
      <trkpt lat="44.18108" lon="6.63241">
        <ele>1300</ele>
        <time>2020-03-21T14:49:18.882Z</time>
      </trkpt>
      <trkpt lat="44.18117" lon="6.63242">
        <ele>1301</ele>
        <time>2020-03-21T14:49:19.882Z</time>
      </trkpt>
      <trkpt lat="44.18125" lon="6.63246">
        <ele>1303</ele>
        <time>2020-03-21T14:49:20.882Z</time>
      </trkpt>
      <trkpt lat="44.18134" lon="6.63247">
        <ele>1304</ele>
        <time>2020-03-21T14:49:21.882Z</time>
      </trkpt>
      <trkpt lat="44.1814" lon="6.63258">
        <ele>1309</ele>
        <time>2020-03-21T14:49:22.882Z</time>
      </trkpt>
      <trkpt lat="44.18135" lon="6.63256">
        <ele>1308</ele>
        <time>2020-03-21T14:49:23.882Z</time>
      </trkpt>
      <trkpt lat="44.18124" lon="6.63253">
        <ele>1306</ele>
        <time>2020-03-21T14:49:24.882Z</time>
      </trkpt>
      <trkpt lat="44.18116" lon="6.63253">
        <ele>1305</ele>
        <time>2020-03-21T14:49:25.882Z</time>
      </trkpt>
      <trkpt lat="44.18111" lon="6.63254">
        <ele>1305</ele>
        <time>2020-03-21T14:49:26.882Z</time>
      </trkpt>
      <trkpt lat="44.18105" lon="6.63259">
        <ele>1307</ele>
        <time>2020-03-21T14:49:27.882Z</time>
      </trkpt>
      <trkpt lat="44.18111" lon="6.63266">
        <ele>1310</ele>
        <time>2020-03-21T14:49:28.882Z</time>
      </trkpt>
      <trkpt lat="44.18127" lon="6.63264">
        <ele>1311</ele>
        <time>2020-03-21T14:49:29.882Z</time>
      </trkpt>
      <trkpt lat="44.18129" lon="6.63263">
        <ele>1311</ele>
        <time>2020-03-21T14:49:30.882Z</time>
      </trkpt>
      <trkpt lat="44.1814" lon="6.63265">
        <ele>1312</ele>
        <time>2020-03-21T14:49:31.882Z</time>
      </trkpt>
      <trkpt lat="44.18152" lon="6.6327">
        <ele>1316</ele>
        <time>2020-03-21T14:49:32.882Z</time>
      </trkpt>
      <trkpt lat="44.18163" lon="6.63273">
        <ele>1318</ele>
        <time>2020-03-21T14:49:33.882Z</time>
      </trkpt>
      <trkpt lat="44.18174" lon="6.63274">
        <ele>1319</ele>
        <time>2020-03-21T14:49:34.882Z</time>
      </trkpt>
      <trkpt lat="44.18182" lon="6.63276">
        <ele>1319</ele>
        <time>2020-03-21T14:49:35.882Z</time>
      </trkpt>
      <trkpt lat="44.18194" lon="6.63277">
        <ele>1319</ele>
        <time>2020-03-21T14:49:36.882Z</time>
      </trkpt>
      <trkpt lat="44.18202" lon="6.63278">
        <ele>1319</ele>
        <time>2020-03-21T14:49:37.882Z</time>
      </trkpt>
      <trkpt lat="44.18212" lon="6.6328">
        <ele>1319</ele>
        <time>2020-03-21T14:49:38.882Z</time>
      </trkpt>
      <trkpt lat="44.18224" lon="6.63285">
        <ele>1321</ele>
        <time>2020-03-21T14:49:39.882Z</time>
      </trkpt>
      <trkpt lat="44.18233" lon="6.63288">
        <ele>1322</ele>
        <time>2020-03-21T14:49:40.882Z</time>
      </trkpt>
      <trkpt lat="44.18245" lon="6.63292">
        <ele>1323</ele>
        <time>2020-03-21T14:49:41.882Z</time>
      </trkpt>
      <trkpt lat="44.18256" lon="6.63297">
        <ele>1325</ele>
        <time>2020-03-21T14:49:42.882Z</time>
      </trkpt>
      <trkpt lat="44.18269" lon="6.63304">
        <ele>1329</ele>
        <time>2020-03-21T14:49:43.882Z</time>
      </trkpt>
      <trkpt lat="44.1828" lon="6.63307">
        <ele>1330</ele>
        <time>2020-03-21T14:49:44.882Z</time>
      </trkpt>
      <trkpt lat="44.18289" lon="6.63305">
        <ele>1330</ele>
        <time>2020-03-21T14:49:45.882Z</time>
      </trkpt>
      <trkpt lat="44.18298" lon="6.63303">
        <ele>1329</ele>
        <time>2020-03-21T14:49:46.882Z</time>
      </trkpt>
      <trkpt lat="44.18307" lon="6.63302">
        <ele>1329</ele>
        <time>2020-03-21T14:49:47.882Z</time>
      </trkpt>
      <trkpt lat="44.18318" lon="6.63303">
        <ele>1329</ele>
        <time>2020-03-21T14:49:48.882Z</time>
      </trkpt>
      <trkpt lat="44.18331" lon="6.63305">
        <ele>1330</ele>
        <time>2020-03-21T14:49:49.882Z</time>
      </trkpt>
      <trkpt lat="44.18342" lon="6.63308">
        <ele>1331</ele>
        <time>2020-03-21T14:49:50.882Z</time>
      </trkpt>
      <trkpt lat="44.18351" lon="6.63309">
        <ele>1332</ele>
        <time>2020-03-21T14:49:51.882Z</time>
      </trkpt>
      <trkpt lat="44.18361" lon="6.6331">
        <ele>1332</ele>
        <time>2020-03-21T14:49:52.882Z</time>
      </trkpt>
      <trkpt lat="44.1837" lon="6.63316">
        <ele>1334</ele>
        <time>2020-03-21T14:49:53.882Z</time>
      </trkpt>
      <trkpt lat="44.18385" lon="6.63327">
        <ele>1338</ele>
        <time>2020-03-21T14:49:54.882Z</time>
      </trkpt>
      <trkpt lat="44.18396" lon="6.63337">
        <ele>1342</ele>
        <time>2020-03-21T14:49:55.882Z</time>
      </trkpt>
      <trkpt lat="44.18411" lon="6.63349">
        <ele>1346</ele>
        <time>2020-03-21T14:49:56.882Z</time>
      </trkpt>
      <trkpt lat="44.18423" lon="6.63355">
        <ele>1348</ele>
        <time>2020-03-21T14:49:57.882Z</time>
      </trkpt>
      <trkpt lat="44.18438" lon="6.63358">
        <ele>1348</ele>
        <time>2020-03-21T14:49:58.882Z</time>
      </trkpt>
      <trkpt lat="44.18454" lon="6.63355">
        <ele>1346</ele>
        <time>2020-03-21T14:49:59.882Z</time>
      </trkpt>
      <trkpt lat="44.18466" lon="6.63353">
        <ele>1344</ele>
        <time>2020-03-21T14:50:00.882Z</time>
      </trkpt>
      <trkpt lat="44.18479" lon="6.6335">
        <ele>1343</ele>
        <time>2020-03-21T14:50:01.882Z</time>
      </trkpt>
      <trkpt lat="44.1848" lon="6.63349">
        <ele>1342</ele>
        <time>2020-03-21T14:50:02.882Z</time>
      </trkpt>
      <trkpt lat="44.18481" lon="6.63344">
        <ele>1340</ele>
        <time>2020-03-21T14:50:03.882Z</time>
      </trkpt>
      <trkpt lat="44.18486" lon="6.63343">
        <ele>1339</ele>
        <time>2020-03-21T14:50:04.882Z</time>
      </trkpt>
      <trkpt lat="44.18493" lon="6.63343">
        <ele>1339</ele>
        <time>2020-03-21T14:50:05.882Z</time>
      </trkpt>
      <trkpt lat="44.18497" lon="6.63343">
        <ele>1339</ele>
        <time>2020-03-21T14:50:06.882Z</time>
      </trkpt>
      <trkpt lat="44.18508" lon="6.63347">
        <ele>1340</ele>
        <time>2020-03-21T14:50:07.882Z</time>
      </trkpt>
      <trkpt lat="44.18517" lon="6.6335">
        <ele>1341</ele>
        <time>2020-03-21T14:50:08.882Z</time>
      </trkpt>
      <trkpt lat="44.18528" lon="6.63356">
        <ele>1342</ele>
        <time>2020-03-21T14:50:09.882Z</time>
      </trkpt>
      <trkpt lat="44.1854" lon="6.63363">
        <ele>1344</ele>
        <time>2020-03-21T14:50:10.882Z</time>
      </trkpt>
      <trkpt lat="44.18553" lon="6.63368">
        <ele>1345</ele>
        <time>2020-03-21T14:50:11.882Z</time>
      </trkpt>
      <trkpt lat="44.18558" lon="6.6337">
        <ele>1346</ele>
        <time>2020-03-21T14:50:12.882Z</time>
      </trkpt>
      <trkpt lat="44.18569" lon="6.63377">
        <ele>1348</ele>
        <time>2020-03-21T14:50:13.882Z</time>
      </trkpt>
      <trkpt lat="44.18579" lon="6.63382">
        <ele>1349</ele>
        <time>2020-03-21T14:50:14.882Z</time>
      </trkpt>
      <trkpt lat="44.18586" lon="6.63384">
        <ele>1349</ele>
        <time>2020-03-21T14:50:15.882Z</time>
      </trkpt>
      <trkpt lat="44.18586" lon="6.63384">
        <ele>1349</ele>
        <time>2020-03-21T14:50:16.882Z</time>
      </trkpt>
      <trkpt lat="44.18582" lon="6.63387">
        <ele>1351</ele>
        <time>2020-03-21T14:50:17.882Z</time>
      </trkpt>
      <trkpt lat="44.1858" lon="6.63387">
        <ele>1351</ele>
        <time>2020-03-21T14:50:18.882Z</time>
      </trkpt>
      <trkpt lat="44.18565" lon="6.63383">
        <ele>1350</ele>
        <time>2020-03-21T14:50:19.882Z</time>
      </trkpt>
      <trkpt lat="44.18557" lon="6.6338">
        <ele>1350</ele>
        <time>2020-03-21T14:50:20.882Z</time>
      </trkpt>
      <trkpt lat="44.18549" lon="6.6338">
        <ele>1350</ele>
        <time>2020-03-21T14:50:21.882Z</time>
      </trkpt>
      <trkpt lat="44.18536" lon="6.6338">
        <ele>1351</ele>
        <time>2020-03-21T14:50:22.882Z</time>
      </trkpt>
      <trkpt lat="44.18527" lon="6.63382">
        <ele>1352</ele>
        <time>2020-03-21T14:50:23.882Z</time>
      </trkpt>
      <trkpt lat="44.18517" lon="6.63383">
        <ele>1353</ele>
        <time>2020-03-21T14:50:24.882Z</time>
      </trkpt>
      <trkpt lat="44.18511" lon="6.63384">
        <ele>1354</ele>
        <time>2020-03-21T14:50:25.882Z</time>
      </trkpt>
      <trkpt lat="44.18503" lon="6.63388">
        <ele>1356</ele>
        <time>2020-03-21T14:50:26.882Z</time>
      </trkpt>
      <trkpt lat="44.18493" lon="6.63394">
        <ele>1359</ele>
        <time>2020-03-21T14:50:27.882Z</time>
      </trkpt>
      <trkpt lat="44.18486" lon="6.63399">
        <ele>1361</ele>
        <time>2020-03-21T14:50:28.882Z</time>
      </trkpt>
      <trkpt lat="44.18479" lon="6.63402">
        <ele>1362</ele>
        <time>2020-03-21T14:50:29.882Z</time>
      </trkpt>
      <trkpt lat="44.18469" lon="6.6341">
        <ele>1366</ele>
        <time>2020-03-21T14:50:30.882Z</time>
      </trkpt>
      <trkpt lat="44.18456" lon="6.63419">
        <ele>1370</ele>
        <time>2020-03-21T14:50:31.882Z</time>
      </trkpt>
      <trkpt lat="44.18443" lon="6.63426">
        <ele>1373</ele>
        <time>2020-03-21T14:50:32.882Z</time>
      </trkpt>
      <trkpt lat="44.18432" lon="6.63432">
        <ele>1375</ele>
        <time>2020-03-21T14:50:33.882Z</time>
      </trkpt>
      <trkpt lat="44.18422" lon="6.63439">
        <ele>1378</ele>
        <time>2020-03-21T14:50:34.882Z</time>
      </trkpt>
      <trkpt lat="44.18413" lon="6.63444">
        <ele>1380</ele>
        <time>2020-03-21T14:50:35.882Z</time>
      </trkpt>
      <trkpt lat="44.18404" lon="6.63448">
        <ele>1383</ele>
        <time>2020-03-21T14:50:36.882Z</time>
      </trkpt>
      <trkpt lat="44.18395" lon="6.63451">
        <ele>1385</ele>
        <time>2020-03-21T14:50:37.882Z</time>
      </trkpt>
      <trkpt lat="44.18386" lon="6.63453">
        <ele>1386</ele>
        <time>2020-03-21T14:50:38.882Z</time>
      </trkpt>
      <trkpt lat="44.18382" lon="6.63452">
        <ele>1386</ele>
        <time>2020-03-21T14:50:39.882Z</time>
      </trkpt>
      <trkpt lat="44.18372" lon="6.63451">
        <ele>1387</ele>
        <time>2020-03-21T14:50:40.882Z</time>
      </trkpt>
      <trkpt lat="44.18365" lon="6.6345">
        <ele>1387</ele>
        <time>2020-03-21T14:50:41.882Z</time>
      </trkpt>
      <trkpt lat="44.18357" lon="6.63447">
        <ele>1387</ele>
        <time>2020-03-21T14:50:42.882Z</time>
      </trkpt>
      <trkpt lat="44.18347" lon="6.63444">
        <ele>1387</ele>
        <time>2020-03-21T14:50:43.882Z</time>
      </trkpt>
      <trkpt lat="44.18337" lon="6.63441">
        <ele>1387</ele>
        <time>2020-03-21T14:50:44.882Z</time>
      </trkpt>
      <trkpt lat="44.1833" lon="6.6344">
        <ele>1387</ele>
        <time>2020-03-21T14:50:45.882Z</time>
      </trkpt>
      <trkpt lat="44.1832" lon="6.63437">
        <ele>1388</ele>
        <time>2020-03-21T14:50:46.882Z</time>
      </trkpt>
      <trkpt lat="44.18311" lon="6.63435">
        <ele>1388</ele>
        <time>2020-03-21T14:50:47.882Z</time>
      </trkpt>
      <trkpt lat="44.18303" lon="6.63433">
        <ele>1388</ele>
        <time>2020-03-21T14:50:48.882Z</time>
      </trkpt>
      <trkpt lat="44.18293" lon="6.6343">
        <ele>1388</ele>
        <time>2020-03-21T14:50:49.882Z</time>
      </trkpt>
      <trkpt lat="44.18279" lon="6.63424">
        <ele>1388</ele>
        <time>2020-03-21T14:50:50.882Z</time>
      </trkpt>
      <trkpt lat="44.18272" lon="6.63421">
        <ele>1388</ele>
        <time>2020-03-21T14:50:51.882Z</time>
      </trkpt>
      <trkpt lat="44.18261" lon="6.63415">
        <ele>1387</ele>
        <time>2020-03-21T14:50:52.882Z</time>
      </trkpt>
      <trkpt lat="44.18255" lon="6.63414">
        <ele>1387</ele>
        <time>2020-03-21T14:50:53.882Z</time>
      </trkpt>
      <trkpt lat="44.18245" lon="6.63413">
        <ele>1387</ele>
        <time>2020-03-21T14:50:54.882Z</time>
      </trkpt>
      <trkpt lat="44.18231" lon="6.6341">
        <ele>1385</ele>
        <time>2020-03-21T14:50:55.882Z</time>
      </trkpt>
      <trkpt lat="44.18221" lon="6.63407">
        <ele>1384</ele>
        <time>2020-03-21T14:50:56.882Z</time>
      </trkpt>
      <trkpt lat="44.18209" lon="6.63407">
        <ele>1384</ele>
        <time>2020-03-21T14:50:57.882Z</time>
      </trkpt>
      <trkpt lat="44.18201" lon="6.63407">
        <ele>1384</ele>
        <time>2020-03-21T14:50:58.882Z</time>
      </trkpt>
      <trkpt lat="44.18196" lon="6.63408">
        <ele>1384</ele>
        <time>2020-03-21T14:50:59.882Z</time>
      </trkpt>
      <trkpt lat="44.18185" lon="6.63415">
        <ele>1388</ele>
        <time>2020-03-21T14:51:00.882Z</time>
      </trkpt>
      <trkpt lat="44.18182" lon="6.63417">
        <ele>1389</ele>
        <time>2020-03-21T14:51:01.882Z</time>
      </trkpt>
      <trkpt lat="44.1817" lon="6.63424">
        <ele>1392</ele>
        <time>2020-03-21T14:51:02.882Z</time>
      </trkpt>
      <trkpt lat="44.18158" lon="6.63435">
        <ele>1394</ele>
        <time>2020-03-21T14:51:03.882Z</time>
      </trkpt>
      <trkpt lat="44.18148" lon="6.63443">
        <ele>1395</ele>
        <time>2020-03-21T14:51:04.882Z</time>
      </trkpt>
      <trkpt lat="44.18146" lon="6.63444">
        <ele>1395</ele>
        <time>2020-03-21T14:51:05.882Z</time>
      </trkpt>
      <trkpt lat="44.18141" lon="6.63447">
        <ele>1396</ele>
        <time>2020-03-21T14:51:06.882Z</time>
      </trkpt>
      <trkpt lat="44.1814" lon="6.63456">
        <ele>1399</ele>
        <time>2020-03-21T14:51:07.882Z</time>
      </trkpt>
      <trkpt lat="44.18145" lon="6.63457">
        <ele>1400</ele>
        <time>2020-03-21T14:51:08.882Z</time>
      </trkpt>
      <trkpt lat="44.18158" lon="6.63447">
        <ele>1399</ele>
        <time>2020-03-21T14:51:09.882Z</time>
      </trkpt>
      <trkpt lat="44.18169" lon="6.63445">
        <ele>1399</ele>
        <time>2020-03-21T14:51:10.882Z</time>
      </trkpt>
      <trkpt lat="44.18179" lon="6.63445">
        <ele>1399</ele>
        <time>2020-03-21T14:51:11.882Z</time>
      </trkpt>
      <trkpt lat="44.18191" lon="6.6345">
        <ele>1401</ele>
        <time>2020-03-21T14:51:12.882Z</time>
      </trkpt>
      <trkpt lat="44.182" lon="6.63456">
        <ele>1403</ele>
        <time>2020-03-21T14:51:13.882Z</time>
      </trkpt>
      <trkpt lat="44.18209" lon="6.63466">
        <ele>1406</ele>
        <time>2020-03-21T14:51:14.882Z</time>
      </trkpt>
      <trkpt lat="44.18215" lon="6.63473">
        <ele>1408</ele>
        <time>2020-03-21T14:51:15.882Z</time>
      </trkpt>
      <trkpt lat="44.18228" lon="6.63484">
        <ele>1412</ele>
        <time>2020-03-21T14:51:16.882Z</time>
      </trkpt>
      <trkpt lat="44.18239" lon="6.63486">
        <ele>1413</ele>
        <time>2020-03-21T14:51:17.882Z</time>
      </trkpt>
      <trkpt lat="44.18255" lon="6.63486">
        <ele>1412</ele>
        <time>2020-03-21T14:51:18.882Z</time>
      </trkpt>
      <trkpt lat="44.18266" lon="6.63487">
        <ele>1411</ele>
        <time>2020-03-21T14:51:19.882Z</time>
      </trkpt>
      <trkpt lat="44.18277" lon="6.63491">
        <ele>1411</ele>
        <time>2020-03-21T14:51:20.882Z</time>
      </trkpt>
      <trkpt lat="44.18288" lon="6.63497">
        <ele>1411</ele>
        <time>2020-03-21T14:51:21.882Z</time>
      </trkpt>
      <trkpt lat="44.18298" lon="6.63504">
        <ele>1412</ele>
        <time>2020-03-21T14:51:22.882Z</time>
      </trkpt>
      <trkpt lat="44.18312" lon="6.63515">
        <ele>1414</ele>
        <time>2020-03-21T14:51:23.882Z</time>
      </trkpt>
      <trkpt lat="44.18323" lon="6.63529">
        <ele>1417</ele>
        <time>2020-03-21T14:51:24.882Z</time>
      </trkpt>
      <trkpt lat="44.18331" lon="6.63542">
        <ele>1420</ele>
        <time>2020-03-21T14:51:25.882Z</time>
      </trkpt>
      <trkpt lat="44.18338" lon="6.6355">
        <ele>1422</ele>
        <time>2020-03-21T14:51:26.882Z</time>
      </trkpt>
      <trkpt lat="44.18349" lon="6.63559">
        <ele>1424</ele>
        <time>2020-03-21T14:51:27.882Z</time>
      </trkpt>
      <trkpt lat="44.18364" lon="6.63566">
        <ele>1425</ele>
        <time>2020-03-21T14:51:28.882Z</time>
      </trkpt>
      <trkpt lat="44.18376" lon="6.63571">
        <ele>1426</ele>
        <time>2020-03-21T14:51:29.882Z</time>
      </trkpt>
      <trkpt lat="44.18386" lon="6.63574">
        <ele>1426</ele>
        <time>2020-03-21T14:51:30.882Z</time>
      </trkpt>
      <trkpt lat="44.18398" lon="6.63581">
        <ele>1427</ele>
        <time>2020-03-21T14:51:31.882Z</time>
      </trkpt>
      <trkpt lat="44.1841" lon="6.63587">
        <ele>1428</ele>
        <time>2020-03-21T14:51:32.882Z</time>
      </trkpt>
      <trkpt lat="44.18425" lon="6.63592">
        <ele>1429</ele>
        <time>2020-03-21T14:51:33.882Z</time>
      </trkpt>
      <trkpt lat="44.18437" lon="6.63595">
        <ele>1429</ele>
        <time>2020-03-21T14:51:34.882Z</time>
      </trkpt>
      <trkpt lat="44.18451" lon="6.63597">
        <ele>1430</ele>
        <time>2020-03-21T14:51:35.882Z</time>
      </trkpt>
      <trkpt lat="44.18461" lon="6.636">
        <ele>1430</ele>
        <time>2020-03-21T14:51:36.882Z</time>
      </trkpt>
      <trkpt lat="44.18479" lon="6.63605">
        <ele>1431</ele>
        <time>2020-03-21T14:51:37.882Z</time>
      </trkpt>
      <trkpt lat="44.18494" lon="6.63611">
        <ele>1432</ele>
        <time>2020-03-21T14:51:38.882Z</time>
      </trkpt>
      <trkpt lat="44.18507" lon="6.63618">
        <ele>1433</ele>
        <time>2020-03-21T14:51:39.882Z</time>
      </trkpt>
      <trkpt lat="44.18518" lon="6.63633">
        <ele>1436</ele>
        <time>2020-03-21T14:51:40.882Z</time>
      </trkpt>
      <trkpt lat="44.18528" lon="6.63648">
        <ele>1438</ele>
        <time>2020-03-21T14:51:41.882Z</time>
      </trkpt>
      <trkpt lat="44.18531" lon="6.63657">
        <ele>1440</ele>
        <time>2020-03-21T14:51:42.882Z</time>
      </trkpt>
      <trkpt lat="44.18525" lon="6.6366">
        <ele>1442</ele>
        <time>2020-03-21T14:51:43.882Z</time>
      </trkpt>
      <trkpt lat="44.18522" lon="6.63657">
        <ele>1442</ele>
        <time>2020-03-21T14:51:44.882Z</time>
      </trkpt>
      <trkpt lat="44.18509" lon="6.6365">
        <ele>1442</ele>
        <time>2020-03-21T14:51:45.882Z</time>
      </trkpt>
      <trkpt lat="44.18495" lon="6.6365">
        <ele>1444</ele>
        <time>2020-03-21T14:51:46.882Z</time>
      </trkpt>
      <trkpt lat="44.18482" lon="6.63649">
        <ele>1445</ele>
        <time>2020-03-21T14:51:47.882Z</time>
      </trkpt>
      <trkpt lat="44.18469" lon="6.63647">
        <ele>1445</ele>
        <time>2020-03-21T14:51:48.882Z</time>
      </trkpt>
      <trkpt lat="44.18453" lon="6.63652">
        <ele>1447</ele>
        <time>2020-03-21T14:51:49.882Z</time>
      </trkpt>
      <trkpt lat="44.18437" lon="6.6366">
        <ele>1450</ele>
        <time>2020-03-21T14:51:50.882Z</time>
      </trkpt>
      <trkpt lat="44.18425" lon="6.63661">
        <ele>1452</ele>
        <time>2020-03-21T14:51:51.882Z</time>
      </trkpt>
      <trkpt lat="44.18409" lon="6.63657">
        <ele>1451</ele>
        <time>2020-03-21T14:51:52.882Z</time>
      </trkpt>
      <trkpt lat="44.18399" lon="6.63651">
        <ele>1451</ele>
        <time>2020-03-21T14:51:53.882Z</time>
      </trkpt>
      <trkpt lat="44.18382" lon="6.63646">
        <ele>1451</ele>
        <time>2020-03-21T14:51:54.882Z</time>
      </trkpt>
      <trkpt lat="44.18368" lon="6.63645">
        <ele>1452</ele>
        <time>2020-03-21T14:51:55.882Z</time>
      </trkpt>
      <trkpt lat="44.18355" lon="6.63645">
        <ele>1453</ele>
        <time>2020-03-21T14:51:56.882Z</time>
      </trkpt>
      <trkpt lat="44.18343" lon="6.63645">
        <ele>1455</ele>
        <time>2020-03-21T14:51:57.882Z</time>
      </trkpt>
      <trkpt lat="44.18329" lon="6.63646">
        <ele>1457</ele>
        <time>2020-03-21T14:51:58.882Z</time>
      </trkpt>
      <trkpt lat="44.18316" lon="6.63648">
        <ele>1459</ele>
        <time>2020-03-21T14:51:59.882Z</time>
      </trkpt>
      <trkpt lat="44.18298" lon="6.63654">
        <ele>1462</ele>
        <time>2020-03-21T14:52:00.882Z</time>
      </trkpt>
      <trkpt lat="44.18283" lon="6.63662">
        <ele>1466</ele>
        <time>2020-03-21T14:52:01.882Z</time>
      </trkpt>
      <trkpt lat="44.1827" lon="6.63668">
        <ele>1470</ele>
        <time>2020-03-21T14:52:02.882Z</time>
      </trkpt>
      <trkpt lat="44.1826" lon="6.63672">
        <ele>1472</ele>
        <time>2020-03-21T14:52:03.882Z</time>
      </trkpt>
      <trkpt lat="44.18247" lon="6.63677">
        <ele>1475</ele>
        <time>2020-03-21T14:52:04.882Z</time>
      </trkpt>
      <trkpt lat="44.18234" lon="6.63678">
        <ele>1476</ele>
        <time>2020-03-21T14:52:05.882Z</time>
      </trkpt>
      <trkpt lat="44.18218" lon="6.63675">
        <ele>1477</ele>
        <time>2020-03-21T14:52:06.882Z</time>
      </trkpt>
      <trkpt lat="44.18215" lon="6.63685">
        <ele>1481</ele>
        <time>2020-03-21T14:52:07.882Z</time>
      </trkpt>
      <trkpt lat="44.18217" lon="6.63687">
        <ele>1481</ele>
        <time>2020-03-21T14:52:08.882Z</time>
      </trkpt>
      <trkpt lat="44.18232" lon="6.63698">
        <ele>1483</ele>
        <time>2020-03-21T14:52:09.882Z</time>
      </trkpt>
      <trkpt lat="44.18246" lon="6.63701">
        <ele>1483</ele>
        <time>2020-03-21T14:52:10.882Z</time>
      </trkpt>
      <trkpt lat="44.18258" lon="6.63702">
        <ele>1482</ele>
        <time>2020-03-21T14:52:11.882Z</time>
      </trkpt>
      <trkpt lat="44.1827" lon="6.63707">
        <ele>1483</ele>
        <time>2020-03-21T14:52:12.882Z</time>
      </trkpt>
      <trkpt lat="44.18284" lon="6.63712">
        <ele>1483</ele>
        <time>2020-03-21T14:52:13.882Z</time>
      </trkpt>
      <trkpt lat="44.18297" lon="6.63716">
        <ele>1483</ele>
        <time>2020-03-21T14:52:14.882Z</time>
      </trkpt>
      <trkpt lat="44.1831" lon="6.63717">
        <ele>1482</ele>
        <time>2020-03-21T14:52:15.882Z</time>
      </trkpt>
      <trkpt lat="44.18324" lon="6.63718">
        <ele>1482</ele>
        <time>2020-03-21T14:52:16.882Z</time>
      </trkpt>
      <trkpt lat="44.18337" lon="6.63717">
        <ele>1480</ele>
        <time>2020-03-21T14:52:17.882Z</time>
      </trkpt>
      <trkpt lat="44.18351" lon="6.6372">
        <ele>1479</ele>
        <time>2020-03-21T14:52:18.882Z</time>
      </trkpt>
      <trkpt lat="44.18366" lon="6.63729">
        <ele>1480</ele>
        <time>2020-03-21T14:52:19.882Z</time>
      </trkpt>
      <trkpt lat="44.18381" lon="6.63744">
        <ele>1483</ele>
        <time>2020-03-21T14:52:20.882Z</time>
      </trkpt>
      <trkpt lat="44.18389" lon="6.63756">
        <ele>1485</ele>
        <time>2020-03-21T14:52:21.882Z</time>
      </trkpt>
      <trkpt lat="44.18384" lon="6.6376">
        <ele>1486</ele>
        <time>2020-03-21T14:52:22.882Z</time>
      </trkpt>
      <trkpt lat="44.18382" lon="6.63759">
        <ele>1486</ele>
        <time>2020-03-21T14:52:23.882Z</time>
      </trkpt>
      <trkpt lat="44.18368" lon="6.63749">
        <ele>1486</ele>
        <time>2020-03-21T14:52:24.882Z</time>
      </trkpt>
      <trkpt lat="44.1835" lon="6.63747">
        <ele>1488</ele>
        <time>2020-03-21T14:52:25.882Z</time>
      </trkpt>
      <trkpt lat="44.18336" lon="6.63752">
        <ele>1491</ele>
        <time>2020-03-21T14:52:26.882Z</time>
      </trkpt>
      <trkpt lat="44.18324" lon="6.63757">
        <ele>1494</ele>
        <time>2020-03-21T14:52:27.882Z</time>
      </trkpt>
      <trkpt lat="44.18313" lon="6.63761">
        <ele>1496</ele>
        <time>2020-03-21T14:52:28.882Z</time>
      </trkpt>
      <trkpt lat="44.18303" lon="6.63764">
        <ele>1497</ele>
        <time>2020-03-21T14:52:29.882Z</time>
      </trkpt>
      <trkpt lat="44.18291" lon="6.63768">
        <ele>1500</ele>
        <time>2020-03-21T14:52:30.882Z</time>
      </trkpt>
      <trkpt lat="44.1828" lon="6.63772">
        <ele>1502</ele>
        <time>2020-03-21T14:52:31.882Z</time>
      </trkpt>
      <trkpt lat="44.18267" lon="6.63775">
        <ele>1504</ele>
        <time>2020-03-21T14:52:32.882Z</time>
      </trkpt>
      <trkpt lat="44.18255" lon="6.63777">
        <ele>1505</ele>
        <time>2020-03-21T14:52:33.882Z</time>
      </trkpt>
      <trkpt lat="44.18243" lon="6.63777">
        <ele>1507</ele>
        <time>2020-03-21T14:52:34.882Z</time>
      </trkpt>
      <trkpt lat="44.18224" lon="6.63777">
        <ele>1510</ele>
        <time>2020-03-21T14:52:35.882Z</time>
      </trkpt>
      <trkpt lat="44.18211" lon="6.63767">
        <ele>1509</ele>
        <time>2020-03-21T14:52:36.882Z</time>
      </trkpt>
      <trkpt lat="44.182" lon="6.63748">
        <ele>1506</ele>
        <time>2020-03-21T14:52:37.882Z</time>
      </trkpt>
      <trkpt lat="44.18186" lon="6.63736">
        <ele>1504</ele>
        <time>2020-03-21T14:52:38.882Z</time>
      </trkpt>
      <trkpt lat="44.18163" lon="6.63725">
        <ele>1502</ele>
        <time>2020-03-21T14:52:39.882Z</time>
      </trkpt>
      <trkpt lat="44.18145" lon="6.6372">
        <ele>1504</ele>
        <time>2020-03-21T14:52:40.882Z</time>
      </trkpt>
      <trkpt lat="44.1813" lon="6.63717">
        <ele>1506</ele>
        <time>2020-03-21T14:52:41.882Z</time>
      </trkpt>
      <trkpt lat="44.18113" lon="6.6371">
        <ele>1506</ele>
        <time>2020-03-21T14:52:42.882Z</time>
      </trkpt>
      <trkpt lat="44.1811" lon="6.63711">
        <ele>1508</ele>
        <time>2020-03-21T14:52:43.882Z</time>
      </trkpt>
      <trkpt lat="44.18097" lon="6.63708">
        <ele>1509</ele>
        <time>2020-03-21T14:52:44.882Z</time>
      </trkpt>
      <trkpt lat="44.18076" lon="6.637">
        <ele>1511</ele>
        <time>2020-03-21T14:52:45.882Z</time>
      </trkpt>
      <trkpt lat="44.18057" lon="6.63695">
        <ele>1514</ele>
        <time>2020-03-21T14:52:46.882Z</time>
      </trkpt>
      <trkpt lat="44.18046" lon="6.6369">
        <ele>1515</ele>
        <time>2020-03-21T14:52:47.882Z</time>
      </trkpt>
      <trkpt lat="44.18045" lon="6.6369">
        <ele>1516</ele>
        <time>2020-03-21T14:52:48.882Z</time>
      </trkpt>
      <trkpt lat="44.18035" lon="6.63696">
        <ele>1520</ele>
        <time>2020-03-21T14:52:49.882Z</time>
      </trkpt>
      <trkpt lat="44.18032" lon="6.63706">
        <ele>1524</ele>
        <time>2020-03-21T14:52:50.882Z</time>
      </trkpt>
      <trkpt lat="44.18033" lon="6.63722">
        <ele>1529</ele>
        <time>2020-03-21T14:52:51.882Z</time>
      </trkpt>
      <trkpt lat="44.18036" lon="6.6374">
        <ele>1534</ele>
        <time>2020-03-21T14:52:52.882Z</time>
      </trkpt>
      <trkpt lat="44.1804" lon="6.63755">
        <ele>1538</ele>
        <time>2020-03-21T14:52:53.882Z</time>
      </trkpt>
      <trkpt lat="44.18045" lon="6.63777">
        <ele>1541</ele>
        <time>2020-03-21T14:52:54.882Z</time>
      </trkpt>
      <trkpt lat="44.18047" lon="6.63792">
        <ele>1544</ele>
        <time>2020-03-21T14:52:55.882Z</time>
      </trkpt>
      <trkpt lat="44.18054" lon="6.63814">
        <ele>1547</ele>
        <time>2020-03-21T14:52:56.882Z</time>
      </trkpt>
      <trkpt lat="44.1806" lon="6.63831">
        <ele>1549</ele>
        <time>2020-03-21T14:52:57.882Z</time>
      </trkpt>
      <trkpt lat="44.18065" lon="6.63844">
        <ele>1550</ele>
        <time>2020-03-21T14:52:58.882Z</time>
      </trkpt>
      <trkpt lat="44.18077" lon="6.63857">
        <ele>1551</ele>
        <time>2020-03-21T14:52:59.882Z</time>
      </trkpt>
      <trkpt lat="44.18089" lon="6.63863">
        <ele>1549</ele>
        <time>2020-03-21T14:53:00.882Z</time>
      </trkpt>
      <trkpt lat="44.18098" lon="6.6387">
        <ele>1550</ele>
        <time>2020-03-21T14:53:01.882Z</time>
      </trkpt>
      <trkpt lat="44.1811" lon="6.63877">
        <ele>1549</ele>
        <time>2020-03-21T14:53:02.882Z</time>
      </trkpt>
      <trkpt lat="44.18121" lon="6.63885">
        <ele>1549</ele>
        <time>2020-03-21T14:53:03.882Z</time>
      </trkpt>
      <trkpt lat="44.18131" lon="6.6389">
        <ele>1549</ele>
        <time>2020-03-21T14:53:04.882Z</time>
      </trkpt>
      <trkpt lat="44.18143" lon="6.63898">
        <ele>1548</ele>
        <time>2020-03-21T14:53:05.882Z</time>
      </trkpt>
      <trkpt lat="44.18157" lon="6.63908">
        <ele>1547</ele>
        <time>2020-03-21T14:53:06.882Z</time>
      </trkpt>
      <trkpt lat="44.18171" lon="6.63926">
        <ele>1548</ele>
        <time>2020-03-21T14:53:07.882Z</time>
      </trkpt>
      <trkpt lat="44.1818" lon="6.63941">
        <ele>1548</ele>
        <time>2020-03-21T14:53:08.882Z</time>
      </trkpt>
      <trkpt lat="44.18191" lon="6.63962">
        <ele>1550</ele>
        <time>2020-03-21T14:53:09.882Z</time>
      </trkpt>
      <trkpt lat="44.18192" lon="6.63974">
        <ele>1551</ele>
        <time>2020-03-21T14:53:10.882Z</time>
      </trkpt>
      <trkpt lat="44.18186" lon="6.63994">
        <ele>1555</ele>
        <time>2020-03-21T14:53:11.882Z</time>
      </trkpt>
      <trkpt lat="44.18186" lon="6.64009">
        <ele>1557</ele>
        <time>2020-03-21T14:53:12.882Z</time>
      </trkpt>
      <trkpt lat="44.18184" lon="6.6402">
        <ele>1560</ele>
        <time>2020-03-21T14:53:13.882Z</time>
      </trkpt>
      <trkpt lat="44.18179" lon="6.64035">
        <ele>1563</ele>
        <time>2020-03-21T14:53:14.882Z</time>
      </trkpt>
      <trkpt lat="44.18174" lon="6.64033">
        <ele>1564</ele>
        <time>2020-03-21T14:53:15.882Z</time>
      </trkpt>
      <trkpt lat="44.18173" lon="6.64017">
        <ele>1561</ele>
        <time>2020-03-21T14:53:16.882Z</time>
      </trkpt>
      <trkpt lat="44.18171" lon="6.64">
        <ele>1558</ele>
        <time>2020-03-21T14:53:17.882Z</time>
      </trkpt>
      <trkpt lat="44.18165" lon="6.63981">
        <ele>1557</ele>
        <time>2020-03-21T14:53:18.882Z</time>
      </trkpt>
      <trkpt lat="44.18159" lon="6.63969">
        <ele>1557</ele>
        <time>2020-03-21T14:53:19.882Z</time>
      </trkpt>
      <trkpt lat="44.18147" lon="6.63951">
        <ele>1557</ele>
        <time>2020-03-21T14:53:20.882Z</time>
      </trkpt>
      <trkpt lat="44.1813" lon="6.63938">
        <ele>1559</ele>
        <time>2020-03-21T14:53:21.882Z</time>
      </trkpt>
      <trkpt lat="44.18109" lon="6.63925">
        <ele>1561</ele>
        <time>2020-03-21T14:53:22.882Z</time>
      </trkpt>
      <trkpt lat="44.18098" lon="6.63918">
        <ele>1561</ele>
        <time>2020-03-21T14:53:23.882Z</time>
      </trkpt>
      <trkpt lat="44.18095" lon="6.63928">
        <ele>1565</ele>
        <time>2020-03-21T14:53:24.882Z</time>
      </trkpt>
      <trkpt lat="44.18099" lon="6.63934">
        <ele>1566</ele>
        <time>2020-03-21T14:53:25.882Z</time>
      </trkpt>
      <trkpt lat="44.1811" lon="6.63952">
        <ele>1567</ele>
        <time>2020-03-21T14:53:26.882Z</time>
      </trkpt>
      <trkpt lat="44.18117" lon="6.63966">
        <ele>1569</ele>
        <time>2020-03-21T14:53:27.882Z</time>
      </trkpt>
      <trkpt lat="44.1812" lon="6.63979">
        <ele>1571</ele>
        <time>2020-03-21T14:53:28.882Z</time>
      </trkpt>
      <trkpt lat="44.18121" lon="6.63991">
        <ele>1573</ele>
        <time>2020-03-21T14:53:29.882Z</time>
      </trkpt>
      <trkpt lat="44.18122" lon="6.64012">
        <ele>1577</ele>
        <time>2020-03-21T14:53:30.882Z</time>
      </trkpt>
      <trkpt lat="44.18123" lon="6.64024">
        <ele>1580</ele>
        <time>2020-03-21T14:53:31.882Z</time>
      </trkpt>
      <trkpt lat="44.18126" lon="6.64042">
        <ele>1582</ele>
        <time>2020-03-21T14:53:32.882Z</time>
      </trkpt>
      <trkpt lat="44.1813" lon="6.64052">
        <ele>1583</ele>
        <time>2020-03-21T14:53:33.882Z</time>
      </trkpt>
      <trkpt lat="44.18135" lon="6.64061">
        <ele>1582</ele>
        <time>2020-03-21T14:53:34.882Z</time>
      </trkpt>
      <trkpt lat="44.18147" lon="6.64079">
        <ele>1581</ele>
        <time>2020-03-21T14:53:35.882Z</time>
      </trkpt>
      <trkpt lat="44.18155" lon="6.64094">
        <ele>1582</ele>
        <time>2020-03-21T14:53:36.882Z</time>
      </trkpt>
      <trkpt lat="44.18162" lon="6.64112">
        <ele>1584</ele>
        <time>2020-03-21T14:53:37.882Z</time>
      </trkpt>
      <trkpt lat="44.18169" lon="6.6413">
        <ele>1586</ele>
        <time>2020-03-21T14:53:38.882Z</time>
      </trkpt>
      <trkpt lat="44.18175" lon="6.6415">
        <ele>1591</ele>
        <time>2020-03-21T14:53:39.882Z</time>
      </trkpt>
      <trkpt lat="44.18184" lon="6.64172">
        <ele>1595</ele>
        <time>2020-03-21T14:53:40.882Z</time>
      </trkpt>
      <trkpt lat="44.18195" lon="6.64186">
        <ele>1597</ele>
        <time>2020-03-21T14:53:41.882Z</time>
      </trkpt>
      <trkpt lat="44.18205" lon="6.64196">
        <ele>1597</ele>
        <time>2020-03-21T14:53:42.882Z</time>
      </trkpt>
      <trkpt lat="44.18218" lon="6.6421">
        <ele>1597</ele>
        <time>2020-03-21T14:53:43.882Z</time>
      </trkpt>
      <trkpt lat="44.18229" lon="6.64221">
        <ele>1597</ele>
        <time>2020-03-21T14:53:44.882Z</time>
      </trkpt>
      <trkpt lat="44.18239" lon="6.64227">
        <ele>1596</ele>
        <time>2020-03-21T14:53:45.882Z</time>
      </trkpt>
      <trkpt lat="44.18254" lon="6.64237">
        <ele>1594</ele>
        <time>2020-03-21T14:53:46.882Z</time>
      </trkpt>
      <trkpt lat="44.18265" lon="6.64251">
        <ele>1597</ele>
        <time>2020-03-21T14:53:47.882Z</time>
      </trkpt>
      <trkpt lat="44.18276" lon="6.64273">
        <ele>1602</ele>
        <time>2020-03-21T14:53:48.882Z</time>
      </trkpt>
      <trkpt lat="44.18288" lon="6.64286">
        <ele>1605</ele>
        <time>2020-03-21T14:53:49.882Z</time>
      </trkpt>
      <trkpt lat="44.18301" lon="6.64298">
        <ele>1607</ele>
        <time>2020-03-21T14:53:50.882Z</time>
      </trkpt>
      <trkpt lat="44.18313" lon="6.64302">
        <ele>1608</ele>
        <time>2020-03-21T14:53:51.882Z</time>
      </trkpt>
      <trkpt lat="44.1833" lon="6.64298">
        <ele>1606</ele>
        <time>2020-03-21T14:53:52.882Z</time>
      </trkpt>
      <trkpt lat="44.18352" lon="6.64283">
        <ele>1604</ele>
        <time>2020-03-21T14:53:53.882Z</time>
      </trkpt>
      <trkpt lat="44.18369" lon="6.64273">
        <ele>1603</ele>
        <time>2020-03-21T14:53:54.882Z</time>
      </trkpt>
      <trkpt lat="44.18384" lon="6.6427">
        <ele>1604</ele>
        <time>2020-03-21T14:53:55.882Z</time>
      </trkpt>
      <trkpt lat="44.18408" lon="6.6427">
        <ele>1606</ele>
        <time>2020-03-21T14:53:56.882Z</time>
      </trkpt>
      <trkpt lat="44.1842" lon="6.64276">
        <ele>1608</ele>
        <time>2020-03-21T14:53:57.882Z</time>
      </trkpt>
      <trkpt lat="44.18432" lon="6.64286">
        <ele>1609</ele>
        <time>2020-03-21T14:53:58.882Z</time>
      </trkpt>
      <trkpt lat="44.1844" lon="6.64305">
        <ele>1612</ele>
        <time>2020-03-21T14:53:59.882Z</time>
      </trkpt>
      <trkpt lat="44.1844" lon="6.64327">
        <ele>1616</ele>
        <time>2020-03-21T14:54:00.882Z</time>
      </trkpt>
      <trkpt lat="44.18439" lon="6.64344">
        <ele>1620</ele>
        <time>2020-03-21T14:54:01.882Z</time>
      </trkpt>
      <trkpt lat="44.18434" lon="6.64368">
        <ele>1626</ele>
        <time>2020-03-21T14:54:02.882Z</time>
      </trkpt>
      <trkpt lat="44.18435" lon="6.64371">
        <ele>1626</ele>
        <time>2020-03-21T14:54:03.882Z</time>
      </trkpt>
      <trkpt lat="44.18445" lon="6.6439">
        <ele>1629</ele>
        <time>2020-03-21T14:54:04.882Z</time>
      </trkpt>
      <trkpt lat="44.18458" lon="6.64412">
        <ele>1631</ele>
        <time>2020-03-21T14:54:05.882Z</time>
      </trkpt>
      <trkpt lat="44.1847" lon="6.6443">
        <ele>1633</ele>
        <time>2020-03-21T14:54:06.882Z</time>
      </trkpt>
      <trkpt lat="44.18481" lon="6.64438">
        <ele>1634</ele>
        <time>2020-03-21T14:54:07.882Z</time>
      </trkpt>
      <trkpt lat="44.18492" lon="6.64442">
        <ele>1633</ele>
        <time>2020-03-21T14:54:08.882Z</time>
      </trkpt>
      <trkpt lat="44.18506" lon="6.64439">
        <ele>1631</ele>
        <time>2020-03-21T14:54:09.882Z</time>
      </trkpt>
      <trkpt lat="44.18524" lon="6.64439">
        <ele>1629</ele>
        <time>2020-03-21T14:54:10.882Z</time>
      </trkpt>
      <trkpt lat="44.18538" lon="6.64441">
        <ele>1628</ele>
        <time>2020-03-21T14:54:11.882Z</time>
      </trkpt>
      <trkpt lat="44.18554" lon="6.64443">
        <ele>1627</ele>
        <time>2020-03-21T14:54:12.882Z</time>
      </trkpt>
      <trkpt lat="44.18563" lon="6.64454">
        <ele>1628</ele>
        <time>2020-03-21T14:54:13.882Z</time>
      </trkpt>
      <trkpt lat="44.18565" lon="6.64472">
        <ele>1631</ele>
        <time>2020-03-21T14:54:14.882Z</time>
      </trkpt>
      <trkpt lat="44.18563" lon="6.64492">
        <ele>1635</ele>
        <time>2020-03-21T14:54:15.882Z</time>
      </trkpt>
      <trkpt lat="44.18562" lon="6.64519">
        <ele>1639</ele>
        <time>2020-03-21T14:54:16.882Z</time>
      </trkpt>
      <trkpt lat="44.18562" lon="6.6454">
        <ele>1643</ele>
        <time>2020-03-21T14:54:17.882Z</time>
      </trkpt>
      <trkpt lat="44.1856" lon="6.64561">
        <ele>1646</ele>
        <time>2020-03-21T14:54:18.882Z</time>
      </trkpt>
      <trkpt lat="44.18562" lon="6.64581">
        <ele>1649</ele>
        <time>2020-03-21T14:54:19.882Z</time>
      </trkpt>
      <trkpt lat="44.18563" lon="6.64599">
        <ele>1650</ele>
        <time>2020-03-21T14:54:20.882Z</time>
      </trkpt>
      <trkpt lat="44.18563" lon="6.64626">
        <ele>1653</ele>
        <time>2020-03-21T14:54:21.882Z</time>
      </trkpt>
      <trkpt lat="44.18563" lon="6.64645">
        <ele>1655</ele>
        <time>2020-03-21T14:54:22.882Z</time>
      </trkpt>
      <trkpt lat="44.18561" lon="6.64673">
        <ele>1659</ele>
        <time>2020-03-21T14:54:23.882Z</time>
      </trkpt>
      <trkpt lat="44.18559" lon="6.64698">
        <ele>1662</ele>
        <time>2020-03-21T14:54:24.882Z</time>
      </trkpt>
      <trkpt lat="44.18556" lon="6.6472">
        <ele>1665</ele>
        <time>2020-03-21T14:54:25.882Z</time>
      </trkpt>
      <trkpt lat="44.18555" lon="6.64739">
        <ele>1667</ele>
        <time>2020-03-21T14:54:26.882Z</time>
      </trkpt>
      <trkpt lat="44.18556" lon="6.64756">
        <ele>1668</ele>
        <time>2020-03-21T14:54:27.882Z</time>
      </trkpt>
      <trkpt lat="44.18556" lon="6.64759">
        <ele>1668</ele>
        <time>2020-03-21T14:54:28.882Z</time>
      </trkpt>
      <trkpt lat="44.18559" lon="6.64781">
        <ele>1669</ele>
        <time>2020-03-21T14:54:29.882Z</time>
      </trkpt>
      <trkpt lat="44.18559" lon="6.64803">
        <ele>1672</ele>
        <time>2020-03-21T14:54:30.882Z</time>
      </trkpt>
      <trkpt lat="44.1856" lon="6.64819">
        <ele>1673</ele>
        <time>2020-03-21T14:54:31.882Z</time>
      </trkpt>
      <trkpt lat="44.18566" lon="6.64837">
        <ele>1672</ele>
        <time>2020-03-21T14:54:32.882Z</time>
      </trkpt>
      <trkpt lat="44.18578" lon="6.64844">
        <ele>1667</ele>
        <time>2020-03-21T14:54:33.882Z</time>
      </trkpt>
      <trkpt lat="44.18587" lon="6.64858">
        <ele>1664</ele>
        <time>2020-03-21T14:54:34.882Z</time>
      </trkpt>
      <trkpt lat="44.18589" lon="6.64873">
        <ele>1665</ele>
        <time>2020-03-21T14:54:35.882Z</time>
      </trkpt>
      <trkpt lat="44.18586" lon="6.64891">
        <ele>1667</ele>
        <time>2020-03-21T14:54:36.882Z</time>
      </trkpt>
      <trkpt lat="44.18585" lon="6.64917">
        <ele>1670</ele>
        <time>2020-03-21T14:54:37.882Z</time>
      </trkpt>
      <trkpt lat="44.18586" lon="6.64934">
        <ele>1671</ele>
        <time>2020-03-21T14:54:38.882Z</time>
      </trkpt>
      <trkpt lat="44.18591" lon="6.64966">
        <ele>1671</ele>
        <time>2020-03-21T14:54:39.882Z</time>
      </trkpt>
      <trkpt lat="44.18603" lon="6.64976">
        <ele>1668</ele>
        <time>2020-03-21T14:54:40.882Z</time>
      </trkpt>
      <trkpt lat="44.18615" lon="6.64981">
        <ele>1664</ele>
        <time>2020-03-21T14:54:41.882Z</time>
      </trkpt>
      <trkpt lat="44.1863" lon="6.6499">
        <ele>1660</ele>
        <time>2020-03-21T14:54:42.882Z</time>
      </trkpt>
      <trkpt lat="44.18641" lon="6.64997">
        <ele>1658</ele>
        <time>2020-03-21T14:54:43.882Z</time>
      </trkpt>
      <trkpt lat="44.18653" lon="6.65012">
        <ele>1659</ele>
        <time>2020-03-21T14:54:44.882Z</time>
      </trkpt>
      <trkpt lat="44.18656" lon="6.65021">
        <ele>1661</ele>
        <time>2020-03-21T14:54:45.882Z</time>
      </trkpt>
      <trkpt lat="44.18665" lon="6.65046">
        <ele>1667</ele>
        <time>2020-03-21T14:54:46.882Z</time>
      </trkpt>
      <trkpt lat="44.18676" lon="6.65063">
        <ele>1670</ele>
        <time>2020-03-21T14:54:47.882Z</time>
      </trkpt>
      <trkpt lat="44.18686" lon="6.65077">
        <ele>1672</ele>
        <time>2020-03-21T14:54:48.882Z</time>
      </trkpt>
      <trkpt lat="44.18692" lon="6.65087">
        <ele>1673</ele>
        <time>2020-03-21T14:54:49.882Z</time>
      </trkpt>
      <trkpt lat="44.18696" lon="6.65111">
        <ele>1674</ele>
        <time>2020-03-21T14:54:50.882Z</time>
      </trkpt>
      <trkpt lat="44.18694" lon="6.65127">
        <ele>1677</ele>
        <time>2020-03-21T14:54:51.882Z</time>
      </trkpt>
      <trkpt lat="44.18694" lon="6.65152">
        <ele>1680</ele>
        <time>2020-03-21T14:54:52.882Z</time>
      </trkpt>
      <trkpt lat="44.18694" lon="6.6518">
        <ele>1683</ele>
        <time>2020-03-21T14:54:53.882Z</time>
      </trkpt>
      <trkpt lat="44.18695" lon="6.65208">
        <ele>1684</ele>
        <time>2020-03-21T14:54:54.882Z</time>
      </trkpt>
      <trkpt lat="44.18702" lon="6.65233">
        <ele>1684</ele>
        <time>2020-03-21T14:54:55.882Z</time>
      </trkpt>
      <trkpt lat="44.18708" lon="6.65263">
        <ele>1684</ele>
        <time>2020-03-21T14:54:56.882Z</time>
      </trkpt>
      <trkpt lat="44.1871" lon="6.65291">
        <ele>1685</ele>
        <time>2020-03-21T14:54:57.882Z</time>
      </trkpt>
      <trkpt lat="44.18707" lon="6.65326">
        <ele>1687</ele>
        <time>2020-03-21T14:54:58.882Z</time>
      </trkpt>
      <trkpt lat="44.18709" lon="6.65355">
        <ele>1689</ele>
        <time>2020-03-21T14:54:59.882Z</time>
      </trkpt>
      <trkpt lat="44.1872" lon="6.65369">
        <ele>1687</ele>
        <time>2020-03-21T14:55:00.882Z</time>
      </trkpt>
      <trkpt lat="44.1873" lon="6.65381">
        <ele>1686</ele>
        <time>2020-03-21T14:55:01.882Z</time>
      </trkpt>
      <trkpt lat="44.18739" lon="6.65399">
        <ele>1686</ele>
        <time>2020-03-21T14:55:02.882Z</time>
      </trkpt>
      <trkpt lat="44.18745" lon="6.65418">
        <ele>1686</ele>
        <time>2020-03-21T14:55:03.882Z</time>
      </trkpt>
      <trkpt lat="44.18751" lon="6.65436">
        <ele>1688</ele>
        <time>2020-03-21T14:55:04.882Z</time>
      </trkpt>
      <trkpt lat="44.18752" lon="6.65452">
        <ele>1690</ele>
        <time>2020-03-21T14:55:05.882Z</time>
      </trkpt>
      <trkpt lat="44.18756" lon="6.65472">
        <ele>1692</ele>
        <time>2020-03-21T14:55:06.882Z</time>
      </trkpt>
      <trkpt lat="44.18766" lon="6.65486">
        <ele>1691</ele>
        <time>2020-03-21T14:55:07.882Z</time>
      </trkpt>
      <trkpt lat="44.18775" lon="6.65498">
        <ele>1691</ele>
        <time>2020-03-21T14:55:08.882Z</time>
      </trkpt>
      <trkpt lat="44.1878" lon="6.65516">
        <ele>1691</ele>
        <time>2020-03-21T14:55:09.882Z</time>
      </trkpt>
      <trkpt lat="44.18779" lon="6.65543">
        <ele>1694</ele>
        <time>2020-03-21T14:55:10.882Z</time>
      </trkpt>
      <trkpt lat="44.18778" lon="6.65564">
        <ele>1696</ele>
        <time>2020-03-21T14:55:11.882Z</time>
      </trkpt>
      <trkpt lat="44.18772" lon="6.65582">
        <ele>1700</ele>
        <time>2020-03-21T14:55:12.882Z</time>
      </trkpt>
      <trkpt lat="44.18764" lon="6.65597">
        <ele>1703</ele>
        <time>2020-03-21T14:55:13.882Z</time>
      </trkpt>
      <trkpt lat="44.18762" lon="6.65613">
        <ele>1705</ele>
        <time>2020-03-21T14:55:14.882Z</time>
      </trkpt>
      <trkpt lat="44.18766" lon="6.65637">
        <ele>1705</ele>
        <time>2020-03-21T14:55:15.882Z</time>
      </trkpt>
      <trkpt lat="44.18766" lon="6.6566">
        <ele>1707</ele>
        <time>2020-03-21T14:55:16.882Z</time>
      </trkpt>
      <trkpt lat="44.18766" lon="6.65679">
        <ele>1708</ele>
        <time>2020-03-21T14:55:17.882Z</time>
      </trkpt>
      <trkpt lat="44.18766" lon="6.65694">
        <ele>1709</ele>
        <time>2020-03-21T14:55:18.882Z</time>
      </trkpt>
      <trkpt lat="44.18763" lon="6.65712">
        <ele>1711</ele>
        <time>2020-03-21T14:55:19.882Z</time>
      </trkpt>
      <trkpt lat="44.1876" lon="6.6573">
        <ele>1713</ele>
        <time>2020-03-21T14:55:20.882Z</time>
      </trkpt>
      <trkpt lat="44.18758" lon="6.65752">
        <ele>1715</ele>
        <time>2020-03-21T14:55:21.882Z</time>
      </trkpt>
      <trkpt lat="44.18757" lon="6.65767">
        <ele>1716</ele>
        <time>2020-03-21T14:55:22.882Z</time>
      </trkpt>
      <trkpt lat="44.18758" lon="6.65779">
        <ele>1716</ele>
        <time>2020-03-21T14:55:23.882Z</time>
      </trkpt>
      <trkpt lat="44.18758" lon="6.65798">
        <ele>1717</ele>
        <time>2020-03-21T14:55:24.882Z</time>
      </trkpt>
      <trkpt lat="44.18758" lon="6.65817">
        <ele>1718</ele>
        <time>2020-03-21T14:55:25.882Z</time>
      </trkpt>
      <trkpt lat="44.18758" lon="6.65833">
        <ele>1719</ele>
        <time>2020-03-21T14:55:26.882Z</time>
      </trkpt>
      <trkpt lat="44.18759" lon="6.65855">
        <ele>1720</ele>
        <time>2020-03-21T14:55:27.882Z</time>
      </trkpt>
      <trkpt lat="44.18761" lon="6.65866">
        <ele>1721</ele>
        <time>2020-03-21T14:55:28.882Z</time>
      </trkpt>
      <trkpt lat="44.18762" lon="6.65886">
        <ele>1722</ele>
        <time>2020-03-21T14:55:29.882Z</time>
      </trkpt>
      <trkpt lat="44.18763" lon="6.65904">
        <ele>1723</ele>
        <time>2020-03-21T14:55:30.882Z</time>
      </trkpt>
      <trkpt lat="44.18767" lon="6.65923">
        <ele>1724</ele>
        <time>2020-03-21T14:55:31.882Z</time>
      </trkpt>
      <trkpt lat="44.18775" lon="6.6594">
        <ele>1724</ele>
        <time>2020-03-21T14:55:32.882Z</time>
      </trkpt>
      <trkpt lat="44.18782" lon="6.65964">
        <ele>1725</ele>
        <time>2020-03-21T14:55:33.882Z</time>
      </trkpt>
      <trkpt lat="44.18784" lon="6.65994">
        <ele>1728</ele>
        <time>2020-03-21T14:55:34.882Z</time>
      </trkpt>
      <trkpt lat="44.18786" lon="6.66014">
        <ele>1729</ele>
        <time>2020-03-21T14:55:35.882Z</time>
      </trkpt>
      <trkpt lat="44.18793" lon="6.6603">
        <ele>1730</ele>
        <time>2020-03-21T14:55:36.882Z</time>
      </trkpt>
      <trkpt lat="44.18805" lon="6.6604">
        <ele>1729</ele>
        <time>2020-03-21T14:55:37.882Z</time>
      </trkpt>
      <trkpt lat="44.1881" lon="6.66055">
        <ele>1729</ele>
        <time>2020-03-21T14:55:38.882Z</time>
      </trkpt>
      <trkpt lat="44.18812" lon="6.66078">
        <ele>1731</ele>
        <time>2020-03-21T14:55:39.882Z</time>
      </trkpt>
      <trkpt lat="44.18815" lon="6.661">
        <ele>1733</ele>
        <time>2020-03-21T14:55:40.882Z</time>
      </trkpt>
      <trkpt lat="44.18816" lon="6.66121">
        <ele>1735</ele>
        <time>2020-03-21T14:55:41.882Z</time>
      </trkpt>
      <trkpt lat="44.18817" lon="6.66138">
        <ele>1737</ele>
        <time>2020-03-21T14:55:42.882Z</time>
      </trkpt>
      <trkpt lat="44.18814" lon="6.66158">
        <ele>1739</ele>
        <time>2020-03-21T14:55:43.882Z</time>
      </trkpt>
      <trkpt lat="44.18811" lon="6.66178">
        <ele>1742</ele>
        <time>2020-03-21T14:55:44.882Z</time>
      </trkpt>
      <trkpt lat="44.18813" lon="6.662">
        <ele>1744</ele>
        <time>2020-03-21T14:55:45.882Z</time>
      </trkpt>
      <trkpt lat="44.18821" lon="6.66218">
        <ele>1745</ele>
        <time>2020-03-21T14:55:46.882Z</time>
      </trkpt>
      <trkpt lat="44.18827" lon="6.66243">
        <ele>1746</ele>
        <time>2020-03-21T14:55:47.882Z</time>
      </trkpt>
      <trkpt lat="44.18827" lon="6.66263">
        <ele>1748</ele>
        <time>2020-03-21T14:55:48.882Z</time>
      </trkpt>
      <trkpt lat="44.18827" lon="6.66288">
        <ele>1751</ele>
        <time>2020-03-21T14:55:49.882Z</time>
      </trkpt>
      <trkpt lat="44.18828" lon="6.66307">
        <ele>1753</ele>
        <time>2020-03-21T14:55:50.882Z</time>
      </trkpt>
      <trkpt lat="44.18832" lon="6.66331">
        <ele>1754</ele>
        <time>2020-03-21T14:55:51.882Z</time>
      </trkpt>
      <trkpt lat="44.18836" lon="6.66351">
        <ele>1755</ele>
        <time>2020-03-21T14:55:52.882Z</time>
      </trkpt>
      <trkpt lat="44.18839" lon="6.66371">
        <ele>1756</ele>
        <time>2020-03-21T14:55:53.882Z</time>
      </trkpt>
      <trkpt lat="44.18842" lon="6.66394">
        <ele>1758</ele>
        <time>2020-03-21T14:55:54.882Z</time>
      </trkpt>
      <trkpt lat="44.1885" lon="6.66408">
        <ele>1757</ele>
        <time>2020-03-21T14:55:55.882Z</time>
      </trkpt>
      <trkpt lat="44.18863" lon="6.66428">
        <ele>1756</ele>
        <time>2020-03-21T14:55:56.882Z</time>
      </trkpt>
      <trkpt lat="44.18871" lon="6.66451">
        <ele>1756</ele>
        <time>2020-03-21T14:55:57.882Z</time>
      </trkpt>
      <trkpt lat="44.18872" lon="6.66474">
        <ele>1757</ele>
        <time>2020-03-21T14:55:58.882Z</time>
      </trkpt>
      <trkpt lat="44.18864" lon="6.66489">
        <ele>1760</ele>
        <time>2020-03-21T14:55:59.882Z</time>
      </trkpt>
      <trkpt lat="44.18854" lon="6.66506">
        <ele>1762</ele>
        <time>2020-03-21T14:56:00.882Z</time>
      </trkpt>
      <trkpt lat="44.18847" lon="6.6652">
        <ele>1764</ele>
        <time>2020-03-21T14:56:01.882Z</time>
      </trkpt>
      <trkpt lat="44.18838" lon="6.6654">
        <ele>1765</ele>
        <time>2020-03-21T14:56:02.882Z</time>
      </trkpt>
      <trkpt lat="44.1883" lon="6.66559">
        <ele>1766</ele>
        <time>2020-03-21T14:56:03.882Z</time>
      </trkpt>
      <trkpt lat="44.18821" lon="6.66561">
        <ele>1768</ele>
        <time>2020-03-21T14:56:04.882Z</time>
      </trkpt>
      <trkpt lat="44.18813" lon="6.66551">
        <ele>1770</ele>
        <time>2020-03-21T14:56:05.882Z</time>
      </trkpt>
      <trkpt lat="44.18803" lon="6.66534">
        <ele>1773</ele>
        <time>2020-03-21T14:56:06.882Z</time>
      </trkpt>
      <trkpt lat="44.18797" lon="6.66522">
        <ele>1774</ele>
        <time>2020-03-21T14:56:07.882Z</time>
      </trkpt>
      <trkpt lat="44.18792" lon="6.66505">
        <ele>1776</ele>
        <time>2020-03-21T14:56:08.882Z</time>
      </trkpt>
      <trkpt lat="44.18788" lon="6.66493">
        <ele>1777</ele>
        <time>2020-03-21T14:56:09.882Z</time>
      </trkpt>
      <trkpt lat="44.18786" lon="6.66478">
        <ele>1777</ele>
        <time>2020-03-21T14:56:10.882Z</time>
      </trkpt>
      <trkpt lat="44.18782" lon="6.66461">
        <ele>1777</ele>
        <time>2020-03-21T14:56:11.882Z</time>
      </trkpt>
      <trkpt lat="44.18776" lon="6.66444">
        <ele>1778</ele>
        <time>2020-03-21T14:56:12.882Z</time>
      </trkpt>
      <trkpt lat="44.18773" lon="6.66434">
        <ele>1779</ele>
        <time>2020-03-21T14:56:13.882Z</time>
      </trkpt>
      <trkpt lat="44.18769" lon="6.66421">
        <ele>1780</ele>
        <time>2020-03-21T14:56:14.882Z</time>
      </trkpt>
      <trkpt lat="44.18765" lon="6.66409">
        <ele>1780</ele>
        <time>2020-03-21T14:56:15.882Z</time>
      </trkpt>
      <trkpt lat="44.1876" lon="6.66395">
        <ele>1780</ele>
        <time>2020-03-21T14:56:16.882Z</time>
      </trkpt>
      <trkpt lat="44.18755" lon="6.66381">
        <ele>1781</ele>
        <time>2020-03-21T14:56:17.882Z</time>
      </trkpt>
      <trkpt lat="44.18748" lon="6.66365">
        <ele>1781</ele>
        <time>2020-03-21T14:56:18.882Z</time>
      </trkpt>
      <trkpt lat="44.18745" lon="6.66349">
        <ele>1781</ele>
        <time>2020-03-21T14:56:19.882Z</time>
      </trkpt>
      <trkpt lat="44.18741" lon="6.66332">
        <ele>1780</ele>
        <time>2020-03-21T14:56:20.882Z</time>
      </trkpt>
      <trkpt lat="44.18735" lon="6.66317">
        <ele>1779</ele>
        <time>2020-03-21T14:56:21.882Z</time>
      </trkpt>
      <trkpt lat="44.1872" lon="6.66301">
        <ele>1779</ele>
        <time>2020-03-21T14:56:22.882Z</time>
      </trkpt>
      <trkpt lat="44.18709" lon="6.66298">
        <ele>1781</ele>
        <time>2020-03-21T14:56:23.882Z</time>
      </trkpt>
      <trkpt lat="44.18696" lon="6.66296">
        <ele>1783</ele>
        <time>2020-03-21T14:56:24.882Z</time>
      </trkpt>
      <trkpt lat="44.18679" lon="6.66296">
        <ele>1787</ele>
        <time>2020-03-21T14:56:25.882Z</time>
      </trkpt>
      <trkpt lat="44.18668" lon="6.66298">
        <ele>1789</ele>
        <time>2020-03-21T14:56:26.882Z</time>
      </trkpt>
      <trkpt lat="44.18656" lon="6.66301">
        <ele>1793</ele>
        <time>2020-03-21T14:56:27.882Z</time>
      </trkpt>
      <trkpt lat="44.18643" lon="6.66304">
        <ele>1796</ele>
        <time>2020-03-21T14:56:28.882Z</time>
      </trkpt>
      <trkpt lat="44.18626" lon="6.66308">
        <ele>1801</ele>
        <time>2020-03-21T14:56:29.882Z</time>
      </trkpt>
      <trkpt lat="44.1861" lon="6.66307">
        <ele>1805</ele>
        <time>2020-03-21T14:56:30.882Z</time>
      </trkpt>
      <trkpt lat="44.18611" lon="6.66307">
        <ele>1805</ele>
        <time>2020-03-21T14:56:31.882Z</time>
      </trkpt>
      <trkpt lat="44.18605" lon="6.66303">
        <ele>1806</ele>
        <time>2020-03-21T14:56:32.882Z</time>
      </trkpt>
      <trkpt lat="44.18601" lon="6.66292">
        <ele>1805</ele>
        <time>2020-03-21T14:56:33.882Z</time>
      </trkpt>
      <trkpt lat="44.18594" lon="6.66277">
        <ele>1805</ele>
        <time>2020-03-21T14:56:34.882Z</time>
      </trkpt>
      <trkpt lat="44.18587" lon="6.66262">
        <ele>1805</ele>
        <time>2020-03-21T14:56:35.882Z</time>
      </trkpt>
      <trkpt lat="44.18579" lon="6.66245">
        <ele>1806</ele>
        <time>2020-03-21T14:56:36.882Z</time>
      </trkpt>
      <trkpt lat="44.18571" lon="6.66226">
        <ele>1809</ele>
        <time>2020-03-21T14:56:37.882Z</time>
      </trkpt>
      <trkpt lat="44.18564" lon="6.66204">
        <ele>1810</ele>
        <time>2020-03-21T14:56:38.882Z</time>
      </trkpt>
      <trkpt lat="44.18556" lon="6.66181">
        <ele>1812</ele>
        <time>2020-03-21T14:56:39.882Z</time>
      </trkpt>
      <trkpt lat="44.18552" lon="6.66159">
        <ele>1813</ele>
        <time>2020-03-21T14:56:40.882Z</time>
      </trkpt>
      <trkpt lat="44.18548" lon="6.66135">
        <ele>1813</ele>
        <time>2020-03-21T14:56:41.882Z</time>
      </trkpt>
      <trkpt lat="44.18544" lon="6.6612">
        <ele>1813</ele>
        <time>2020-03-21T14:56:42.882Z</time>
      </trkpt>
      <trkpt lat="44.18538" lon="6.66102">
        <ele>1814</ele>
        <time>2020-03-21T14:56:43.882Z</time>
      </trkpt>
      <trkpt lat="44.18531" lon="6.66086">
        <ele>1816</ele>
        <time>2020-03-21T14:56:44.882Z</time>
      </trkpt>
      <trkpt lat="44.18525" lon="6.66071">
        <ele>1818</ele>
        <time>2020-03-21T14:56:45.882Z</time>
      </trkpt>
      <trkpt lat="44.18516" lon="6.66046">
        <ele>1819</ele>
        <time>2020-03-21T14:56:46.882Z</time>
      </trkpt>
      <trkpt lat="44.18507" lon="6.66021">
        <ele>1820</ele>
        <time>2020-03-21T14:56:47.882Z</time>
      </trkpt>
      <trkpt lat="44.185" lon="6.66001">
        <ele>1821</ele>
        <time>2020-03-21T14:56:48.882Z</time>
      </trkpt>
      <trkpt lat="44.18494" lon="6.65982">
        <ele>1822</ele>
        <time>2020-03-21T14:56:49.882Z</time>
      </trkpt>
      <trkpt lat="44.18492" lon="6.65978">
        <ele>1822</ele>
        <time>2020-03-21T14:56:50.882Z</time>
      </trkpt>
      <trkpt lat="44.1849" lon="6.65966">
        <ele>1822</ele>
        <time>2020-03-21T14:56:51.882Z</time>
      </trkpt>
      <trkpt lat="44.18482" lon="6.6595">
        <ele>1823</ele>
        <time>2020-03-21T14:56:52.882Z</time>
      </trkpt>
      <trkpt lat="44.18473" lon="6.65936">
        <ele>1825</ele>
        <time>2020-03-21T14:56:53.882Z</time>
      </trkpt>
      <trkpt lat="44.18464" lon="6.65923">
        <ele>1828</ele>
        <time>2020-03-21T14:56:54.882Z</time>
      </trkpt>
      <trkpt lat="44.18457" lon="6.65914">
        <ele>1830</ele>
        <time>2020-03-21T14:56:55.882Z</time>
      </trkpt>
      <trkpt lat="44.18449" lon="6.65893">
        <ele>1831</ele>
        <time>2020-03-21T14:56:56.882Z</time>
      </trkpt>
      <trkpt lat="44.18441" lon="6.65885">
        <ele>1834</ele>
        <time>2020-03-21T14:56:57.882Z</time>
      </trkpt>
      <trkpt lat="44.18437" lon="6.65886">
        <ele>1836</ele>
        <time>2020-03-21T14:56:58.882Z</time>
      </trkpt>
      <trkpt lat="44.18433" lon="6.65881">
        <ele>1837</ele>
        <time>2020-03-21T14:56:59.882Z</time>
      </trkpt>
      <trkpt lat="44.18432" lon="6.65874">
        <ele>1837</ele>
        <time>2020-03-21T14:57:00.882Z</time>
      </trkpt>
      <trkpt lat="44.18424" lon="6.65864">
        <ele>1840</ele>
        <time>2020-03-21T14:57:01.882Z</time>
      </trkpt>
      <trkpt lat="44.18415" lon="6.65847">
        <ele>1843</ele>
        <time>2020-03-21T14:57:02.882Z</time>
      </trkpt>
      <trkpt lat="44.18408" lon="6.65832">
        <ele>1848</ele>
        <time>2020-03-21T14:57:03.882Z</time>
      </trkpt>
      <trkpt lat="44.1841" lon="6.65814">
        <ele>1847</ele>
        <time>2020-03-21T14:57:04.882Z</time>
      </trkpt>
      <trkpt lat="44.1841" lon="6.65802">
        <ele>1847</ele>
        <time>2020-03-21T14:57:05.882Z</time>
      </trkpt>
      <trkpt lat="44.18409" lon="6.6579">
        <ele>1847</ele>
        <time>2020-03-21T14:57:06.882Z</time>
      </trkpt>
      <trkpt lat="44.1841" lon="6.65775">
        <ele>1848</ele>
        <time>2020-03-21T14:57:07.882Z</time>
      </trkpt>
      <trkpt lat="44.1841" lon="6.65759">
        <ele>1848</ele>
        <time>2020-03-21T14:57:08.882Z</time>
      </trkpt>
      <trkpt lat="44.18408" lon="6.65744">
        <ele>1851</ele>
        <time>2020-03-21T14:57:09.882Z</time>
      </trkpt>
      <trkpt lat="44.18404" lon="6.65737">
        <ele>1854</ele>
        <time>2020-03-21T14:57:10.882Z</time>
      </trkpt>
      <trkpt lat="44.18406" lon="6.65729">
        <ele>1853</ele>
        <time>2020-03-21T14:57:11.882Z</time>
      </trkpt>
      <trkpt lat="44.18404" lon="6.65716">
        <ele>1856</ele>
        <time>2020-03-21T14:57:12.882Z</time>
      </trkpt>
      <trkpt lat="44.18401" lon="6.65701">
        <ele>1861</ele>
        <time>2020-03-21T14:57:13.882Z</time>
      </trkpt>
      <trkpt lat="44.18404" lon="6.65683">
        <ele>1861</ele>
        <time>2020-03-21T14:57:14.882Z</time>
      </trkpt>
      <trkpt lat="44.18405" lon="6.65661">
        <ele>1861</ele>
        <time>2020-03-21T14:57:15.882Z</time>
      </trkpt>
      <trkpt lat="44.18406" lon="6.65657">
        <ele>1861</ele>
        <time>2020-03-21T14:57:16.882Z</time>
      </trkpt>
      <trkpt lat="44.18406" lon="6.65644">
        <ele>1860</ele>
        <time>2020-03-21T14:57:17.882Z</time>
      </trkpt>
      <trkpt lat="44.18408" lon="6.65627">
        <ele>1858</ele>
        <time>2020-03-21T14:57:18.882Z</time>
      </trkpt>
      <trkpt lat="44.18411" lon="6.65611">
        <ele>1856</ele>
        <time>2020-03-21T14:57:19.882Z</time>
      </trkpt>
      <trkpt lat="44.18412" lon="6.65605">
        <ele>1856</ele>
        <time>2020-03-21T14:57:20.882Z</time>
      </trkpt>
      <trkpt lat="44.18413" lon="6.65593">
        <ele>1855</ele>
        <time>2020-03-21T14:57:21.882Z</time>
      </trkpt>
      <trkpt lat="44.1841" lon="6.65578">
        <ele>1854</ele>
        <time>2020-03-21T14:57:22.882Z</time>
      </trkpt>
      <trkpt lat="44.18403" lon="6.65563">
        <ele>1850</ele>
        <time>2020-03-21T14:57:23.882Z</time>
      </trkpt>
      <trkpt lat="44.18393" lon="6.65547">
        <ele>1847</ele>
        <time>2020-03-21T14:57:24.882Z</time>
      </trkpt>
      <trkpt lat="44.18381" lon="6.65535">
        <ele>1846</ele>
        <time>2020-03-21T14:57:25.882Z</time>
      </trkpt>
      <trkpt lat="44.18369" lon="6.65524">
        <ele>1845</ele>
        <time>2020-03-21T14:57:26.882Z</time>
      </trkpt>
      <trkpt lat="44.18363" lon="6.6552">
        <ele>1845</ele>
        <time>2020-03-21T14:57:27.882Z</time>
      </trkpt>
      <trkpt lat="44.18352" lon="6.65523">
        <ele>1851</ele>
        <time>2020-03-21T14:57:28.882Z</time>
      </trkpt>
      <trkpt lat="44.18346" lon="6.65525">
        <ele>1854</ele>
        <time>2020-03-21T14:57:29.882Z</time>
      </trkpt>
      <trkpt lat="44.18333" lon="6.65528">
        <ele>1861</ele>
        <time>2020-03-21T14:57:30.882Z</time>
      </trkpt>
      <trkpt lat="44.18322" lon="6.65528">
        <ele>1868</ele>
        <time>2020-03-21T14:57:31.882Z</time>
      </trkpt>
      <trkpt lat="44.1831" lon="6.65532">
        <ele>1879</ele>
        <time>2020-03-21T14:57:32.882Z</time>
      </trkpt>
      <trkpt lat="44.18303" lon="6.65529">
        <ele>1882</ele>
        <time>2020-03-21T14:57:33.882Z</time>
      </trkpt>
      <trkpt lat="44.18302" lon="6.65527">
        <ele>1882</ele>
        <time>2020-03-21T14:57:34.882Z</time>
      </trkpt>
      <trkpt lat="44.18292" lon="6.65511">
        <ele>1882</ele>
        <time>2020-03-21T14:57:35.882Z</time>
      </trkpt>
      <trkpt lat="44.18284" lon="6.65511">
        <ele>1887</ele>
        <time>2020-03-21T14:57:36.882Z</time>
      </trkpt>
      <trkpt lat="44.18281" lon="6.65512">
        <ele>1890</ele>
        <time>2020-03-21T14:57:37.882Z</time>
      </trkpt>
      <trkpt lat="44.18274" lon="6.65509">
        <ele>1893</ele>
        <time>2020-03-21T14:57:38.882Z</time>
      </trkpt>
      <trkpt lat="44.18266" lon="6.65491">
        <ele>1895</ele>
        <time>2020-03-21T14:57:39.882Z</time>
      </trkpt>
      <trkpt lat="44.18263" lon="6.65481">
        <ele>1895</ele>
        <time>2020-03-21T14:57:40.882Z</time>
      </trkpt>
      <trkpt lat="44.18266" lon="6.65468">
        <ele>1891</ele>
        <time>2020-03-21T14:57:41.882Z</time>
      </trkpt>
      <trkpt lat="44.18265" lon="6.65461">
        <ele>1890</ele>
        <time>2020-03-21T14:57:42.882Z</time>
      </trkpt>
      <trkpt lat="44.18264" lon="6.65451">
        <ele>1889</ele>
        <time>2020-03-21T14:57:43.882Z</time>
      </trkpt>
      <trkpt lat="44.18266" lon="6.65441">
        <ele>1886</ele>
        <time>2020-03-21T14:57:44.882Z</time>
      </trkpt>
      <trkpt lat="44.18265" lon="6.65432">
        <ele>1885</ele>
        <time>2020-03-21T14:57:45.882Z</time>
      </trkpt>
      <trkpt lat="44.18258" lon="6.65419">
        <ele>1887</ele>
        <time>2020-03-21T14:57:46.882Z</time>
      </trkpt>
      <trkpt lat="44.18253" lon="6.65411">
        <ele>1889</ele>
        <time>2020-03-21T14:57:47.882Z</time>
      </trkpt>
      <trkpt lat="44.18247" lon="6.65402">
        <ele>1891</ele>
        <time>2020-03-21T14:57:48.882Z</time>
      </trkpt>
      <trkpt lat="44.18246" lon="6.65397">
        <ele>1891</ele>
        <time>2020-03-21T14:57:49.882Z</time>
      </trkpt>
      <trkpt lat="44.18242" lon="6.65389">
        <ele>1892</ele>
        <time>2020-03-21T14:57:50.882Z</time>
      </trkpt>
      <trkpt lat="44.18235" lon="6.65379">
        <ele>1894</ele>
        <time>2020-03-21T14:57:51.882Z</time>
      </trkpt>
      <trkpt lat="44.1823" lon="6.65369">
        <ele>1894</ele>
        <time>2020-03-21T14:57:52.882Z</time>
      </trkpt>
      <trkpt lat="44.18222" lon="6.65359">
        <ele>1896</ele>
        <time>2020-03-21T14:57:53.882Z</time>
      </trkpt>
      <trkpt lat="44.18218" lon="6.65355">
        <ele>1897</ele>
        <time>2020-03-21T14:57:54.882Z</time>
      </trkpt>
      <trkpt lat="44.18212" lon="6.65343">
        <ele>1898</ele>
        <time>2020-03-21T14:57:55.882Z</time>
      </trkpt>
      <trkpt lat="44.18206" lon="6.65331">
        <ele>1898</ele>
        <time>2020-03-21T14:57:56.882Z</time>
      </trkpt>
      <trkpt lat="44.18199" lon="6.65317">
        <ele>1898</ele>
        <time>2020-03-21T14:57:57.882Z</time>
      </trkpt>
      <trkpt lat="44.18197" lon="6.65313">
        <ele>1898</ele>
        <time>2020-03-21T14:57:58.882Z</time>
      </trkpt>
      <trkpt lat="44.18195" lon="6.65308">
        <ele>1898</ele>
        <time>2020-03-21T14:57:59.882Z</time>
      </trkpt>
      <trkpt lat="44.1819" lon="6.65295">
        <ele>1897</ele>
        <time>2020-03-21T14:58:00.882Z</time>
      </trkpt>
      <trkpt lat="44.18184" lon="6.65282">
        <ele>1896</ele>
        <time>2020-03-21T14:58:01.882Z</time>
      </trkpt>
      <trkpt lat="44.18178" lon="6.65272">
        <ele>1895</ele>
        <time>2020-03-21T14:58:02.882Z</time>
      </trkpt>
      <trkpt lat="44.18172" lon="6.65268">
        <ele>1896</ele>
        <time>2020-03-21T14:58:03.882Z</time>
      </trkpt>
      <trkpt lat="44.18162" lon="6.65273">
        <ele>1898</ele>
        <time>2020-03-21T14:58:04.882Z</time>
      </trkpt>
      <trkpt lat="44.18151" lon="6.65284">
        <ele>1899</ele>
        <time>2020-03-21T14:58:05.882Z</time>
      </trkpt>
      <trkpt lat="44.18142" lon="6.6529">
        <ele>1899</ele>
        <time>2020-03-21T14:58:06.882Z</time>
      </trkpt>
      <trkpt lat="44.18134" lon="6.65296">
        <ele>1899</ele>
        <time>2020-03-21T14:58:07.882Z</time>
      </trkpt>
      <trkpt lat="44.18124" lon="6.65305">
        <ele>1901</ele>
        <time>2020-03-21T14:58:08.882Z</time>
      </trkpt>
      <trkpt lat="44.18116" lon="6.65314">
        <ele>1902</ele>
        <time>2020-03-21T14:58:09.882Z</time>
      </trkpt>
      <trkpt lat="44.18106" lon="6.65324">
        <ele>1904</ele>
        <time>2020-03-21T14:58:10.882Z</time>
      </trkpt>
      <trkpt lat="44.181" lon="6.65332">
        <ele>1906</ele>
        <time>2020-03-21T14:58:11.882Z</time>
      </trkpt>
      <trkpt lat="44.18095" lon="6.65343">
        <ele>1910</ele>
        <time>2020-03-21T14:58:12.882Z</time>
      </trkpt>
      <trkpt lat="44.18093" lon="6.65349">
        <ele>1912</ele>
        <time>2020-03-21T14:58:13.882Z</time>
      </trkpt>
      <trkpt lat="44.18085" lon="6.65364">
        <ele>1917</ele>
        <time>2020-03-21T14:58:14.882Z</time>
      </trkpt>
      <trkpt lat="44.18078" lon="6.65374">
        <ele>1922</ele>
        <time>2020-03-21T14:58:15.882Z</time>
      </trkpt>
      <trkpt lat="44.18074" lon="6.65379">
        <ele>1924</ele>
        <time>2020-03-21T14:58:16.882Z</time>
      </trkpt>
      <trkpt lat="44.18072" lon="6.65382">
        <ele>1926</ele>
        <time>2020-03-21T14:58:17.882Z</time>
      </trkpt>
      <trkpt lat="44.18063" lon="6.65389">
        <ele>1930</ele>
        <time>2020-03-21T14:58:18.882Z</time>
      </trkpt>
      <trkpt lat="44.18056" lon="6.65385">
        <ele>1930</ele>
        <time>2020-03-21T14:58:19.882Z</time>
      </trkpt>
      <trkpt lat="44.18045" lon="6.65374">
        <ele>1926</ele>
        <time>2020-03-21T14:58:20.882Z</time>
      </trkpt>
      <trkpt lat="44.18035" lon="6.65365">
        <ele>1923</ele>
        <time>2020-03-21T14:58:21.882Z</time>
      </trkpt>
      <trkpt lat="44.18033" lon="6.65363">
        <ele>1922</ele>
        <time>2020-03-21T14:58:22.882Z</time>
      </trkpt>
      <trkpt lat="44.18031" lon="6.65366">
        <ele>1924</ele>
        <time>2020-03-21T14:58:23.882Z</time>
      </trkpt>
      <trkpt lat="44.18034" lon="6.65369">
        <ele>1925</ele>
        <time>2020-03-21T14:58:24.882Z</time>
      </trkpt>
      <trkpt lat="44.18037" lon="6.65371">
        <ele>1925</ele>
        <time>2020-03-21T14:58:25.882Z</time>
      </trkpt>
      <trkpt lat="44.18039" lon="6.65376">
        <ele>1928</ele>
        <time>2020-03-21T14:58:26.882Z</time>
      </trkpt>
      <trkpt lat="44.18042" lon="6.65379">
        <ele>1929</ele>
        <time>2020-03-21T14:58:27.882Z</time>
      </trkpt>
      <trkpt lat="44.18043" lon="6.65383">
        <ele>1930</ele>
        <time>2020-03-21T14:58:28.882Z</time>
      </trkpt>
      <trkpt lat="44.18044" lon="6.65386">
        <ele>1931</ele>
        <time>2020-03-21T14:58:29.882Z</time>
      </trkpt>
      <trkpt lat="44.18047" lon="6.65391">
        <ele>1934</ele>
        <time>2020-03-21T14:58:30.882Z</time>
      </trkpt>
      <trkpt lat="44.1805" lon="6.65407">
        <ele>1940</ele>
        <time>2020-03-21T14:58:31.882Z</time>
      </trkpt>
      <trkpt lat="44.18056" lon="6.65417">
        <ele>1944</ele>
        <time>2020-03-21T14:58:32.882Z</time>
      </trkpt>
      <trkpt lat="44.18067" lon="6.65418">
        <ele>1943</ele>
        <time>2020-03-21T14:58:33.882Z</time>
      </trkpt>
      <trkpt lat="44.18077" lon="6.65415">
        <ele>1939</ele>
        <time>2020-03-21T14:58:34.882Z</time>
      </trkpt>
      <trkpt lat="44.18084" lon="6.6541">
        <ele>1936</ele>
        <time>2020-03-21T14:58:35.882Z</time>
      </trkpt>
      <trkpt lat="44.18092" lon="6.65406">
        <ele>1935</ele>
        <time>2020-03-21T14:58:36.882Z</time>
      </trkpt>
      <trkpt lat="44.18098" lon="6.65401">
        <ele>1934</ele>
        <time>2020-03-21T14:58:37.882Z</time>
      </trkpt>
      <trkpt lat="44.18106" lon="6.65391">
        <ele>1931</ele>
        <time>2020-03-21T14:58:38.882Z</time>
      </trkpt>
      <trkpt lat="44.18108" lon="6.65393">
        <ele>1932</ele>
        <time>2020-03-21T14:58:39.882Z</time>
      </trkpt>
      <trkpt lat="44.18106" lon="6.65397">
        <ele>1933</ele>
        <time>2020-03-21T14:58:40.882Z</time>
      </trkpt>
      <trkpt lat="44.18103" lon="6.65401">
        <ele>1934</ele>
        <time>2020-03-21T14:58:41.882Z</time>
      </trkpt>
      <trkpt lat="44.18097" lon="6.65411">
        <ele>1938</ele>
        <time>2020-03-21T14:58:42.882Z</time>
      </trkpt>
      <trkpt lat="44.18092" lon="6.6542">
        <ele>1941</ele>
        <time>2020-03-21T14:58:43.882Z</time>
      </trkpt>
      <trkpt lat="44.18086" lon="6.65429">
        <ele>1945</ele>
        <time>2020-03-21T14:58:44.882Z</time>
      </trkpt>
      <trkpt lat="44.18084" lon="6.65432">
        <ele>1946</ele>
        <time>2020-03-21T14:58:45.882Z</time>
      </trkpt>
      <trkpt lat="44.18074" lon="6.65444">
        <ele>1953</ele>
        <time>2020-03-21T14:58:46.882Z</time>
      </trkpt>
      <trkpt lat="44.18068" lon="6.65453">
        <ele>1959</ele>
        <time>2020-03-21T14:58:47.882Z</time>
      </trkpt>
      <trkpt lat="44.18057" lon="6.6546">
        <ele>1964</ele>
        <time>2020-03-21T14:58:48.882Z</time>
      </trkpt>
      <trkpt lat="44.18048" lon="6.65454">
        <ele>1963</ele>
        <time>2020-03-21T14:58:49.882Z</time>
      </trkpt>
      <trkpt lat="44.18038" lon="6.65449">
        <ele>1962</ele>
        <time>2020-03-21T14:58:50.882Z</time>
      </trkpt>
      <trkpt lat="44.1803" lon="6.65443">
        <ele>1961</ele>
        <time>2020-03-21T14:58:51.882Z</time>
      </trkpt>
      <trkpt lat="44.18023" lon="6.65438">
        <ele>1960</ele>
        <time>2020-03-21T14:58:52.882Z</time>
      </trkpt>
      <trkpt lat="44.18015" lon="6.65431">
        <ele>1958</ele>
        <time>2020-03-21T14:58:53.882Z</time>
      </trkpt>
      <trkpt lat="44.18011" lon="6.65429">
        <ele>1957</ele>
        <time>2020-03-21T14:58:54.882Z</time>
      </trkpt>
      <trkpt lat="44.18004" lon="6.65429">
        <ele>1958</ele>
        <time>2020-03-21T14:58:55.882Z</time>
      </trkpt>
      <trkpt lat="44.18003" lon="6.65429">
        <ele>1959</ele>
        <time>2020-03-21T14:58:56.882Z</time>
      </trkpt>
      <trkpt lat="44.18" lon="6.65431">
        <ele>1960</ele>
        <time>2020-03-21T14:58:57.882Z</time>
      </trkpt>
      <trkpt lat="44.17995" lon="6.65432">
        <ele>1962</ele>
        <time>2020-03-21T14:58:58.882Z</time>
      </trkpt>
      <trkpt lat="44.17992" lon="6.65433">
        <ele>1964</ele>
        <time>2020-03-21T14:58:59.882Z</time>
      </trkpt>
      <trkpt lat="44.17985" lon="6.65436">
        <ele>1967</ele>
        <time>2020-03-21T14:59:00.882Z</time>
      </trkpt>
      <trkpt lat="44.17983" lon="6.65436">
        <ele>1968</ele>
        <time>2020-03-21T14:59:01.882Z</time>
      </trkpt>
      <trkpt lat="44.17978" lon="6.65438">
        <ele>1970</ele>
        <time>2020-03-21T14:59:02.882Z</time>
      </trkpt>
      <trkpt lat="44.17974" lon="6.6544">
        <ele>1972</ele>
        <time>2020-03-21T14:59:03.882Z</time>
      </trkpt>
      <trkpt lat="44.17972" lon="6.65441">
        <ele>1973</ele>
        <time>2020-03-21T14:59:04.882Z</time>
      </trkpt>
      <trkpt lat="44.17962" lon="6.65443">
        <ele>1977</ele>
        <time>2020-03-21T14:59:05.882Z</time>
      </trkpt>
      <trkpt lat="44.17955" lon="6.65443">
        <ele>1979</ele>
        <time>2020-03-21T14:59:06.882Z</time>
      </trkpt>
      <trkpt lat="44.17944" lon="6.65446">
        <ele>1984</ele>
        <time>2020-03-21T14:59:07.882Z</time>
      </trkpt>
      <trkpt lat="44.17935" lon="6.65453">
        <ele>1989</ele>
        <time>2020-03-21T14:59:08.882Z</time>
      </trkpt>
      <trkpt lat="44.17929" lon="6.65454">
        <ele>1990</ele>
        <time>2020-03-21T14:59:09.882Z</time>
      </trkpt>
      <trkpt lat="44.17924" lon="6.65454">
        <ele>1992</ele>
        <time>2020-03-21T14:59:10.882Z</time>
      </trkpt>
      <trkpt lat="44.1792" lon="6.65453">
        <ele>1992</ele>
        <time>2020-03-21T14:59:11.882Z</time>
      </trkpt>
      <trkpt lat="44.17913" lon="6.65447">
        <ele>1993</ele>
        <time>2020-03-21T14:59:12.882Z</time>
      </trkpt>
      <trkpt lat="44.17909" lon="6.65442">
        <ele>1994</ele>
        <time>2020-03-21T14:59:13.882Z</time>
      </trkpt>
      <trkpt lat="44.17907" lon="6.65436">
        <ele>1993</ele>
        <time>2020-03-21T14:59:14.882Z</time>
      </trkpt>
      <trkpt lat="44.17901" lon="6.65428">
        <ele>1994</ele>
        <time>2020-03-21T14:59:15.882Z</time>
      </trkpt>
      <trkpt lat="44.17899" lon="6.65417">
        <ele>1992</ele>
        <time>2020-03-21T14:59:16.882Z</time>
      </trkpt>
      <trkpt lat="44.17896" lon="6.65402">
        <ele>1987</ele>
        <time>2020-03-21T14:59:17.882Z</time>
      </trkpt>
      <trkpt lat="44.17893" lon="6.6539">
        <ele>1984</ele>
        <time>2020-03-21T14:59:18.882Z</time>
      </trkpt>
      <trkpt lat="44.1789" lon="6.65379">
        <ele>1981</ele>
        <time>2020-03-21T14:59:19.882Z</time>
      </trkpt>
      <trkpt lat="44.17885" lon="6.65367">
        <ele>1979</ele>
        <time>2020-03-21T14:59:20.882Z</time>
      </trkpt>
      <trkpt lat="44.17881" lon="6.65356">
        <ele>1976</ele>
        <time>2020-03-21T14:59:21.882Z</time>
      </trkpt>
      <trkpt lat="44.1788" lon="6.65354">
        <ele>1975</ele>
        <time>2020-03-21T14:59:22.882Z</time>
      </trkpt>
      <trkpt lat="44.17876" lon="6.6534">
        <ele>1971</ele>
        <time>2020-03-21T14:59:23.882Z</time>
      </trkpt>
      <trkpt lat="44.1787" lon="6.65328">
        <ele>1968</ele>
        <time>2020-03-21T14:59:24.882Z</time>
      </trkpt>
      <trkpt lat="44.17857" lon="6.65323">
        <ele>1971</ele>
        <time>2020-03-21T14:59:25.882Z</time>
      </trkpt>
      <trkpt lat="44.1784" lon="6.65321">
        <ele>1978</ele>
        <time>2020-03-21T14:59:26.882Z</time>
      </trkpt>
      <trkpt lat="44.17827" lon="6.65314">
        <ele>1977</ele>
        <time>2020-03-21T14:59:27.882Z</time>
      </trkpt>
      <trkpt lat="44.17813" lon="6.65308">
        <ele>1974</ele>
        <time>2020-03-21T14:59:28.882Z</time>
      </trkpt>
      <trkpt lat="44.17805" lon="6.65307">
        <ele>1974</ele>
        <time>2020-03-21T14:59:29.882Z</time>
      </trkpt>
      <trkpt lat="44.17804" lon="6.65306">
        <ele>1974</ele>
        <time>2020-03-21T14:59:30.882Z</time>
      </trkpt>
      <trkpt lat="44.17802" lon="6.65306">
        <ele>1974</ele>
        <time>2020-03-21T14:59:31.882Z</time>
      </trkpt>
      <trkpt lat="44.17794" lon="6.65304">
        <ele>1973</ele>
        <time>2020-03-21T14:59:32.882Z</time>
      </trkpt>
      <trkpt lat="44.17785" lon="6.65309">
        <ele>1976</ele>
        <time>2020-03-21T14:59:33.882Z</time>
      </trkpt>
      <trkpt lat="44.17773" lon="6.65314">
        <ele>1979</ele>
        <time>2020-03-21T14:59:34.882Z</time>
      </trkpt>
      <trkpt lat="44.17766" lon="6.65316">
        <ele>1981</ele>
        <time>2020-03-21T14:59:35.882Z</time>
      </trkpt>
      <trkpt lat="44.17757" lon="6.65322">
        <ele>1985</ele>
        <time>2020-03-21T14:59:36.882Z</time>
      </trkpt>
      <trkpt lat="44.17755" lon="6.65325">
        <ele>1986</ele>
        <time>2020-03-21T14:59:37.882Z</time>
      </trkpt>
      <trkpt lat="44.17746" lon="6.65336">
        <ele>1992</ele>
        <time>2020-03-21T14:59:38.882Z</time>
      </trkpt>
      <trkpt lat="44.17745" lon="6.65337">
        <ele>1992</ele>
        <time>2020-03-21T14:59:39.882Z</time>
      </trkpt>
      <trkpt lat="44.17736" lon="6.65344">
        <ele>1994</ele>
        <time>2020-03-21T14:59:40.882Z</time>
      </trkpt>
      <trkpt lat="44.17733" lon="6.65346">
        <ele>1994</ele>
        <time>2020-03-21T14:59:41.882Z</time>
      </trkpt>
      <trkpt lat="44.17723" lon="6.6535">
        <ele>1994</ele>
        <time>2020-03-21T14:59:42.882Z</time>
      </trkpt>
      <trkpt lat="44.17714" lon="6.65352">
        <ele>1994</ele>
        <time>2020-03-21T14:59:43.882Z</time>
      </trkpt>
      <trkpt lat="44.17705" lon="6.65355">
        <ele>1994</ele>
        <time>2020-03-21T14:59:44.882Z</time>
      </trkpt>
      <trkpt lat="44.17699" lon="6.65359">
        <ele>1995</ele>
        <time>2020-03-21T14:59:45.882Z</time>
      </trkpt>
      <trkpt lat="44.17689" lon="6.65361">
        <ele>1994</ele>
        <time>2020-03-21T14:59:46.882Z</time>
      </trkpt>
      <trkpt lat="44.1768" lon="6.65366">
        <ele>1995</ele>
        <time>2020-03-21T14:59:47.882Z</time>
      </trkpt>
      <trkpt lat="44.17671" lon="6.65374">
        <ele>1998</ele>
        <time>2020-03-21T14:59:48.882Z</time>
      </trkpt>
      <trkpt lat="44.17663" lon="6.65379">
        <ele>2000</ele>
        <time>2020-03-21T14:59:49.882Z</time>
      </trkpt>
      <trkpt lat="44.17653" lon="6.65387">
        <ele>2004</ele>
        <time>2020-03-21T14:59:50.882Z</time>
      </trkpt>
      <trkpt lat="44.17644" lon="6.65391">
        <ele>2006</ele>
        <time>2020-03-21T14:59:51.882Z</time>
      </trkpt>
      <trkpt lat="44.17633" lon="6.65398">
        <ele>2010</ele>
        <time>2020-03-21T14:59:52.882Z</time>
      </trkpt>
      <trkpt lat="44.17619" lon="6.65404">
        <ele>2012</ele>
        <time>2020-03-21T14:59:53.882Z</time>
      </trkpt>
      <trkpt lat="44.17612" lon="6.65414">
        <ele>2016</ele>
        <time>2020-03-21T14:59:54.882Z</time>
      </trkpt>
      <trkpt lat="44.17601" lon="6.65416">
        <ele>2017</ele>
        <time>2020-03-21T14:59:55.882Z</time>
      </trkpt>
      <trkpt lat="44.17593" lon="6.65417">
        <ele>2017</ele>
        <time>2020-03-21T14:59:56.882Z</time>
      </trkpt>
      <trkpt lat="44.17587" lon="6.65421">
        <ele>2018</ele>
        <time>2020-03-21T14:59:57.882Z</time>
      </trkpt>
      <trkpt lat="44.17578" lon="6.65421">
        <ele>2018</ele>
        <time>2020-03-21T14:59:58.882Z</time>
      </trkpt>
      <trkpt lat="44.17565" lon="6.65424">
        <ele>2020</ele>
        <time>2020-03-21T14:59:59.882Z</time>
      </trkpt>
      <trkpt lat="44.17555" lon="6.65427">
        <ele>2021</ele>
        <time>2020-03-21T15:00:00.882Z</time>
      </trkpt>
      <trkpt lat="44.17547" lon="6.65426">
        <ele>2022</ele>
        <time>2020-03-21T15:00:01.882Z</time>
      </trkpt>
      <trkpt lat="44.17537" lon="6.65425">
        <ele>2022</ele>
        <time>2020-03-21T15:00:02.882Z</time>
      </trkpt>
      <trkpt lat="44.17527" lon="6.65428">
        <ele>2024</ele>
        <time>2020-03-21T15:00:03.882Z</time>
      </trkpt>
      <trkpt lat="44.17522" lon="6.65433">
        <ele>2025</ele>
        <time>2020-03-21T15:00:04.882Z</time>
      </trkpt>
      <trkpt lat="44.17513" lon="6.65429">
        <ele>2025</ele>
        <time>2020-03-21T15:00:05.882Z</time>
      </trkpt>
      <trkpt lat="44.1751" lon="6.65428">
        <ele>2025</ele>
        <time>2020-03-21T15:00:06.882Z</time>
      </trkpt>
      <trkpt lat="44.17497" lon="6.6543">
        <ele>2026</ele>
        <time>2020-03-21T15:00:07.882Z</time>
      </trkpt>
      <trkpt lat="44.17492" lon="6.65431">
        <ele>2027</ele>
        <time>2020-03-21T15:00:08.882Z</time>
      </trkpt>
      <trkpt lat="44.17485" lon="6.65443">
        <ele>2030</ele>
        <time>2020-03-21T15:00:09.882Z</time>
      </trkpt>
      <trkpt lat="44.17483" lon="6.65449">
        <ele>2032</ele>
        <time>2020-03-21T15:00:10.882Z</time>
      </trkpt>
      <trkpt lat="44.17476" lon="6.65448">
        <ele>2032</ele>
        <time>2020-03-21T15:00:11.882Z</time>
      </trkpt>
      <trkpt lat="44.17467" lon="6.6544">
        <ele>2031</ele>
        <time>2020-03-21T15:00:12.882Z</time>
      </trkpt>
      <trkpt lat="44.17463" lon="6.65439">
        <ele>2031</ele>
        <time>2020-03-21T15:00:13.882Z</time>
      </trkpt>
      <trkpt lat="44.17454" lon="6.65438">
        <ele>2032</ele>
        <time>2020-03-21T15:00:14.882Z</time>
      </trkpt>
      <trkpt lat="44.17445" lon="6.65448">
        <ele>2034</ele>
        <time>2020-03-21T15:00:15.882Z</time>
      </trkpt>
      <trkpt lat="44.17438" lon="6.65455">
        <ele>2036</ele>
        <time>2020-03-21T15:00:16.882Z</time>
      </trkpt>
      <trkpt lat="44.17437" lon="6.65454">
        <ele>2036</ele>
        <time>2020-03-21T15:00:17.882Z</time>
      </trkpt>
      <trkpt lat="44.17433" lon="6.65436">
        <ele>2033</ele>
        <time>2020-03-21T15:00:18.882Z</time>
      </trkpt>
      <trkpt lat="44.17431" lon="6.65425">
        <ele>2032</ele>
        <time>2020-03-21T15:00:19.882Z</time>
      </trkpt>
      <trkpt lat="44.17422" lon="6.65415">
        <ele>2031</ele>
        <time>2020-03-21T15:00:20.882Z</time>
      </trkpt>
      <trkpt lat="44.17414" lon="6.65422">
        <ele>2033</ele>
        <time>2020-03-21T15:00:21.882Z</time>
      </trkpt>
      <trkpt lat="44.17405" lon="6.65435">
        <ele>2037</ele>
        <time>2020-03-21T15:00:22.882Z</time>
      </trkpt>
      <trkpt lat="44.17398" lon="6.65446">
        <ele>2039</ele>
        <time>2020-03-21T15:00:23.882Z</time>
      </trkpt>
      <trkpt lat="44.17386" lon="6.65465">
        <ele>2043</ele>
        <time>2020-03-21T15:00:24.882Z</time>
      </trkpt>
      <trkpt lat="44.17374" lon="6.65486">
        <ele>2047</ele>
        <time>2020-03-21T15:00:25.882Z</time>
      </trkpt>
      <trkpt lat="44.17363" lon="6.65504">
        <ele>2051</ele>
        <time>2020-03-21T15:00:26.882Z</time>
      </trkpt>
      <trkpt lat="44.17354" lon="6.65517">
        <ele>2053</ele>
        <time>2020-03-21T15:00:27.882Z</time>
      </trkpt>
      <trkpt lat="44.17352" lon="6.65522">
        <ele>2054</ele>
        <time>2020-03-21T15:00:28.882Z</time>
      </trkpt>
      <trkpt lat="44.17346" lon="6.6552">
        <ele>2055</ele>
        <time>2020-03-21T15:00:29.882Z</time>
      </trkpt>
      <trkpt lat="44.17346" lon="6.65518">
        <ele>2054</ele>
        <time>2020-03-21T15:00:30.882Z</time>
      </trkpt>
      <trkpt lat="44.17344" lon="6.65504">
        <ele>2053</ele>
        <time>2020-03-21T15:00:31.882Z</time>
      </trkpt>
      <trkpt lat="44.17343" lon="6.65491">
        <ele>2052</ele>
        <time>2020-03-21T15:00:32.882Z</time>
      </trkpt>
      <trkpt lat="44.17342" lon="6.6549">
        <ele>2052</ele>
        <time>2020-03-21T15:00:33.882Z</time>
      </trkpt>
      <trkpt lat="44.17342" lon="6.6548">
        <ele>2051</ele>
        <time>2020-03-21T15:00:34.882Z</time>
      </trkpt>
      <trkpt lat="44.17344" lon="6.65472">
        <ele>2050</ele>
        <time>2020-03-21T15:00:35.882Z</time>
      </trkpt>
      <trkpt lat="44.17343" lon="6.65464">
        <ele>2050</ele>
        <time>2020-03-21T15:00:36.882Z</time>
      </trkpt>
      <trkpt lat="44.17342" lon="6.65454">
        <ele>2049</ele>
        <time>2020-03-21T15:00:37.882Z</time>
      </trkpt>
      <trkpt lat="44.17341" lon="6.65437">
        <ele>2047</ele>
        <time>2020-03-21T15:00:38.882Z</time>
      </trkpt>
      <trkpt lat="44.1734" lon="6.65428">
        <ele>2047</ele>
        <time>2020-03-21T15:00:39.882Z</time>
      </trkpt>
      <trkpt lat="44.17334" lon="6.65402">
        <ele>2044</ele>
        <time>2020-03-21T15:00:40.882Z</time>
      </trkpt>
      <trkpt lat="44.17332" lon="6.65397">
        <ele>2044</ele>
        <time>2020-03-21T15:00:41.882Z</time>
      </trkpt>
      <trkpt lat="44.17327" lon="6.65374">
        <ele>2042</ele>
        <time>2020-03-21T15:00:42.882Z</time>
      </trkpt>
      <trkpt lat="44.17322" lon="6.65364">
        <ele>2043</ele>
        <time>2020-03-21T15:00:43.882Z</time>
      </trkpt>
      <trkpt lat="44.17315" lon="6.65359">
        <ele>2045</ele>
        <time>2020-03-21T15:00:44.882Z</time>
      </trkpt>
      <trkpt lat="44.17314" lon="6.65342">
        <ele>2042</ele>
        <time>2020-03-21T15:00:45.882Z</time>
      </trkpt>
      <trkpt lat="44.17311" lon="6.65323">
        <ele>2038</ele>
        <time>2020-03-21T15:00:46.882Z</time>
      </trkpt>
      <trkpt lat="44.17309" lon="6.65317">
        <ele>2037</ele>
        <time>2020-03-21T15:00:47.882Z</time>
      </trkpt>
      <trkpt lat="44.17295" lon="6.65292">
        <ele>2035</ele>
        <time>2020-03-21T15:00:48.882Z</time>
      </trkpt>
      <trkpt lat="44.1729" lon="6.65283">
        <ele>2035</ele>
        <time>2020-03-21T15:00:49.882Z</time>
      </trkpt>
      <trkpt lat="44.17278" lon="6.65265">
        <ele>2034</ele>
        <time>2020-03-21T15:00:50.882Z</time>
      </trkpt>
      <trkpt lat="44.17266" lon="6.65244">
        <ele>2032</ele>
        <time>2020-03-21T15:00:51.882Z</time>
      </trkpt>
      <trkpt lat="44.17251" lon="6.6522">
        <ele>2029</ele>
        <time>2020-03-21T15:00:52.882Z</time>
      </trkpt>
      <trkpt lat="44.17241" lon="6.65199">
        <ele>2025</ele>
        <time>2020-03-21T15:00:53.882Z</time>
      </trkpt>
      <trkpt lat="44.17232" lon="6.65181">
        <ele>2022</ele>
        <time>2020-03-21T15:00:54.882Z</time>
      </trkpt>
      <trkpt lat="44.17224" lon="6.65165">
        <ele>2020</ele>
        <time>2020-03-21T15:00:55.882Z</time>
      </trkpt>
      <trkpt lat="44.17205" lon="6.65143">
        <ele>2018</ele>
        <time>2020-03-21T15:00:56.882Z</time>
      </trkpt>
      <trkpt lat="44.1719" lon="6.65121">
        <ele>2015</ele>
        <time>2020-03-21T15:00:57.882Z</time>
      </trkpt>
      <trkpt lat="44.17186" lon="6.65112">
        <ele>2013</ele>
        <time>2020-03-21T15:00:58.882Z</time>
      </trkpt>
      <trkpt lat="44.1718" lon="6.65103">
        <ele>2011</ele>
        <time>2020-03-21T15:00:59.882Z</time>
      </trkpt>
      <trkpt lat="44.17167" lon="6.65086">
        <ele>2010</ele>
        <time>2020-03-21T15:01:00.882Z</time>
      </trkpt>
      <trkpt lat="44.17156" lon="6.65079">
        <ele>2005</ele>
        <time>2020-03-21T15:01:01.882Z</time>
      </trkpt>
      <trkpt lat="44.17136" lon="6.65084">
        <ele>2002</ele>
        <time>2020-03-21T15:01:02.882Z</time>
      </trkpt>
      <trkpt lat="44.1712" lon="6.65097">
        <ele>2005</ele>
        <time>2020-03-21T15:01:03.882Z</time>
      </trkpt>
      <trkpt lat="44.1711" lon="6.65096">
        <ele>2002</ele>
        <time>2020-03-21T15:01:04.882Z</time>
      </trkpt>
      <trkpt lat="44.17086" lon="6.65109">
        <ele>2004</ele>
        <time>2020-03-21T15:01:05.882Z</time>
      </trkpt>
      <trkpt lat="44.17083" lon="6.65109">
        <ele>2003</ele>
        <time>2020-03-21T15:01:06.882Z</time>
      </trkpt>
      <trkpt lat="44.17067" lon="6.65116">
        <ele>2004</ele>
        <time>2020-03-21T15:01:07.882Z</time>
      </trkpt>
      <trkpt lat="44.17054" lon="6.65125">
        <ele>2006</ele>
        <time>2020-03-21T15:01:08.882Z</time>
      </trkpt>
      <trkpt lat="44.1703" lon="6.65122">
        <ele>2000</ele>
        <time>2020-03-21T15:01:09.882Z</time>
      </trkpt>
      <trkpt lat="44.17015" lon="6.65119">
        <ele>1996</ele>
        <time>2020-03-21T15:01:10.882Z</time>
      </trkpt>
      <trkpt lat="44.16999" lon="6.65124">
        <ele>1996</ele>
        <time>2020-03-21T15:01:11.882Z</time>
      </trkpt>
      <trkpt lat="44.16982" lon="6.65142">
        <ele>2000</ele>
        <time>2020-03-21T15:01:12.882Z</time>
      </trkpt>
      <trkpt lat="44.16976" lon="6.65152">
        <ele>2003</ele>
        <time>2020-03-21T15:01:13.882Z</time>
      </trkpt>
      <trkpt lat="44.16972" lon="6.65164">
        <ele>2007</ele>
        <time>2020-03-21T15:01:14.882Z</time>
      </trkpt>
      <trkpt lat="44.16962" lon="6.65187">
        <ele>2010</ele>
        <time>2020-03-21T15:01:15.882Z</time>
      </trkpt>
      <trkpt lat="44.16962" lon="6.65219">
        <ele>2017</ele>
        <time>2020-03-21T15:01:16.882Z</time>
      </trkpt>
      <trkpt lat="44.16961" lon="6.65224">
        <ele>2017</ele>
        <time>2020-03-21T15:01:17.882Z</time>
      </trkpt>
      <trkpt lat="44.16947" lon="6.65232">
        <ele>2016</ele>
        <time>2020-03-21T15:01:18.882Z</time>
      </trkpt>
      <trkpt lat="44.16945" lon="6.65237">
        <ele>2016</ele>
        <time>2020-03-21T15:01:19.882Z</time>
      </trkpt>
      <trkpt lat="44.16939" lon="6.65248">
        <ele>2018</ele>
        <time>2020-03-21T15:01:20.882Z</time>
      </trkpt>
      <trkpt lat="44.16936" lon="6.65258">
        <ele>2019</ele>
        <time>2020-03-21T15:01:21.882Z</time>
      </trkpt>
      <trkpt lat="44.16931" lon="6.65259">
        <ele>2019</ele>
        <time>2020-03-21T15:01:22.882Z</time>
      </trkpt>
      <trkpt lat="44.16929" lon="6.65252">
        <ele>2016</ele>
        <time>2020-03-21T15:01:23.882Z</time>
      </trkpt>
      <trkpt lat="44.16918" lon="6.65233">
        <ele>2009</ele>
        <time>2020-03-21T15:01:24.882Z</time>
      </trkpt>
      <trkpt lat="44.169" lon="6.6522">
        <ele>2003</ele>
        <time>2020-03-21T15:01:25.882Z</time>
      </trkpt>
      <trkpt lat="44.16881" lon="6.65208">
        <ele>1997</ele>
        <time>2020-03-21T15:01:26.882Z</time>
      </trkpt>
      <trkpt lat="44.16846" lon="6.65202">
        <ele>1989</ele>
        <time>2020-03-21T15:01:27.882Z</time>
      </trkpt>
      <trkpt lat="44.16818" lon="6.65212">
        <ele>1984</ele>
        <time>2020-03-21T15:01:28.882Z</time>
      </trkpt>
      <trkpt lat="44.16798" lon="6.65231">
        <ele>1982</ele>
        <time>2020-03-21T15:01:29.882Z</time>
      </trkpt>
      <trkpt lat="44.16782" lon="6.65246">
        <ele>1980</ele>
        <time>2020-03-21T15:01:30.882Z</time>
      </trkpt>
      <trkpt lat="44.16774" lon="6.65255">
        <ele>1978</ele>
        <time>2020-03-21T15:01:31.882Z</time>
      </trkpt>
      <trkpt lat="44.16759" lon="6.65276">
        <ele>1976</ele>
        <time>2020-03-21T15:01:32.882Z</time>
      </trkpt>
      <trkpt lat="44.1675" lon="6.65305">
        <ele>1977</ele>
        <time>2020-03-21T15:01:33.882Z</time>
      </trkpt>
      <trkpt lat="44.16752" lon="6.65319">
        <ele>1982</ele>
        <time>2020-03-21T15:01:34.882Z</time>
      </trkpt>
      <trkpt lat="44.16753" lon="6.6533">
        <ele>1985</ele>
        <time>2020-03-21T15:01:35.882Z</time>
      </trkpt>
      <trkpt lat="44.16755" lon="6.65348">
        <ele>1989</ele>
        <time>2020-03-21T15:01:36.882Z</time>
      </trkpt>
      <trkpt lat="44.16754" lon="6.65369">
        <ele>1990</ele>
        <time>2020-03-21T15:01:37.882Z</time>
      </trkpt>
      <trkpt lat="44.16751" lon="6.65396">
        <ele>1992</ele>
        <time>2020-03-21T15:01:38.882Z</time>
      </trkpt>
      <trkpt lat="44.16749" lon="6.65414">
        <ele>1993</ele>
        <time>2020-03-21T15:01:39.882Z</time>
      </trkpt>
      <trkpt lat="44.16748" lon="6.65436">
        <ele>1997</ele>
        <time>2020-03-21T15:01:40.882Z</time>
      </trkpt>
      <trkpt lat="44.16731" lon="6.65448">
        <ele>1991</ele>
        <time>2020-03-21T15:01:41.882Z</time>
      </trkpt>
      <trkpt lat="44.16725" lon="6.65454">
        <ele>1990</ele>
        <time>2020-03-21T15:01:42.882Z</time>
      </trkpt>
      <trkpt lat="44.16716" lon="6.65461">
        <ele>1988</ele>
        <time>2020-03-21T15:01:43.882Z</time>
      </trkpt>
      <trkpt lat="44.167" lon="6.6547">
        <ele>1984</ele>
        <time>2020-03-21T15:01:44.882Z</time>
      </trkpt>
      <trkpt lat="44.16678" lon="6.65472">
        <ele>1977</ele>
        <time>2020-03-21T15:01:45.882Z</time>
      </trkpt>
      <trkpt lat="44.16645" lon="6.6548">
        <ele>1972</ele>
        <time>2020-03-21T15:01:46.882Z</time>
      </trkpt>
      <trkpt lat="44.16628" lon="6.65487">
        <ele>1971</ele>
        <time>2020-03-21T15:01:47.882Z</time>
      </trkpt>
      <trkpt lat="44.16612" lon="6.65497">
        <ele>1972</ele>
        <time>2020-03-21T15:01:48.882Z</time>
      </trkpt>
      <trkpt lat="44.16584" lon="6.65519">
        <ele>1972</ele>
        <time>2020-03-21T15:01:49.882Z</time>
      </trkpt>
      <trkpt lat="44.16572" lon="6.65534">
        <ele>1968</ele>
        <time>2020-03-21T15:01:50.882Z</time>
      </trkpt>
      <trkpt lat="44.16562" lon="6.6555">
        <ele>1965</ele>
        <time>2020-03-21T15:01:51.882Z</time>
      </trkpt>
      <trkpt lat="44.16552" lon="6.65571">
        <ele>1964</ele>
        <time>2020-03-21T15:01:52.882Z</time>
      </trkpt>
      <trkpt lat="44.16549" lon="6.65592">
        <ele>1966</ele>
        <time>2020-03-21T15:01:53.882Z</time>
      </trkpt>
      <trkpt lat="44.16557" lon="6.65594">
        <ele>1970</ele>
        <time>2020-03-21T15:01:54.882Z</time>
      </trkpt>
      <trkpt lat="44.1657" lon="6.65595">
        <ele>1979</ele>
        <time>2020-03-21T15:01:55.882Z</time>
      </trkpt>
      <trkpt lat="44.16579" lon="6.65597">
        <ele>1984</ele>
        <time>2020-03-21T15:01:56.882Z</time>
      </trkpt>
      <trkpt lat="44.16588" lon="6.65598">
        <ele>1987</ele>
        <time>2020-03-21T15:01:57.882Z</time>
      </trkpt>
      <trkpt lat="44.166" lon="6.65605">
        <ele>1991</ele>
        <time>2020-03-21T15:01:58.882Z</time>
      </trkpt>
      <trkpt lat="44.16623" lon="6.65621">
        <ele>1997</ele>
        <time>2020-03-21T15:01:59.882Z</time>
      </trkpt>
      <trkpt lat="44.16635" lon="6.65631">
        <ele>2001</ele>
        <time>2020-03-21T15:02:00.882Z</time>
      </trkpt>
      <trkpt lat="44.16635" lon="6.65636">
        <ele>2001</ele>
        <time>2020-03-21T15:02:01.882Z</time>
      </trkpt>
      <trkpt lat="44.16633" lon="6.65639">
        <ele>2000</ele>
        <time>2020-03-21T15:02:02.882Z</time>
      </trkpt>
      <trkpt lat="44.16627" lon="6.65643">
        <ele>1998</ele>
        <time>2020-03-21T15:02:03.882Z</time>
      </trkpt>
      <trkpt lat="44.1662" lon="6.65644">
        <ele>1995</ele>
        <time>2020-03-21T15:02:04.882Z</time>
      </trkpt>
      <trkpt lat="44.16612" lon="6.65647">
        <ele>1992</ele>
        <time>2020-03-21T15:02:05.882Z</time>
      </trkpt>
      <trkpt lat="44.16601" lon="6.6565">
        <ele>1988</ele>
        <time>2020-03-21T15:02:06.882Z</time>
      </trkpt>
      <trkpt lat="44.1659" lon="6.65658">
        <ele>1984</ele>
        <time>2020-03-21T15:02:07.882Z</time>
      </trkpt>
      <trkpt lat="44.16575" lon="6.65674">
        <ele>1980</ele>
        <time>2020-03-21T15:02:08.882Z</time>
      </trkpt>
      <trkpt lat="44.16566" lon="6.65686">
        <ele>1981</ele>
        <time>2020-03-21T15:02:09.882Z</time>
      </trkpt>
      <trkpt lat="44.16559" lon="6.65707">
        <ele>1984</ele>
        <time>2020-03-21T15:02:10.882Z</time>
      </trkpt>
      <trkpt lat="44.1655" lon="6.65713">
        <ele>1984</ele>
        <time>2020-03-21T15:02:11.882Z</time>
      </trkpt>
      <trkpt lat="44.16543" lon="6.65721">
        <ele>1984</ele>
        <time>2020-03-21T15:02:12.882Z</time>
      </trkpt>
      <trkpt lat="44.16542" lon="6.65723">
        <ele>1984</ele>
        <time>2020-03-21T15:02:13.882Z</time>
      </trkpt>
      <trkpt lat="44.16538" lon="6.65735">
        <ele>1987</ele>
        <time>2020-03-21T15:02:14.882Z</time>
      </trkpt>
      <trkpt lat="44.16537" lon="6.65739">
        <ele>1988</ele>
        <time>2020-03-21T15:02:15.882Z</time>
      </trkpt>
      <trkpt lat="44.16537" lon="6.65743">
        <ele>1989</ele>
        <time>2020-03-21T15:02:16.882Z</time>
      </trkpt>
      <trkpt lat="44.16531" lon="6.65759">
        <ele>1992</ele>
        <time>2020-03-21T15:02:17.882Z</time>
      </trkpt>
      <trkpt lat="44.1653" lon="6.65764">
        <ele>1993</ele>
        <time>2020-03-21T15:02:18.882Z</time>
      </trkpt>
      <trkpt lat="44.16517" lon="6.65766">
        <ele>1991</ele>
        <time>2020-03-21T15:02:19.882Z</time>
      </trkpt>
      <trkpt lat="44.16514" lon="6.65767">
        <ele>1990</ele>
        <time>2020-03-21T15:02:20.882Z</time>
      </trkpt>
      <trkpt lat="44.165" lon="6.65781">
        <ele>1991</ele>
        <time>2020-03-21T15:02:21.882Z</time>
      </trkpt>
      <trkpt lat="44.16498" lon="6.65799">
        <ele>1995</ele>
        <time>2020-03-21T15:02:22.882Z</time>
      </trkpt>
      <trkpt lat="44.16496" lon="6.65815">
        <ele>1999</ele>
        <time>2020-03-21T15:02:23.882Z</time>
      </trkpt>
      <trkpt lat="44.16491" lon="6.65815">
        <ele>2000</ele>
        <time>2020-03-21T15:02:24.882Z</time>
      </trkpt>
      <trkpt lat="44.16482" lon="6.65797">
        <ele>1997</ele>
        <time>2020-03-21T15:02:25.882Z</time>
      </trkpt>
      <trkpt lat="44.16474" lon="6.6578">
        <ele>1994</ele>
        <time>2020-03-21T15:02:26.882Z</time>
      </trkpt>
      <trkpt lat="44.16464" lon="6.65762">
        <ele>1991</ele>
        <time>2020-03-21T15:02:27.882Z</time>
      </trkpt>
      <trkpt lat="44.16451" lon="6.6575">
        <ele>1989</ele>
        <time>2020-03-21T15:02:28.882Z</time>
      </trkpt>
      <trkpt lat="44.1644" lon="6.6574">
        <ele>1986</ele>
        <time>2020-03-21T15:02:29.882Z</time>
      </trkpt>
      <trkpt lat="44.16425" lon="6.65727">
        <ele>1981</ele>
        <time>2020-03-21T15:02:30.882Z</time>
      </trkpt>
      <trkpt lat="44.16414" lon="6.65715">
        <ele>1977</ele>
        <time>2020-03-21T15:02:31.882Z</time>
      </trkpt>
      <trkpt lat="44.164" lon="6.65712">
        <ele>1973</ele>
        <time>2020-03-21T15:02:32.882Z</time>
      </trkpt>
      <trkpt lat="44.16388" lon="6.65713">
        <ele>1971</ele>
        <time>2020-03-21T15:02:33.882Z</time>
      </trkpt>
      <trkpt lat="44.16379" lon="6.65722">
        <ele>1974</ele>
        <time>2020-03-21T15:02:34.882Z</time>
      </trkpt>
      <trkpt lat="44.16376" lon="6.65728">
        <ele>1976</ele>
        <time>2020-03-21T15:02:35.882Z</time>
      </trkpt>
      <trkpt lat="44.16363" lon="6.65734">
        <ele>1977</ele>
        <time>2020-03-21T15:02:36.882Z</time>
      </trkpt>
      <trkpt lat="44.16354" lon="6.65739">
        <ele>1979</ele>
        <time>2020-03-21T15:02:37.882Z</time>
      </trkpt>
      <trkpt lat="44.16347" lon="6.65738">
        <ele>1977</ele>
        <time>2020-03-21T15:02:38.882Z</time>
      </trkpt>
      <trkpt lat="44.16331" lon="6.65731">
        <ele>1971</ele>
        <time>2020-03-21T15:02:39.882Z</time>
      </trkpt>
      <trkpt lat="44.16313" lon="6.65734">
        <ele>1969</ele>
        <time>2020-03-21T15:02:40.882Z</time>
      </trkpt>
      <trkpt lat="44.16299" lon="6.65742">
        <ele>1971</ele>
        <time>2020-03-21T15:02:41.882Z</time>
      </trkpt>
      <trkpt lat="44.16287" lon="6.65754">
        <ele>1975</ele>
        <time>2020-03-21T15:02:42.882Z</time>
      </trkpt>
      <trkpt lat="44.16274" lon="6.6576">
        <ele>1975</ele>
        <time>2020-03-21T15:02:43.882Z</time>
      </trkpt>
      <trkpt lat="44.1626" lon="6.65762">
        <ele>1973</ele>
        <time>2020-03-21T15:02:44.882Z</time>
      </trkpt>
      <trkpt lat="44.16244" lon="6.65761">
        <ele>1967</ele>
        <time>2020-03-21T15:02:45.882Z</time>
      </trkpt>
      <trkpt lat="44.16232" lon="6.65758">
        <ele>1957</ele>
        <time>2020-03-21T15:02:46.882Z</time>
      </trkpt>
      <trkpt lat="44.16216" lon="6.65751">
        <ele>1944</ele>
        <time>2020-03-21T15:02:47.882Z</time>
      </trkpt>
      <trkpt lat="44.16212" lon="6.65768">
        <ele>1948</ele>
        <time>2020-03-21T15:02:48.882Z</time>
      </trkpt>
      <trkpt lat="44.16209" lon="6.65787">
        <ele>1953</ele>
        <time>2020-03-21T15:02:49.882Z</time>
      </trkpt>
      <trkpt lat="44.16201" lon="6.65807">
        <ele>1954</ele>
        <time>2020-03-21T15:02:50.882Z</time>
      </trkpt>
      <trkpt lat="44.16204" lon="6.65825">
        <ele>1963</ele>
        <time>2020-03-21T15:02:51.882Z</time>
      </trkpt>
      <trkpt lat="44.162" lon="6.65839">
        <ele>1963</ele>
        <time>2020-03-21T15:02:52.882Z</time>
      </trkpt>
      <trkpt lat="44.16196" lon="6.65845">
        <ele>1961</ele>
        <time>2020-03-21T15:02:53.882Z</time>
      </trkpt>
      <trkpt lat="44.16192" lon="6.65851">
        <ele>1958</ele>
        <time>2020-03-21T15:02:54.882Z</time>
      </trkpt>
      <trkpt lat="44.16194" lon="6.65867">
        <ele>1962</ele>
        <time>2020-03-21T15:02:55.882Z</time>
      </trkpt>
      <trkpt lat="44.16205" lon="6.65883">
        <ele>1972</ele>
        <time>2020-03-21T15:02:56.882Z</time>
      </trkpt>
      <trkpt lat="44.16213" lon="6.65898">
        <ele>1980</ele>
        <time>2020-03-21T15:02:57.882Z</time>
      </trkpt>
      <trkpt lat="44.16215" lon="6.65926">
        <ele>1984</ele>
        <time>2020-03-21T15:02:58.882Z</time>
      </trkpt>
      <trkpt lat="44.16209" lon="6.65942">
        <ele>1980</ele>
        <time>2020-03-21T15:02:59.882Z</time>
      </trkpt>
      <trkpt lat="44.16199" lon="6.6596">
        <ele>1974</ele>
        <time>2020-03-21T15:03:00.882Z</time>
      </trkpt>
      <trkpt lat="44.16195" lon="6.65979">
        <ele>1973</ele>
        <time>2020-03-21T15:03:01.882Z</time>
      </trkpt>
      <trkpt lat="44.16192" lon="6.66008">
        <ele>1971</ele>
        <time>2020-03-21T15:03:02.882Z</time>
      </trkpt>
      <trkpt lat="44.16194" lon="6.66033">
        <ele>1971</ele>
        <time>2020-03-21T15:03:03.882Z</time>
      </trkpt>
      <trkpt lat="44.16196" lon="6.66038">
        <ele>1972</ele>
        <time>2020-03-21T15:03:04.882Z</time>
      </trkpt>
      <trkpt lat="44.1621" lon="6.66064">
        <ele>1978</ele>
        <time>2020-03-21T15:03:05.882Z</time>
      </trkpt>
      <trkpt lat="44.16222" lon="6.66074">
        <ele>1985</ele>
        <time>2020-03-21T15:03:06.882Z</time>
      </trkpt>
      <trkpt lat="44.16228" lon="6.66077">
        <ele>1988</ele>
        <time>2020-03-21T15:03:07.882Z</time>
      </trkpt>
      <trkpt lat="44.16231" lon="6.6609">
        <ele>1989</ele>
        <time>2020-03-21T15:03:08.882Z</time>
      </trkpt>
      <trkpt lat="44.16232" lon="6.66102">
        <ele>1988</ele>
        <time>2020-03-21T15:03:09.882Z</time>
      </trkpt>
      <trkpt lat="44.16234" lon="6.66104">
        <ele>1989</ele>
        <time>2020-03-21T15:03:10.882Z</time>
      </trkpt>
      <trkpt lat="44.16244" lon="6.66119">
        <ele>1992</ele>
        <time>2020-03-21T15:03:11.882Z</time>
      </trkpt>
      <trkpt lat="44.16246" lon="6.66137">
        <ele>1990</ele>
        <time>2020-03-21T15:03:12.882Z</time>
      </trkpt>
      <trkpt lat="44.16252" lon="6.66163">
        <ele>1989</ele>
        <time>2020-03-21T15:03:13.882Z</time>
      </trkpt>
      <trkpt lat="44.16256" lon="6.66175">
        <ele>1990</ele>
        <time>2020-03-21T15:03:14.882Z</time>
      </trkpt>
      <trkpt lat="44.16264" lon="6.66186">
        <ele>1993</ele>
        <time>2020-03-21T15:03:15.882Z</time>
      </trkpt>
      <trkpt lat="44.16275" lon="6.66195">
        <ele>1997</ele>
        <time>2020-03-21T15:03:16.882Z</time>
      </trkpt>
      <trkpt lat="44.16278" lon="6.66205">
        <ele>1998</ele>
        <time>2020-03-21T15:03:17.882Z</time>
      </trkpt>
      <trkpt lat="44.16278" lon="6.66209">
        <ele>1998</ele>
        <time>2020-03-21T15:03:18.882Z</time>
      </trkpt>
      <trkpt lat="44.16276" lon="6.66212">
        <ele>1997</ele>
        <time>2020-03-21T15:03:19.882Z</time>
      </trkpt>
      <trkpt lat="44.16271" lon="6.66214">
        <ele>1995</ele>
        <time>2020-03-21T15:03:20.882Z</time>
      </trkpt>
      <trkpt lat="44.16261" lon="6.66217">
        <ele>1992</ele>
        <time>2020-03-21T15:03:21.882Z</time>
      </trkpt>
      <trkpt lat="44.16249" lon="6.66222">
        <ele>1988</ele>
        <time>2020-03-21T15:03:22.882Z</time>
      </trkpt>
      <trkpt lat="44.16237" lon="6.66236">
        <ele>1989</ele>
        <time>2020-03-21T15:03:23.882Z</time>
      </trkpt>
      <trkpt lat="44.16233" lon="6.6624">
        <ele>1989</ele>
        <time>2020-03-21T15:03:24.882Z</time>
      </trkpt>
      <trkpt lat="44.16232" lon="6.66239">
        <ele>1989</ele>
        <time>2020-03-21T15:03:25.882Z</time>
      </trkpt>
      <trkpt lat="44.16231" lon="6.66235">
        <ele>1988</ele>
        <time>2020-03-21T15:03:26.882Z</time>
      </trkpt>
      <trkpt lat="44.1623" lon="6.66234">
        <ele>1988</ele>
        <time>2020-03-21T15:03:27.882Z</time>
      </trkpt>
      <trkpt lat="44.16227" lon="6.6623">
        <ele>1988</ele>
        <time>2020-03-21T15:03:28.882Z</time>
      </trkpt>
      <trkpt lat="44.16224" lon="6.66228">
        <ele>1987</ele>
        <time>2020-03-21T15:03:29.882Z</time>
      </trkpt>
      <trkpt lat="44.16218" lon="6.66226">
        <ele>1987</ele>
        <time>2020-03-21T15:03:30.882Z</time>
      </trkpt>
      <trkpt lat="44.16208" lon="6.66224">
        <ele>1986</ele>
        <time>2020-03-21T15:03:31.882Z</time>
      </trkpt>
      <trkpt lat="44.16193" lon="6.6622">
        <ele>1984</ele>
        <time>2020-03-21T15:03:32.882Z</time>
      </trkpt>
      <trkpt lat="44.16181" lon="6.66213">
        <ele>1981</ele>
        <time>2020-03-21T15:03:33.882Z</time>
      </trkpt>
      <trkpt lat="44.16162" lon="6.66204">
        <ele>1975</ele>
        <time>2020-03-21T15:03:34.882Z</time>
      </trkpt>
      <trkpt lat="44.16145" lon="6.66192">
        <ele>1970</ele>
        <time>2020-03-21T15:03:35.882Z</time>
      </trkpt>
      <trkpt lat="44.16126" lon="6.66183">
        <ele>1966</ele>
        <time>2020-03-21T15:03:36.882Z</time>
      </trkpt>
      <trkpt lat="44.16107" lon="6.66192">
        <ele>1968</ele>
        <time>2020-03-21T15:03:37.882Z</time>
      </trkpt>
      <trkpt lat="44.16089" lon="6.66201">
        <ele>1971</ele>
        <time>2020-03-21T15:03:38.882Z</time>
      </trkpt>
      <trkpt lat="44.16078" lon="6.66204">
        <ele>1969</ele>
        <time>2020-03-21T15:03:39.882Z</time>
      </trkpt>
      <trkpt lat="44.16051" lon="6.66213">
        <ele>1958</ele>
        <time>2020-03-21T15:03:40.882Z</time>
      </trkpt>
      <trkpt lat="44.16034" lon="6.66222">
        <ele>1952</ele>
        <time>2020-03-21T15:03:41.882Z</time>
      </trkpt>
      <trkpt lat="44.16021" lon="6.66235">
        <ele>1949</ele>
        <time>2020-03-21T15:03:42.882Z</time>
      </trkpt>
      <trkpt lat="44.16014" lon="6.66244">
        <ele>1948</ele>
        <time>2020-03-21T15:03:43.882Z</time>
      </trkpt>
      <trkpt lat="44.1601" lon="6.66266">
        <ele>1952</ele>
        <time>2020-03-21T15:03:44.882Z</time>
      </trkpt>
      <trkpt lat="44.16012" lon="6.66286">
        <ele>1958</ele>
        <time>2020-03-21T15:03:45.882Z</time>
      </trkpt>
      <trkpt lat="44.1602" lon="6.66307">
        <ele>1968</ele>
        <time>2020-03-21T15:03:46.882Z</time>
      </trkpt>
      <trkpt lat="44.16021" lon="6.66315">
        <ele>1970</ele>
        <time>2020-03-21T15:03:47.882Z</time>
      </trkpt>
      <trkpt lat="44.16017" lon="6.66328">
        <ele>1971</ele>
        <time>2020-03-21T15:03:48.882Z</time>
      </trkpt>
      <trkpt lat="44.16004" lon="6.66341">
        <ele>1965</ele>
        <time>2020-03-21T15:03:49.882Z</time>
      </trkpt>
      <trkpt lat="44.15996" lon="6.66348">
        <ele>1962</ele>
        <time>2020-03-21T15:03:50.882Z</time>
      </trkpt>
      <trkpt lat="44.15989" lon="6.66368">
        <ele>1961</ele>
        <time>2020-03-21T15:03:51.882Z</time>
      </trkpt>
      <trkpt lat="44.15986" lon="6.66379">
        <ele>1961</ele>
        <time>2020-03-21T15:03:52.882Z</time>
      </trkpt>
      <trkpt lat="44.15983" lon="6.66401">
        <ele>1964</ele>
        <time>2020-03-21T15:03:53.882Z</time>
      </trkpt>
      <trkpt lat="44.15979" lon="6.66429">
        <ele>1967</ele>
        <time>2020-03-21T15:03:54.882Z</time>
      </trkpt>
      <trkpt lat="44.15982" lon="6.66456">
        <ele>1971</ele>
        <time>2020-03-21T15:03:55.882Z</time>
      </trkpt>
      <trkpt lat="44.15984" lon="6.66479">
        <ele>1974</ele>
        <time>2020-03-21T15:03:56.882Z</time>
      </trkpt>
      <trkpt lat="44.1598" lon="6.66507">
        <ele>1976</ele>
        <time>2020-03-21T15:03:57.882Z</time>
      </trkpt>
      <trkpt lat="44.15984" lon="6.66519">
        <ele>1977</ele>
        <time>2020-03-21T15:03:58.882Z</time>
      </trkpt>
      <trkpt lat="44.15984" lon="6.6652">
        <ele>1977</ele>
        <time>2020-03-21T15:03:59.882Z</time>
      </trkpt>
      <trkpt lat="44.15983" lon="6.66524">
        <ele>1978</ele>
        <time>2020-03-21T15:04:00.882Z</time>
      </trkpt>
      <trkpt lat="44.15987" lon="6.66535">
        <ele>1979</ele>
        <time>2020-03-21T15:04:01.882Z</time>
      </trkpt>
      <trkpt lat="44.15985" lon="6.66542">
        <ele>1979</ele>
        <time>2020-03-21T15:04:02.882Z</time>
      </trkpt>
      <trkpt lat="44.15979" lon="6.66535">
        <ele>1978</ele>
        <time>2020-03-21T15:04:03.882Z</time>
      </trkpt>
      <trkpt lat="44.15967" lon="6.66515">
        <ele>1975</ele>
        <time>2020-03-21T15:04:04.882Z</time>
      </trkpt>
      <trkpt lat="44.15961" lon="6.665">
        <ele>1972</ele>
        <time>2020-03-21T15:04:05.882Z</time>
      </trkpt>
      <trkpt lat="44.15956" lon="6.66488">
        <ele>1970</ele>
        <time>2020-03-21T15:04:06.882Z</time>
      </trkpt>
      <trkpt lat="44.15948" lon="6.66476">
        <ele>1966</ele>
        <time>2020-03-21T15:04:07.882Z</time>
      </trkpt>
      <trkpt lat="44.15936" lon="6.66468">
        <ele>1961</ele>
        <time>2020-03-21T15:04:08.882Z</time>
      </trkpt>
      <trkpt lat="44.15923" lon="6.66459">
        <ele>1956</ele>
        <time>2020-03-21T15:04:09.882Z</time>
      </trkpt>
      <trkpt lat="44.15909" lon="6.66451">
        <ele>1950</ele>
        <time>2020-03-21T15:04:10.882Z</time>
      </trkpt>
      <trkpt lat="44.15899" lon="6.66446">
        <ele>1945</ele>
        <time>2020-03-21T15:04:11.882Z</time>
      </trkpt>
      <trkpt lat="44.15882" lon="6.66448">
        <ele>1941</ele>
        <time>2020-03-21T15:04:12.882Z</time>
      </trkpt>
      <trkpt lat="44.1587" lon="6.66457">
        <ele>1940</ele>
        <time>2020-03-21T15:04:13.882Z</time>
      </trkpt>
      <trkpt lat="44.15865" lon="6.66476">
        <ele>1944</ele>
        <time>2020-03-21T15:04:14.882Z</time>
      </trkpt>
      <trkpt lat="44.15868" lon="6.66503">
        <ele>1952</ele>
        <time>2020-03-21T15:04:15.882Z</time>
      </trkpt>
      <trkpt lat="44.15863" lon="6.6652">
        <ele>1956</ele>
        <time>2020-03-21T15:04:16.882Z</time>
      </trkpt>
      <trkpt lat="44.15856" lon="6.66541">
        <ele>1961</ele>
        <time>2020-03-21T15:04:17.882Z</time>
      </trkpt>
      <trkpt lat="44.15837" lon="6.66566">
        <ele>1966</ele>
        <time>2020-03-21T15:04:18.882Z</time>
      </trkpt>
      <trkpt lat="44.15834" lon="6.6657">
        <ele>1966</ele>
        <time>2020-03-21T15:04:19.882Z</time>
      </trkpt>
      <trkpt lat="44.15816" lon="6.6659">
        <ele>1964</ele>
        <time>2020-03-21T15:04:20.882Z</time>
      </trkpt>
      <trkpt lat="44.15805" lon="6.666">
        <ele>1961</ele>
        <time>2020-03-21T15:04:21.882Z</time>
      </trkpt>
      <trkpt lat="44.15785" lon="6.66619">
        <ele>1956</ele>
        <time>2020-03-21T15:04:22.882Z</time>
      </trkpt>
      <trkpt lat="44.15774" lon="6.66642">
        <ele>1958</ele>
        <time>2020-03-21T15:04:23.882Z</time>
      </trkpt>
      <trkpt lat="44.1577" lon="6.6665">
        <ele>1958</ele>
        <time>2020-03-21T15:04:24.882Z</time>
      </trkpt>
      <trkpt lat="44.15765" lon="6.66671">
        <ele>1961</ele>
        <time>2020-03-21T15:04:25.882Z</time>
      </trkpt>
      <trkpt lat="44.1576" lon="6.66693">
        <ele>1963</ele>
        <time>2020-03-21T15:04:26.882Z</time>
      </trkpt>
      <trkpt lat="44.15752" lon="6.66714">
        <ele>1962</ele>
        <time>2020-03-21T15:04:27.882Z</time>
      </trkpt>
      <trkpt lat="44.15751" lon="6.66717">
        <ele>1962</ele>
        <time>2020-03-21T15:04:28.882Z</time>
      </trkpt>
      <trkpt lat="44.15751" lon="6.66734">
        <ele>1966</ele>
        <time>2020-03-21T15:04:29.882Z</time>
      </trkpt>
      <trkpt lat="44.15757" lon="6.66758">
        <ele>1974</ele>
        <time>2020-03-21T15:04:30.882Z</time>
      </trkpt>
      <trkpt lat="44.15757" lon="6.6676">
        <ele>1974</ele>
        <time>2020-03-21T15:04:31.882Z</time>
      </trkpt>
      <trkpt lat="44.15758" lon="6.66773">
        <ele>1976</ele>
        <time>2020-03-21T15:04:32.882Z</time>
      </trkpt>
      <trkpt lat="44.15757" lon="6.6679">
        <ele>1977</ele>
        <time>2020-03-21T15:04:33.882Z</time>
      </trkpt>
      <trkpt lat="44.15756" lon="6.66807">
        <ele>1978</ele>
        <time>2020-03-21T15:04:34.882Z</time>
      </trkpt>
      <trkpt lat="44.15758" lon="6.6682">
        <ele>1981</ele>
        <time>2020-03-21T15:04:35.882Z</time>
      </trkpt>
      <trkpt lat="44.15761" lon="6.66834">
        <ele>1985</ele>
        <time>2020-03-21T15:04:36.882Z</time>
      </trkpt>
      <trkpt lat="44.15761" lon="6.66837">
        <ele>1985</ele>
        <time>2020-03-21T15:04:37.882Z</time>
      </trkpt>
      <trkpt lat="44.15762" lon="6.66855">
        <ele>1986</ele>
        <time>2020-03-21T15:04:38.882Z</time>
      </trkpt>
      <trkpt lat="44.15761" lon="6.66867">
        <ele>1986</ele>
        <time>2020-03-21T15:04:39.882Z</time>
      </trkpt>
      <trkpt lat="44.15762" lon="6.66882">
        <ele>1987</ele>
        <time>2020-03-21T15:04:40.882Z</time>
      </trkpt>
      <trkpt lat="44.15762" lon="6.6691">
        <ele>1988</ele>
        <time>2020-03-21T15:04:41.882Z</time>
      </trkpt>
      <trkpt lat="44.15759" lon="6.66931">
        <ele>1987</ele>
        <time>2020-03-21T15:04:42.882Z</time>
      </trkpt>
      <trkpt lat="44.1575" lon="6.6697">
        <ele>1983</ele>
        <time>2020-03-21T15:04:43.882Z</time>
      </trkpt>
      <trkpt lat="44.15748" lon="6.66984">
        <ele>1982</ele>
        <time>2020-03-21T15:04:44.882Z</time>
      </trkpt>
      <trkpt lat="44.15744" lon="6.67006">
        <ele>1982</ele>
        <time>2020-03-21T15:04:45.882Z</time>
      </trkpt>
      <trkpt lat="44.15741" lon="6.67009">
        <ele>1980</ele>
        <time>2020-03-21T15:04:46.882Z</time>
      </trkpt>
      <trkpt lat="44.15737" lon="6.67014">
        <ele>1979</ele>
        <time>2020-03-21T15:04:47.882Z</time>
      </trkpt>
      <trkpt lat="44.15728" lon="6.6704">
        <ele>1977</ele>
        <time>2020-03-21T15:04:48.882Z</time>
      </trkpt>
      <trkpt lat="44.15726" lon="6.6707">
        <ele>1979</ele>
        <time>2020-03-21T15:04:49.882Z</time>
      </trkpt>
      <trkpt lat="44.15721" lon="6.67077">
        <ele>1977</ele>
        <time>2020-03-21T15:04:50.882Z</time>
      </trkpt>
      <trkpt lat="44.15708" lon="6.67087">
        <ele>1973</ele>
        <time>2020-03-21T15:04:51.882Z</time>
      </trkpt>
      <trkpt lat="44.15702" lon="6.67097">
        <ele>1972</ele>
        <time>2020-03-21T15:04:52.882Z</time>
      </trkpt>
      <trkpt lat="44.15696" lon="6.67109">
        <ele>1971</ele>
        <time>2020-03-21T15:04:53.882Z</time>
      </trkpt>
      <trkpt lat="44.15687" lon="6.67136">
        <ele>1971</ele>
        <time>2020-03-21T15:04:54.882Z</time>
      </trkpt>
      <trkpt lat="44.15682" lon="6.67148">
        <ele>1970</ele>
        <time>2020-03-21T15:04:55.882Z</time>
      </trkpt>
      <trkpt lat="44.1567" lon="6.67167">
        <ele>1967</ele>
        <time>2020-03-21T15:04:56.882Z</time>
      </trkpt>
      <trkpt lat="44.15668" lon="6.67172">
        <ele>1968</ele>
        <time>2020-03-21T15:04:57.882Z</time>
      </trkpt>
      <trkpt lat="44.15658" lon="6.67187">
        <ele>1966</ele>
        <time>2020-03-21T15:04:58.882Z</time>
      </trkpt>
      <trkpt lat="44.15654" lon="6.6719">
        <ele>1965</ele>
        <time>2020-03-21T15:04:59.882Z</time>
      </trkpt>
      <trkpt lat="44.15645" lon="6.67194">
        <ele>1963</ele>
        <time>2020-03-21T15:05:00.882Z</time>
      </trkpt>
      <trkpt lat="44.15642" lon="6.67197">
        <ele>1962</ele>
        <time>2020-03-21T15:05:01.882Z</time>
      </trkpt>
      <trkpt lat="44.1563" lon="6.67213">
        <ele>1960</ele>
        <time>2020-03-21T15:05:02.882Z</time>
      </trkpt>
      <trkpt lat="44.15624" lon="6.6722">
        <ele>1959</ele>
        <time>2020-03-21T15:05:03.882Z</time>
      </trkpt>
      <trkpt lat="44.15619" lon="6.67231">
        <ele>1959</ele>
        <time>2020-03-21T15:05:04.882Z</time>
      </trkpt>
      <trkpt lat="44.15619" lon="6.67234">
        <ele>1959</ele>
        <time>2020-03-21T15:05:05.882Z</time>
      </trkpt>
      <trkpt lat="44.1561" lon="6.67246">
        <ele>1958</ele>
        <time>2020-03-21T15:05:06.882Z</time>
      </trkpt>
      <trkpt lat="44.156" lon="6.67255">
        <ele>1956</ele>
        <time>2020-03-21T15:05:07.882Z</time>
      </trkpt>
      <trkpt lat="44.15598" lon="6.67257">
        <ele>1955</ele>
        <time>2020-03-21T15:05:08.882Z</time>
      </trkpt>
      <trkpt lat="44.1559" lon="6.67263">
        <ele>1953</ele>
        <time>2020-03-21T15:05:09.882Z</time>
      </trkpt>
      <trkpt lat="44.15579" lon="6.67274">
        <ele>1951</ele>
        <time>2020-03-21T15:05:10.882Z</time>
      </trkpt>
      <trkpt lat="44.15569" lon="6.67283">
        <ele>1947</ele>
        <time>2020-03-21T15:05:11.882Z</time>
      </trkpt>
      <trkpt lat="44.15559" lon="6.67292">
        <ele>1943</ele>
        <time>2020-03-21T15:05:12.882Z</time>
      </trkpt>
      <trkpt lat="44.15548" lon="6.673">
        <ele>1938</ele>
        <time>2020-03-21T15:05:13.882Z</time>
      </trkpt>
      <trkpt lat="44.15531" lon="6.67316">
        <ele>1932</ele>
        <time>2020-03-21T15:05:14.882Z</time>
      </trkpt>
      <trkpt lat="44.15517" lon="6.67341">
        <ele>1930</ele>
        <time>2020-03-21T15:05:15.882Z</time>
      </trkpt>
      <trkpt lat="44.15512" lon="6.67359">
        <ele>1932</ele>
        <time>2020-03-21T15:05:16.882Z</time>
      </trkpt>
      <trkpt lat="44.15503" lon="6.67373">
        <ele>1931</ele>
        <time>2020-03-21T15:05:17.882Z</time>
      </trkpt>
      <trkpt lat="44.15497" lon="6.67382">
        <ele>1929</ele>
        <time>2020-03-21T15:05:18.882Z</time>
      </trkpt>
      <trkpt lat="44.15485" lon="6.67399">
        <ele>1926</ele>
        <time>2020-03-21T15:05:19.882Z</time>
      </trkpt>
      <trkpt lat="44.15482" lon="6.67404">
        <ele>1925</ele>
        <time>2020-03-21T15:05:20.882Z</time>
      </trkpt>
      <trkpt lat="44.15478" lon="6.67416">
        <ele>1926</ele>
        <time>2020-03-21T15:05:21.882Z</time>
      </trkpt>
      <trkpt lat="44.15475" lon="6.67421">
        <ele>1925</ele>
        <time>2020-03-21T15:05:22.882Z</time>
      </trkpt>
      <trkpt lat="44.15473" lon="6.67425">
        <ele>1925</ele>
        <time>2020-03-21T15:05:23.882Z</time>
      </trkpt>
      <trkpt lat="44.15473" lon="6.67427">
        <ele>1925</ele>
        <time>2020-03-21T15:05:24.882Z</time>
      </trkpt>
      <trkpt lat="44.15472" lon="6.67429">
        <ele>1925</ele>
        <time>2020-03-21T15:05:25.882Z</time>
      </trkpt>
      <trkpt lat="44.15468" lon="6.67435">
        <ele>1924</ele>
        <time>2020-03-21T15:05:26.882Z</time>
      </trkpt>
      <trkpt lat="44.15463" lon="6.67441">
        <ele>1922</ele>
        <time>2020-03-21T15:05:27.882Z</time>
      </trkpt>
      <trkpt lat="44.15452" lon="6.67457">
        <ele>1919</ele>
        <time>2020-03-21T15:05:28.882Z</time>
      </trkpt>
      <trkpt lat="44.1545" lon="6.67461">
        <ele>1919</ele>
        <time>2020-03-21T15:05:29.882Z</time>
      </trkpt>
      <trkpt lat="44.15444" lon="6.67467">
        <ele>1916</ele>
        <time>2020-03-21T15:05:30.882Z</time>
      </trkpt>
      <trkpt lat="44.15424" lon="6.67486">
        <ele>1909</ele>
        <time>2020-03-21T15:05:31.882Z</time>
      </trkpt>
      <trkpt lat="44.1542" lon="6.67491">
        <ele>1909</ele>
        <time>2020-03-21T15:05:32.882Z</time>
      </trkpt>
      <trkpt lat="44.15412" lon="6.67502">
        <ele>1907</ele>
        <time>2020-03-21T15:05:33.882Z</time>
      </trkpt>
      <trkpt lat="44.15411" lon="6.67501">
        <ele>1906</ele>
        <time>2020-03-21T15:05:34.882Z</time>
      </trkpt>
      <trkpt lat="44.15406" lon="6.67497">
        <ele>1902</ele>
        <time>2020-03-21T15:05:35.882Z</time>
      </trkpt>
      <trkpt lat="44.15405" lon="6.67496">
        <ele>1901</ele>
        <time>2020-03-21T15:05:36.882Z</time>
      </trkpt>
      <trkpt lat="44.15401" lon="6.675">
        <ele>1901</ele>
        <time>2020-03-21T15:05:37.882Z</time>
      </trkpt>
      <trkpt lat="44.15386" lon="6.67517">
        <ele>1896</ele>
        <time>2020-03-21T15:05:38.882Z</time>
      </trkpt>
      <trkpt lat="44.15378" lon="6.67526">
        <ele>1894</ele>
        <time>2020-03-21T15:05:39.882Z</time>
      </trkpt>
      <trkpt lat="44.1537" lon="6.67544">
        <ele>1894</ele>
        <time>2020-03-21T15:05:40.882Z</time>
      </trkpt>
      <trkpt lat="44.15364" lon="6.67549">
        <ele>1892</ele>
        <time>2020-03-21T15:05:41.882Z</time>
      </trkpt>
      <trkpt lat="44.1535" lon="6.67564">
        <ele>1890</ele>
        <time>2020-03-21T15:05:42.882Z</time>
      </trkpt>
      <trkpt lat="44.1534" lon="6.67579">
        <ele>1889</ele>
        <time>2020-03-21T15:05:43.882Z</time>
      </trkpt>
      <trkpt lat="44.15332" lon="6.67588">
        <ele>1887</ele>
        <time>2020-03-21T15:05:44.882Z</time>
      </trkpt>
      <trkpt lat="44.15317" lon="6.67606">
        <ele>1883</ele>
        <time>2020-03-21T15:05:45.882Z</time>
      </trkpt>
      <trkpt lat="44.15312" lon="6.6762">
        <ele>1884</ele>
        <time>2020-03-21T15:05:46.882Z</time>
      </trkpt>
      <trkpt lat="44.15313" lon="6.67624">
        <ele>1885</ele>
        <time>2020-03-21T15:05:47.882Z</time>
      </trkpt>
      <trkpt lat="44.15311" lon="6.67639">
        <ele>1886</ele>
        <time>2020-03-21T15:05:48.882Z</time>
      </trkpt>
      <trkpt lat="44.15304" lon="6.67661">
        <ele>1886</ele>
        <time>2020-03-21T15:05:49.882Z</time>
      </trkpt>
      <trkpt lat="44.15303" lon="6.67665">
        <ele>1887</ele>
        <time>2020-03-21T15:05:50.882Z</time>
      </trkpt>
      <trkpt lat="44.15299" lon="6.67664">
        <ele>1885</ele>
        <time>2020-03-21T15:05:51.882Z</time>
      </trkpt>
      <trkpt lat="44.15295" lon="6.67655">
        <ele>1882</ele>
        <time>2020-03-21T15:05:52.882Z</time>
      </trkpt>
      <trkpt lat="44.15288" lon="6.6763">
        <ele>1876</ele>
        <time>2020-03-21T15:05:53.882Z</time>
      </trkpt>
      <trkpt lat="44.15284" lon="6.67605">
        <ele>1870</ele>
        <time>2020-03-21T15:05:54.882Z</time>
      </trkpt>
      <trkpt lat="44.15282" lon="6.67601">
        <ele>1869</ele>
        <time>2020-03-21T15:05:55.882Z</time>
      </trkpt>
      <trkpt lat="44.15271" lon="6.6761">
        <ele>1866</ele>
        <time>2020-03-21T15:05:56.882Z</time>
      </trkpt>
      <trkpt lat="44.1525" lon="6.67615">
        <ele>1858</ele>
        <time>2020-03-21T15:05:57.882Z</time>
      </trkpt>
      <trkpt lat="44.15247" lon="6.67618">
        <ele>1858</ele>
        <time>2020-03-21T15:05:58.882Z</time>
      </trkpt>
      <trkpt lat="44.1524" lon="6.67632">
        <ele>1858</ele>
        <time>2020-03-21T15:05:59.882Z</time>
      </trkpt>
      <trkpt lat="44.15232" lon="6.67638">
        <ele>1858</ele>
        <time>2020-03-21T15:06:00.882Z</time>
      </trkpt>
      <trkpt lat="44.15218" lon="6.67651">
        <ele>1857</ele>
        <time>2020-03-21T15:06:01.882Z</time>
      </trkpt>
      <trkpt lat="44.15207" lon="6.6765">
        <ele>1854</ele>
        <time>2020-03-21T15:06:02.882Z</time>
      </trkpt>
      <trkpt lat="44.15197" lon="6.67651">
        <ele>1851</ele>
        <time>2020-03-21T15:06:03.882Z</time>
      </trkpt>
      <trkpt lat="44.15196" lon="6.67651">
        <ele>1851</ele>
        <time>2020-03-21T15:06:04.882Z</time>
      </trkpt>
      <trkpt lat="44.15195" lon="6.6765">
        <ele>1851</ele>
        <time>2020-03-21T15:06:05.882Z</time>
      </trkpt>
      <trkpt lat="44.15193" lon="6.67649">
        <ele>1850</ele>
        <time>2020-03-21T15:06:06.882Z</time>
      </trkpt>
      <trkpt lat="44.15184" lon="6.67652">
        <ele>1849</ele>
        <time>2020-03-21T15:06:07.882Z</time>
      </trkpt>
      <trkpt lat="44.15169" lon="6.6765">
        <ele>1844</ele>
        <time>2020-03-21T15:06:08.882Z</time>
      </trkpt>
      <trkpt lat="44.15155" lon="6.67655">
        <ele>1843</ele>
        <time>2020-03-21T15:06:09.882Z</time>
      </trkpt>
      <trkpt lat="44.15148" lon="6.67659">
        <ele>1843</ele>
        <time>2020-03-21T15:06:10.882Z</time>
      </trkpt>
      <trkpt lat="44.15142" lon="6.67663">
        <ele>1843</ele>
        <time>2020-03-21T15:06:11.882Z</time>
      </trkpt>
      <trkpt lat="44.15141" lon="6.67666">
        <ele>1844</ele>
        <time>2020-03-21T15:06:12.882Z</time>
      </trkpt>
      <trkpt lat="44.15138" lon="6.67669">
        <ele>1844</ele>
        <time>2020-03-21T15:06:13.882Z</time>
      </trkpt>
      <trkpt lat="44.15138" lon="6.67669">
        <ele>1844</ele>
        <time>2020-03-21T15:06:14.882Z</time>
      </trkpt>
      <trkpt lat="44.15139" lon="6.67675">
        <ele>1846</ele>
        <time>2020-03-21T15:06:15.882Z</time>
      </trkpt>
      <trkpt lat="44.15139" lon="6.67676">
        <ele>1846</ele>
        <time>2020-03-21T15:06:16.882Z</time>
      </trkpt>
      <trkpt lat="44.15138" lon="6.67686">
        <ele>1848</ele>
        <time>2020-03-21T15:06:17.882Z</time>
      </trkpt>
      <trkpt lat="44.15137" lon="6.6769">
        <ele>1848</ele>
        <time>2020-03-21T15:06:18.882Z</time>
      </trkpt>
      <trkpt lat="44.15138" lon="6.6769">
        <ele>1849</ele>
        <time>2020-03-21T15:06:19.882Z</time>
      </trkpt>
      <trkpt lat="44.15137" lon="6.67687">
        <ele>1848</ele>
        <time>2020-03-21T15:06:20.882Z</time>
      </trkpt>
      <trkpt lat="44.15137" lon="6.67688">
        <ele>1848</ele>
        <time>2020-03-21T15:06:21.882Z</time>
      </trkpt>
      <trkpt lat="44.15133" lon="6.67688">
        <ele>1848</ele>
        <time>2020-03-21T15:06:22.882Z</time>
      </trkpt>
      <trkpt lat="44.15122" lon="6.67688">
        <ele>1846</ele>
        <time>2020-03-21T15:06:23.882Z</time>
      </trkpt>
      <trkpt lat="44.15103" lon="6.67696">
        <ele>1845</ele>
        <time>2020-03-21T15:06:24.882Z</time>
      </trkpt>
      <trkpt lat="44.15098" lon="6.67697">
        <ele>1845</ele>
        <time>2020-03-21T15:06:25.882Z</time>
      </trkpt>
      <trkpt lat="44.15086" lon="6.67698">
        <ele>1843</ele>
        <time>2020-03-21T15:06:26.882Z</time>
      </trkpt>
      <trkpt lat="44.15067" lon="6.67705">
        <ele>1843</ele>
        <time>2020-03-21T15:06:27.882Z</time>
      </trkpt>
      <trkpt lat="44.15048" lon="6.6771">
        <ele>1842</ele>
        <time>2020-03-21T15:06:28.882Z</time>
      </trkpt>
      <trkpt lat="44.1502" lon="6.67702">
        <ele>1838</ele>
        <time>2020-03-21T15:06:29.882Z</time>
      </trkpt>
      <trkpt lat="44.14985" lon="6.677">
        <ele>1834</ele>
        <time>2020-03-21T15:06:30.882Z</time>
      </trkpt>
      <trkpt lat="44.14981" lon="6.67701">
        <ele>1833</ele>
        <time>2020-03-21T15:06:31.882Z</time>
      </trkpt>
      <trkpt lat="44.1497" lon="6.67701">
        <ele>1832</ele>
        <time>2020-03-21T15:06:32.882Z</time>
      </trkpt>
      <trkpt lat="44.14961" lon="6.67706">
        <ele>1832</ele>
        <time>2020-03-21T15:06:33.882Z</time>
      </trkpt>
      <trkpt lat="44.14964" lon="6.67704">
        <ele>1832</ele>
        <time>2020-03-21T15:06:34.882Z</time>
      </trkpt>
      <trkpt lat="44.14959" lon="6.67704">
        <ele>1831</ele>
        <time>2020-03-21T15:06:35.882Z</time>
      </trkpt>
      <trkpt lat="44.14949" lon="6.67713">
        <ele>1832</ele>
        <time>2020-03-21T15:06:36.882Z</time>
      </trkpt>
      <trkpt lat="44.14931" lon="6.6772">
        <ele>1831</ele>
        <time>2020-03-21T15:06:37.882Z</time>
      </trkpt>
      <trkpt lat="44.14925" lon="6.67724">
        <ele>1831</ele>
        <time>2020-03-21T15:06:38.882Z</time>
      </trkpt>
      <trkpt lat="44.14923" lon="6.67726">
        <ele>1831</ele>
        <time>2020-03-21T15:06:39.882Z</time>
      </trkpt>
      <trkpt lat="44.14917" lon="6.67735">
        <ele>1832</ele>
        <time>2020-03-21T15:06:40.882Z</time>
      </trkpt>
      <trkpt lat="44.14914" lon="6.67739">
        <ele>1832</ele>
        <time>2020-03-21T15:06:41.882Z</time>
      </trkpt>
      <trkpt lat="44.14904" lon="6.67758">
        <ele>1834</ele>
        <time>2020-03-21T15:06:42.882Z</time>
      </trkpt>
      <trkpt lat="44.14896" lon="6.67766">
        <ele>1834</ele>
        <time>2020-03-21T15:06:43.882Z</time>
      </trkpt>
      <trkpt lat="44.14889" lon="6.67779">
        <ele>1836</ele>
        <time>2020-03-21T15:06:44.882Z</time>
      </trkpt>
      <trkpt lat="44.14883" lon="6.67787">
        <ele>1837</ele>
        <time>2020-03-21T15:06:45.882Z</time>
      </trkpt>
      <trkpt lat="44.14876" lon="6.67795">
        <ele>1838</ele>
        <time>2020-03-21T15:06:46.882Z</time>
      </trkpt>
      <trkpt lat="44.14867" lon="6.67804">
        <ele>1838</ele>
        <time>2020-03-21T15:06:47.882Z</time>
      </trkpt>
      <trkpt lat="44.14864" lon="6.6781">
        <ele>1839</ele>
        <time>2020-03-21T15:06:48.882Z</time>
      </trkpt>
      <trkpt lat="44.14856" lon="6.6782">
        <ele>1841</ele>
        <time>2020-03-21T15:06:49.882Z</time>
      </trkpt>
      <trkpt lat="44.14851" lon="6.6783">
        <ele>1843</ele>
        <time>2020-03-21T15:06:50.882Z</time>
      </trkpt>
      <trkpt lat="44.1485" lon="6.67833">
        <ele>1843</ele>
        <time>2020-03-21T15:06:51.882Z</time>
      </trkpt>
      <trkpt lat="44.14843" lon="6.67841">
        <ele>1845</ele>
        <time>2020-03-21T15:06:52.882Z</time>
      </trkpt>
      <trkpt lat="44.14839" lon="6.6785">
        <ele>1846</ele>
        <time>2020-03-21T15:06:53.882Z</time>
      </trkpt>
      <trkpt lat="44.14838" lon="6.67852">
        <ele>1847</ele>
        <time>2020-03-21T15:06:54.882Z</time>
      </trkpt>
      <trkpt lat="44.14836" lon="6.67855">
        <ele>1847</ele>
        <time>2020-03-21T15:06:55.882Z</time>
      </trkpt>
      <trkpt lat="44.14831" lon="6.67863">
        <ele>1849</ele>
        <time>2020-03-21T15:06:56.882Z</time>
      </trkpt>
      <trkpt lat="44.14827" lon="6.67872">
        <ele>1850</ele>
        <time>2020-03-21T15:06:57.882Z</time>
      </trkpt>
      <trkpt lat="44.14822" lon="6.67876">
        <ele>1851</ele>
        <time>2020-03-21T15:06:58.882Z</time>
      </trkpt>
      <trkpt lat="44.1482" lon="6.67879">
        <ele>1851</ele>
        <time>2020-03-21T15:06:59.882Z</time>
      </trkpt>
      <trkpt lat="44.14817" lon="6.67881">
        <ele>1851</ele>
        <time>2020-03-21T15:07:00.882Z</time>
      </trkpt>
      <trkpt lat="44.14809" lon="6.67886">
        <ele>1851</ele>
        <time>2020-03-21T15:07:01.882Z</time>
      </trkpt>
      <trkpt lat="44.14807" lon="6.67887">
        <ele>1851</ele>
        <time>2020-03-21T15:07:02.882Z</time>
      </trkpt>
      <trkpt lat="44.14803" lon="6.67891">
        <ele>1851</ele>
        <time>2020-03-21T15:07:03.882Z</time>
      </trkpt>
      <trkpt lat="44.14794" lon="6.67896">
        <ele>1851</ele>
        <time>2020-03-21T15:07:04.882Z</time>
      </trkpt>
      <trkpt lat="44.14792" lon="6.67897">
        <ele>1851</ele>
        <time>2020-03-21T15:07:05.882Z</time>
      </trkpt>
      <trkpt lat="44.14787" lon="6.67905">
        <ele>1852</ele>
        <time>2020-03-21T15:07:06.882Z</time>
      </trkpt>
      <trkpt lat="44.14779" lon="6.6791">
        <ele>1853</ele>
        <time>2020-03-21T15:07:07.882Z</time>
      </trkpt>
      <trkpt lat="44.14774" lon="6.67911">
        <ele>1852</ele>
        <time>2020-03-21T15:07:08.882Z</time>
      </trkpt>
      <trkpt lat="44.14767" lon="6.67921">
        <ele>1854</ele>
        <time>2020-03-21T15:07:09.882Z</time>
      </trkpt>
      <trkpt lat="44.14763" lon="6.67936">
        <ele>1858</ele>
        <time>2020-03-21T15:07:10.882Z</time>
      </trkpt>
      <trkpt lat="44.14761" lon="6.67942">
        <ele>1860</ele>
        <time>2020-03-21T15:07:11.882Z</time>
      </trkpt>
      <trkpt lat="44.14754" lon="6.67949">
        <ele>1861</ele>
        <time>2020-03-21T15:07:12.882Z</time>
      </trkpt>
      <trkpt lat="44.14753" lon="6.67951">
        <ele>1861</ele>
        <time>2020-03-21T15:07:13.882Z</time>
      </trkpt>
      <trkpt lat="44.14747" lon="6.67957">
        <ele>1862</ele>
        <time>2020-03-21T15:07:14.882Z</time>
      </trkpt>
      <trkpt lat="44.14741" lon="6.67966">
        <ele>1863</ele>
        <time>2020-03-21T15:07:15.882Z</time>
      </trkpt>
      <trkpt lat="44.14732" lon="6.67975">
        <ele>1864</ele>
        <time>2020-03-21T15:07:16.882Z</time>
      </trkpt>
      <trkpt lat="44.14722" lon="6.67982">
        <ele>1865</ele>
        <time>2020-03-21T15:07:17.882Z</time>
      </trkpt>
      <trkpt lat="44.14715" lon="6.67989">
        <ele>1866</ele>
        <time>2020-03-21T15:07:18.882Z</time>
      </trkpt>
      <trkpt lat="44.14708" lon="6.67999">
        <ele>1868</ele>
        <time>2020-03-21T15:07:19.882Z</time>
      </trkpt>
      <trkpt lat="44.14704" lon="6.68003">
        <ele>1868</ele>
        <time>2020-03-21T15:07:20.882Z</time>
      </trkpt>
      <trkpt lat="44.14698" lon="6.6801">
        <ele>1870</ele>
        <time>2020-03-21T15:07:21.882Z</time>
      </trkpt>
      <trkpt lat="44.14691" lon="6.68016">
        <ele>1871</ele>
        <time>2020-03-21T15:07:22.882Z</time>
      </trkpt>
      <trkpt lat="44.1469" lon="6.68017">
        <ele>1871</ele>
        <time>2020-03-21T15:07:23.882Z</time>
      </trkpt>
      <trkpt lat="44.14685" lon="6.68022">
        <ele>1873</ele>
        <time>2020-03-21T15:07:24.882Z</time>
      </trkpt>
      <trkpt lat="44.1468" lon="6.68026">
        <ele>1874</ele>
        <time>2020-03-21T15:07:25.882Z</time>
      </trkpt>
      <trkpt lat="44.14677" lon="6.68029">
        <ele>1874</ele>
        <time>2020-03-21T15:07:26.882Z</time>
      </trkpt>
      <trkpt lat="44.14675" lon="6.6803">
        <ele>1875</ele>
        <time>2020-03-21T15:07:27.882Z</time>
      </trkpt>
      <trkpt lat="44.14673" lon="6.68034">
        <ele>1876</ele>
        <time>2020-03-21T15:07:28.882Z</time>
      </trkpt>
      <trkpt lat="44.14667" lon="6.6804">
        <ele>1878</ele>
        <time>2020-03-21T15:07:29.882Z</time>
      </trkpt>
      <trkpt lat="44.14661" lon="6.68042">
        <ele>1878</ele>
        <time>2020-03-21T15:07:30.882Z</time>
      </trkpt>
      <trkpt lat="44.14657" lon="6.68043">
        <ele>1878</ele>
        <time>2020-03-21T15:07:31.882Z</time>
      </trkpt>
      <trkpt lat="44.14653" lon="6.68045">
        <ele>1878</ele>
        <time>2020-03-21T15:07:32.882Z</time>
      </trkpt>
      <trkpt lat="44.14648" lon="6.68047">
        <ele>1879</ele>
        <time>2020-03-21T15:07:33.882Z</time>
      </trkpt>
      <trkpt lat="44.14641" lon="6.68053">
        <ele>1881</ele>
        <time>2020-03-21T15:07:34.882Z</time>
      </trkpt>
      <trkpt lat="44.14634" lon="6.68063">
        <ele>1885</ele>
        <time>2020-03-21T15:07:35.882Z</time>
      </trkpt>
      <trkpt lat="44.14626" lon="6.68076">
        <ele>1890</ele>
        <time>2020-03-21T15:07:36.882Z</time>
      </trkpt>
      <trkpt lat="44.14621" lon="6.68087">
        <ele>1894</ele>
        <time>2020-03-21T15:07:37.882Z</time>
      </trkpt>
      <trkpt lat="44.14614" lon="6.68099">
        <ele>1899</ele>
        <time>2020-03-21T15:07:38.882Z</time>
      </trkpt>
      <trkpt lat="44.14608" lon="6.68108">
        <ele>1902</ele>
        <time>2020-03-21T15:07:39.882Z</time>
      </trkpt>
      <trkpt lat="44.14605" lon="6.6811">
        <ele>1903</ele>
        <time>2020-03-21T15:07:40.882Z</time>
      </trkpt>
      <trkpt lat="44.14607" lon="6.6811">
        <ele>1903</ele>
        <time>2020-03-21T15:07:41.882Z</time>
      </trkpt>
      <trkpt lat="44.14606" lon="6.6811">
        <ele>1903</ele>
        <time>2020-03-21T15:07:42.882Z</time>
      </trkpt>
      <trkpt lat="44.14599" lon="6.68109">
        <ele>1902</ele>
        <time>2020-03-21T15:07:43.882Z</time>
      </trkpt>
      <trkpt lat="44.14592" lon="6.68111">
        <ele>1902</ele>
        <time>2020-03-21T15:07:44.882Z</time>
      </trkpt>
      <trkpt lat="44.14588" lon="6.68111">
        <ele>1902</ele>
        <time>2020-03-21T15:07:45.882Z</time>
      </trkpt>
      <trkpt lat="44.14586" lon="6.68111">
        <ele>1902</ele>
        <time>2020-03-21T15:07:46.882Z</time>
      </trkpt>
      <trkpt lat="44.14582" lon="6.68109">
        <ele>1900</ele>
        <time>2020-03-21T15:07:47.882Z</time>
      </trkpt>
      <trkpt lat="44.14581" lon="6.68108">
        <ele>1900</ele>
        <time>2020-03-21T15:07:48.882Z</time>
      </trkpt>
      <trkpt lat="44.14578" lon="6.68106">
        <ele>1900</ele>
        <time>2020-03-21T15:07:49.882Z</time>
      </trkpt>
      <trkpt lat="44.14572" lon="6.68106">
        <ele>1900</ele>
        <time>2020-03-21T15:07:50.882Z</time>
      </trkpt>
      <trkpt lat="44.14567" lon="6.68106">
        <ele>1900</ele>
        <time>2020-03-21T15:07:51.882Z</time>
      </trkpt>
      <trkpt lat="44.14558" lon="6.68111">
        <ele>1903</ele>
        <time>2020-03-21T15:07:52.882Z</time>
      </trkpt>
      <trkpt lat="44.14546" lon="6.68125">
        <ele>1908</ele>
        <time>2020-03-21T15:07:53.882Z</time>
      </trkpt>
      <trkpt lat="44.14537" lon="6.68133">
        <ele>1912</ele>
        <time>2020-03-21T15:07:54.882Z</time>
      </trkpt>
      <trkpt lat="44.14529" lon="6.68143">
        <ele>1915</ele>
        <time>2020-03-21T15:07:55.882Z</time>
      </trkpt>
      <trkpt lat="44.14521" lon="6.6815">
        <ele>1917</ele>
        <time>2020-03-21T15:07:56.882Z</time>
      </trkpt>
      <trkpt lat="44.14517" lon="6.68154">
        <ele>1918</ele>
        <time>2020-03-21T15:07:57.882Z</time>
      </trkpt>
      <trkpt lat="44.14509" lon="6.68161">
        <ele>1920</ele>
        <time>2020-03-21T15:07:58.882Z</time>
      </trkpt>
      <trkpt lat="44.14498" lon="6.68167">
        <ele>1921</ele>
        <time>2020-03-21T15:07:59.882Z</time>
      </trkpt>
      <trkpt lat="44.14491" lon="6.68174">
        <ele>1923</ele>
        <time>2020-03-21T15:08:00.882Z</time>
      </trkpt>
      <trkpt lat="44.14483" lon="6.68184">
        <ele>1926</ele>
        <time>2020-03-21T15:08:01.882Z</time>
      </trkpt>
      <trkpt lat="44.14476" lon="6.68193">
        <ele>1928</ele>
        <time>2020-03-21T15:08:02.882Z</time>
      </trkpt>
      <trkpt lat="44.14469" lon="6.68202">
        <ele>1929</ele>
        <time>2020-03-21T15:08:03.882Z</time>
      </trkpt>
      <trkpt lat="44.14464" lon="6.68209">
        <ele>1931</ele>
        <time>2020-03-21T15:08:04.882Z</time>
      </trkpt>
      <trkpt lat="44.14457" lon="6.68213">
        <ele>1931</ele>
        <time>2020-03-21T15:08:05.882Z</time>
      </trkpt>
      <trkpt lat="44.14444" lon="6.68221">
        <ele>1932</ele>
        <time>2020-03-21T15:08:06.882Z</time>
      </trkpt>
      <trkpt lat="44.14427" lon="6.68236">
        <ele>1933</ele>
        <time>2020-03-21T15:08:07.882Z</time>
      </trkpt>
      <trkpt lat="44.14408" lon="6.68257">
        <ele>1935</ele>
        <time>2020-03-21T15:08:08.882Z</time>
      </trkpt>
      <trkpt lat="44.14393" lon="6.68279">
        <ele>1938</ele>
        <time>2020-03-21T15:08:09.882Z</time>
      </trkpt>
      <trkpt lat="44.14379" lon="6.68293">
        <ele>1939</ele>
        <time>2020-03-21T15:08:10.882Z</time>
      </trkpt>
      <trkpt lat="44.14361" lon="6.68305">
        <ele>1940</ele>
        <time>2020-03-21T15:08:11.882Z</time>
      </trkpt>
      <trkpt lat="44.14347" lon="6.68318">
        <ele>1940</ele>
        <time>2020-03-21T15:08:12.882Z</time>
      </trkpt>
      <trkpt lat="44.14334" lon="6.68334">
        <ele>1940</ele>
        <time>2020-03-21T15:08:13.882Z</time>
      </trkpt>
      <trkpt lat="44.14324" lon="6.68346">
        <ele>1942</ele>
        <time>2020-03-21T15:08:14.882Z</time>
      </trkpt>
      <trkpt lat="44.14321" lon="6.68348">
        <ele>1943</ele>
        <time>2020-03-21T15:08:15.882Z</time>
      </trkpt>
      <trkpt lat="44.14312" lon="6.68348">
        <ele>1943</ele>
        <time>2020-03-21T15:08:16.882Z</time>
      </trkpt>
      <trkpt lat="44.14308" lon="6.68347">
        <ele>1944</ele>
        <time>2020-03-21T15:08:17.882Z</time>
      </trkpt>
      <trkpt lat="44.14302" lon="6.68347">
        <ele>1944</ele>
        <time>2020-03-21T15:08:18.882Z</time>
      </trkpt>
      <trkpt lat="44.14296" lon="6.68346">
        <ele>1945</ele>
        <time>2020-03-21T15:08:19.882Z</time>
      </trkpt>
      <trkpt lat="44.1429" lon="6.68348">
        <ele>1945</ele>
        <time>2020-03-21T15:08:20.882Z</time>
      </trkpt>
      <trkpt lat="44.14285" lon="6.6835">
        <ele>1946</ele>
        <time>2020-03-21T15:08:21.882Z</time>
      </trkpt>
      <trkpt lat="44.14284" lon="6.6835">
        <ele>1946</ele>
        <time>2020-03-21T15:08:22.882Z</time>
      </trkpt>
      <trkpt lat="44.1428" lon="6.68352">
        <ele>1947</ele>
        <time>2020-03-21T15:08:23.882Z</time>
      </trkpt>
      <trkpt lat="44.14272" lon="6.68355">
        <ele>1948</ele>
        <time>2020-03-21T15:08:24.882Z</time>
      </trkpt>
      <trkpt lat="44.14263" lon="6.68354">
        <ele>1948</ele>
        <time>2020-03-21T15:08:25.882Z</time>
      </trkpt>
      <trkpt lat="44.14247" lon="6.68356">
        <ele>1950</ele>
        <time>2020-03-21T15:08:26.882Z</time>
      </trkpt>
      <trkpt lat="44.14231" lon="6.68361">
        <ele>1949</ele>
        <time>2020-03-21T15:08:27.882Z</time>
      </trkpt>
      <trkpt lat="44.14213" lon="6.68366">
        <ele>1949</ele>
        <time>2020-03-21T15:08:28.882Z</time>
      </trkpt>
      <trkpt lat="44.14201" lon="6.68373">
        <ele>1949</ele>
        <time>2020-03-21T15:08:29.882Z</time>
      </trkpt>
      <trkpt lat="44.14179" lon="6.68384">
        <ele>1950</ele>
        <time>2020-03-21T15:08:30.882Z</time>
      </trkpt>
      <trkpt lat="44.14166" lon="6.68394">
        <ele>1951</ele>
        <time>2020-03-21T15:08:31.882Z</time>
      </trkpt>
      <trkpt lat="44.1415" lon="6.68399">
        <ele>1950</ele>
        <time>2020-03-21T15:08:32.882Z</time>
      </trkpt>
      <trkpt lat="44.14138" lon="6.68401">
        <ele>1949</ele>
        <time>2020-03-21T15:08:33.882Z</time>
      </trkpt>
      <trkpt lat="44.14121" lon="6.68403">
        <ele>1947</ele>
        <time>2020-03-21T15:08:34.882Z</time>
      </trkpt>
      <trkpt lat="44.14112" lon="6.68404">
        <ele>1946</ele>
        <time>2020-03-21T15:08:35.882Z</time>
      </trkpt>
      <trkpt lat="44.14095" lon="6.6841">
        <ele>1944</ele>
        <time>2020-03-21T15:08:36.882Z</time>
      </trkpt>
      <trkpt lat="44.14085" lon="6.68411">
        <ele>1943</ele>
        <time>2020-03-21T15:08:37.882Z</time>
      </trkpt>
      <trkpt lat="44.14069" lon="6.68415">
        <ele>1942</ele>
        <time>2020-03-21T15:08:38.882Z</time>
      </trkpt>
      <trkpt lat="44.14063" lon="6.68419">
        <ele>1943</ele>
        <time>2020-03-21T15:08:39.882Z</time>
      </trkpt>
      <trkpt lat="44.14055" lon="6.68425">
        <ele>1944</ele>
        <time>2020-03-21T15:08:40.882Z</time>
      </trkpt>
      <trkpt lat="44.14033" lon="6.68436">
        <ele>1945</ele>
        <time>2020-03-21T15:08:41.882Z</time>
      </trkpt>
      <trkpt lat="44.14012" lon="6.68438">
        <ele>1944</ele>
        <time>2020-03-21T15:08:42.882Z</time>
      </trkpt>
      <trkpt lat="44.13995" lon="6.68438">
        <ele>1943</ele>
        <time>2020-03-21T15:08:43.882Z</time>
      </trkpt>
      <trkpt lat="44.13964" lon="6.68447">
        <ele>1943</ele>
        <time>2020-03-21T15:08:44.882Z</time>
      </trkpt>
      <trkpt lat="44.13938" lon="6.68461">
        <ele>1943</ele>
        <time>2020-03-21T15:08:45.882Z</time>
      </trkpt>
      <trkpt lat="44.13925" lon="6.68476">
        <ele>1942</ele>
        <time>2020-03-21T15:08:46.882Z</time>
      </trkpt>
      <trkpt lat="44.13915" lon="6.68493">
        <ele>1941</ele>
        <time>2020-03-21T15:08:47.882Z</time>
      </trkpt>
      <trkpt lat="44.13903" lon="6.68498">
        <ele>1942</ele>
        <time>2020-03-21T15:08:48.882Z</time>
      </trkpt>
      <trkpt lat="44.13888" lon="6.68503">
        <ele>1943</ele>
        <time>2020-03-21T15:08:49.882Z</time>
      </trkpt>
      <trkpt lat="44.13869" lon="6.68508">
        <ele>1945</ele>
        <time>2020-03-21T15:08:50.882Z</time>
      </trkpt>
      <trkpt lat="44.13847" lon="6.68519">
        <ele>1946</ele>
        <time>2020-03-21T15:08:51.882Z</time>
      </trkpt>
      <trkpt lat="44.13831" lon="6.68531">
        <ele>1948</ele>
        <time>2020-03-21T15:08:52.882Z</time>
      </trkpt>
      <trkpt lat="44.13815" lon="6.68548">
        <ele>1952</ele>
        <time>2020-03-21T15:08:53.882Z</time>
      </trkpt>
      <trkpt lat="44.13804" lon="6.68557">
        <ele>1954</ele>
        <time>2020-03-21T15:08:54.882Z</time>
      </trkpt>
      <trkpt lat="44.13798" lon="6.6856">
        <ele>1955</ele>
        <time>2020-03-21T15:08:55.882Z</time>
      </trkpt>
      <trkpt lat="44.13798" lon="6.68559">
        <ele>1955</ele>
        <time>2020-03-21T15:08:56.882Z</time>
      </trkpt>
      <trkpt lat="44.13795" lon="6.68557">
        <ele>1956</ele>
        <time>2020-03-21T15:08:57.882Z</time>
      </trkpt>
      <trkpt lat="44.13791" lon="6.68558">
        <ele>1957</ele>
        <time>2020-03-21T15:08:58.882Z</time>
      </trkpt>
      <trkpt lat="44.13785" lon="6.68561">
        <ele>1957</ele>
        <time>2020-03-21T15:08:59.882Z</time>
      </trkpt>
      <trkpt lat="44.13785" lon="6.68564">
        <ele>1957</ele>
        <time>2020-03-21T15:09:00.882Z</time>
      </trkpt>
      <trkpt lat="44.13782" lon="6.68569">
        <ele>1957</ele>
        <time>2020-03-21T15:09:01.882Z</time>
      </trkpt>
      <trkpt lat="44.13777" lon="6.68578">
        <ele>1957</ele>
        <time>2020-03-21T15:09:02.882Z</time>
      </trkpt>
      <trkpt lat="44.1377" lon="6.68579">
        <ele>1957</ele>
        <time>2020-03-21T15:09:03.882Z</time>
      </trkpt>
      <trkpt lat="44.13767" lon="6.68583">
        <ele>1957</ele>
        <time>2020-03-21T15:09:04.882Z</time>
      </trkpt>
      <trkpt lat="44.13763" lon="6.68585">
        <ele>1958</ele>
        <time>2020-03-21T15:09:05.882Z</time>
      </trkpt>
      <trkpt lat="44.13752" lon="6.68595">
        <ele>1959</ele>
        <time>2020-03-21T15:09:06.882Z</time>
      </trkpt>
      <trkpt lat="44.13745" lon="6.68601">
        <ele>1961</ele>
        <time>2020-03-21T15:09:07.882Z</time>
      </trkpt>
      <trkpt lat="44.13742" lon="6.68611">
        <ele>1961</ele>
        <time>2020-03-21T15:09:08.882Z</time>
      </trkpt>
      <trkpt lat="44.13735" lon="6.6862">
        <ele>1963</ele>
        <time>2020-03-21T15:09:09.882Z</time>
      </trkpt>
      <trkpt lat="44.1373" lon="6.68625">
        <ele>1964</ele>
        <time>2020-03-21T15:09:10.882Z</time>
      </trkpt>
      <trkpt lat="44.13724" lon="6.68629">
        <ele>1965</ele>
        <time>2020-03-21T15:09:11.882Z</time>
      </trkpt>
      <trkpt lat="44.13716" lon="6.68621">
        <ele>1968</ele>
        <time>2020-03-21T15:09:12.882Z</time>
      </trkpt>
      <trkpt lat="44.13718" lon="6.68629">
        <ele>1967</ele>
        <time>2020-03-21T15:09:13.882Z</time>
      </trkpt>
      <trkpt lat="44.13716" lon="6.68633">
        <ele>1967</ele>
        <time>2020-03-21T15:09:14.882Z</time>
      </trkpt>
      <trkpt lat="44.13714" lon="6.68636">
        <ele>1967</ele>
        <time>2020-03-21T15:09:15.882Z</time>
      </trkpt>
      <trkpt lat="44.1371" lon="6.68644">
        <ele>1967</ele>
        <time>2020-03-21T15:09:16.882Z</time>
      </trkpt>
      <trkpt lat="44.13701" lon="6.6866">
        <ele>1967</ele>
        <time>2020-03-21T15:09:17.882Z</time>
      </trkpt>
      <trkpt lat="44.13693" lon="6.68669">
        <ele>1968</ele>
        <time>2020-03-21T15:09:18.882Z</time>
      </trkpt>
      <trkpt lat="44.13681" lon="6.68683">
        <ele>1970</ele>
        <time>2020-03-21T15:09:19.882Z</time>
      </trkpt>
      <trkpt lat="44.13675" lon="6.68688">
        <ele>1971</ele>
        <time>2020-03-21T15:09:20.882Z</time>
      </trkpt>
      <trkpt lat="44.13673" lon="6.68689">
        <ele>1971</ele>
        <time>2020-03-21T15:09:21.882Z</time>
      </trkpt>
      <trkpt lat="44.13669" lon="6.68695">
        <ele>1971</ele>
        <time>2020-03-21T15:09:22.882Z</time>
      </trkpt>
      <trkpt lat="44.13669" lon="6.68697">
        <ele>1972</ele>
        <time>2020-03-21T15:09:23.882Z</time>
      </trkpt>
      <trkpt lat="44.13662" lon="6.68708">
        <ele>1973</ele>
        <time>2020-03-21T15:09:24.882Z</time>
      </trkpt>
      <trkpt lat="44.13661" lon="6.68709">
        <ele>1973</ele>
        <time>2020-03-21T15:09:25.882Z</time>
      </trkpt>
      <trkpt lat="44.13652" lon="6.68717">
        <ele>1975</ele>
        <time>2020-03-21T15:09:26.882Z</time>
      </trkpt>
      <trkpt lat="44.13644" lon="6.68723">
        <ele>1976</ele>
        <time>2020-03-21T15:09:27.882Z</time>
      </trkpt>
      <trkpt lat="44.13637" lon="6.68731">
        <ele>1977</ele>
        <time>2020-03-21T15:09:28.882Z</time>
      </trkpt>
      <trkpt lat="44.13633" lon="6.68736">
        <ele>1978</ele>
        <time>2020-03-21T15:09:29.882Z</time>
      </trkpt>
      <trkpt lat="44.1363" lon="6.68737">
        <ele>1978</ele>
        <time>2020-03-21T15:09:30.882Z</time>
      </trkpt>
      <trkpt lat="44.13622" lon="6.68739">
        <ele>1979</ele>
        <time>2020-03-21T15:09:31.882Z</time>
      </trkpt>
      <trkpt lat="44.13618" lon="6.6874">
        <ele>1980</ele>
        <time>2020-03-21T15:09:32.882Z</time>
      </trkpt>
      <trkpt lat="44.13609" lon="6.68748">
        <ele>1980</ele>
        <time>2020-03-21T15:09:33.882Z</time>
      </trkpt>
      <trkpt lat="44.13595" lon="6.6876">
        <ele>1981</ele>
        <time>2020-03-21T15:09:34.882Z</time>
      </trkpt>
      <trkpt lat="44.13582" lon="6.6877">
        <ele>1982</ele>
        <time>2020-03-21T15:09:35.882Z</time>
      </trkpt>
      <trkpt lat="44.13572" lon="6.68778">
        <ele>1985</ele>
        <time>2020-03-21T15:09:36.882Z</time>
      </trkpt>
      <trkpt lat="44.13563" lon="6.68787">
        <ele>1986</ele>
        <time>2020-03-21T15:09:37.882Z</time>
      </trkpt>
      <trkpt lat="44.13552" lon="6.68797">
        <ele>1988</ele>
        <time>2020-03-21T15:09:38.882Z</time>
      </trkpt>
      <trkpt lat="44.13543" lon="6.68804">
        <ele>1989</ele>
        <time>2020-03-21T15:09:39.882Z</time>
      </trkpt>
      <trkpt lat="44.13533" lon="6.6881">
        <ele>1990</ele>
        <time>2020-03-21T15:09:40.882Z</time>
      </trkpt>
      <trkpt lat="44.13525" lon="6.68817">
        <ele>1991</ele>
        <time>2020-03-21T15:09:41.882Z</time>
      </trkpt>
      <trkpt lat="44.13516" lon="6.68819">
        <ele>1992</ele>
        <time>2020-03-21T15:09:42.882Z</time>
      </trkpt>
      <trkpt lat="44.13512" lon="6.68821">
        <ele>1992</ele>
        <time>2020-03-21T15:09:43.882Z</time>
      </trkpt>
      <trkpt lat="44.13504" lon="6.68827">
        <ele>1992</ele>
        <time>2020-03-21T15:09:44.882Z</time>
      </trkpt>
      <trkpt lat="44.13492" lon="6.68832">
        <ele>1995</ele>
        <time>2020-03-21T15:09:45.882Z</time>
      </trkpt>
      <trkpt lat="44.13484" lon="6.68839">
        <ele>1996</ele>
        <time>2020-03-21T15:09:46.882Z</time>
      </trkpt>
      <trkpt lat="44.13479" lon="6.6884">
        <ele>1998</ele>
        <time>2020-03-21T15:09:47.882Z</time>
      </trkpt>
      <trkpt lat="44.13473" lon="6.68843">
        <ele>1999</ele>
        <time>2020-03-21T15:09:48.882Z</time>
      </trkpt>
      <trkpt lat="44.13464" lon="6.68847">
        <ele>2002</ele>
        <time>2020-03-21T15:09:49.882Z</time>
      </trkpt>
      <trkpt lat="44.13455" lon="6.68857">
        <ele>2003</ele>
        <time>2020-03-21T15:09:50.882Z</time>
      </trkpt>
      <trkpt lat="44.13454" lon="6.68858">
        <ele>2004</ele>
        <time>2020-03-21T15:09:51.882Z</time>
      </trkpt>
      <trkpt lat="44.13445" lon="6.68865">
        <ele>2005</ele>
        <time>2020-03-21T15:09:52.882Z</time>
      </trkpt>
      <trkpt lat="44.13438" lon="6.6887">
        <ele>2007</ele>
        <time>2020-03-21T15:09:53.882Z</time>
      </trkpt>
      <trkpt lat="44.13434" lon="6.68872">
        <ele>2007</ele>
        <time>2020-03-21T15:09:54.882Z</time>
      </trkpt>
      <trkpt lat="44.13426" lon="6.68878">
        <ele>2009</ele>
        <time>2020-03-21T15:09:55.882Z</time>
      </trkpt>
      <trkpt lat="44.13418" lon="6.68886">
        <ele>2009</ele>
        <time>2020-03-21T15:09:56.882Z</time>
      </trkpt>
      <trkpt lat="44.13411" lon="6.68893">
        <ele>2010</ele>
        <time>2020-03-21T15:09:57.882Z</time>
      </trkpt>
      <trkpt lat="44.13403" lon="6.68899">
        <ele>2011</ele>
        <time>2020-03-21T15:09:58.882Z</time>
      </trkpt>
      <trkpt lat="44.13396" lon="6.68905">
        <ele>2012</ele>
        <time>2020-03-21T15:09:59.882Z</time>
      </trkpt>
      <trkpt lat="44.13382" lon="6.68916">
        <ele>2013</ele>
        <time>2020-03-21T15:10:00.882Z</time>
      </trkpt>
      <trkpt lat="44.13375" lon="6.68922">
        <ele>2015</ele>
        <time>2020-03-21T15:10:01.882Z</time>
      </trkpt>
      <trkpt lat="44.13366" lon="6.68929">
        <ele>2016</ele>
        <time>2020-03-21T15:10:02.882Z</time>
      </trkpt>
      <trkpt lat="44.13364" lon="6.68929">
        <ele>2016</ele>
        <time>2020-03-21T15:10:03.882Z</time>
      </trkpt>
      <trkpt lat="44.13356" lon="6.68931">
        <ele>2018</ele>
        <time>2020-03-21T15:10:04.882Z</time>
      </trkpt>
      <trkpt lat="44.13352" lon="6.68934">
        <ele>2019</ele>
        <time>2020-03-21T15:10:05.882Z</time>
      </trkpt>
      <trkpt lat="44.13338" lon="6.68933">
        <ele>2022</ele>
        <time>2020-03-21T15:10:06.882Z</time>
      </trkpt>
      <trkpt lat="44.13334" lon="6.68935">
        <ele>2022</ele>
        <time>2020-03-21T15:10:07.882Z</time>
      </trkpt>
      <trkpt lat="44.13335" lon="6.68935">
        <ele>2022</ele>
        <time>2020-03-21T15:10:08.882Z</time>
      </trkpt>
      <trkpt lat="44.13354" lon="6.68944">
        <ele>2017</ele>
        <time>2020-03-21T15:10:09.882Z</time>
      </trkpt>
      <trkpt lat="44.13347" lon="6.68948">
        <ele>2018</ele>
        <time>2020-03-21T15:10:10.882Z</time>
      </trkpt>
      <trkpt lat="44.1333" lon="6.6896">
        <ele>2020</ele>
        <time>2020-03-21T15:10:11.882Z</time>
      </trkpt>
      <trkpt lat="44.13319" lon="6.68969">
        <ele>2021</ele>
        <time>2020-03-21T15:10:12.882Z</time>
      </trkpt>
      <trkpt lat="44.13308" lon="6.6898">
        <ele>2021</ele>
        <time>2020-03-21T15:10:13.882Z</time>
      </trkpt>
      <trkpt lat="44.13303" lon="6.68988">
        <ele>2020</ele>
        <time>2020-03-21T15:10:14.882Z</time>
      </trkpt>
      <trkpt lat="44.13289" lon="6.68998">
        <ele>2020</ele>
        <time>2020-03-21T15:10:15.882Z</time>
      </trkpt>
      <trkpt lat="44.13277" lon="6.69007">
        <ele>2021</ele>
        <time>2020-03-21T15:10:16.882Z</time>
      </trkpt>
      <trkpt lat="44.13266" lon="6.69016">
        <ele>2021</ele>
        <time>2020-03-21T15:10:17.882Z</time>
      </trkpt>
      <trkpt lat="44.13255" lon="6.69025">
        <ele>2022</ele>
        <time>2020-03-21T15:10:18.882Z</time>
      </trkpt>
      <trkpt lat="44.13245" lon="6.69034">
        <ele>2023</ele>
        <time>2020-03-21T15:10:19.882Z</time>
      </trkpt>
      <trkpt lat="44.13234" lon="6.69042">
        <ele>2023</ele>
        <time>2020-03-21T15:10:20.882Z</time>
      </trkpt>
      <trkpt lat="44.13221" lon="6.69051">
        <ele>2024</ele>
        <time>2020-03-21T15:10:21.882Z</time>
      </trkpt>
      <trkpt lat="44.13212" lon="6.69059">
        <ele>2024</ele>
        <time>2020-03-21T15:10:22.882Z</time>
      </trkpt>
      <trkpt lat="44.13199" lon="6.69073">
        <ele>2023</ele>
        <time>2020-03-21T15:10:23.882Z</time>
      </trkpt>
      <trkpt lat="44.13189" lon="6.69076">
        <ele>2024</ele>
        <time>2020-03-21T15:10:24.882Z</time>
      </trkpt>
      <trkpt lat="44.13178" lon="6.69085">
        <ele>2023</ele>
        <time>2020-03-21T15:10:25.882Z</time>
      </trkpt>
      <trkpt lat="44.13166" lon="6.69089">
        <ele>2024</ele>
        <time>2020-03-21T15:10:26.882Z</time>
      </trkpt>
      <trkpt lat="44.13153" lon="6.69097">
        <ele>2026</ele>
        <time>2020-03-21T15:10:27.882Z</time>
      </trkpt>
      <trkpt lat="44.13145" lon="6.69105">
        <ele>2027</ele>
        <time>2020-03-21T15:10:28.882Z</time>
      </trkpt>
      <trkpt lat="44.13136" lon="6.69113">
        <ele>2028</ele>
        <time>2020-03-21T15:10:29.882Z</time>
      </trkpt>
      <trkpt lat="44.13126" lon="6.69121">
        <ele>2029</ele>
        <time>2020-03-21T15:10:30.882Z</time>
      </trkpt>
      <trkpt lat="44.13114" lon="6.69126">
        <ele>2031</ele>
        <time>2020-03-21T15:10:31.882Z</time>
      </trkpt>
      <trkpt lat="44.13104" lon="6.69136">
        <ele>2031</ele>
        <time>2020-03-21T15:10:32.882Z</time>
      </trkpt>
      <trkpt lat="44.13094" lon="6.69143">
        <ele>2032</ele>
        <time>2020-03-21T15:10:33.882Z</time>
      </trkpt>
      <trkpt lat="44.13087" lon="6.69149">
        <ele>2033</ele>
        <time>2020-03-21T15:10:34.882Z</time>
      </trkpt>
      <trkpt lat="44.13078" lon="6.69154">
        <ele>2033</ele>
        <time>2020-03-21T15:10:35.882Z</time>
      </trkpt>
      <trkpt lat="44.13069" lon="6.69159">
        <ele>2034</ele>
        <time>2020-03-21T15:10:36.882Z</time>
      </trkpt>
      <trkpt lat="44.13068" lon="6.69159">
        <ele>2034</ele>
        <time>2020-03-21T15:10:37.882Z</time>
      </trkpt>
      <trkpt lat="44.13056" lon="6.69166">
        <ele>2034</ele>
        <time>2020-03-21T15:10:38.882Z</time>
      </trkpt>
      <trkpt lat="44.13045" lon="6.6917">
        <ele>2035</ele>
        <time>2020-03-21T15:10:39.882Z</time>
      </trkpt>
      <trkpt lat="44.13034" lon="6.69173">
        <ele>2036</ele>
        <time>2020-03-21T15:10:40.882Z</time>
      </trkpt>
      <trkpt lat="44.13023" lon="6.69174">
        <ele>2037</ele>
        <time>2020-03-21T15:10:41.882Z</time>
      </trkpt>
      <trkpt lat="44.1301" lon="6.69174">
        <ele>2038</ele>
        <time>2020-03-21T15:10:42.882Z</time>
      </trkpt>
      <trkpt lat="44.12997" lon="6.69173">
        <ele>2040</ele>
        <time>2020-03-21T15:10:43.882Z</time>
      </trkpt>
      <trkpt lat="44.12989" lon="6.69174">
        <ele>2041</ele>
        <time>2020-03-21T15:10:44.882Z</time>
      </trkpt>
      <trkpt lat="44.12978" lon="6.69172">
        <ele>2042</ele>
        <time>2020-03-21T15:10:45.882Z</time>
      </trkpt>
      <trkpt lat="44.12963" lon="6.69173">
        <ele>2043</ele>
        <time>2020-03-21T15:10:46.882Z</time>
      </trkpt>
      <trkpt lat="44.12955" lon="6.69179">
        <ele>2044</ele>
        <time>2020-03-21T15:10:47.882Z</time>
      </trkpt>
      <trkpt lat="44.12945" lon="6.69182">
        <ele>2044</ele>
        <time>2020-03-21T15:10:48.882Z</time>
      </trkpt>
      <trkpt lat="44.12935" lon="6.69185">
        <ele>2045</ele>
        <time>2020-03-21T15:10:49.882Z</time>
      </trkpt>
      <trkpt lat="44.12926" lon="6.69188">
        <ele>2045</ele>
        <time>2020-03-21T15:10:50.882Z</time>
      </trkpt>
      <trkpt lat="44.12914" lon="6.69196">
        <ele>2046</ele>
        <time>2020-03-21T15:10:51.882Z</time>
      </trkpt>
      <trkpt lat="44.12902" lon="6.692">
        <ele>2048</ele>
        <time>2020-03-21T15:10:52.882Z</time>
      </trkpt>
      <trkpt lat="44.12891" lon="6.69208">
        <ele>2049</ele>
        <time>2020-03-21T15:10:53.882Z</time>
      </trkpt>
      <trkpt lat="44.12888" lon="6.6921">
        <ele>2049</ele>
        <time>2020-03-21T15:10:54.882Z</time>
      </trkpt>
      <trkpt lat="44.12883" lon="6.69214">
        <ele>2050</ele>
        <time>2020-03-21T15:10:55.882Z</time>
      </trkpt>
      <trkpt lat="44.1288" lon="6.69214">
        <ele>2050</ele>
        <time>2020-03-21T15:10:56.882Z</time>
      </trkpt>
      <trkpt lat="44.12876" lon="6.69214">
        <ele>2051</ele>
        <time>2020-03-21T15:10:57.882Z</time>
      </trkpt>
      <trkpt lat="44.12872" lon="6.69216">
        <ele>2052</ele>
        <time>2020-03-21T15:10:58.882Z</time>
      </trkpt>
      <trkpt lat="44.12871" lon="6.69217">
        <ele>2052</ele>
        <time>2020-03-21T15:10:59.882Z</time>
      </trkpt>
      <trkpt lat="44.12863" lon="6.69221">
        <ele>2053</ele>
        <time>2020-03-21T15:11:00.882Z</time>
      </trkpt>
      <trkpt lat="44.12856" lon="6.69229">
        <ele>2053</ele>
        <time>2020-03-21T15:11:01.882Z</time>
      </trkpt>
      <trkpt lat="44.12853" lon="6.69232">
        <ele>2053</ele>
        <time>2020-03-21T15:11:02.882Z</time>
      </trkpt>
      <trkpt lat="44.12847" lon="6.69239">
        <ele>2052</ele>
        <time>2020-03-21T15:11:03.882Z</time>
      </trkpt>
      <trkpt lat="44.12843" lon="6.69253">
        <ele>2051</ele>
        <time>2020-03-21T15:11:04.882Z</time>
      </trkpt>
      <trkpt lat="44.12836" lon="6.69259">
        <ele>2051</ele>
        <time>2020-03-21T15:11:05.882Z</time>
      </trkpt>
      <trkpt lat="44.12828" lon="6.69268">
        <ele>2052</ele>
        <time>2020-03-21T15:11:06.882Z</time>
      </trkpt>
      <trkpt lat="44.12821" lon="6.69282">
        <ele>2051</ele>
        <time>2020-03-21T15:11:07.882Z</time>
      </trkpt>
      <trkpt lat="44.12813" lon="6.69291">
        <ele>2051</ele>
        <time>2020-03-21T15:11:08.882Z</time>
      </trkpt>
      <trkpt lat="44.12806" lon="6.69296">
        <ele>2052</ele>
        <time>2020-03-21T15:11:09.882Z</time>
      </trkpt>
      <trkpt lat="44.12801" lon="6.69302">
        <ele>2052</ele>
        <time>2020-03-21T15:11:10.882Z</time>
      </trkpt>
      <trkpt lat="44.12795" lon="6.69307">
        <ele>2052</ele>
        <time>2020-03-21T15:11:11.882Z</time>
      </trkpt>
      <trkpt lat="44.12785" lon="6.69319">
        <ele>2052</ele>
        <time>2020-03-21T15:11:12.882Z</time>
      </trkpt>
      <trkpt lat="44.12774" lon="6.69329">
        <ele>2052</ele>
        <time>2020-03-21T15:11:13.882Z</time>
      </trkpt>
      <trkpt lat="44.12763" lon="6.69345">
        <ele>2052</ele>
        <time>2020-03-21T15:11:14.882Z</time>
      </trkpt>
      <trkpt lat="44.12753" lon="6.69359">
        <ele>2052</ele>
        <time>2020-03-21T15:11:15.882Z</time>
      </trkpt>
      <trkpt lat="44.12742" lon="6.69376">
        <ele>2051</ele>
        <time>2020-03-21T15:11:16.882Z</time>
      </trkpt>
      <trkpt lat="44.12736" lon="6.69386">
        <ele>2051</ele>
        <time>2020-03-21T15:11:17.882Z</time>
      </trkpt>
      <trkpt lat="44.12735" lon="6.69388">
        <ele>2051</ele>
        <time>2020-03-21T15:11:18.882Z</time>
      </trkpt>
      <trkpt lat="44.12726" lon="6.69396">
        <ele>2051</ele>
        <time>2020-03-21T15:11:19.882Z</time>
      </trkpt>
      <trkpt lat="44.12718" lon="6.69411">
        <ele>2050</ele>
        <time>2020-03-21T15:11:20.882Z</time>
      </trkpt>
      <trkpt lat="44.12709" lon="6.69425">
        <ele>2050</ele>
        <time>2020-03-21T15:11:21.882Z</time>
      </trkpt>
      <trkpt lat="44.12702" lon="6.69433">
        <ele>2051</ele>
        <time>2020-03-21T15:11:22.882Z</time>
      </trkpt>
      <trkpt lat="44.12699" lon="6.69434">
        <ele>2051</ele>
        <time>2020-03-21T15:11:23.882Z</time>
      </trkpt>
      <trkpt lat="44.12694" lon="6.69443">
        <ele>2051</ele>
        <time>2020-03-21T15:11:24.882Z</time>
      </trkpt>
      <trkpt lat="44.12684" lon="6.69452">
        <ele>2052</ele>
        <time>2020-03-21T15:11:25.882Z</time>
      </trkpt>
      <trkpt lat="44.12667" lon="6.69463">
        <ele>2053</ele>
        <time>2020-03-21T15:11:26.882Z</time>
      </trkpt>
      <trkpt lat="44.12645" lon="6.69471">
        <ele>2055</ele>
        <time>2020-03-21T15:11:27.882Z</time>
      </trkpt>
      <trkpt lat="44.12628" lon="6.69478">
        <ele>2056</ele>
        <time>2020-03-21T15:11:28.882Z</time>
      </trkpt>
      <trkpt lat="44.12605" lon="6.69491">
        <ele>2057</ele>
        <time>2020-03-21T15:11:29.882Z</time>
      </trkpt>
      <trkpt lat="44.12591" lon="6.69498">
        <ele>2057</ele>
        <time>2020-03-21T15:11:30.882Z</time>
      </trkpt>
      <trkpt lat="44.12577" lon="6.69503">
        <ele>2058</ele>
        <time>2020-03-21T15:11:31.882Z</time>
      </trkpt>
      <trkpt lat="44.12561" lon="6.69515">
        <ele>2060</ele>
        <time>2020-03-21T15:11:32.882Z</time>
      </trkpt>
      <trkpt lat="44.12545" lon="6.69519">
        <ele>2061</ele>
        <time>2020-03-21T15:11:33.882Z</time>
      </trkpt>
      <trkpt lat="44.1252" lon="6.69517">
        <ele>2062</ele>
        <time>2020-03-21T15:11:34.882Z</time>
      </trkpt>
      <trkpt lat="44.12503" lon="6.69521">
        <ele>2063</ele>
        <time>2020-03-21T15:11:35.882Z</time>
      </trkpt>
      <trkpt lat="44.12487" lon="6.69531">
        <ele>2064</ele>
        <time>2020-03-21T15:11:36.882Z</time>
      </trkpt>
      <trkpt lat="44.12471" lon="6.6954">
        <ele>2064</ele>
        <time>2020-03-21T15:11:37.882Z</time>
      </trkpt>
      <trkpt lat="44.12453" lon="6.69549">
        <ele>2064</ele>
        <time>2020-03-21T15:11:38.882Z</time>
      </trkpt>
      <trkpt lat="44.12437" lon="6.69563">
        <ele>2062</ele>
        <time>2020-03-21T15:11:39.882Z</time>
      </trkpt>
      <trkpt lat="44.12414" lon="6.69579">
        <ele>2060</ele>
        <time>2020-03-21T15:11:40.882Z</time>
      </trkpt>
      <trkpt lat="44.12394" lon="6.69594">
        <ele>2060</ele>
        <time>2020-03-21T15:11:41.882Z</time>
      </trkpt>
      <trkpt lat="44.12383" lon="6.69602">
        <ele>2060</ele>
        <time>2020-03-21T15:11:42.882Z</time>
      </trkpt>
      <trkpt lat="44.12378" lon="6.69604">
        <ele>2060</ele>
        <time>2020-03-21T15:11:43.882Z</time>
      </trkpt>
      <trkpt lat="44.12367" lon="6.69602">
        <ele>2061</ele>
        <time>2020-03-21T15:11:44.882Z</time>
      </trkpt>
      <trkpt lat="44.12352" lon="6.69602">
        <ele>2061</ele>
        <time>2020-03-21T15:11:45.882Z</time>
      </trkpt>
      <trkpt lat="44.12337" lon="6.69599">
        <ele>2062</ele>
        <time>2020-03-21T15:11:46.882Z</time>
      </trkpt>
      <trkpt lat="44.12321" lon="6.69607">
        <ele>2062</ele>
        <time>2020-03-21T15:11:47.882Z</time>
      </trkpt>
      <trkpt lat="44.12308" lon="6.69622">
        <ele>2061</ele>
        <time>2020-03-21T15:11:48.882Z</time>
      </trkpt>
      <trkpt lat="44.12297" lon="6.69631">
        <ele>2061</ele>
        <time>2020-03-21T15:11:49.882Z</time>
      </trkpt>
      <trkpt lat="44.12295" lon="6.69631">
        <ele>2061</ele>
        <time>2020-03-21T15:11:50.882Z</time>
      </trkpt>
      <trkpt lat="44.12283" lon="6.69634">
        <ele>2061</ele>
        <time>2020-03-21T15:11:51.882Z</time>
      </trkpt>
      <trkpt lat="44.12275" lon="6.69636">
        <ele>2061</ele>
        <time>2020-03-21T15:11:52.882Z</time>
      </trkpt>
      <trkpt lat="44.12269" lon="6.69639">
        <ele>2061</ele>
        <time>2020-03-21T15:11:53.882Z</time>
      </trkpt>
      <trkpt lat="44.12259" lon="6.69643">
        <ele>2061</ele>
        <time>2020-03-21T15:11:54.882Z</time>
      </trkpt>
      <trkpt lat="44.12246" lon="6.69645">
        <ele>2061</ele>
        <time>2020-03-21T15:11:55.882Z</time>
      </trkpt>
      <trkpt lat="44.12229" lon="6.69652">
        <ele>2061</ele>
        <time>2020-03-21T15:11:56.882Z</time>
      </trkpt>
      <trkpt lat="44.12214" lon="6.69656">
        <ele>2061</ele>
        <time>2020-03-21T15:11:57.882Z</time>
      </trkpt>
      <trkpt lat="44.12201" lon="6.69662">
        <ele>2060</ele>
        <time>2020-03-21T15:11:58.882Z</time>
      </trkpt>
      <trkpt lat="44.12197" lon="6.69664">
        <ele>2060</ele>
        <time>2020-03-21T15:11:59.882Z</time>
      </trkpt>
      <trkpt lat="44.12185" lon="6.69659">
        <ele>2060</ele>
        <time>2020-03-21T15:12:00.882Z</time>
      </trkpt>
      <trkpt lat="44.12176" lon="6.69664">
        <ele>2060</ele>
        <time>2020-03-21T15:12:01.882Z</time>
      </trkpt>
      <trkpt lat="44.12173" lon="6.69665">
        <ele>2060</ele>
        <time>2020-03-21T15:12:02.882Z</time>
      </trkpt>
      <trkpt lat="44.12167" lon="6.69667">
        <ele>2060</ele>
        <time>2020-03-21T15:12:03.882Z</time>
      </trkpt>
      <trkpt lat="44.12164" lon="6.69672">
        <ele>2061</ele>
        <time>2020-03-21T15:12:04.882Z</time>
      </trkpt>
      <trkpt lat="44.12158" lon="6.6968">
        <ele>2061</ele>
        <time>2020-03-21T15:12:05.882Z</time>
      </trkpt>
      <trkpt lat="44.1215" lon="6.69687">
        <ele>2062</ele>
        <time>2020-03-21T15:12:06.882Z</time>
      </trkpt>
      <trkpt lat="44.12145" lon="6.69691">
        <ele>2063</ele>
        <time>2020-03-21T15:12:07.882Z</time>
      </trkpt>
      <trkpt lat="44.12136" lon="6.69702">
        <ele>2064</ele>
        <time>2020-03-21T15:12:08.882Z</time>
      </trkpt>
      <trkpt lat="44.12131" lon="6.6971">
        <ele>2064</ele>
        <time>2020-03-21T15:12:09.882Z</time>
      </trkpt>
      <trkpt lat="44.1213" lon="6.69711">
        <ele>2064</ele>
        <time>2020-03-21T15:12:10.882Z</time>
      </trkpt>
      <trkpt lat="44.12128" lon="6.69715">
        <ele>2065</ele>
        <time>2020-03-21T15:12:11.882Z</time>
      </trkpt>
      <trkpt lat="44.12127" lon="6.69712">
        <ele>2065</ele>
        <time>2020-03-21T15:12:12.882Z</time>
      </trkpt>
      <trkpt lat="44.12125" lon="6.69719">
        <ele>2065</ele>
        <time>2020-03-21T15:12:13.882Z</time>
      </trkpt>
      <trkpt lat="44.12123" lon="6.69733">
        <ele>2065</ele>
        <time>2020-03-21T15:12:14.882Z</time>
      </trkpt>
      <trkpt lat="44.12123" lon="6.69737">
        <ele>2066</ele>
        <time>2020-03-21T15:12:15.882Z</time>
      </trkpt>
      <trkpt lat="44.12115" lon="6.69746">
        <ele>2066</ele>
        <time>2020-03-21T15:12:16.882Z</time>
      </trkpt>
      <trkpt lat="44.12107" lon="6.69757">
        <ele>2068</ele>
        <time>2020-03-21T15:12:17.882Z</time>
      </trkpt>
      <trkpt lat="44.12102" lon="6.69763">
        <ele>2070</ele>
        <time>2020-03-21T15:12:18.882Z</time>
      </trkpt>
      <trkpt lat="44.12096" lon="6.69772">
        <ele>2071</ele>
        <time>2020-03-21T15:12:19.882Z</time>
      </trkpt>
      <trkpt lat="44.12097" lon="6.69773">
        <ele>2072</ele>
        <time>2020-03-21T15:12:20.882Z</time>
      </trkpt>
      <trkpt lat="44.12098" lon="6.69773">
        <ele>2072</ele>
        <time>2020-03-21T15:12:21.882Z</time>
      </trkpt>
      <trkpt lat="44.12101" lon="6.69773">
        <ele>2072</ele>
        <time>2020-03-21T15:12:22.882Z</time>
      </trkpt>
      <trkpt lat="44.12105" lon="6.69774">
        <ele>2072</ele>
        <time>2020-03-21T15:12:23.882Z</time>
      </trkpt>
      <trkpt lat="44.12105" lon="6.69777">
        <ele>2073</ele>
        <time>2020-03-21T15:12:24.882Z</time>
      </trkpt>
      <trkpt lat="44.12102" lon="6.6978">
        <ele>2074</ele>
        <time>2020-03-21T15:12:25.882Z</time>
      </trkpt>
      <trkpt lat="44.12095" lon="6.6979">
        <ele>2075</ele>
        <time>2020-03-21T15:12:26.882Z</time>
      </trkpt>
      <trkpt lat="44.12088" lon="6.698">
        <ele>2077</ele>
        <time>2020-03-21T15:12:27.882Z</time>
      </trkpt>
      <trkpt lat="44.1208" lon="6.69808">
        <ele>2079</ele>
        <time>2020-03-21T15:12:28.882Z</time>
      </trkpt>
      <trkpt lat="44.12077" lon="6.69812">
        <ele>2080</ele>
        <time>2020-03-21T15:12:29.882Z</time>
      </trkpt>
      <trkpt lat="44.1207" lon="6.69821">
        <ele>2082</ele>
        <time>2020-03-21T15:12:30.882Z</time>
      </trkpt>
      <trkpt lat="44.12067" lon="6.69823">
        <ele>2083</ele>
        <time>2020-03-21T15:12:31.882Z</time>
      </trkpt>
      <trkpt lat="44.12069" lon="6.69823">
        <ele>2083</ele>
        <time>2020-03-21T15:12:32.882Z</time>
      </trkpt>
      <trkpt lat="44.12073" lon="6.69822">
        <ele>2082</ele>
        <time>2020-03-21T15:12:33.882Z</time>
      </trkpt>
      <trkpt lat="44.12077" lon="6.69822">
        <ele>2082</ele>
        <time>2020-03-21T15:12:34.882Z</time>
      </trkpt>
      <trkpt lat="44.12083" lon="6.69821">
        <ele>2081</ele>
        <time>2020-03-21T15:12:35.882Z</time>
      </trkpt>
      <trkpt lat="44.1209" lon="6.69821">
        <ele>2082</ele>
        <time>2020-03-21T15:12:36.882Z</time>
      </trkpt>
      <trkpt lat="44.12095" lon="6.6982">
        <ele>2082</ele>
        <time>2020-03-21T15:12:37.882Z</time>
      </trkpt>
      <trkpt lat="44.12103" lon="6.69824">
        <ele>2084</ele>
        <time>2020-03-21T15:12:38.882Z</time>
      </trkpt>
      <trkpt lat="44.12106" lon="6.6983">
        <ele>2086</ele>
        <time>2020-03-21T15:12:39.882Z</time>
      </trkpt>
      <trkpt lat="44.12104" lon="6.69838">
        <ele>2087</ele>
        <time>2020-03-21T15:12:40.882Z</time>
      </trkpt>
      <trkpt lat="44.12103" lon="6.6984">
        <ele>2088</ele>
        <time>2020-03-21T15:12:41.882Z</time>
      </trkpt>
      <trkpt lat="44.12098" lon="6.69848">
        <ele>2090</ele>
        <time>2020-03-21T15:12:42.882Z</time>
      </trkpt>
      <trkpt lat="44.12096" lon="6.69849">
        <ele>2090</ele>
        <time>2020-03-21T15:12:43.882Z</time>
      </trkpt>
      <trkpt lat="44.12089" lon="6.69855">
        <ele>2090</ele>
        <time>2020-03-21T15:12:44.882Z</time>
      </trkpt>
      <trkpt lat="44.12082" lon="6.69861">
        <ele>2091</ele>
        <time>2020-03-21T15:12:45.882Z</time>
      </trkpt>
      <trkpt lat="44.12079" lon="6.69863">
        <ele>2092</ele>
        <time>2020-03-21T15:12:46.882Z</time>
      </trkpt>
      <trkpt lat="44.12078" lon="6.69865">
        <ele>2093</ele>
        <time>2020-03-21T15:12:47.882Z</time>
      </trkpt>
      <trkpt lat="44.12078" lon="6.6987">
        <ele>2094</ele>
        <time>2020-03-21T15:12:48.882Z</time>
      </trkpt>
      <trkpt lat="44.12077" lon="6.69875">
        <ele>2095</ele>
        <time>2020-03-21T15:12:49.882Z</time>
      </trkpt>
      <trkpt lat="44.12076" lon="6.69876">
        <ele>2096</ele>
        <time>2020-03-21T15:12:50.882Z</time>
      </trkpt>
      <trkpt lat="44.12068" lon="6.69882">
        <ele>2098</ele>
        <time>2020-03-21T15:12:51.882Z</time>
      </trkpt>
      <trkpt lat="44.12067" lon="6.69883">
        <ele>2098</ele>
        <time>2020-03-21T15:12:52.882Z</time>
      </trkpt>
      <trkpt lat="44.12067" lon="6.69883">
        <ele>2099</ele>
        <time>2020-03-21T15:12:53.882Z</time>
      </trkpt>
      <trkpt lat="44.12061" lon="6.69893">
        <ele>2102</ele>
        <time>2020-03-21T15:12:54.882Z</time>
      </trkpt>
      <trkpt lat="44.12061" lon="6.69894">
        <ele>2102</ele>
        <time>2020-03-21T15:12:55.882Z</time>
      </trkpt>
      <trkpt lat="44.12059" lon="6.69899">
        <ele>2103</ele>
        <time>2020-03-21T15:12:56.882Z</time>
      </trkpt>
      <trkpt lat="44.12057" lon="6.69902">
        <ele>2105</ele>
        <time>2020-03-21T15:12:57.882Z</time>
      </trkpt>
      <trkpt lat="44.1205" lon="6.69914">
        <ele>2109</ele>
        <time>2020-03-21T15:12:58.882Z</time>
      </trkpt>
      <trkpt lat="44.12048" lon="6.6992">
        <ele>2111</ele>
        <time>2020-03-21T15:12:59.882Z</time>
      </trkpt>
      <trkpt lat="44.12046" lon="6.69922">
        <ele>2112</ele>
        <time>2020-03-21T15:13:00.882Z</time>
      </trkpt>
      <trkpt lat="44.12039" lon="6.69928">
        <ele>2114</ele>
        <time>2020-03-21T15:13:01.882Z</time>
      </trkpt>
      <trkpt lat="44.12039" lon="6.69929">
        <ele>2115</ele>
        <time>2020-03-21T15:13:02.882Z</time>
      </trkpt>
      <trkpt lat="44.12035" lon="6.69933">
        <ele>2116</ele>
        <time>2020-03-21T15:13:03.882Z</time>
      </trkpt>
      <trkpt lat="44.12031" lon="6.69931">
        <ele>2116</ele>
        <time>2020-03-21T15:13:04.882Z</time>
      </trkpt>
      <trkpt lat="44.1203" lon="6.69936">
        <ele>2118</ele>
        <time>2020-03-21T15:13:05.882Z</time>
      </trkpt>
      <trkpt lat="44.1203" lon="6.69939">
        <ele>2119</ele>
        <time>2020-03-21T15:13:06.882Z</time>
      </trkpt>
      <trkpt lat="44.12026" lon="6.69937">
        <ele>2119</ele>
        <time>2020-03-21T15:13:07.882Z</time>
      </trkpt>
      <trkpt lat="44.12023" lon="6.6994">
        <ele>2120</ele>
        <time>2020-03-21T15:13:08.882Z</time>
      </trkpt>
      <trkpt lat="44.12022" lon="6.69944">
        <ele>2122</ele>
        <time>2020-03-21T15:13:09.882Z</time>
      </trkpt>
      <trkpt lat="44.12018" lon="6.69948">
        <ele>2124</ele>
        <time>2020-03-21T15:13:10.882Z</time>
      </trkpt>
      <trkpt lat="44.12016" lon="6.69952">
        <ele>2126</ele>
        <time>2020-03-21T15:13:11.882Z</time>
      </trkpt>
      <trkpt lat="44.12016" lon="6.69957">
        <ele>2127</ele>
        <time>2020-03-21T15:13:12.882Z</time>
      </trkpt>
      <trkpt lat="44.12012" lon="6.69959">
        <ele>2129</ele>
        <time>2020-03-21T15:13:13.882Z</time>
      </trkpt>
      <trkpt lat="44.12011" lon="6.6996">
        <ele>2129</ele>
        <time>2020-03-21T15:13:14.882Z</time>
      </trkpt>
      <trkpt lat="44.12009" lon="6.69961">
        <ele>2130</ele>
        <time>2020-03-21T15:13:15.882Z</time>
      </trkpt>
      <trkpt lat="44.12004" lon="6.69965">
        <ele>2132</ele>
        <time>2020-03-21T15:13:16.882Z</time>
      </trkpt>
      <trkpt lat="44.12001" lon="6.69972">
        <ele>2135</ele>
        <time>2020-03-21T15:13:17.882Z</time>
      </trkpt>
      <trkpt lat="44.11995" lon="6.69973">
        <ele>2137</ele>
        <time>2020-03-21T15:13:18.882Z</time>
      </trkpt>
      <trkpt lat="44.1199" lon="6.69976">
        <ele>2139</ele>
        <time>2020-03-21T15:13:19.882Z</time>
      </trkpt>
      <trkpt lat="44.11988" lon="6.69979">
        <ele>2141</ele>
        <time>2020-03-21T15:13:20.882Z</time>
      </trkpt>
      <trkpt lat="44.11982" lon="6.69979">
        <ele>2143</ele>
        <time>2020-03-21T15:13:21.882Z</time>
      </trkpt>
      <trkpt lat="44.1198" lon="6.69979">
        <ele>2143</ele>
        <time>2020-03-21T15:13:22.882Z</time>
      </trkpt>
      <trkpt lat="44.11978" lon="6.6998">
        <ele>2144</ele>
        <time>2020-03-21T15:13:23.882Z</time>
      </trkpt>
      <trkpt lat="44.11976" lon="6.69983">
        <ele>2146</ele>
        <time>2020-03-21T15:13:24.882Z</time>
      </trkpt>
      <trkpt lat="44.11979" lon="6.6999">
        <ele>2147</ele>
        <time>2020-03-21T15:13:25.882Z</time>
      </trkpt>
      <trkpt lat="44.11977" lon="6.6999">
        <ele>2148</ele>
        <time>2020-03-21T15:13:26.882Z</time>
      </trkpt>
      <trkpt lat="44.11976" lon="6.69991">
        <ele>2148</ele>
        <time>2020-03-21T15:13:27.882Z</time>
      </trkpt>
      <trkpt lat="44.11973" lon="6.69991">
        <ele>2149</ele>
        <time>2020-03-21T15:13:28.882Z</time>
      </trkpt>
      <trkpt lat="44.11968" lon="6.69992">
        <ele>2151</ele>
        <time>2020-03-21T15:13:29.882Z</time>
      </trkpt>
      <trkpt lat="44.11966" lon="6.69994">
        <ele>2152</ele>
        <time>2020-03-21T15:13:30.882Z</time>
      </trkpt>
      <trkpt lat="44.11964" lon="6.69999">
        <ele>2155</ele>
        <time>2020-03-21T15:13:31.882Z</time>
      </trkpt>
      <trkpt lat="44.11961" lon="6.69998">
        <ele>2155</ele>
        <time>2020-03-21T15:13:32.882Z</time>
      </trkpt>
      <trkpt lat="44.11948" lon="6.69995">
        <ele>2157</ele>
        <time>2020-03-21T15:13:33.882Z</time>
      </trkpt>
      <trkpt lat="44.11941" lon="6.69993">
        <ele>2158</ele>
        <time>2020-03-21T15:13:34.882Z</time>
      </trkpt>
      <trkpt lat="44.11937" lon="6.69992">
        <ele>2159</ele>
        <time>2020-03-21T15:13:35.882Z</time>
      </trkpt>
      <trkpt lat="44.11933" lon="6.69995">
        <ele>2161</ele>
        <time>2020-03-21T15:13:36.882Z</time>
      </trkpt>
      <trkpt lat="44.11933" lon="6.69997">
        <ele>2162</ele>
        <time>2020-03-21T15:13:37.882Z</time>
      </trkpt>
      <trkpt lat="44.11934" lon="6.7">
        <ele>2163</ele>
        <time>2020-03-21T15:13:38.882Z</time>
      </trkpt>
      <trkpt lat="44.11935" lon="6.70009">
        <ele>2164</ele>
        <time>2020-03-21T15:13:39.882Z</time>
      </trkpt>
      <trkpt lat="44.11937" lon="6.70016">
        <ele>2166</ele>
        <time>2020-03-21T15:13:40.882Z</time>
      </trkpt>
      <trkpt lat="44.11938" lon="6.70019">
        <ele>2166</ele>
        <time>2020-03-21T15:13:41.882Z</time>
      </trkpt>
      <trkpt lat="44.11938" lon="6.70023">
        <ele>2167</ele>
        <time>2020-03-21T15:13:42.882Z</time>
      </trkpt>
      <trkpt lat="44.1194" lon="6.70033">
        <ele>2169</ele>
        <time>2020-03-21T15:13:43.882Z</time>
      </trkpt>
      <trkpt lat="44.11938" lon="6.70041">
        <ele>2171</ele>
        <time>2020-03-21T15:13:44.882Z</time>
      </trkpt>
      <trkpt lat="44.11951" lon="6.70051">
        <ele>2169</ele>
        <time>2020-03-21T15:13:45.882Z</time>
      </trkpt>
      <trkpt lat="44.1195" lon="6.70053">
        <ele>2170</ele>
        <time>2020-03-21T15:13:46.882Z</time>
      </trkpt>
      <trkpt lat="44.11948" lon="6.70061">
        <ele>2173</ele>
        <time>2020-03-21T15:13:47.882Z</time>
      </trkpt>
      <trkpt lat="44.11943" lon="6.70073">
        <ele>2176</ele>
        <time>2020-03-21T15:13:48.882Z</time>
      </trkpt>
      <trkpt lat="44.11942" lon="6.70076">
        <ele>2177</ele>
        <time>2020-03-21T15:13:49.882Z</time>
      </trkpt>
      <trkpt lat="44.11942" lon="6.70079">
        <ele>2178</ele>
        <time>2020-03-21T15:13:50.882Z</time>
      </trkpt>
      <trkpt lat="44.1194" lon="6.7009">
        <ele>2180</ele>
        <time>2020-03-21T15:13:51.882Z</time>
      </trkpt>
      <trkpt lat="44.11938" lon="6.70098">
        <ele>2181</ele>
        <time>2020-03-21T15:13:52.882Z</time>
      </trkpt>
      <trkpt lat="44.11935" lon="6.70104">
        <ele>2181</ele>
        <time>2020-03-21T15:13:53.882Z</time>
      </trkpt>
      <trkpt lat="44.11932" lon="6.7011">
        <ele>2182</ele>
        <time>2020-03-21T15:13:54.882Z</time>
      </trkpt>
      <trkpt lat="44.11935" lon="6.70122">
        <ele>2182</ele>
        <time>2020-03-21T15:13:55.882Z</time>
      </trkpt>
      <trkpt lat="44.11935" lon="6.70127">
        <ele>2182</ele>
        <time>2020-03-21T15:13:56.882Z</time>
      </trkpt>
      <trkpt lat="44.11929" lon="6.70129">
        <ele>2184</ele>
        <time>2020-03-21T15:13:57.882Z</time>
      </trkpt>
      <trkpt lat="44.11927" lon="6.70131">
        <ele>2184</ele>
        <time>2020-03-21T15:13:58.882Z</time>
      </trkpt>
      <trkpt lat="44.11917" lon="6.70139">
        <ele>2187</ele>
        <time>2020-03-21T15:13:59.882Z</time>
      </trkpt>
      <trkpt lat="44.1191" lon="6.70145">
        <ele>2189</ele>
        <time>2020-03-21T15:14:00.882Z</time>
      </trkpt>
      <trkpt lat="44.11904" lon="6.70153">
        <ele>2191</ele>
        <time>2020-03-21T15:14:01.882Z</time>
      </trkpt>
      <trkpt lat="44.11901" lon="6.70157">
        <ele>2192</ele>
        <time>2020-03-21T15:14:02.882Z</time>
      </trkpt>
      <trkpt lat="44.11896" lon="6.7016">
        <ele>2193</ele>
        <time>2020-03-21T15:14:03.882Z</time>
      </trkpt>
      <trkpt lat="44.11889" lon="6.70162">
        <ele>2195</ele>
        <time>2020-03-21T15:14:04.882Z</time>
      </trkpt>
      <trkpt lat="44.11886" lon="6.70166">
        <ele>2196</ele>
        <time>2020-03-21T15:14:05.882Z</time>
      </trkpt>
      <trkpt lat="44.11883" lon="6.7017">
        <ele>2197</ele>
        <time>2020-03-21T15:14:06.882Z</time>
      </trkpt>
      <trkpt lat="44.11881" lon="6.70173">
        <ele>2197</ele>
        <time>2020-03-21T15:14:07.882Z</time>
      </trkpt>
      <trkpt lat="44.11874" lon="6.70185">
        <ele>2199</ele>
        <time>2020-03-21T15:14:08.882Z</time>
      </trkpt>
      <trkpt lat="44.11866" lon="6.70196">
        <ele>2201</ele>
        <time>2020-03-21T15:14:09.882Z</time>
      </trkpt>
      <trkpt lat="44.11859" lon="6.70207">
        <ele>2202</ele>
        <time>2020-03-21T15:14:10.882Z</time>
      </trkpt>
      <trkpt lat="44.11854" lon="6.7022">
        <ele>2203</ele>
        <time>2020-03-21T15:14:11.882Z</time>
      </trkpt>
      <trkpt lat="44.11847" lon="6.70237">
        <ele>2204</ele>
        <time>2020-03-21T15:14:12.882Z</time>
      </trkpt>
      <trkpt lat="44.11841" lon="6.70251">
        <ele>2204</ele>
        <time>2020-03-21T15:14:13.882Z</time>
      </trkpt>
      <trkpt lat="44.11833" lon="6.70268">
        <ele>2205</ele>
        <time>2020-03-21T15:14:14.882Z</time>
      </trkpt>
      <trkpt lat="44.11824" lon="6.70286">
        <ele>2206</ele>
        <time>2020-03-21T15:14:15.882Z</time>
      </trkpt>
      <trkpt lat="44.11815" lon="6.70303">
        <ele>2206</ele>
        <time>2020-03-21T15:14:16.882Z</time>
      </trkpt>
      <trkpt lat="44.11805" lon="6.70318">
        <ele>2206</ele>
        <time>2020-03-21T15:14:17.882Z</time>
      </trkpt>
      <trkpt lat="44.11798" lon="6.70331">
        <ele>2206</ele>
        <time>2020-03-21T15:14:18.882Z</time>
      </trkpt>
      <trkpt lat="44.11794" lon="6.70343">
        <ele>2207</ele>
        <time>2020-03-21T15:14:19.882Z</time>
      </trkpt>
      <trkpt lat="44.11783" lon="6.7036">
        <ele>2209</ele>
        <time>2020-03-21T15:14:20.882Z</time>
      </trkpt>
      <trkpt lat="44.11769" lon="6.70373">
        <ele>2210</ele>
        <time>2020-03-21T15:14:21.882Z</time>
      </trkpt>
      <trkpt lat="44.11759" lon="6.7038">
        <ele>2211</ele>
        <time>2020-03-21T15:14:22.882Z</time>
      </trkpt>
      <trkpt lat="44.11757" lon="6.70381">
        <ele>2211</ele>
        <time>2020-03-21T15:14:23.882Z</time>
      </trkpt>
      <trkpt lat="44.1176" lon="6.70379">
        <ele>2211</ele>
        <time>2020-03-21T15:14:24.882Z</time>
      </trkpt>
      <trkpt lat="44.11754" lon="6.70383">
        <ele>2212</ele>
        <time>2020-03-21T15:14:25.882Z</time>
      </trkpt>
      <trkpt lat="44.11742" lon="6.70394">
        <ele>2213</ele>
        <time>2020-03-21T15:14:26.882Z</time>
      </trkpt>
      <trkpt lat="44.11729" lon="6.70399">
        <ele>2215</ele>
        <time>2020-03-21T15:14:27.882Z</time>
      </trkpt>
      <trkpt lat="44.11714" lon="6.70406">
        <ele>2216</ele>
        <time>2020-03-21T15:14:28.882Z</time>
      </trkpt>
      <trkpt lat="44.117" lon="6.70411">
        <ele>2218</ele>
        <time>2020-03-21T15:14:29.882Z</time>
      </trkpt>
      <trkpt lat="44.11686" lon="6.70417">
        <ele>2219</ele>
        <time>2020-03-21T15:14:30.882Z</time>
      </trkpt>
      <trkpt lat="44.1167" lon="6.70423">
        <ele>2221</ele>
        <time>2020-03-21T15:14:31.882Z</time>
      </trkpt>
      <trkpt lat="44.11664" lon="6.70424">
        <ele>2222</ele>
        <time>2020-03-21T15:14:32.882Z</time>
      </trkpt>
      <trkpt lat="44.11653" lon="6.70432">
        <ele>2226</ele>
        <time>2020-03-21T15:14:33.882Z</time>
      </trkpt>
      <trkpt lat="44.11642" lon="6.70434">
        <ele>2228</ele>
        <time>2020-03-21T15:14:34.882Z</time>
      </trkpt>
      <trkpt lat="44.11631" lon="6.70442">
        <ele>2230</ele>
        <time>2020-03-21T15:14:35.882Z</time>
      </trkpt>
      <trkpt lat="44.11628" lon="6.70443">
        <ele>2231</ele>
        <time>2020-03-21T15:14:36.882Z</time>
      </trkpt>
      <trkpt lat="44.11619" lon="6.70452">
        <ele>2233</ele>
        <time>2020-03-21T15:14:37.882Z</time>
      </trkpt>
      <trkpt lat="44.11605" lon="6.70458">
        <ele>2235</ele>
        <time>2020-03-21T15:14:38.882Z</time>
      </trkpt>
      <trkpt lat="44.11593" lon="6.70456">
        <ele>2237</ele>
        <time>2020-03-21T15:14:39.882Z</time>
      </trkpt>
      <trkpt lat="44.11582" lon="6.70459">
        <ele>2239</ele>
        <time>2020-03-21T15:14:40.882Z</time>
      </trkpt>
      <trkpt lat="44.11569" lon="6.70473">
        <ele>2240</ele>
        <time>2020-03-21T15:14:41.882Z</time>
      </trkpt>
      <trkpt lat="44.11565" lon="6.70478">
        <ele>2240</ele>
        <time>2020-03-21T15:14:42.882Z</time>
      </trkpt>
      <trkpt lat="44.11556" lon="6.70484">
        <ele>2241</ele>
        <time>2020-03-21T15:14:43.882Z</time>
      </trkpt>
      <trkpt lat="44.1154" lon="6.70499">
        <ele>2240</ele>
        <time>2020-03-21T15:14:44.882Z</time>
      </trkpt>
      <trkpt lat="44.11533" lon="6.70504">
        <ele>2241</ele>
        <time>2020-03-21T15:14:45.882Z</time>
      </trkpt>
      <trkpt lat="44.11532" lon="6.70504">
        <ele>2241</ele>
        <time>2020-03-21T15:14:46.882Z</time>
      </trkpt>
      <trkpt lat="44.11524" lon="6.70498">
        <ele>2241</ele>
        <time>2020-03-21T15:14:47.882Z</time>
      </trkpt>
      <trkpt lat="44.1151" lon="6.70493">
        <ele>2243</ele>
        <time>2020-03-21T15:14:48.882Z</time>
      </trkpt>
      <trkpt lat="44.11496" lon="6.70496">
        <ele>2243</ele>
        <time>2020-03-21T15:14:49.882Z</time>
      </trkpt>
      <trkpt lat="44.11487" lon="6.70502">
        <ele>2244</ele>
        <time>2020-03-21T15:14:50.882Z</time>
      </trkpt>
      <trkpt lat="44.11474" lon="6.70515">
        <ele>2247</ele>
        <time>2020-03-21T15:14:51.882Z</time>
      </trkpt>
      <trkpt lat="44.11471" lon="6.70519">
        <ele>2247</ele>
        <time>2020-03-21T15:14:52.882Z</time>
      </trkpt>
      <trkpt lat="44.1146" lon="6.70522">
        <ele>2249</ele>
        <time>2020-03-21T15:14:53.882Z</time>
      </trkpt>
      <trkpt lat="44.11443" lon="6.70522">
        <ele>2252</ele>
        <time>2020-03-21T15:14:54.882Z</time>
      </trkpt>
      <trkpt lat="44.11428" lon="6.70523">
        <ele>2254</ele>
        <time>2020-03-21T15:14:55.882Z</time>
      </trkpt>
      <trkpt lat="44.11416" lon="6.70527">
        <ele>2255</ele>
        <time>2020-03-21T15:14:56.882Z</time>
      </trkpt>
      <trkpt lat="44.11404" lon="6.70535">
        <ele>2257</ele>
        <time>2020-03-21T15:14:57.882Z</time>
      </trkpt>
      <trkpt lat="44.1139" lon="6.7054">
        <ele>2259</ele>
        <time>2020-03-21T15:14:58.882Z</time>
      </trkpt>
      <trkpt lat="44.11375" lon="6.7054">
        <ele>2261</ele>
        <time>2020-03-21T15:14:59.882Z</time>
      </trkpt>
      <trkpt lat="44.11366" lon="6.70539">
        <ele>2263</ele>
        <time>2020-03-21T15:15:00.882Z</time>
      </trkpt>
      <trkpt lat="44.1136" lon="6.70541">
        <ele>2263</ele>
        <time>2020-03-21T15:15:01.882Z</time>
      </trkpt>
      <trkpt lat="44.11354" lon="6.70541">
        <ele>2264</ele>
        <time>2020-03-21T15:15:02.882Z</time>
      </trkpt>
      <trkpt lat="44.11348" lon="6.70537">
        <ele>2265</ele>
        <time>2020-03-21T15:15:03.882Z</time>
      </trkpt>
      <trkpt lat="44.11337" lon="6.70532">
        <ele>2268</ele>
        <time>2020-03-21T15:15:04.882Z</time>
      </trkpt>
      <trkpt lat="44.11321" lon="6.70533">
        <ele>2270</ele>
        <time>2020-03-21T15:15:05.882Z</time>
      </trkpt>
      <trkpt lat="44.11312" lon="6.70537">
        <ele>2270</ele>
        <time>2020-03-21T15:15:06.882Z</time>
      </trkpt>
      <trkpt lat="44.1131" lon="6.70538">
        <ele>2270</ele>
        <time>2020-03-21T15:15:07.882Z</time>
      </trkpt>
      <trkpt lat="44.11303" lon="6.70548">
        <ele>2270</ele>
        <time>2020-03-21T15:15:08.882Z</time>
      </trkpt>
      <trkpt lat="44.11299" lon="6.70549">
        <ele>2271</ele>
        <time>2020-03-21T15:15:09.882Z</time>
      </trkpt>
      <trkpt lat="44.11286" lon="6.7055">
        <ele>2273</ele>
        <time>2020-03-21T15:15:10.882Z</time>
      </trkpt>
      <trkpt lat="44.11279" lon="6.70551">
        <ele>2273</ele>
        <time>2020-03-21T15:15:11.882Z</time>
      </trkpt>
      <trkpt lat="44.11271" lon="6.70555">
        <ele>2274</ele>
        <time>2020-03-21T15:15:12.882Z</time>
      </trkpt>
      <trkpt lat="44.11263" lon="6.7056">
        <ele>2275</ele>
        <time>2020-03-21T15:15:13.882Z</time>
      </trkpt>
      <trkpt lat="44.11254" lon="6.70563">
        <ele>2276</ele>
        <time>2020-03-21T15:15:14.882Z</time>
      </trkpt>
      <trkpt lat="44.11246" lon="6.70561">
        <ele>2277</ele>
        <time>2020-03-21T15:15:15.882Z</time>
      </trkpt>
      <trkpt lat="44.11241" lon="6.70565">
        <ele>2277</ele>
        <time>2020-03-21T15:15:16.882Z</time>
      </trkpt>
      <trkpt lat="44.1124" lon="6.70572">
        <ele>2277</ele>
        <time>2020-03-21T15:15:17.882Z</time>
      </trkpt>
      <trkpt lat="44.11237" lon="6.70575">
        <ele>2277</ele>
        <time>2020-03-21T15:15:18.882Z</time>
      </trkpt>
      <trkpt lat="44.11235" lon="6.70576">
        <ele>2277</ele>
        <time>2020-03-21T15:15:19.882Z</time>
      </trkpt>
      <trkpt lat="44.11235" lon="6.70577">
        <ele>2277</ele>
        <time>2020-03-21T15:15:20.882Z</time>
      </trkpt>
      <trkpt lat="44.11229" lon="6.70579">
        <ele>2277</ele>
        <time>2020-03-21T15:15:21.882Z</time>
      </trkpt>
      <trkpt lat="44.11224" lon="6.70581">
        <ele>2277</ele>
        <time>2020-03-21T15:15:22.882Z</time>
      </trkpt>
      <trkpt lat="44.11221" lon="6.70583">
        <ele>2277</ele>
        <time>2020-03-21T15:15:23.882Z</time>
      </trkpt>
      <trkpt lat="44.11205" lon="6.70587">
        <ele>2278</ele>
        <time>2020-03-21T15:15:24.882Z</time>
      </trkpt>
      <trkpt lat="44.11191" lon="6.70592">
        <ele>2278</ele>
        <time>2020-03-21T15:15:25.882Z</time>
      </trkpt>
      <trkpt lat="44.1118" lon="6.70597">
        <ele>2279</ele>
        <time>2020-03-21T15:15:26.882Z</time>
      </trkpt>
      <trkpt lat="44.11164" lon="6.70601">
        <ele>2279</ele>
        <time>2020-03-21T15:15:27.882Z</time>
      </trkpt>
      <trkpt lat="44.11152" lon="6.70598">
        <ele>2278</ele>
        <time>2020-03-21T15:15:28.882Z</time>
      </trkpt>
      <trkpt lat="44.11139" lon="6.70602">
        <ele>2277</ele>
        <time>2020-03-21T15:15:29.882Z</time>
      </trkpt>
      <trkpt lat="44.11123" lon="6.70612">
        <ele>2275</ele>
        <time>2020-03-21T15:15:30.882Z</time>
      </trkpt>
      <trkpt lat="44.11113" lon="6.70617">
        <ele>2274</ele>
        <time>2020-03-21T15:15:31.882Z</time>
      </trkpt>
      <trkpt lat="44.11086" lon="6.70611">
        <ele>2272</ele>
        <time>2020-03-21T15:15:32.882Z</time>
      </trkpt>
      <trkpt lat="44.11063" lon="6.70611">
        <ele>2271</ele>
        <time>2020-03-21T15:15:33.882Z</time>
      </trkpt>
      <trkpt lat="44.11058" lon="6.70613">
        <ele>2271</ele>
        <time>2020-03-21T15:15:34.882Z</time>
      </trkpt>
      <trkpt lat="44.11035" lon="6.70616">
        <ele>2271</ele>
        <time>2020-03-21T15:15:35.882Z</time>
      </trkpt>
      <trkpt lat="44.11018" lon="6.70618">
        <ele>2270</ele>
        <time>2020-03-21T15:15:36.882Z</time>
      </trkpt>
      <trkpt lat="44.11014" lon="6.70618">
        <ele>2270</ele>
        <time>2020-03-21T15:15:37.882Z</time>
      </trkpt>
      <trkpt lat="44.11015" lon="6.70617">
        <ele>2270</ele>
        <time>2020-03-21T15:15:38.882Z</time>
      </trkpt>
      <trkpt lat="44.11007" lon="6.70611">
        <ele>2270</ele>
        <time>2020-03-21T15:15:39.882Z</time>
      </trkpt>
      <trkpt lat="44.11003" lon="6.7061">
        <ele>2270</ele>
        <time>2020-03-21T15:15:40.882Z</time>
      </trkpt>
      <trkpt lat="44.10994" lon="6.7061">
        <ele>2270</ele>
        <time>2020-03-21T15:15:41.882Z</time>
      </trkpt>
      <trkpt lat="44.10986" lon="6.70611">
        <ele>2270</ele>
        <time>2020-03-21T15:15:42.882Z</time>
      </trkpt>
      <trkpt lat="44.10972" lon="6.70612">
        <ele>2270</ele>
        <time>2020-03-21T15:15:43.882Z</time>
      </trkpt>
      <trkpt lat="44.10958" lon="6.70617">
        <ele>2270</ele>
        <time>2020-03-21T15:15:44.882Z</time>
      </trkpt>
      <trkpt lat="44.10929" lon="6.70629">
        <ele>2270</ele>
        <time>2020-03-21T15:15:45.882Z</time>
      </trkpt>
      <trkpt lat="44.10887" lon="6.70644">
        <ele>2270</ele>
        <time>2020-03-21T15:15:46.882Z</time>
      </trkpt>
      <trkpt lat="44.10876" lon="6.70648">
        <ele>2270</ele>
        <time>2020-03-21T15:15:47.882Z</time>
      </trkpt>
      <trkpt lat="44.10855" lon="6.70655">
        <ele>2270</ele>
        <time>2020-03-21T15:15:48.882Z</time>
      </trkpt>
      <trkpt lat="44.1084" lon="6.70654">
        <ele>2270</ele>
        <time>2020-03-21T15:15:49.882Z</time>
      </trkpt>
      <trkpt lat="44.10825" lon="6.70653">
        <ele>2270</ele>
        <time>2020-03-21T15:15:50.882Z</time>
      </trkpt>
      <trkpt lat="44.10799" lon="6.70655">
        <ele>2271</ele>
        <time>2020-03-21T15:15:51.882Z</time>
      </trkpt>
      <trkpt lat="44.10781" lon="6.7066">
        <ele>2271</ele>
        <time>2020-03-21T15:15:52.882Z</time>
      </trkpt>
      <trkpt lat="44.10773" lon="6.7066">
        <ele>2271</ele>
        <time>2020-03-21T15:15:53.882Z</time>
      </trkpt>
      <trkpt lat="44.10759" lon="6.70656">
        <ele>2272</ele>
        <time>2020-03-21T15:15:54.882Z</time>
      </trkpt>
      <trkpt lat="44.10746" lon="6.70656">
        <ele>2272</ele>
        <time>2020-03-21T15:15:55.882Z</time>
      </trkpt>
      <trkpt lat="44.10725" lon="6.70654">
        <ele>2274</ele>
        <time>2020-03-21T15:15:56.882Z</time>
      </trkpt>
      <trkpt lat="44.10706" lon="6.7065">
        <ele>2275</ele>
        <time>2020-03-21T15:15:57.882Z</time>
      </trkpt>
      <trkpt lat="44.10693" lon="6.70641">
        <ele>2275</ele>
        <time>2020-03-21T15:15:58.882Z</time>
      </trkpt>
      <trkpt lat="44.10681" lon="6.70637">
        <ele>2276</ele>
        <time>2020-03-21T15:15:59.882Z</time>
      </trkpt>
      <trkpt lat="44.10663" lon="6.70628">
        <ele>2277</ele>
        <time>2020-03-21T15:16:00.882Z</time>
      </trkpt>
      <trkpt lat="44.10641" lon="6.70621">
        <ele>2277</ele>
        <time>2020-03-21T15:16:01.882Z</time>
      </trkpt>
      <trkpt lat="44.10616" lon="6.70614">
        <ele>2277</ele>
        <time>2020-03-21T15:16:02.882Z</time>
      </trkpt>
      <trkpt lat="44.10605" lon="6.70611">
        <ele>2278</ele>
        <time>2020-03-21T15:16:03.882Z</time>
      </trkpt>
      <trkpt lat="44.10584" lon="6.70605">
        <ele>2278</ele>
        <time>2020-03-21T15:16:04.882Z</time>
      </trkpt>
      <trkpt lat="44.10565" lon="6.70606">
        <ele>2278</ele>
        <time>2020-03-21T15:16:05.882Z</time>
      </trkpt>
      <trkpt lat="44.10552" lon="6.70608">
        <ele>2278</ele>
        <time>2020-03-21T15:16:06.882Z</time>
      </trkpt>
      <trkpt lat="44.10518" lon="6.70611">
        <ele>2279</ele>
        <time>2020-03-21T15:16:07.882Z</time>
      </trkpt>
      <trkpt lat="44.10506" lon="6.7062">
        <ele>2279</ele>
        <time>2020-03-21T15:16:08.882Z</time>
      </trkpt>
      <trkpt lat="44.10499" lon="6.70624">
        <ele>2279</ele>
        <time>2020-03-21T15:16:09.882Z</time>
      </trkpt>
      <trkpt lat="44.10499" lon="6.70624">
        <ele>2279</ele>
        <time>2020-03-21T15:14:00.251Z</time>
      </trkpt>
      <trkpt lat="44.10499" lon="6.70607">
        <ele>2279</ele>
        <time>2020-03-21T15:14:01.251Z</time>
      </trkpt>
      <trkpt lat="44.10501" lon="6.70595">
        <ele>2279</ele>
        <time>2020-03-21T15:14:02.251Z</time>
      </trkpt>
      <trkpt lat="44.10507" lon="6.70577">
        <ele>2279</ele>
        <time>2020-03-21T15:14:03.251Z</time>
      </trkpt>
      <trkpt lat="44.1051" lon="6.70571">
        <ele>2279</ele>
        <time>2020-03-21T15:14:04.251Z</time>
      </trkpt>
      <trkpt lat="44.10507" lon="6.70563">
        <ele>2280</ele>
        <time>2020-03-21T15:14:05.251Z</time>
      </trkpt>
      <trkpt lat="44.10494" lon="6.70552">
        <ele>2281</ele>
        <time>2020-03-21T15:14:06.251Z</time>
      </trkpt>
      <trkpt lat="44.10485" lon="6.70542">
        <ele>2281</ele>
        <time>2020-03-21T15:14:07.251Z</time>
      </trkpt>
      <trkpt lat="44.10478" lon="6.70541">
        <ele>2282</ele>
        <time>2020-03-21T15:14:08.251Z</time>
      </trkpt>
      <trkpt lat="44.1047" lon="6.70541">
        <ele>2282</ele>
        <time>2020-03-21T15:14:09.251Z</time>
      </trkpt>
      <trkpt lat="44.10464" lon="6.70531">
        <ele>2283</ele>
        <time>2020-03-21T15:14:10.251Z</time>
      </trkpt>
      <trkpt lat="44.10458" lon="6.70523">
        <ele>2283</ele>
        <time>2020-03-21T15:14:11.251Z</time>
      </trkpt>
      <trkpt lat="44.10449" lon="6.70523">
        <ele>2284</ele>
        <time>2020-03-21T15:14:12.251Z</time>
      </trkpt>
      <trkpt lat="44.10446" lon="6.7052">
        <ele>2284</ele>
        <time>2020-03-21T15:14:13.251Z</time>
      </trkpt>
      <trkpt lat="44.10437" lon="6.70509">
        <ele>2285</ele>
        <time>2020-03-21T15:14:14.251Z</time>
      </trkpt>
      <trkpt lat="44.10436" lon="6.70507">
        <ele>2285</ele>
        <time>2020-03-21T15:14:15.251Z</time>
      </trkpt>
      <trkpt lat="44.10429" lon="6.70491">
        <ele>2287</ele>
        <time>2020-03-21T15:14:16.251Z</time>
      </trkpt>
      <trkpt lat="44.10426" lon="6.70482">
        <ele>2288</ele>
        <time>2020-03-21T15:14:17.251Z</time>
      </trkpt>
      <trkpt lat="44.10428" lon="6.70474">
        <ele>2289</ele>
        <time>2020-03-21T15:14:18.251Z</time>
      </trkpt>
      <trkpt lat="44.10433" lon="6.70464">
        <ele>2290</ele>
        <time>2020-03-21T15:14:19.251Z</time>
      </trkpt>
      <trkpt lat="44.10444" lon="6.70458">
        <ele>2290</ele>
        <time>2020-03-21T15:14:20.251Z</time>
      </trkpt>
      <trkpt lat="44.10454" lon="6.70445">
        <ele>2290</ele>
        <time>2020-03-21T15:14:21.251Z</time>
      </trkpt>
      <trkpt lat="44.10467" lon="6.70433">
        <ele>2290</ele>
        <time>2020-03-21T15:14:22.251Z</time>
      </trkpt>
      <trkpt lat="44.10482" lon="6.70424">
        <ele>2289</ele>
        <time>2020-03-21T15:14:23.251Z</time>
      </trkpt>
      <trkpt lat="44.10496" lon="6.70412">
        <ele>2288</ele>
        <time>2020-03-21T15:14:24.251Z</time>
      </trkpt>
      <trkpt lat="44.105" lon="6.70407">
        <ele>2288</ele>
        <time>2020-03-21T15:14:25.251Z</time>
      </trkpt>
      <trkpt lat="44.1051" lon="6.70393">
        <ele>2287</ele>
        <time>2020-03-21T15:14:26.251Z</time>
      </trkpt>
      <trkpt lat="44.10511" lon="6.70391">
        <ele>2287</ele>
        <time>2020-03-21T15:14:27.251Z</time>
      </trkpt>
      <trkpt lat="44.10525" lon="6.70374">
        <ele>2285</ele>
        <time>2020-03-21T15:14:28.251Z</time>
      </trkpt>
      <trkpt lat="44.10538" lon="6.70362">
        <ele>2284</ele>
        <time>2020-03-21T15:14:29.251Z</time>
      </trkpt>
      <trkpt lat="44.10552" lon="6.70348">
        <ele>2283</ele>
        <time>2020-03-21T15:14:30.251Z</time>
      </trkpt>
      <trkpt lat="44.10567" lon="6.70335">
        <ele>2281</ele>
        <time>2020-03-21T15:14:31.251Z</time>
      </trkpt>
      <trkpt lat="44.10578" lon="6.70319">
        <ele>2280</ele>
        <time>2020-03-21T15:14:32.251Z</time>
      </trkpt>
      <trkpt lat="44.10589" lon="6.70295">
        <ele>2280</ele>
        <time>2020-03-21T15:14:33.251Z</time>
      </trkpt>
      <trkpt lat="44.10581" lon="6.70275">
        <ele>2280</ele>
        <time>2020-03-21T15:14:34.251Z</time>
      </trkpt>
      <trkpt lat="44.10563" lon="6.70267">
        <ele>2281</ele>
        <time>2020-03-21T15:14:35.251Z</time>
      </trkpt>
      <trkpt lat="44.10542" lon="6.70258">
        <ele>2283</ele>
        <time>2020-03-21T15:14:36.251Z</time>
      </trkpt>
      <trkpt lat="44.10518" lon="6.70254">
        <ele>2284</ele>
        <time>2020-03-21T15:14:37.251Z</time>
      </trkpt>
      <trkpt lat="44.10499" lon="6.70249">
        <ele>2285</ele>
        <time>2020-03-21T15:14:38.251Z</time>
      </trkpt>
      <trkpt lat="44.10475" lon="6.70239">
        <ele>2285</ele>
        <time>2020-03-21T15:14:39.251Z</time>
      </trkpt>
      <trkpt lat="44.10462" lon="6.70215">
        <ele>2284</ele>
        <time>2020-03-21T15:14:40.251Z</time>
      </trkpt>
      <trkpt lat="44.10455" lon="6.70193">
        <ele>2283</ele>
        <time>2020-03-21T15:14:41.251Z</time>
      </trkpt>
      <trkpt lat="44.10453" lon="6.70161">
        <ele>2283</ele>
        <time>2020-03-21T15:14:42.251Z</time>
      </trkpt>
      <trkpt lat="44.1046" lon="6.70127">
        <ele>2284</ele>
        <time>2020-03-21T15:14:43.251Z</time>
      </trkpt>
      <trkpt lat="44.10472" lon="6.7011">
        <ele>2286</ele>
        <time>2020-03-21T15:14:44.251Z</time>
      </trkpt>
      <trkpt lat="44.10478" lon="6.70086">
        <ele>2287</ele>
        <time>2020-03-21T15:14:45.251Z</time>
      </trkpt>
      <trkpt lat="44.10468" lon="6.70066">
        <ele>2287</ele>
        <time>2020-03-21T15:14:46.251Z</time>
      </trkpt>
      <trkpt lat="44.10464" lon="6.70048">
        <ele>2288</ele>
        <time>2020-03-21T15:14:47.251Z</time>
      </trkpt>
      <trkpt lat="44.10467" lon="6.70026">
        <ele>2290</ele>
        <time>2020-03-21T15:14:48.251Z</time>
      </trkpt>
      <trkpt lat="44.10474" lon="6.70007">
        <ele>2292</ele>
        <time>2020-03-21T15:14:49.251Z</time>
      </trkpt>
      <trkpt lat="44.10488" lon="6.69998">
        <ele>2295</ele>
        <time>2020-03-21T15:14:50.251Z</time>
      </trkpt>
      <trkpt lat="44.10502" lon="6.69996">
        <ele>2296</ele>
        <time>2020-03-21T15:14:51.251Z</time>
      </trkpt>
      <trkpt lat="44.10518" lon="6.69984">
        <ele>2297</ele>
        <time>2020-03-21T15:14:52.251Z</time>
      </trkpt>
      <trkpt lat="44.10532" lon="6.69966">
        <ele>2298</ele>
        <time>2020-03-21T15:14:53.251Z</time>
      </trkpt>
      <trkpt lat="44.10547" lon="6.69951">
        <ele>2299</ele>
        <time>2020-03-21T15:14:54.251Z</time>
      </trkpt>
      <trkpt lat="44.10559" lon="6.69967">
        <ele>2297</ele>
        <time>2020-03-21T15:14:55.251Z</time>
      </trkpt>
      <trkpt lat="44.10575" lon="6.69967">
        <ele>2296</ele>
        <time>2020-03-21T15:14:56.251Z</time>
      </trkpt>
      <trkpt lat="44.10593" lon="6.69952">
        <ele>2298</ele>
        <time>2020-03-21T15:14:57.251Z</time>
      </trkpt>
      <trkpt lat="44.10614" lon="6.69957">
        <ele>2298</ele>
        <time>2020-03-21T15:14:58.251Z</time>
      </trkpt>
      <trkpt lat="44.10635" lon="6.69965">
        <ele>2297</ele>
        <time>2020-03-21T15:14:59.251Z</time>
      </trkpt>
      <trkpt lat="44.10653" lon="6.69953">
        <ele>2299</ele>
        <time>2020-03-21T15:15:00.251Z</time>
      </trkpt>
      <trkpt lat="44.10678" lon="6.69958">
        <ele>2298</ele>
        <time>2020-03-21T15:15:01.251Z</time>
      </trkpt>
      <trkpt lat="44.10698" lon="6.69947">
        <ele>2298</ele>
        <time>2020-03-21T15:15:02.251Z</time>
      </trkpt>
      <trkpt lat="44.10724" lon="6.69942">
        <ele>2298</ele>
        <time>2020-03-21T15:15:03.251Z</time>
      </trkpt>
      <trkpt lat="44.10748" lon="6.69939">
        <ele>2297</ele>
        <time>2020-03-21T15:15:04.251Z</time>
      </trkpt>
      <trkpt lat="44.1077" lon="6.69927">
        <ele>2297</ele>
        <time>2020-03-21T15:15:05.251Z</time>
      </trkpt>
      <trkpt lat="44.10791" lon="6.69913">
        <ele>2297</ele>
        <time>2020-03-21T15:15:06.251Z</time>
      </trkpt>
      <trkpt lat="44.1081" lon="6.69894">
        <ele>2297</ele>
        <time>2020-03-21T15:15:07.251Z</time>
      </trkpt>
      <trkpt lat="44.10818" lon="6.69873">
        <ele>2298</ele>
        <time>2020-03-21T15:15:08.251Z</time>
      </trkpt>
      <trkpt lat="44.1083" lon="6.69853">
        <ele>2298</ele>
        <time>2020-03-21T15:15:09.251Z</time>
      </trkpt>
      <trkpt lat="44.10841" lon="6.69827">
        <ele>2298</ele>
        <time>2020-03-21T15:15:10.251Z</time>
      </trkpt>
      <trkpt lat="44.10847" lon="6.69806">
        <ele>2298</ele>
        <time>2020-03-21T15:15:11.251Z</time>
      </trkpt>
      <trkpt lat="44.10863" lon="6.69777">
        <ele>2297</ele>
        <time>2020-03-21T15:15:12.251Z</time>
      </trkpt>
      <trkpt lat="44.10866" lon="6.6975">
        <ele>2297</ele>
        <time>2020-03-21T15:15:13.251Z</time>
      </trkpt>
      <trkpt lat="44.10862" lon="6.69728">
        <ele>2297</ele>
        <time>2020-03-21T15:15:14.251Z</time>
      </trkpt>
      <trkpt lat="44.10865" lon="6.69699">
        <ele>2297</ele>
        <time>2020-03-21T15:15:15.251Z</time>
      </trkpt>
      <trkpt lat="44.10863" lon="6.69677">
        <ele>2297</ele>
        <time>2020-03-21T15:15:16.251Z</time>
      </trkpt>
      <trkpt lat="44.1086" lon="6.69658">
        <ele>2296</ele>
        <time>2020-03-21T15:15:17.251Z</time>
      </trkpt>
      <trkpt lat="44.10847" lon="6.69643">
        <ele>2296</ele>
        <time>2020-03-21T15:15:18.251Z</time>
      </trkpt>
      <trkpt lat="44.10829" lon="6.69623">
        <ele>2296</ele>
        <time>2020-03-21T15:15:19.251Z</time>
      </trkpt>
      <trkpt lat="44.10807" lon="6.69612">
        <ele>2298</ele>
        <time>2020-03-21T15:15:20.251Z</time>
      </trkpt>
      <trkpt lat="44.10786" lon="6.69592">
        <ele>2300</ele>
        <time>2020-03-21T15:15:21.251Z</time>
      </trkpt>
      <trkpt lat="44.10766" lon="6.69581">
        <ele>2301</ele>
        <time>2020-03-21T15:15:22.251Z</time>
      </trkpt>
      <trkpt lat="44.10749" lon="6.69563">
        <ele>2302</ele>
        <time>2020-03-21T15:15:23.251Z</time>
      </trkpt>
      <trkpt lat="44.10733" lon="6.69549">
        <ele>2304</ele>
        <time>2020-03-21T15:15:24.251Z</time>
      </trkpt>
      <trkpt lat="44.10716" lon="6.69523">
        <ele>2306</ele>
        <time>2020-03-21T15:15:25.251Z</time>
      </trkpt>
      <trkpt lat="44.10703" lon="6.69505">
        <ele>2308</ele>
        <time>2020-03-21T15:15:26.251Z</time>
      </trkpt>
      <trkpt lat="44.10682" lon="6.69477">
        <ele>2311</ele>
        <time>2020-03-21T15:15:27.251Z</time>
      </trkpt>
      <trkpt lat="44.10682" lon="6.69477">
        <ele>2311</ele>
        <time>2020-03-21T15:15:28.251Z</time>
      </trkpt>
      <trkpt lat="44.10682" lon="6.69475">
        <ele>2310</ele>
        <time>2020-03-21T15:15:29.251Z</time>
      </trkpt>
      <trkpt lat="44.10678" lon="6.69468">
        <ele>2311</ele>
        <time>2020-03-21T15:15:30.251Z</time>
      </trkpt>
      <trkpt lat="44.10672" lon="6.69456">
        <ele>2312</ele>
        <time>2020-03-21T15:15:31.251Z</time>
      </trkpt>
      <trkpt lat="44.1067" lon="6.69443">
        <ele>2312</ele>
        <time>2020-03-21T15:15:32.251Z</time>
      </trkpt>
      <trkpt lat="44.10665" lon="6.69427">
        <ele>2312</ele>
        <time>2020-03-21T15:15:33.251Z</time>
      </trkpt>
      <trkpt lat="44.10662" lon="6.6941">
        <ele>2312</ele>
        <time>2020-03-21T15:15:34.251Z</time>
      </trkpt>
      <trkpt lat="44.10657" lon="6.69396">
        <ele>2314</ele>
        <time>2020-03-21T15:15:35.251Z</time>
      </trkpt>
      <trkpt lat="44.10654" lon="6.69376">
        <ele>2315</ele>
        <time>2020-03-21T15:15:36.251Z</time>
      </trkpt>
      <trkpt lat="44.10654" lon="6.69365">
        <ele>2315</ele>
        <time>2020-03-21T15:15:37.251Z</time>
      </trkpt>
      <trkpt lat="44.10662" lon="6.6935">
        <ele>2313</ele>
        <time>2020-03-21T15:15:38.251Z</time>
      </trkpt>
      <trkpt lat="44.10664" lon="6.69347">
        <ele>2313</ele>
        <time>2020-03-21T15:15:39.251Z</time>
      </trkpt>
      <trkpt lat="44.1067" lon="6.69336">
        <ele>2311</ele>
        <time>2020-03-21T15:15:40.251Z</time>
      </trkpt>
      <trkpt lat="44.10676" lon="6.69317">
        <ele>2310</ele>
        <time>2020-03-21T15:15:41.251Z</time>
      </trkpt>
      <trkpt lat="44.10683" lon="6.69298">
        <ele>2309</ele>
        <time>2020-03-21T15:15:42.251Z</time>
      </trkpt>
      <trkpt lat="44.10684" lon="6.69278">
        <ele>2309</ele>
        <time>2020-03-21T15:15:43.251Z</time>
      </trkpt>
      <trkpt lat="44.10678" lon="6.69261">
        <ele>2311</ele>
        <time>2020-03-21T15:15:44.251Z</time>
      </trkpt>
      <trkpt lat="44.10671" lon="6.69249">
        <ele>2313</ele>
        <time>2020-03-21T15:15:45.251Z</time>
      </trkpt>
      <trkpt lat="44.10672" lon="6.69237">
        <ele>2313</ele>
        <time>2020-03-21T15:15:46.251Z</time>
      </trkpt>
      <trkpt lat="44.10674" lon="6.6923">
        <ele>2313</ele>
        <time>2020-03-21T15:15:47.251Z</time>
      </trkpt>
      <trkpt lat="44.10672" lon="6.69216">
        <ele>2314</ele>
        <time>2020-03-21T15:15:48.251Z</time>
      </trkpt>
      <trkpt lat="44.10669" lon="6.69214">
        <ele>2314</ele>
        <time>2020-03-21T15:15:49.251Z</time>
      </trkpt>
      <trkpt lat="44.10665" lon="6.69214">
        <ele>2315</ele>
        <time>2020-03-21T15:15:50.251Z</time>
      </trkpt>
      <trkpt lat="44.10662" lon="6.69205">
        <ele>2316</ele>
        <time>2020-03-21T15:15:51.251Z</time>
      </trkpt>
      <trkpt lat="44.10662" lon="6.69203">
        <ele>2317</ele>
        <time>2020-03-21T15:15:52.251Z</time>
      </trkpt>
      <trkpt lat="44.10658" lon="6.69186">
        <ele>2318</ele>
        <time>2020-03-21T15:15:53.251Z</time>
      </trkpt>
      <trkpt lat="44.10657" lon="6.69175">
        <ele>2319</ele>
        <time>2020-03-21T15:15:54.251Z</time>
      </trkpt>
      <trkpt lat="44.10658" lon="6.69161">
        <ele>2319</ele>
        <time>2020-03-21T15:15:55.251Z</time>
      </trkpt>
      <trkpt lat="44.1066" lon="6.69146">
        <ele>2318</ele>
        <time>2020-03-21T15:15:56.251Z</time>
      </trkpt>
      <trkpt lat="44.10662" lon="6.69143">
        <ele>2318</ele>
        <time>2020-03-21T15:15:57.251Z</time>
      </trkpt>
      <trkpt lat="44.10664" lon="6.69128">
        <ele>2318</ele>
        <time>2020-03-21T15:15:58.251Z</time>
      </trkpt>
      <trkpt lat="44.10664" lon="6.69124">
        <ele>2318</ele>
        <time>2020-03-21T15:15:59.251Z</time>
      </trkpt>
      <trkpt lat="44.10671" lon="6.69112">
        <ele>2316</ele>
        <time>2020-03-21T15:16:00.251Z</time>
      </trkpt>
      <trkpt lat="44.10673" lon="6.69095">
        <ele>2316</ele>
        <time>2020-03-21T15:16:01.251Z</time>
      </trkpt>
      <trkpt lat="44.10671" lon="6.6908">
        <ele>2317</ele>
        <time>2020-03-21T15:16:02.251Z</time>
      </trkpt>
      <trkpt lat="44.10674" lon="6.69067">
        <ele>2317</ele>
        <time>2020-03-21T15:16:03.251Z</time>
      </trkpt>
      <trkpt lat="44.10677" lon="6.69057">
        <ele>2317</ele>
        <time>2020-03-21T15:16:04.251Z</time>
      </trkpt>
      <trkpt lat="44.10682" lon="6.69044">
        <ele>2317</ele>
        <time>2020-03-21T15:16:05.251Z</time>
      </trkpt>
      <trkpt lat="44.1068" lon="6.69028">
        <ele>2317</ele>
        <time>2020-03-21T15:16:06.251Z</time>
      </trkpt>
      <trkpt lat="44.10675" lon="6.69015">
        <ele>2319</ele>
        <time>2020-03-21T15:16:07.251Z</time>
      </trkpt>
      <trkpt lat="44.10672" lon="6.69004">
        <ele>2319</ele>
        <time>2020-03-21T15:16:08.251Z</time>
      </trkpt>
      <trkpt lat="44.10672" lon="6.69">
        <ele>2319</ele>
        <time>2020-03-21T15:16:09.251Z</time>
      </trkpt>
      <trkpt lat="44.10678" lon="6.68989">
        <ele>2320</ele>
        <time>2020-03-21T15:16:10.251Z</time>
      </trkpt>
      <trkpt lat="44.1068" lon="6.68983">
        <ele>2320</ele>
        <time>2020-03-21T15:16:11.251Z</time>
      </trkpt>
      <trkpt lat="44.10684" lon="6.68975">
        <ele>2320</ele>
        <time>2020-03-21T15:16:12.251Z</time>
      </trkpt>
      <trkpt lat="44.10694" lon="6.68964">
        <ele>2320</ele>
        <time>2020-03-21T15:16:13.251Z</time>
      </trkpt>
      <trkpt lat="44.10699" lon="6.68958">
        <ele>2320</ele>
        <time>2020-03-21T15:16:14.251Z</time>
      </trkpt>
      <trkpt lat="44.10704" lon="6.68962">
        <ele>2319</ele>
        <time>2020-03-21T15:16:15.251Z</time>
      </trkpt>
      <trkpt lat="44.10711" lon="6.68961">
        <ele>2318</ele>
        <time>2020-03-21T15:16:16.251Z</time>
      </trkpt>
      <trkpt lat="44.10712" lon="6.68958">
        <ele>2319</ele>
        <time>2020-03-21T15:16:17.251Z</time>
      </trkpt>
      <trkpt lat="44.10712" lon="6.6895">
        <ele>2319</ele>
        <time>2020-03-21T15:16:18.251Z</time>
      </trkpt>
      <trkpt lat="44.10714" lon="6.68943">
        <ele>2320</ele>
        <time>2020-03-21T15:16:19.251Z</time>
      </trkpt>
      <trkpt lat="44.10713" lon="6.68927">
        <ele>2321</ele>
        <time>2020-03-21T15:16:20.251Z</time>
      </trkpt>
      <trkpt lat="44.10714" lon="6.68911">
        <ele>2323</ele>
        <time>2020-03-21T15:16:21.251Z</time>
      </trkpt>
      <trkpt lat="44.10714" lon="6.689">
        <ele>2324</ele>
        <time>2020-03-21T15:16:22.251Z</time>
      </trkpt>
      <trkpt lat="44.10713" lon="6.6889">
        <ele>2325</ele>
        <time>2020-03-21T15:16:23.251Z</time>
      </trkpt>
      <trkpt lat="44.10714" lon="6.68873">
        <ele>2327</ele>
        <time>2020-03-21T15:16:24.251Z</time>
      </trkpt>
      <trkpt lat="44.10716" lon="6.68859">
        <ele>2328</ele>
        <time>2020-03-21T15:16:25.251Z</time>
      </trkpt>
      <trkpt lat="44.10716" lon="6.68853">
        <ele>2329</ele>
        <time>2020-03-21T15:16:26.251Z</time>
      </trkpt>
      <trkpt lat="44.10716" lon="6.68852">
        <ele>2329</ele>
        <time>2020-03-21T15:16:27.251Z</time>
      </trkpt>
      <trkpt lat="44.10714" lon="6.68849">
        <ele>2329</ele>
        <time>2020-03-21T15:16:28.251Z</time>
      </trkpt>
      <trkpt lat="44.1071" lon="6.68858">
        <ele>2329</ele>
        <time>2020-03-21T15:16:29.251Z</time>
      </trkpt>
      <trkpt lat="44.10706" lon="6.68866">
        <ele>2328</ele>
        <time>2020-03-21T15:16:30.251Z</time>
      </trkpt>
      <trkpt lat="44.10701" lon="6.68876">
        <ele>2328</ele>
        <time>2020-03-21T15:16:31.251Z</time>
      </trkpt>
      <trkpt lat="44.10699" lon="6.6888">
        <ele>2328</ele>
        <time>2020-03-21T15:16:32.251Z</time>
      </trkpt>
      <trkpt lat="44.107" lon="6.68876">
        <ele>2328</ele>
        <time>2020-03-21T15:16:33.251Z</time>
      </trkpt>
      <trkpt lat="44.10699" lon="6.68875">
        <ele>2328</ele>
        <time>2020-03-21T15:16:34.251Z</time>
      </trkpt>
      <trkpt lat="44.107" lon="6.68869">
        <ele>2329</ele>
        <time>2020-03-21T15:16:35.251Z</time>
      </trkpt>
      <trkpt lat="44.107" lon="6.68861">
        <ele>2329</ele>
        <time>2020-03-21T15:16:36.251Z</time>
      </trkpt>
      <trkpt lat="44.107" lon="6.68845">
        <ele>2331</ele>
        <time>2020-03-21T15:16:37.251Z</time>
      </trkpt>
      <trkpt lat="44.10697" lon="6.68826">
        <ele>2333</ele>
        <time>2020-03-21T15:16:38.251Z</time>
      </trkpt>
      <trkpt lat="44.10694" lon="6.6881">
        <ele>2335</ele>
        <time>2020-03-21T15:16:39.251Z</time>
      </trkpt>
      <trkpt lat="44.10693" lon="6.68794">
        <ele>2337</ele>
        <time>2020-03-21T15:16:40.251Z</time>
      </trkpt>
      <trkpt lat="44.10688" lon="6.68782">
        <ele>2339</ele>
        <time>2020-03-21T15:16:41.251Z</time>
      </trkpt>
      <trkpt lat="44.1068" lon="6.68769">
        <ele>2341</ele>
        <time>2020-03-21T15:16:42.251Z</time>
      </trkpt>
      <trkpt lat="44.10671" lon="6.68759">
        <ele>2343</ele>
        <time>2020-03-21T15:16:43.251Z</time>
      </trkpt>
      <trkpt lat="44.10662" lon="6.68748">
        <ele>2344</ele>
        <time>2020-03-21T15:16:44.251Z</time>
      </trkpt>
      <trkpt lat="44.10653" lon="6.68737">
        <ele>2345</ele>
        <time>2020-03-21T15:16:45.251Z</time>
      </trkpt>
      <trkpt lat="44.10645" lon="6.68727">
        <ele>2347</ele>
        <time>2020-03-21T15:16:46.251Z</time>
      </trkpt>
      <trkpt lat="44.10642" lon="6.68715">
        <ele>2348</ele>
        <time>2020-03-21T15:16:47.251Z</time>
      </trkpt>
      <trkpt lat="44.10641" lon="6.68713">
        <ele>2348</ele>
        <time>2020-03-21T15:16:48.251Z</time>
      </trkpt>
      <trkpt lat="44.10645" lon="6.68702">
        <ele>2349</ele>
        <time>2020-03-21T15:16:49.251Z</time>
      </trkpt>
      <trkpt lat="44.10652" lon="6.68693">
        <ele>2350</ele>
        <time>2020-03-21T15:16:50.251Z</time>
      </trkpt>
      <trkpt lat="44.1065" lon="6.6869">
        <ele>2350</ele>
        <time>2020-03-21T15:16:51.251Z</time>
      </trkpt>
      <trkpt lat="44.10637" lon="6.68693">
        <ele>2350</ele>
        <time>2020-03-21T15:16:52.251Z</time>
      </trkpt>
      <trkpt lat="44.10627" lon="6.68696">
        <ele>2350</ele>
        <time>2020-03-21T15:16:53.251Z</time>
      </trkpt>
      <trkpt lat="44.10625" lon="6.68692">
        <ele>2350</ele>
        <time>2020-03-21T15:16:54.251Z</time>
      </trkpt>
      <trkpt lat="44.10625" lon="6.68692">
        <ele>2350</ele>
        <time>2020-03-21T15:16:55.251Z</time>
      </trkpt>
      <trkpt lat="44.10628" lon="6.68688">
        <ele>2350</ele>
        <time>2020-03-21T15:16:56.251Z</time>
      </trkpt>
      <trkpt lat="44.10631" lon="6.68678">
        <ele>2351</ele>
        <time>2020-03-21T15:16:57.251Z</time>
      </trkpt>
      <trkpt lat="44.10636" lon="6.68666">
        <ele>2352</ele>
        <time>2020-03-21T15:16:58.251Z</time>
      </trkpt>
      <trkpt lat="44.10644" lon="6.68655">
        <ele>2353</ele>
        <time>2020-03-21T15:16:59.251Z</time>
      </trkpt>
      <trkpt lat="44.10653" lon="6.68646">
        <ele>2354</ele>
        <time>2020-03-21T15:17:00.251Z</time>
      </trkpt>
      <trkpt lat="44.10663" lon="6.68639">
        <ele>2355</ele>
        <time>2020-03-21T15:17:01.251Z</time>
      </trkpt>
      <trkpt lat="44.10671" lon="6.6864">
        <ele>2354</ele>
        <time>2020-03-21T15:17:02.251Z</time>
      </trkpt>
      <trkpt lat="44.10677" lon="6.68637">
        <ele>2354</ele>
        <time>2020-03-21T15:17:03.251Z</time>
      </trkpt>
      <trkpt lat="44.10686" lon="6.6863">
        <ele>2354</ele>
        <time>2020-03-21T15:17:04.251Z</time>
      </trkpt>
      <trkpt lat="44.10695" lon="6.68621">
        <ele>2354</ele>
        <time>2020-03-21T15:17:05.251Z</time>
      </trkpt>
      <trkpt lat="44.10702" lon="6.68611">
        <ele>2355</ele>
        <time>2020-03-21T15:17:06.251Z</time>
      </trkpt>
      <trkpt lat="44.10706" lon="6.68595">
        <ele>2356</ele>
        <time>2020-03-21T15:17:07.251Z</time>
      </trkpt>
      <trkpt lat="44.10704" lon="6.68583">
        <ele>2358</ele>
        <time>2020-03-21T15:17:08.251Z</time>
      </trkpt>
      <trkpt lat="44.10703" lon="6.68579">
        <ele>2358</ele>
        <time>2020-03-21T15:17:09.251Z</time>
      </trkpt>
      <trkpt lat="44.10691" lon="6.68574">
        <ele>2360</ele>
        <time>2020-03-21T15:17:10.251Z</time>
      </trkpt>
      <trkpt lat="44.10682" lon="6.6857">
        <ele>2360</ele>
        <time>2020-03-21T15:17:11.251Z</time>
      </trkpt>
      <trkpt lat="44.1068" lon="6.68562">
        <ele>2361</ele>
        <time>2020-03-21T15:17:12.251Z</time>
      </trkpt>
      <trkpt lat="44.10676" lon="6.68553">
        <ele>2362</ele>
        <time>2020-03-21T15:17:13.251Z</time>
      </trkpt>
      <trkpt lat="44.10671" lon="6.68545">
        <ele>2364</ele>
        <time>2020-03-21T15:17:14.251Z</time>
      </trkpt>
      <trkpt lat="44.10669" lon="6.68539">
        <ele>2364</ele>
        <time>2020-03-21T15:17:15.251Z</time>
      </trkpt>
      <trkpt lat="44.10663" lon="6.68527">
        <ele>2365</ele>
        <time>2020-03-21T15:17:16.251Z</time>
      </trkpt>
      <trkpt lat="44.10662" lon="6.68525">
        <ele>2365</ele>
        <time>2020-03-21T15:17:17.251Z</time>
      </trkpt>
      <trkpt lat="44.10662" lon="6.68514">
        <ele>2366</ele>
        <time>2020-03-21T15:17:18.251Z</time>
      </trkpt>
      <trkpt lat="44.10663" lon="6.68505">
        <ele>2367</ele>
        <time>2020-03-21T15:17:19.251Z</time>
      </trkpt>
      <trkpt lat="44.10656" lon="6.68496">
        <ele>2368</ele>
        <time>2020-03-21T15:17:20.251Z</time>
      </trkpt>
      <trkpt lat="44.10655" lon="6.68495">
        <ele>2368</ele>
        <time>2020-03-21T15:17:21.251Z</time>
      </trkpt>
      <trkpt lat="44.10652" lon="6.68477">
        <ele>2370</ele>
        <time>2020-03-21T15:17:22.251Z</time>
      </trkpt>
      <trkpt lat="44.10647" lon="6.68466">
        <ele>2370</ele>
        <time>2020-03-21T15:17:23.251Z</time>
      </trkpt>
      <trkpt lat="44.1064" lon="6.68451">
        <ele>2371</ele>
        <time>2020-03-21T15:17:24.251Z</time>
      </trkpt>
      <trkpt lat="44.10636" lon="6.68443">
        <ele>2372</ele>
        <time>2020-03-21T15:17:25.251Z</time>
      </trkpt>
      <trkpt lat="44.10633" lon="6.68429">
        <ele>2373</ele>
        <time>2020-03-21T15:17:26.251Z</time>
      </trkpt>
      <trkpt lat="44.10634" lon="6.68422">
        <ele>2374</ele>
        <time>2020-03-21T15:17:27.251Z</time>
      </trkpt>
      <trkpt lat="44.10631" lon="6.68406">
        <ele>2376</ele>
        <time>2020-03-21T15:17:28.251Z</time>
      </trkpt>
      <trkpt lat="44.10628" lon="6.68394">
        <ele>2377</ele>
        <time>2020-03-21T15:17:29.251Z</time>
      </trkpt>
      <trkpt lat="44.10624" lon="6.68388">
        <ele>2377</ele>
        <time>2020-03-21T15:17:30.251Z</time>
      </trkpt>
      <trkpt lat="44.10622" lon="6.68379">
        <ele>2378</ele>
        <time>2020-03-21T15:17:31.251Z</time>
      </trkpt>
      <trkpt lat="44.10623" lon="6.68367">
        <ele>2380</ele>
        <time>2020-03-21T15:17:32.251Z</time>
      </trkpt>
      <trkpt lat="44.10624" lon="6.68354">
        <ele>2381</ele>
        <time>2020-03-21T15:17:33.251Z</time>
      </trkpt>
      <trkpt lat="44.10625" lon="6.68349">
        <ele>2382</ele>
        <time>2020-03-21T15:17:34.251Z</time>
      </trkpt>
      <trkpt lat="44.10624" lon="6.68345">
        <ele>2383</ele>
        <time>2020-03-21T15:17:35.251Z</time>
      </trkpt>
      <trkpt lat="44.1062" lon="6.68334">
        <ele>2384</ele>
        <time>2020-03-21T15:17:36.251Z</time>
      </trkpt>
      <trkpt lat="44.1062" lon="6.6833">
        <ele>2384</ele>
        <time>2020-03-21T15:17:37.251Z</time>
      </trkpt>
      <trkpt lat="44.10616" lon="6.68315">
        <ele>2386</ele>
        <time>2020-03-21T15:17:38.251Z</time>
      </trkpt>
      <trkpt lat="44.10612" lon="6.68309">
        <ele>2387</ele>
        <time>2020-03-21T15:17:39.251Z</time>
      </trkpt>
      <trkpt lat="44.10609" lon="6.68306">
        <ele>2387</ele>
        <time>2020-03-21T15:17:40.251Z</time>
      </trkpt>
      <trkpt lat="44.10607" lon="6.68302">
        <ele>2387</ele>
        <time>2020-03-21T15:17:41.251Z</time>
      </trkpt>
      <trkpt lat="44.10606" lon="6.68299">
        <ele>2388</ele>
        <time>2020-03-21T15:17:42.251Z</time>
      </trkpt>
      <trkpt lat="44.10605" lon="6.68296">
        <ele>2388</ele>
        <time>2020-03-21T15:17:43.251Z</time>
      </trkpt>
      <trkpt lat="44.10603" lon="6.68293">
        <ele>2389</ele>
        <time>2020-03-21T15:17:44.251Z</time>
      </trkpt>
      <trkpt lat="44.10599" lon="6.68286">
        <ele>2390</ele>
        <time>2020-03-21T15:17:45.251Z</time>
      </trkpt>
      <trkpt lat="44.10597" lon="6.6828">
        <ele>2390</ele>
        <time>2020-03-21T15:17:46.251Z</time>
      </trkpt>
      <trkpt lat="44.10594" lon="6.68274">
        <ele>2391</ele>
        <time>2020-03-21T15:17:47.251Z</time>
      </trkpt>
      <trkpt lat="44.10593" lon="6.68272">
        <ele>2392</ele>
        <time>2020-03-21T15:17:48.251Z</time>
      </trkpt>
      <trkpt lat="44.10589" lon="6.68267">
        <ele>2392</ele>
        <time>2020-03-21T15:17:49.251Z</time>
      </trkpt>
      <trkpt lat="44.10584" lon="6.68263">
        <ele>2393</ele>
        <time>2020-03-21T15:17:50.251Z</time>
      </trkpt>
      <trkpt lat="44.10579" lon="6.68259">
        <ele>2395</ele>
        <time>2020-03-21T15:17:51.251Z</time>
      </trkpt>
      <trkpt lat="44.10574" lon="6.68256">
        <ele>2396</ele>
        <time>2020-03-21T15:17:52.251Z</time>
      </trkpt>
      <trkpt lat="44.10573" lon="6.68254">
        <ele>2397</ele>
        <time>2020-03-21T15:17:53.251Z</time>
      </trkpt>
      <trkpt lat="44.10576" lon="6.68253">
        <ele>2396</ele>
        <time>2020-03-21T15:17:54.251Z</time>
      </trkpt>
      <trkpt lat="44.10583" lon="6.68252">
        <ele>2395</ele>
        <time>2020-03-21T15:17:55.251Z</time>
      </trkpt>
      <trkpt lat="44.10591" lon="6.68254">
        <ele>2394</ele>
        <time>2020-03-21T15:17:56.251Z</time>
      </trkpt>
      <trkpt lat="44.10595" lon="6.68256">
        <ele>2394</ele>
        <time>2020-03-21T15:17:57.251Z</time>
      </trkpt>
      <trkpt lat="44.10603" lon="6.68263">
        <ele>2393</ele>
        <time>2020-03-21T15:17:58.251Z</time>
      </trkpt>
      <trkpt lat="44.10609" lon="6.68267">
        <ele>2393</ele>
        <time>2020-03-21T15:17:59.251Z</time>
      </trkpt>
      <trkpt lat="44.1062" lon="6.68266">
        <ele>2393</ele>
        <time>2020-03-21T15:18:00.251Z</time>
      </trkpt>
      <trkpt lat="44.10622" lon="6.68267">
        <ele>2393</ele>
        <time>2020-03-21T15:18:01.251Z</time>
      </trkpt>
      <trkpt lat="44.10629" lon="6.6827">
        <ele>2393</ele>
        <time>2020-03-21T15:18:02.251Z</time>
      </trkpt>
      <trkpt lat="44.1063" lon="6.6827">
        <ele>2393</ele>
        <time>2020-03-21T15:18:03.251Z</time>
      </trkpt>
      <trkpt lat="44.10634" lon="6.68272">
        <ele>2393</ele>
        <time>2020-03-21T15:18:04.251Z</time>
      </trkpt>
      <trkpt lat="44.10638" lon="6.68272">
        <ele>2393</ele>
        <time>2020-03-21T15:18:05.251Z</time>
      </trkpt>
      <trkpt lat="44.10639" lon="6.68267">
        <ele>2393</ele>
        <time>2020-03-21T15:18:06.251Z</time>
      </trkpt>
      <trkpt lat="44.1064" lon="6.68263">
        <ele>2394</ele>
        <time>2020-03-21T15:18:07.251Z</time>
      </trkpt>
      <trkpt lat="44.10641" lon="6.68261">
        <ele>2394</ele>
        <time>2020-03-21T15:18:08.251Z</time>
      </trkpt>
      <trkpt lat="44.10647" lon="6.68254">
        <ele>2395</ele>
        <time>2020-03-21T15:18:09.251Z</time>
      </trkpt>
      <trkpt lat="44.10647" lon="6.68254">
        <ele>2395</ele>
        <time>2020-03-21T15:18:10.251Z</time>
      </trkpt>
      <trkpt lat="44.10648" lon="6.68252">
        <ele>2395</ele>
        <time>2020-03-21T15:18:11.251Z</time>
      </trkpt>
      <trkpt lat="44.10648" lon="6.68252">
        <ele>2396</ele>
        <time>2020-03-21T15:18:12.251Z</time>
      </trkpt>
      <trkpt lat="44.10652" lon="6.68245">
        <ele>2397</ele>
        <time>2020-03-21T15:18:13.251Z</time>
      </trkpt>
      <trkpt lat="44.10658" lon="6.68237">
        <ele>2398</ele>
        <time>2020-03-21T15:18:14.251Z</time>
      </trkpt>
      <trkpt lat="44.10664" lon="6.68231">
        <ele>2399</ele>
        <time>2020-03-21T15:18:15.251Z</time>
      </trkpt>
      <trkpt lat="44.10668" lon="6.68227">
        <ele>2399</ele>
        <time>2020-03-21T15:18:16.251Z</time>
      </trkpt>
      <trkpt lat="44.10674" lon="6.68226">
        <ele>2400</ele>
        <time>2020-03-21T15:18:17.251Z</time>
      </trkpt>
      <trkpt lat="44.10677" lon="6.68223">
        <ele>2400</ele>
        <time>2020-03-21T15:18:18.251Z</time>
      </trkpt>
      <trkpt lat="44.10684" lon="6.68219">
        <ele>2401</ele>
        <time>2020-03-21T15:18:19.251Z</time>
      </trkpt>
      <trkpt lat="44.10687" lon="6.68221">
        <ele>2401</ele>
        <time>2020-03-21T15:18:20.251Z</time>
      </trkpt>
      <trkpt lat="44.10698" lon="6.68217">
        <ele>2403</ele>
        <time>2020-03-21T15:18:21.251Z</time>
      </trkpt>
      <trkpt lat="44.10705" lon="6.68211">
        <ele>2404</ele>
        <time>2020-03-21T15:18:22.251Z</time>
      </trkpt>
      <trkpt lat="44.10713" lon="6.68206">
        <ele>2405</ele>
        <time>2020-03-21T15:18:23.251Z</time>
      </trkpt>
      <trkpt lat="44.10723" lon="6.68204">
        <ele>2406</ele>
        <time>2020-03-21T15:18:24.251Z</time>
      </trkpt>
      <trkpt lat="44.10731" lon="6.682">
        <ele>2407</ele>
        <time>2020-03-21T15:18:25.251Z</time>
      </trkpt>
      <trkpt lat="44.10732" lon="6.68199">
        <ele>2407</ele>
        <time>2020-03-21T15:18:26.251Z</time>
      </trkpt>
      <trkpt lat="44.10735" lon="6.68192">
        <ele>2408</ele>
        <time>2020-03-21T15:18:27.251Z</time>
      </trkpt>
      <trkpt lat="44.10738" lon="6.6818">
        <ele>2410</ele>
        <time>2020-03-21T15:18:28.251Z</time>
      </trkpt>
      <trkpt lat="44.10738" lon="6.68167">
        <ele>2411</ele>
        <time>2020-03-21T15:18:29.251Z</time>
      </trkpt>
      <trkpt lat="44.10737" lon="6.68157">
        <ele>2413</ele>
        <time>2020-03-21T15:18:30.251Z</time>
      </trkpt>
      <trkpt lat="44.10739" lon="6.68146">
        <ele>2415</ele>
        <time>2020-03-21T15:18:31.251Z</time>
      </trkpt>
      <trkpt lat="44.10744" lon="6.68134">
        <ele>2417</ele>
        <time>2020-03-21T15:18:32.251Z</time>
      </trkpt>
      <trkpt lat="44.10745" lon="6.68132">
        <ele>2417</ele>
        <time>2020-03-21T15:18:33.251Z</time>
      </trkpt>
      <trkpt lat="44.10749" lon="6.68127">
        <ele>2418</ele>
        <time>2020-03-21T15:18:34.251Z</time>
      </trkpt>
      <trkpt lat="44.10751" lon="6.68125">
        <ele>2419</ele>
        <time>2020-03-21T15:18:35.251Z</time>
      </trkpt>
      <trkpt lat="44.10752" lon="6.68122">
        <ele>2419</ele>
        <time>2020-03-21T15:18:36.251Z</time>
      </trkpt>
      <trkpt lat="44.10756" lon="6.6811">
        <ele>2421</ele>
        <time>2020-03-21T15:18:37.251Z</time>
      </trkpt>
      <trkpt lat="44.10756" lon="6.68102">
        <ele>2422</ele>
        <time>2020-03-21T15:18:38.251Z</time>
      </trkpt>
      <trkpt lat="44.10758" lon="6.68099">
        <ele>2423</ele>
        <time>2020-03-21T15:18:39.251Z</time>
      </trkpt>
      <trkpt lat="44.10764" lon="6.68087">
        <ele>2425</ele>
        <time>2020-03-21T15:18:40.251Z</time>
      </trkpt>
      <trkpt lat="44.10768" lon="6.68067">
        <ele>2429</ele>
        <time>2020-03-21T15:18:41.251Z</time>
      </trkpt>
      <trkpt lat="44.10773" lon="6.68056">
        <ele>2432</ele>
        <time>2020-03-21T15:18:42.251Z</time>
      </trkpt>
      <trkpt lat="44.10778" lon="6.68046">
        <ele>2434</ele>
        <time>2020-03-21T15:18:43.251Z</time>
      </trkpt>
      <trkpt lat="44.10783" lon="6.68044">
        <ele>2434</ele>
        <time>2020-03-21T15:18:44.251Z</time>
      </trkpt>
      <trkpt lat="44.10793" lon="6.68048">
        <ele>2433</ele>
        <time>2020-03-21T15:18:45.251Z</time>
      </trkpt>
      <trkpt lat="44.10795" lon="6.68051">
        <ele>2433</ele>
        <time>2020-03-21T15:18:46.251Z</time>
      </trkpt>
      <trkpt lat="44.10805" lon="6.68051">
        <ele>2432</ele>
        <time>2020-03-21T15:18:47.251Z</time>
      </trkpt>
      <trkpt lat="44.10813" lon="6.68051">
        <ele>2432</ele>
        <time>2020-03-21T15:18:48.251Z</time>
      </trkpt>
      <trkpt lat="44.10815" lon="6.68052">
        <ele>2432</ele>
        <time>2020-03-21T15:18:49.251Z</time>
      </trkpt>
      <trkpt lat="44.10817" lon="6.68052">
        <ele>2432</ele>
        <time>2020-03-21T15:18:50.251Z</time>
      </trkpt>
      <trkpt lat="44.10822" lon="6.68054">
        <ele>2432</ele>
        <time>2020-03-21T15:18:51.251Z</time>
      </trkpt>
      <trkpt lat="44.10826" lon="6.68055">
        <ele>2432</ele>
        <time>2020-03-21T15:18:52.251Z</time>
      </trkpt>
      <trkpt lat="44.10836" lon="6.68061">
        <ele>2431</ele>
        <time>2020-03-21T15:18:53.251Z</time>
      </trkpt>
      <trkpt lat="44.10843" lon="6.68067">
        <ele>2430</ele>
        <time>2020-03-21T15:18:54.251Z</time>
      </trkpt>
      <trkpt lat="44.10852" lon="6.6806">
        <ele>2433</ele>
        <time>2020-03-21T15:18:55.251Z</time>
      </trkpt>
      <trkpt lat="44.10859" lon="6.68053">
        <ele>2435</ele>
        <time>2020-03-21T15:18:56.251Z</time>
      </trkpt>
      <trkpt lat="44.1087" lon="6.68045">
        <ele>2438</ele>
        <time>2020-03-21T15:18:57.251Z</time>
      </trkpt>
      <trkpt lat="44.10878" lon="6.6804">
        <ele>2440</ele>
        <time>2020-03-21T15:18:58.251Z</time>
      </trkpt>
      <trkpt lat="44.10884" lon="6.68041">
        <ele>2441</ele>
        <time>2020-03-21T15:18:59.251Z</time>
      </trkpt>
      <trkpt lat="44.10886" lon="6.68043">
        <ele>2441</ele>
        <time>2020-03-21T15:19:00.251Z</time>
      </trkpt>
      <trkpt lat="44.10889" lon="6.68042">
        <ele>2441</ele>
        <time>2020-03-21T15:19:01.251Z</time>
      </trkpt>
      <trkpt lat="44.10888" lon="6.6804">
        <ele>2442</ele>
        <time>2020-03-21T15:19:02.251Z</time>
      </trkpt>
      <trkpt lat="44.10886" lon="6.68033">
        <ele>2443</ele>
        <time>2020-03-21T15:19:03.251Z</time>
      </trkpt>
      <trkpt lat="44.10883" lon="6.68025">
        <ele>2444</ele>
        <time>2020-03-21T15:19:04.251Z</time>
      </trkpt>
      <trkpt lat="44.1088" lon="6.68019">
        <ele>2445</ele>
        <time>2020-03-21T15:19:05.251Z</time>
      </trkpt>
      <trkpt lat="44.10878" lon="6.68014">
        <ele>2446</ele>
        <time>2020-03-21T15:19:06.251Z</time>
      </trkpt>
      <trkpt lat="44.10871" lon="6.68007">
        <ele>2446</ele>
        <time>2020-03-21T15:19:07.251Z</time>
      </trkpt>
      <trkpt lat="44.10864" lon="6.67998">
        <ele>2447</ele>
        <time>2020-03-21T15:19:08.251Z</time>
      </trkpt>
      <trkpt lat="44.10858" lon="6.67991">
        <ele>2449</ele>
        <time>2020-03-21T15:19:09.251Z</time>
      </trkpt>
      <trkpt lat="44.10855" lon="6.67986">
        <ele>2450</ele>
        <time>2020-03-21T15:19:10.251Z</time>
      </trkpt>
      <trkpt lat="44.10852" lon="6.67981">
        <ele>2451</ele>
        <time>2020-03-21T15:19:11.251Z</time>
      </trkpt>
      <trkpt lat="44.10859" lon="6.67979">
        <ele>2453</ele>
        <time>2020-03-21T15:19:12.251Z</time>
      </trkpt>
      <trkpt lat="44.10863" lon="6.67978">
        <ele>2453</ele>
        <time>2020-03-21T15:19:13.251Z</time>
      </trkpt>
      <trkpt lat="44.10864" lon="6.67978">
        <ele>2453</ele>
        <time>2020-03-21T15:19:14.251Z</time>
      </trkpt>
      <trkpt lat="44.10871" lon="6.67981">
        <ele>2454</ele>
        <time>2020-03-21T15:19:15.251Z</time>
      </trkpt>
      <trkpt lat="44.10873" lon="6.67978">
        <ele>2455</ele>
        <time>2020-03-21T15:19:16.251Z</time>
      </trkpt>
      <trkpt lat="44.10871" lon="6.67975">
        <ele>2455</ele>
        <time>2020-03-21T15:19:17.251Z</time>
      </trkpt>
      <trkpt lat="44.10864" lon="6.67966">
        <ele>2457</ele>
        <time>2020-03-21T15:19:18.251Z</time>
      </trkpt>
      <trkpt lat="44.10859" lon="6.67963">
        <ele>2458</ele>
        <time>2020-03-21T15:19:19.251Z</time>
      </trkpt>
      <trkpt lat="44.1086" lon="6.67961">
        <ele>2458</ele>
        <time>2020-03-21T15:19:20.251Z</time>
      </trkpt>
      <trkpt lat="44.10867" lon="6.67961">
        <ele>2459</ele>
        <time>2020-03-21T15:19:21.251Z</time>
      </trkpt>
      <trkpt lat="44.10873" lon="6.67962">
        <ele>2460</ele>
        <time>2020-03-21T15:19:22.251Z</time>
      </trkpt>
      <trkpt lat="44.10878" lon="6.67962">
        <ele>2460</ele>
        <time>2020-03-21T15:19:23.251Z</time>
      </trkpt>
      <trkpt lat="44.10884" lon="6.67962">
        <ele>2461</ele>
        <time>2020-03-21T15:19:24.251Z</time>
      </trkpt>
      <trkpt lat="44.10888" lon="6.67963">
        <ele>2461</ele>
        <time>2020-03-21T15:19:25.251Z</time>
      </trkpt>
      <trkpt lat="44.10887" lon="6.67959">
        <ele>2462</ele>
        <time>2020-03-21T15:19:26.251Z</time>
      </trkpt>
      <trkpt lat="44.10886" lon="6.67958">
        <ele>2463</ele>
        <time>2020-03-21T15:19:27.251Z</time>
      </trkpt>
      <trkpt lat="44.10885" lon="6.67956">
        <ele>2463</ele>
        <time>2020-03-21T15:19:28.251Z</time>
      </trkpt>
      <trkpt lat="44.10882" lon="6.67953">
        <ele>2464</ele>
        <time>2020-03-21T15:19:29.251Z</time>
      </trkpt>
      <trkpt lat="44.10878" lon="6.67948">
        <ele>2464</ele>
        <time>2020-03-21T15:19:30.251Z</time>
      </trkpt>
      <trkpt lat="44.10874" lon="6.67945">
        <ele>2465</ele>
        <time>2020-03-21T15:19:31.251Z</time>
      </trkpt>
      <trkpt lat="44.10869" lon="6.6794">
        <ele>2466</ele>
        <time>2020-03-21T15:19:32.251Z</time>
      </trkpt>
      <trkpt lat="44.10867" lon="6.67935">
        <ele>2467</ele>
        <time>2020-03-21T15:19:33.251Z</time>
      </trkpt>
      <trkpt lat="44.10869" lon="6.67934">
        <ele>2468</ele>
        <time>2020-03-21T15:19:34.251Z</time>
      </trkpt>
      <trkpt lat="44.10874" lon="6.67935">
        <ele>2468</ele>
        <time>2020-03-21T15:19:35.251Z</time>
      </trkpt>
      <trkpt lat="44.10877" lon="6.67933">
        <ele>2469</ele>
        <time>2020-03-21T15:19:36.251Z</time>
      </trkpt>
      <trkpt lat="44.10874" lon="6.6793">
        <ele>2470</ele>
        <time>2020-03-21T15:19:37.251Z</time>
      </trkpt>
      <trkpt lat="44.10869" lon="6.67923">
        <ele>2471</ele>
        <time>2020-03-21T15:19:38.251Z</time>
      </trkpt>
      <trkpt lat="44.10863" lon="6.67917">
        <ele>2472</ele>
        <time>2020-03-21T15:19:39.251Z</time>
      </trkpt>
      <trkpt lat="44.1086" lon="6.67913">
        <ele>2472</ele>
        <time>2020-03-21T15:19:40.251Z</time>
      </trkpt>
      <trkpt lat="44.10852" lon="6.67906">
        <ele>2472</ele>
        <time>2020-03-21T15:19:41.251Z</time>
      </trkpt>
      <trkpt lat="44.10846" lon="6.67904">
        <ele>2472</ele>
        <time>2020-03-21T15:19:42.251Z</time>
      </trkpt>
      <trkpt lat="44.10845" lon="6.67903">
        <ele>2472</ele>
        <time>2020-03-21T15:19:43.251Z</time>
      </trkpt>
      <trkpt lat="44.10842" lon="6.679">
        <ele>2472</ele>
        <time>2020-03-21T15:19:44.251Z</time>
      </trkpt>
      <trkpt lat="44.10839" lon="6.67898">
        <ele>2472</ele>
        <time>2020-03-21T15:19:45.251Z</time>
      </trkpt>
      <trkpt lat="44.10825" lon="6.67891">
        <ele>2471</ele>
        <time>2020-03-21T15:19:46.251Z</time>
      </trkpt>
      <trkpt lat="44.10817" lon="6.67886">
        <ele>2470</ele>
        <time>2020-03-21T15:19:47.251Z</time>
      </trkpt>
      <trkpt lat="44.10805" lon="6.67878">
        <ele>2468</ele>
        <time>2020-03-21T15:19:48.251Z</time>
      </trkpt>
      <trkpt lat="44.10798" lon="6.67874">
        <ele>2467</ele>
        <time>2020-03-21T15:19:49.251Z</time>
      </trkpt>
      <trkpt lat="44.10786" lon="6.67867">
        <ele>2464</ele>
        <time>2020-03-21T15:19:50.251Z</time>
      </trkpt>
      <trkpt lat="44.10778" lon="6.67862">
        <ele>2462</ele>
        <time>2020-03-21T15:19:51.251Z</time>
      </trkpt>
      <trkpt lat="44.10768" lon="6.67855">
        <ele>2460</ele>
        <time>2020-03-21T15:19:52.251Z</time>
      </trkpt>
      <trkpt lat="44.1076" lon="6.67849">
        <ele>2457</ele>
        <time>2020-03-21T15:19:53.251Z</time>
      </trkpt>
      <trkpt lat="44.10758" lon="6.67846">
        <ele>2457</ele>
        <time>2020-03-21T15:19:54.251Z</time>
      </trkpt>
      <trkpt lat="44.10759" lon="6.67843">
        <ele>2456</ele>
        <time>2020-03-21T15:19:55.251Z</time>
      </trkpt>
      <trkpt lat="44.1076" lon="6.67842">
        <ele>2457</ele>
        <time>2020-03-21T15:19:56.251Z</time>
      </trkpt>
      <trkpt lat="44.10766" lon="6.67829">
        <ele>2456</ele>
        <time>2020-03-21T15:19:57.251Z</time>
      </trkpt>
      <trkpt lat="44.10774" lon="6.6782">
        <ele>2455</ele>
        <time>2020-03-21T15:19:58.251Z</time>
      </trkpt>
      <trkpt lat="44.10784" lon="6.67813">
        <ele>2455</ele>
        <time>2020-03-21T15:19:59.251Z</time>
      </trkpt>
      <trkpt lat="44.1079" lon="6.67814">
        <ele>2458</ele>
        <time>2020-03-21T15:20:00.251Z</time>
      </trkpt>
      <trkpt lat="44.10797" lon="6.6781">
        <ele>2459</ele>
        <time>2020-03-21T15:20:01.251Z</time>
      </trkpt>
      <trkpt lat="44.10798" lon="6.6781">
        <ele>2459</ele>
        <time>2020-03-21T15:20:02.251Z</time>
      </trkpt>
      <trkpt lat="44.10804" lon="6.67805">
        <ele>2460</ele>
        <time>2020-03-21T15:20:03.251Z</time>
      </trkpt>
      <trkpt lat="44.10804" lon="6.67803">
        <ele>2460</ele>
        <time>2020-03-21T15:20:04.251Z</time>
      </trkpt>
      <trkpt lat="44.10811" lon="6.67798">
        <ele>2461</ele>
        <time>2020-03-21T15:20:05.251Z</time>
      </trkpt>
      <trkpt lat="44.10812" lon="6.67797">
        <ele>2461</ele>
        <time>2020-03-21T15:20:06.251Z</time>
      </trkpt>
      <trkpt lat="44.10826" lon="6.67782">
        <ele>2463</ele>
        <time>2020-03-21T15:20:07.251Z</time>
      </trkpt>
      <trkpt lat="44.10838" lon="6.67763">
        <ele>2464</ele>
        <time>2020-03-21T15:20:08.251Z</time>
      </trkpt>
      <trkpt lat="44.10845" lon="6.67751">
        <ele>2466</ele>
        <time>2020-03-21T15:20:09.251Z</time>
      </trkpt>
      <trkpt lat="44.10846" lon="6.67748">
        <ele>2465</ele>
        <time>2020-03-21T15:20:10.251Z</time>
      </trkpt>
      <trkpt lat="44.10848" lon="6.67733">
        <ele>2464</ele>
        <time>2020-03-21T15:20:11.251Z</time>
      </trkpt>
      <trkpt lat="44.10848" lon="6.67727">
        <ele>2463</ele>
        <time>2020-03-21T15:20:12.251Z</time>
      </trkpt>
      <trkpt lat="44.10848" lon="6.67726">
        <ele>2462</ele>
        <time>2020-03-21T15:20:13.251Z</time>
      </trkpt>
      <trkpt lat="44.10847" lon="6.67723">
        <ele>2461</ele>
        <time>2020-03-21T15:20:14.251Z</time>
      </trkpt>
      <trkpt lat="44.1085" lon="6.6771">
        <ele>2461</ele>
        <time>2020-03-21T15:20:15.251Z</time>
      </trkpt>
      <trkpt lat="44.10849" lon="6.67699">
        <ele>2458</ele>
        <time>2020-03-21T15:20:16.251Z</time>
      </trkpt>
      <trkpt lat="44.10851" lon="6.67676">
        <ele>2455</ele>
        <time>2020-03-21T15:20:17.251Z</time>
      </trkpt>
      <trkpt lat="44.10848" lon="6.67661">
        <ele>2451</ele>
        <time>2020-03-21T15:20:18.251Z</time>
      </trkpt>
      <trkpt lat="44.10847" lon="6.67645">
        <ele>2449</ele>
        <time>2020-03-21T15:20:19.251Z</time>
      </trkpt>
      <trkpt lat="44.10846" lon="6.67639">
        <ele>2448</ele>
        <time>2020-03-21T15:20:20.251Z</time>
      </trkpt>
      <trkpt lat="44.10846" lon="6.67635">
        <ele>2448</ele>
        <time>2020-03-21T15:20:21.251Z</time>
      </trkpt>
      <trkpt lat="44.10845" lon="6.67631">
        <ele>2447</ele>
        <time>2020-03-21T15:20:22.251Z</time>
      </trkpt>
      <trkpt lat="44.10845" lon="6.67628">
        <ele>2447</ele>
        <time>2020-03-21T15:20:23.251Z</time>
      </trkpt>
      <trkpt lat="44.10845" lon="6.67623">
        <ele>2446</ele>
        <time>2020-03-21T15:20:24.251Z</time>
      </trkpt>
      <trkpt lat="44.10845" lon="6.67617">
        <ele>2445</ele>
        <time>2020-03-21T15:20:25.251Z</time>
      </trkpt>
      <trkpt lat="44.10844" lon="6.67609">
        <ele>2445</ele>
        <time>2020-03-21T15:20:26.251Z</time>
      </trkpt>
      <trkpt lat="44.10844" lon="6.67604">
        <ele>2444</ele>
        <time>2020-03-21T15:20:27.251Z</time>
      </trkpt>
      <trkpt lat="44.10845" lon="6.67586">
        <ele>2444</ele>
        <time>2020-03-21T15:20:28.251Z</time>
      </trkpt>
      <trkpt lat="44.10845" lon="6.67584">
        <ele>2443</ele>
        <time>2020-03-21T15:20:29.251Z</time>
      </trkpt>
      <trkpt lat="44.10844" lon="6.67563">
        <ele>2443</ele>
        <time>2020-03-21T15:20:30.251Z</time>
      </trkpt>
      <trkpt lat="44.10845" lon="6.6756">
        <ele>2444</ele>
        <time>2020-03-21T15:20:31.251Z</time>
      </trkpt>
      <trkpt lat="44.10843" lon="6.67553">
        <ele>2442</ele>
        <time>2020-03-21T15:20:32.251Z</time>
      </trkpt>
      <trkpt lat="44.10842" lon="6.67531">
        <ele>2442</ele>
        <time>2020-03-21T15:20:33.251Z</time>
      </trkpt>
      <trkpt lat="44.1084" lon="6.67528">
        <ele>2442</ele>
        <time>2020-03-21T15:20:34.251Z</time>
      </trkpt>
      <trkpt lat="44.10838" lon="6.6751">
        <ele>2441</ele>
        <time>2020-03-21T15:20:35.251Z</time>
      </trkpt>
      <trkpt lat="44.10832" lon="6.67493">
        <ele>2438</ele>
        <time>2020-03-21T15:20:36.251Z</time>
      </trkpt>
      <trkpt lat="44.10829" lon="6.6748">
        <ele>2436</ele>
        <time>2020-03-21T15:20:37.251Z</time>
      </trkpt>
      <trkpt lat="44.10826" lon="6.67468">
        <ele>2435</ele>
        <time>2020-03-21T15:20:38.251Z</time>
      </trkpt>
      <trkpt lat="44.10824" lon="6.67458">
        <ele>2434</ele>
        <time>2020-03-21T15:20:39.251Z</time>
      </trkpt>
      <trkpt lat="44.10819" lon="6.67449">
        <ele>2432</ele>
        <time>2020-03-21T15:20:40.251Z</time>
      </trkpt>
      <trkpt lat="44.10813" lon="6.67434">
        <ele>2428</ele>
        <time>2020-03-21T15:20:41.251Z</time>
      </trkpt>
      <trkpt lat="44.10812" lon="6.67426">
        <ele>2428</ele>
        <time>2020-03-21T15:20:42.251Z</time>
      </trkpt>
      <trkpt lat="44.10811" lon="6.67425">
        <ele>2428</ele>
        <time>2020-03-21T15:20:43.251Z</time>
      </trkpt>
      <trkpt lat="44.1081" lon="6.67425">
        <ele>2427</ele>
        <time>2020-03-21T15:20:44.251Z</time>
      </trkpt>
      <trkpt lat="44.10808" lon="6.67417">
        <ele>2426</ele>
        <time>2020-03-21T15:20:45.251Z</time>
      </trkpt>
      <trkpt lat="44.10807" lon="6.67417">
        <ele>2426</ele>
        <time>2020-03-21T15:20:46.251Z</time>
      </trkpt>
      <trkpt lat="44.10801" lon="6.67402">
        <ele>2423</ele>
        <time>2020-03-21T15:20:47.251Z</time>
      </trkpt>
      <trkpt lat="44.10798" lon="6.67394">
        <ele>2422</ele>
        <time>2020-03-21T15:20:48.251Z</time>
      </trkpt>
      <trkpt lat="44.10792" lon="6.67381">
        <ele>2418</ele>
        <time>2020-03-21T15:20:49.251Z</time>
      </trkpt>
      <trkpt lat="44.10791" lon="6.67377">
        <ele>2418</ele>
        <time>2020-03-21T15:20:50.251Z</time>
      </trkpt>
      <trkpt lat="44.10787" lon="6.67364">
        <ele>2416</ele>
        <time>2020-03-21T15:20:51.251Z</time>
      </trkpt>
      <trkpt lat="44.10781" lon="6.67357">
        <ele>2412</ele>
        <time>2020-03-21T15:20:52.251Z</time>
      </trkpt>
      <trkpt lat="44.10777" lon="6.67348">
        <ele>2410</ele>
        <time>2020-03-21T15:20:53.251Z</time>
      </trkpt>
      <trkpt lat="44.1077" lon="6.67332">
        <ele>2406</ele>
        <time>2020-03-21T15:20:54.251Z</time>
      </trkpt>
      <trkpt lat="44.10769" lon="6.67329">
        <ele>2406</ele>
        <time>2020-03-21T15:20:55.251Z</time>
      </trkpt>
      <trkpt lat="44.10764" lon="6.67318">
        <ele>2403</ele>
        <time>2020-03-21T15:20:56.251Z</time>
      </trkpt>
      <trkpt lat="44.1076" lon="6.6731">
        <ele>2401</ele>
        <time>2020-03-21T15:20:57.251Z</time>
      </trkpt>
      <trkpt lat="44.10757" lon="6.67301">
        <ele>2400</ele>
        <time>2020-03-21T15:20:58.251Z</time>
      </trkpt>
      <trkpt lat="44.10756" lon="6.67298">
        <ele>2399</ele>
        <time>2020-03-21T15:20:59.251Z</time>
      </trkpt>
      <trkpt lat="44.10755" lon="6.67286">
        <ele>2399</ele>
        <time>2020-03-21T15:21:00.251Z</time>
      </trkpt>
      <trkpt lat="44.1075" lon="6.6727">
        <ele>2397</ele>
        <time>2020-03-21T15:21:01.251Z</time>
      </trkpt>
      <trkpt lat="44.10748" lon="6.67261">
        <ele>2396</ele>
        <time>2020-03-21T15:21:02.251Z</time>
      </trkpt>
      <trkpt lat="44.10742" lon="6.67247">
        <ele>2394</ele>
        <time>2020-03-21T15:21:03.251Z</time>
      </trkpt>
      <trkpt lat="44.10738" lon="6.67227">
        <ele>2393</ele>
        <time>2020-03-21T15:21:04.251Z</time>
      </trkpt>
      <trkpt lat="44.10735" lon="6.67219">
        <ele>2392</ele>
        <time>2020-03-21T15:21:05.251Z</time>
      </trkpt>
      <trkpt lat="44.10729" lon="6.67207">
        <ele>2390</ele>
        <time>2020-03-21T15:21:06.251Z</time>
      </trkpt>
      <trkpt lat="44.10724" lon="6.67191">
        <ele>2388</ele>
        <time>2020-03-21T15:21:07.251Z</time>
      </trkpt>
      <trkpt lat="44.1072" lon="6.67177">
        <ele>2387</ele>
        <time>2020-03-21T15:21:08.251Z</time>
      </trkpt>
      <trkpt lat="44.10719" lon="6.67174">
        <ele>2387</ele>
        <time>2020-03-21T15:21:09.251Z</time>
      </trkpt>
      <trkpt lat="44.10717" lon="6.67171">
        <ele>2386</ele>
        <time>2020-03-21T15:21:10.251Z</time>
      </trkpt>
      <trkpt lat="44.10716" lon="6.67169">
        <ele>2385</ele>
        <time>2020-03-21T15:21:11.251Z</time>
      </trkpt>
      <trkpt lat="44.10714" lon="6.67165">
        <ele>2384</ele>
        <time>2020-03-21T15:21:12.251Z</time>
      </trkpt>
      <trkpt lat="44.10713" lon="6.67163">
        <ele>2384</ele>
        <time>2020-03-21T15:21:13.251Z</time>
      </trkpt>
      <trkpt lat="44.10705" lon="6.67148">
        <ele>2382</ele>
        <time>2020-03-21T15:21:14.251Z</time>
      </trkpt>
      <trkpt lat="44.107" lon="6.67138">
        <ele>2379</ele>
        <time>2020-03-21T15:21:15.251Z</time>
      </trkpt>
      <trkpt lat="44.10693" lon="6.67127">
        <ele>2377</ele>
        <time>2020-03-21T15:21:16.251Z</time>
      </trkpt>
      <trkpt lat="44.10683" lon="6.6711">
        <ele>2373</ele>
        <time>2020-03-21T15:21:17.251Z</time>
      </trkpt>
      <trkpt lat="44.10674" lon="6.67102">
        <ele>2369</ele>
        <time>2020-03-21T15:21:18.251Z</time>
      </trkpt>
      <trkpt lat="44.1067" lon="6.67098">
        <ele>2367</ele>
        <time>2020-03-21T15:21:19.251Z</time>
      </trkpt>
      <trkpt lat="44.10661" lon="6.67086">
        <ele>2363</ele>
        <time>2020-03-21T15:21:20.251Z</time>
      </trkpt>
      <trkpt lat="44.10652" lon="6.67075">
        <ele>2359</ele>
        <time>2020-03-21T15:21:21.251Z</time>
      </trkpt>
      <trkpt lat="44.10638" lon="6.67057">
        <ele>2353</ele>
        <time>2020-03-21T15:21:22.251Z</time>
      </trkpt>
      <trkpt lat="44.10624" lon="6.67039">
        <ele>2346</ele>
        <time>2020-03-21T15:21:23.251Z</time>
      </trkpt>
      <trkpt lat="44.10621" lon="6.67035">
        <ele>2344</ele>
        <time>2020-03-21T15:21:24.251Z</time>
      </trkpt>
      <trkpt lat="44.10618" lon="6.67031">
        <ele>2343</ele>
        <time>2020-03-21T15:21:25.251Z</time>
      </trkpt>
      <trkpt lat="44.10612" lon="6.67019">
        <ele>2339</ele>
        <time>2020-03-21T15:21:26.251Z</time>
      </trkpt>
      <trkpt lat="44.106" lon="6.66995">
        <ele>2331</ele>
        <time>2020-03-21T15:21:27.251Z</time>
      </trkpt>
      <trkpt lat="44.10596" lon="6.66983">
        <ele>2329</ele>
        <time>2020-03-21T15:21:28.251Z</time>
      </trkpt>
      <trkpt lat="44.10595" lon="6.66968">
        <ele>2327</ele>
        <time>2020-03-21T15:21:29.251Z</time>
      </trkpt>
      <trkpt lat="44.10594" lon="6.66957">
        <ele>2326</ele>
        <time>2020-03-21T15:21:30.251Z</time>
      </trkpt>
      <trkpt lat="44.10594" lon="6.66942">
        <ele>2326</ele>
        <time>2020-03-21T15:21:31.251Z</time>
      </trkpt>
      <trkpt lat="44.10595" lon="6.66935">
        <ele>2326</ele>
        <time>2020-03-21T15:21:32.251Z</time>
      </trkpt>
      <trkpt lat="44.10596" lon="6.6693">
        <ele>2327</ele>
        <time>2020-03-21T15:21:33.251Z</time>
      </trkpt>
      <trkpt lat="44.10593" lon="6.66917">
        <ele>2324</ele>
        <time>2020-03-21T15:21:34.251Z</time>
      </trkpt>
      <trkpt lat="44.10591" lon="6.66901">
        <ele>2321</ele>
        <time>2020-03-21T15:21:35.251Z</time>
      </trkpt>
      <trkpt lat="44.10593" lon="6.66885">
        <ele>2321</ele>
        <time>2020-03-21T15:21:36.251Z</time>
      </trkpt>
      <trkpt lat="44.10596" lon="6.66874">
        <ele>2321</ele>
        <time>2020-03-21T15:21:37.251Z</time>
      </trkpt>
      <trkpt lat="44.10598" lon="6.66871">
        <ele>2321</ele>
        <time>2020-03-21T15:21:38.251Z</time>
      </trkpt>
      <trkpt lat="44.10597" lon="6.66863">
        <ele>2320</ele>
        <time>2020-03-21T15:21:39.251Z</time>
      </trkpt>
      <trkpt lat="44.10592" lon="6.66852">
        <ele>2316</ele>
        <time>2020-03-21T15:21:40.251Z</time>
      </trkpt>
      <trkpt lat="44.10579" lon="6.66841">
        <ele>2311</ele>
        <time>2020-03-21T15:21:41.251Z</time>
      </trkpt>
      <trkpt lat="44.10568" lon="6.6682">
        <ele>2307</ele>
        <time>2020-03-21T15:21:42.251Z</time>
      </trkpt>
      <trkpt lat="44.10555" lon="6.66808">
        <ele>2303</ele>
        <time>2020-03-21T15:21:43.251Z</time>
      </trkpt>
      <trkpt lat="44.10539" lon="6.66779">
        <ele>2298</ele>
        <time>2020-03-21T15:21:44.251Z</time>
      </trkpt>
      <trkpt lat="44.10536" lon="6.66765">
        <ele>2297</ele>
        <time>2020-03-21T15:21:45.251Z</time>
      </trkpt>
      <trkpt lat="44.10534" lon="6.66758">
        <ele>2296</ele>
        <time>2020-03-21T15:21:46.251Z</time>
      </trkpt>
      <trkpt lat="44.10515" lon="6.66749">
        <ele>2296</ele>
        <time>2020-03-21T15:21:47.251Z</time>
      </trkpt>
      <trkpt lat="44.10507" lon="6.66747">
        <ele>2296</ele>
        <time>2020-03-21T15:21:48.251Z</time>
      </trkpt>
      <trkpt lat="44.10498" lon="6.66748">
        <ele>2295</ele>
        <time>2020-03-21T15:21:49.251Z</time>
      </trkpt>
      <trkpt lat="44.10486" lon="6.66744">
        <ele>2290</ele>
        <time>2020-03-21T15:21:50.251Z</time>
      </trkpt>
      <trkpt lat="44.10485" lon="6.66736">
        <ele>2289</ele>
        <time>2020-03-21T15:21:51.251Z</time>
      </trkpt>
      <trkpt lat="44.10486" lon="6.66725">
        <ele>2289</ele>
        <time>2020-03-21T15:21:52.251Z</time>
      </trkpt>
      <trkpt lat="44.10486" lon="6.66706">
        <ele>2288</ele>
        <time>2020-03-21T15:21:53.251Z</time>
      </trkpt>
      <trkpt lat="44.1048" lon="6.66678">
        <ele>2284</ele>
        <time>2020-03-21T15:21:54.251Z</time>
      </trkpt>
      <trkpt lat="44.1047" lon="6.66665">
        <ele>2281</ele>
        <time>2020-03-21T15:21:55.251Z</time>
      </trkpt>
      <trkpt lat="44.10462" lon="6.6665">
        <ele>2279</ele>
        <time>2020-03-21T15:21:56.251Z</time>
      </trkpt>
      <trkpt lat="44.10458" lon="6.66633">
        <ele>2278</ele>
        <time>2020-03-21T15:21:57.251Z</time>
      </trkpt>
      <trkpt lat="44.10455" lon="6.66616">
        <ele>2277</ele>
        <time>2020-03-21T15:21:58.251Z</time>
      </trkpt>
      <trkpt lat="44.10456" lon="6.66613">
        <ele>2277</ele>
        <time>2020-03-21T15:21:59.251Z</time>
      </trkpt>
      <trkpt lat="44.10459" lon="6.66604">
        <ele>2277</ele>
        <time>2020-03-21T15:22:00.251Z</time>
      </trkpt>
      <trkpt lat="44.1047" lon="6.66593">
        <ele>2278</ele>
        <time>2020-03-21T15:22:01.251Z</time>
      </trkpt>
      <trkpt lat="44.10482" lon="6.66579">
        <ele>2279</ele>
        <time>2020-03-21T15:22:02.251Z</time>
      </trkpt>
      <trkpt lat="44.10491" lon="6.66559">
        <ele>2278</ele>
        <time>2020-03-21T15:22:03.251Z</time>
      </trkpt>
      <trkpt lat="44.10495" lon="6.66532">
        <ele>2274</ele>
        <time>2020-03-21T15:22:04.251Z</time>
      </trkpt>
      <trkpt lat="44.10493" lon="6.66516">
        <ele>2272</ele>
        <time>2020-03-21T15:22:05.251Z</time>
      </trkpt>
      <trkpt lat="44.10485" lon="6.66503">
        <ele>2270</ele>
        <time>2020-03-21T15:22:06.251Z</time>
      </trkpt>
      <trkpt lat="44.10483" lon="6.66502">
        <ele>2270</ele>
        <time>2020-03-21T15:22:07.251Z</time>
      </trkpt>
      <trkpt lat="44.10479" lon="6.66495">
        <ele>2269</ele>
        <time>2020-03-21T15:22:08.251Z</time>
      </trkpt>
      <trkpt lat="44.10479" lon="6.66494">
        <ele>2268</ele>
        <time>2020-03-21T15:22:09.251Z</time>
      </trkpt>
      <trkpt lat="44.10477" lon="6.66488">
        <ele>2267</ele>
        <time>2020-03-21T15:22:10.251Z</time>
      </trkpt>
      <trkpt lat="44.10476" lon="6.66486">
        <ele>2267</ele>
        <time>2020-03-21T15:22:11.251Z</time>
      </trkpt>
      <trkpt lat="44.10459" lon="6.66475">
        <ele>2265</ele>
        <time>2020-03-21T15:22:12.251Z</time>
      </trkpt>
      <trkpt lat="44.10445" lon="6.66468">
        <ele>2264</ele>
        <time>2020-03-21T15:22:13.251Z</time>
      </trkpt>
      <trkpt lat="44.10429" lon="6.66458">
        <ele>2264</ele>
        <time>2020-03-21T15:22:14.251Z</time>
      </trkpt>
      <trkpt lat="44.10409" lon="6.66442">
        <ele>2260</ele>
        <time>2020-03-21T15:22:15.251Z</time>
      </trkpt>
      <trkpt lat="44.104" lon="6.66437">
        <ele>2257</ele>
        <time>2020-03-21T15:22:16.251Z</time>
      </trkpt>
      <trkpt lat="44.10387" lon="6.6644">
        <ele>2253</ele>
        <time>2020-03-21T15:22:17.251Z</time>
      </trkpt>
      <trkpt lat="44.10384" lon="6.66442">
        <ele>2252</ele>
        <time>2020-03-21T15:22:18.251Z</time>
      </trkpt>
      <trkpt lat="44.10377" lon="6.66449">
        <ele>2250</ele>
        <time>2020-03-21T15:22:19.251Z</time>
      </trkpt>
      <trkpt lat="44.10372" lon="6.66444">
        <ele>2248</ele>
        <time>2020-03-21T15:22:20.251Z</time>
      </trkpt>
      <trkpt lat="44.10371" lon="6.66434">
        <ele>2248</ele>
        <time>2020-03-21T15:22:21.251Z</time>
      </trkpt>
      <trkpt lat="44.10369" lon="6.66415">
        <ele>2247</ele>
        <time>2020-03-21T15:22:22.251Z</time>
      </trkpt>
      <trkpt lat="44.10367" lon="6.6639">
        <ele>2246</ele>
        <time>2020-03-21T15:22:23.251Z</time>
      </trkpt>
      <trkpt lat="44.10358" lon="6.66367">
        <ele>2243</ele>
        <time>2020-03-21T15:22:24.251Z</time>
      </trkpt>
      <trkpt lat="44.1034" lon="6.6633">
        <ele>2240</ele>
        <time>2020-03-21T15:22:25.251Z</time>
      </trkpt>
      <trkpt lat="44.10332" lon="6.66312">
        <ele>2238</ele>
        <time>2020-03-21T15:22:26.251Z</time>
      </trkpt>
      <trkpt lat="44.10319" lon="6.66282">
        <ele>2233</ele>
        <time>2020-03-21T15:22:27.251Z</time>
      </trkpt>
      <trkpt lat="44.10309" lon="6.66242">
        <ele>2228</ele>
        <time>2020-03-21T15:22:28.251Z</time>
      </trkpt>
      <trkpt lat="44.10306" lon="6.66221">
        <ele>2224</ele>
        <time>2020-03-21T15:22:29.251Z</time>
      </trkpt>
      <trkpt lat="44.10307" lon="6.66216">
        <ele>2223</ele>
        <time>2020-03-21T15:22:30.251Z</time>
      </trkpt>
      <trkpt lat="44.1032" lon="6.66191">
        <ele>2219</ele>
        <time>2020-03-21T15:22:31.251Z</time>
      </trkpt>
      <trkpt lat="44.10335" lon="6.66181">
        <ele>2218</ele>
        <time>2020-03-21T15:22:32.251Z</time>
      </trkpt>
      <trkpt lat="44.10357" lon="6.66173">
        <ele>2211</ele>
        <time>2020-03-21T15:22:33.251Z</time>
      </trkpt>
      <trkpt lat="44.10366" lon="6.66172">
        <ele>2208</ele>
        <time>2020-03-21T15:22:34.251Z</time>
      </trkpt>
      <trkpt lat="44.10382" lon="6.66175">
        <ele>2204</ele>
        <time>2020-03-21T15:22:35.251Z</time>
      </trkpt>
      <trkpt lat="44.10401" lon="6.6618">
        <ele>2202</ele>
        <time>2020-03-21T15:22:36.251Z</time>
      </trkpt>
      <trkpt lat="44.10416" lon="6.66187">
        <ele>2201</ele>
        <time>2020-03-21T15:22:37.251Z</time>
      </trkpt>
      <trkpt lat="44.10425" lon="6.66191">
        <ele>2199</ele>
        <time>2020-03-21T15:22:38.251Z</time>
      </trkpt>
      <trkpt lat="44.10449" lon="6.66206">
        <ele>2194</ele>
        <time>2020-03-21T15:22:39.251Z</time>
      </trkpt>
      <trkpt lat="44.1046" lon="6.66214">
        <ele>2193</ele>
        <time>2020-03-21T15:22:40.251Z</time>
      </trkpt>
      <trkpt lat="44.10471" lon="6.66223">
        <ele>2192</ele>
        <time>2020-03-21T15:22:41.251Z</time>
      </trkpt>
      <trkpt lat="44.1048" lon="6.66233">
        <ele>2193</ele>
        <time>2020-03-21T15:22:42.251Z</time>
      </trkpt>
      <trkpt lat="44.10492" lon="6.66245">
        <ele>2192</ele>
        <time>2020-03-21T15:22:43.251Z</time>
      </trkpt>
      <trkpt lat="44.10497" lon="6.66251">
        <ele>2193</ele>
        <time>2020-03-21T15:22:44.251Z</time>
      </trkpt>
      <trkpt lat="44.10509" lon="6.66267">
        <ele>2193</ele>
        <time>2020-03-21T15:22:45.251Z</time>
      </trkpt>
      <trkpt lat="44.10519" lon="6.66281">
        <ele>2193</ele>
        <time>2020-03-21T15:22:46.251Z</time>
      </trkpt>
      <trkpt lat="44.10531" lon="6.66293">
        <ele>2193</ele>
        <time>2020-03-21T15:22:47.251Z</time>
      </trkpt>
      <trkpt lat="44.10552" lon="6.66308">
        <ele>2189</ele>
        <time>2020-03-21T15:22:48.251Z</time>
      </trkpt>
      <trkpt lat="44.10574" lon="6.6632">
        <ele>2184</ele>
        <time>2020-03-21T15:22:49.251Z</time>
      </trkpt>
      <trkpt lat="44.10588" lon="6.66327">
        <ele>2182</ele>
        <time>2020-03-21T15:22:50.251Z</time>
      </trkpt>
      <trkpt lat="44.10596" lon="6.66331">
        <ele>2181</ele>
        <time>2020-03-21T15:22:51.251Z</time>
      </trkpt>
      <trkpt lat="44.10616" lon="6.6634">
        <ele>2178</ele>
        <time>2020-03-21T15:22:52.251Z</time>
      </trkpt>
      <trkpt lat="44.1062" lon="6.66343">
        <ele>2177</ele>
        <time>2020-03-21T15:22:53.251Z</time>
      </trkpt>
      <trkpt lat="44.10643" lon="6.66355">
        <ele>2174</ele>
        <time>2020-03-21T15:22:54.251Z</time>
      </trkpt>
      <trkpt lat="44.10665" lon="6.66369">
        <ele>2170</ele>
        <time>2020-03-21T15:22:55.251Z</time>
      </trkpt>
      <trkpt lat="44.10668" lon="6.66371">
        <ele>2170</ele>
        <time>2020-03-21T15:22:56.251Z</time>
      </trkpt>
      <trkpt lat="44.10666" lon="6.66365">
        <ele>2169</ele>
        <time>2020-03-21T15:22:57.251Z</time>
      </trkpt>
      <trkpt lat="44.1066" lon="6.66352">
        <ele>2168</ele>
        <time>2020-03-21T15:22:58.251Z</time>
      </trkpt>
      <trkpt lat="44.10648" lon="6.66331">
        <ele>2166</ele>
        <time>2020-03-21T15:22:59.251Z</time>
      </trkpt>
      <trkpt lat="44.10644" lon="6.66325">
        <ele>2166</ele>
        <time>2020-03-21T15:23:00.251Z</time>
      </trkpt>
      <trkpt lat="44.10631" lon="6.66303">
        <ele>2164</ele>
        <time>2020-03-21T15:23:01.251Z</time>
      </trkpt>
      <trkpt lat="44.1062" lon="6.66291">
        <ele>2163</ele>
        <time>2020-03-21T15:23:02.251Z</time>
      </trkpt>
      <trkpt lat="44.10609" lon="6.66264">
        <ele>2158</ele>
        <time>2020-03-21T15:23:03.251Z</time>
      </trkpt>
      <trkpt lat="44.10599" lon="6.66247">
        <ele>2154</ele>
        <time>2020-03-21T15:23:04.251Z</time>
      </trkpt>
      <trkpt lat="44.10595" lon="6.66241">
        <ele>2152</ele>
        <time>2020-03-21T15:23:05.251Z</time>
      </trkpt>
      <trkpt lat="44.10579" lon="6.66226">
        <ele>2150</ele>
        <time>2020-03-21T15:23:06.251Z</time>
      </trkpt>
      <trkpt lat="44.10578" lon="6.66221">
        <ele>2148</ele>
        <time>2020-03-21T15:23:07.251Z</time>
      </trkpt>
      <trkpt lat="44.10576" lon="6.6621">
        <ele>2145</ele>
        <time>2020-03-21T15:23:08.251Z</time>
      </trkpt>
      <trkpt lat="44.10564" lon="6.66175">
        <ele>2137</ele>
        <time>2020-03-21T15:23:09.251Z</time>
      </trkpt>
      <trkpt lat="44.10559" lon="6.66161">
        <ele>2134</ele>
        <time>2020-03-21T15:23:10.251Z</time>
      </trkpt>
      <trkpt lat="44.10547" lon="6.66137">
        <ele>2131</ele>
        <time>2020-03-21T15:23:11.251Z</time>
      </trkpt>
      <trkpt lat="44.10528" lon="6.66109">
        <ele>2129</ele>
        <time>2020-03-21T15:23:12.251Z</time>
      </trkpt>
      <trkpt lat="44.10521" lon="6.66094">
        <ele>2127</ele>
        <time>2020-03-21T15:23:13.251Z</time>
      </trkpt>
      <trkpt lat="44.10518" lon="6.66086">
        <ele>2125</ele>
        <time>2020-03-21T15:23:14.251Z</time>
      </trkpt>
      <trkpt lat="44.10518" lon="6.66058">
        <ele>2119</ele>
        <time>2020-03-21T15:23:15.251Z</time>
      </trkpt>
      <trkpt lat="44.10519" lon="6.66044">
        <ele>2116</ele>
        <time>2020-03-21T15:23:16.251Z</time>
      </trkpt>
      <trkpt lat="44.10519" lon="6.66018">
        <ele>2110</ele>
        <time>2020-03-21T15:23:17.251Z</time>
      </trkpt>
      <trkpt lat="44.10519" lon="6.66014">
        <ele>2109</ele>
        <time>2020-03-21T15:23:18.251Z</time>
      </trkpt>
      <trkpt lat="44.10512" lon="6.66002">
        <ele>2107</ele>
        <time>2020-03-21T15:23:19.251Z</time>
      </trkpt>
      <trkpt lat="44.10509" lon="6.65997">
        <ele>2107</ele>
        <time>2020-03-21T15:23:20.251Z</time>
      </trkpt>
      <trkpt lat="44.10496" lon="6.65983">
        <ele>2105</ele>
        <time>2020-03-21T15:23:21.251Z</time>
      </trkpt>
      <trkpt lat="44.10488" lon="6.65974">
        <ele>2104</ele>
        <time>2020-03-21T15:23:22.251Z</time>
      </trkpt>
      <trkpt lat="44.10479" lon="6.65961">
        <ele>2101</ele>
        <time>2020-03-21T15:23:23.251Z</time>
      </trkpt>
      <trkpt lat="44.10468" lon="6.65945">
        <ele>2098</ele>
        <time>2020-03-21T15:23:24.251Z</time>
      </trkpt>
      <trkpt lat="44.1046" lon="6.65929">
        <ele>2094</ele>
        <time>2020-03-21T15:23:25.251Z</time>
      </trkpt>
      <trkpt lat="44.10458" lon="6.65923">
        <ele>2092</ele>
        <time>2020-03-21T15:23:26.251Z</time>
      </trkpt>
      <trkpt lat="44.10464" lon="6.65913">
        <ele>2088</ele>
        <time>2020-03-21T15:23:27.251Z</time>
      </trkpt>
      <trkpt lat="44.10467" lon="6.65911">
        <ele>2087</ele>
        <time>2020-03-21T15:23:28.251Z</time>
      </trkpt>
      <trkpt lat="44.10486" lon="6.65911">
        <ele>2084</ele>
        <time>2020-03-21T15:23:29.251Z</time>
      </trkpt>
      <trkpt lat="44.1049" lon="6.65911">
        <ele>2083</ele>
        <time>2020-03-21T15:23:30.251Z</time>
      </trkpt>
      <trkpt lat="44.10498" lon="6.6591">
        <ele>2082</ele>
        <time>2020-03-21T15:23:31.251Z</time>
      </trkpt>
      <trkpt lat="44.10496" lon="6.65908">
        <ele>2082</ele>
        <time>2020-03-21T15:23:32.251Z</time>
      </trkpt>
      <trkpt lat="44.10489" lon="6.65899">
        <ele>2081</ele>
        <time>2020-03-21T15:23:33.251Z</time>
      </trkpt>
      <trkpt lat="44.10484" lon="6.65893">
        <ele>2080</ele>
        <time>2020-03-21T15:23:34.251Z</time>
      </trkpt>
      <trkpt lat="44.10478" lon="6.65892">
        <ele>2080</ele>
        <time>2020-03-21T15:23:35.251Z</time>
      </trkpt>
      <trkpt lat="44.10468" lon="6.65881">
        <ele>2079</ele>
        <time>2020-03-21T15:23:36.251Z</time>
      </trkpt>
      <trkpt lat="44.10464" lon="6.65873">
        <ele>2077</ele>
        <time>2020-03-21T15:23:37.251Z</time>
      </trkpt>
      <trkpt lat="44.10447" lon="6.65858">
        <ele>2074</ele>
        <time>2020-03-21T15:23:38.251Z</time>
      </trkpt>
      <trkpt lat="44.10444" lon="6.65856">
        <ele>2073</ele>
        <time>2020-03-21T15:23:39.251Z</time>
      </trkpt>
      <trkpt lat="44.10434" lon="6.65847">
        <ele>2071</ele>
        <time>2020-03-21T15:23:40.251Z</time>
      </trkpt>
      <trkpt lat="44.10428" lon="6.65841">
        <ele>2069</ele>
        <time>2020-03-21T15:23:41.251Z</time>
      </trkpt>
      <trkpt lat="44.10412" lon="6.65826">
        <ele>2066</ele>
        <time>2020-03-21T15:23:42.251Z</time>
      </trkpt>
      <trkpt lat="44.10406" lon="6.65822">
        <ele>2066</ele>
        <time>2020-03-21T15:23:43.251Z</time>
      </trkpt>
      <trkpt lat="44.10407" lon="6.65822">
        <ele>2066</ele>
        <time>2020-03-21T15:23:44.251Z</time>
      </trkpt>
      <trkpt lat="44.10401" lon="6.65816">
        <ele>2065</ele>
        <time>2020-03-21T15:23:45.251Z</time>
      </trkpt>
      <trkpt lat="44.10398" lon="6.65813">
        <ele>2065</ele>
        <time>2020-03-21T15:23:46.251Z</time>
      </trkpt>
      <trkpt lat="44.10375" lon="6.6579">
        <ele>2062</ele>
        <time>2020-03-21T15:23:47.251Z</time>
      </trkpt>
      <trkpt lat="44.10371" lon="6.65786">
        <ele>2062</ele>
        <time>2020-03-21T15:23:48.251Z</time>
      </trkpt>
      <trkpt lat="44.10356" lon="6.6577">
        <ele>2059</ele>
        <time>2020-03-21T15:23:49.251Z</time>
      </trkpt>
      <trkpt lat="44.10341" lon="6.6575">
        <ele>2055</ele>
        <time>2020-03-21T15:23:50.251Z</time>
      </trkpt>
      <trkpt lat="44.10329" lon="6.65736">
        <ele>2053</ele>
        <time>2020-03-21T15:23:51.251Z</time>
      </trkpt>
      <trkpt lat="44.10327" lon="6.65733">
        <ele>2052</ele>
        <time>2020-03-21T15:23:52.251Z</time>
      </trkpt>
      <trkpt lat="44.1032" lon="6.65722">
        <ele>2051</ele>
        <time>2020-03-21T15:23:53.251Z</time>
      </trkpt>
      <trkpt lat="44.10315" lon="6.65713">
        <ele>2049</ele>
        <time>2020-03-21T15:23:54.251Z</time>
      </trkpt>
      <trkpt lat="44.10311" lon="6.65707">
        <ele>2048</ele>
        <time>2020-03-21T15:23:55.251Z</time>
      </trkpt>
      <trkpt lat="44.10303" lon="6.65691">
        <ele>2045</ele>
        <time>2020-03-21T15:23:56.251Z</time>
      </trkpt>
      <trkpt lat="44.10289" lon="6.65675">
        <ele>2043</ele>
        <time>2020-03-21T15:23:57.251Z</time>
      </trkpt>
      <trkpt lat="44.10278" lon="6.65664">
        <ele>2042</ele>
        <time>2020-03-21T15:23:58.251Z</time>
      </trkpt>
      <trkpt lat="44.10271" lon="6.65656">
        <ele>2042</ele>
        <time>2020-03-21T15:23:59.251Z</time>
      </trkpt>
      <trkpt lat="44.10255" lon="6.65635">
        <ele>2038</ele>
        <time>2020-03-21T15:24:00.251Z</time>
      </trkpt>
      <trkpt lat="44.10234" lon="6.65609">
        <ele>2035</ele>
        <time>2020-03-21T15:24:01.251Z</time>
      </trkpt>
      <trkpt lat="44.1021" lon="6.65584">
        <ele>2032</ele>
        <time>2020-03-21T15:24:02.251Z</time>
      </trkpt>
      <trkpt lat="44.102" lon="6.65574">
        <ele>2033</ele>
        <time>2020-03-21T15:24:03.251Z</time>
      </trkpt>
      <trkpt lat="44.10177" lon="6.65549">
        <ele>2032</ele>
        <time>2020-03-21T15:24:04.251Z</time>
      </trkpt>
      <trkpt lat="44.10173" lon="6.65544">
        <ele>2031</ele>
        <time>2020-03-21T15:24:05.251Z</time>
      </trkpt>
      <trkpt lat="44.10143" lon="6.65512">
        <ele>2028</ele>
        <time>2020-03-21T15:24:06.251Z</time>
      </trkpt>
      <trkpt lat="44.10117" lon="6.65481">
        <ele>2022</ele>
        <time>2020-03-21T15:24:07.251Z</time>
      </trkpt>
      <trkpt lat="44.10097" lon="6.65456">
        <ele>2018</ele>
        <time>2020-03-21T15:24:08.251Z</time>
      </trkpt>
      <trkpt lat="44.10072" lon="6.65429">
        <ele>2012</ele>
        <time>2020-03-21T15:24:09.251Z</time>
      </trkpt>
      <trkpt lat="44.10046" lon="6.6541">
        <ele>2007</ele>
        <time>2020-03-21T15:24:10.251Z</time>
      </trkpt>
      <trkpt lat="44.10015" lon="6.65389">
        <ele>2001</ele>
        <time>2020-03-21T15:24:11.251Z</time>
      </trkpt>
      <trkpt lat="44.09995" lon="6.65383">
        <ele>1999</ele>
        <time>2020-03-21T15:24:12.251Z</time>
      </trkpt>
      <trkpt lat="44.09986" lon="6.65383">
        <ele>1997</ele>
        <time>2020-03-21T15:24:13.251Z</time>
      </trkpt>
      <trkpt lat="44.09976" lon="6.65401">
        <ele>1999</ele>
        <time>2020-03-21T15:24:14.251Z</time>
      </trkpt>
      <trkpt lat="44.09976" lon="6.65408">
        <ele>2001</ele>
        <time>2020-03-21T15:24:15.251Z</time>
      </trkpt>
      <trkpt lat="44.09975" lon="6.65422">
        <ele>2004</ele>
        <time>2020-03-21T15:24:16.251Z</time>
      </trkpt>
      <trkpt lat="44.09972" lon="6.65466">
        <ele>2009</ele>
        <time>2020-03-21T15:24:17.251Z</time>
      </trkpt>
      <trkpt lat="44.09968" lon="6.65497">
        <ele>2011</ele>
        <time>2020-03-21T15:24:18.251Z</time>
      </trkpt>
      <trkpt lat="44.09964" lon="6.65528">
        <ele>2012</ele>
        <time>2020-03-21T15:24:19.251Z</time>
      </trkpt>
      <trkpt lat="44.09962" lon="6.65542">
        <ele>2012</ele>
        <time>2020-03-21T15:24:20.251Z</time>
      </trkpt>
      <trkpt lat="44.09958" lon="6.65566">
        <ele>2012</ele>
        <time>2020-03-21T15:24:21.251Z</time>
      </trkpt>
      <trkpt lat="44.09954" lon="6.65582">
        <ele>2011</ele>
        <time>2020-03-21T15:24:22.251Z</time>
      </trkpt>
      <trkpt lat="44.09948" lon="6.65608">
        <ele>2011</ele>
        <time>2020-03-21T15:24:23.251Z</time>
      </trkpt>
      <trkpt lat="44.09946" lon="6.65613">
        <ele>2010</ele>
        <time>2020-03-21T15:24:24.251Z</time>
      </trkpt>
      <trkpt lat="44.09934" lon="6.65639">
        <ele>2006</ele>
        <time>2020-03-21T15:24:25.251Z</time>
      </trkpt>
      <trkpt lat="44.09922" lon="6.65666">
        <ele>2001</ele>
        <time>2020-03-21T15:24:26.251Z</time>
      </trkpt>
      <trkpt lat="44.09919" lon="6.65674">
        <ele>2001</ele>
        <time>2020-03-21T15:24:27.251Z</time>
      </trkpt>
      <trkpt lat="44.09909" lon="6.65701">
        <ele>2000</ele>
        <time>2020-03-21T15:24:28.251Z</time>
      </trkpt>
      <trkpt lat="44.09895" lon="6.65726">
        <ele>1997</ele>
        <time>2020-03-21T15:24:29.251Z</time>
      </trkpt>
      <trkpt lat="44.09892" lon="6.6573">
        <ele>1997</ele>
        <time>2020-03-21T15:24:30.251Z</time>
      </trkpt>
      <trkpt lat="44.09887" lon="6.65745">
        <ele>1996</ele>
        <time>2020-03-21T15:24:31.251Z</time>
      </trkpt>
      <trkpt lat="44.09883" lon="6.65754">
        <ele>1996</ele>
        <time>2020-03-21T15:24:32.251Z</time>
      </trkpt>
      <trkpt lat="44.09879" lon="6.65769">
        <ele>1996</ele>
        <time>2020-03-21T15:24:33.251Z</time>
      </trkpt>
      <trkpt lat="44.09874" lon="6.65785">
        <ele>1996</ele>
        <time>2020-03-21T15:24:34.251Z</time>
      </trkpt>
      <trkpt lat="44.09871" lon="6.65791">
        <ele>1995</ele>
        <time>2020-03-21T15:24:35.251Z</time>
      </trkpt>
      <trkpt lat="44.0987" lon="6.65801">
        <ele>1996</ele>
        <time>2020-03-21T15:24:36.251Z</time>
      </trkpt>
      <trkpt lat="44.09862" lon="6.6583">
        <ele>1996</ele>
        <time>2020-03-21T15:24:37.251Z</time>
      </trkpt>
      <trkpt lat="44.09852" lon="6.65839">
        <ele>1992</ele>
        <time>2020-03-21T15:24:38.251Z</time>
      </trkpt>
      <trkpt lat="44.09838" lon="6.65848">
        <ele>1985</ele>
        <time>2020-03-21T15:24:39.251Z</time>
      </trkpt>
      <trkpt lat="44.09844" lon="6.65871">
        <ele>1987</ele>
        <time>2020-03-21T15:24:40.251Z</time>
      </trkpt>
      <trkpt lat="44.09847" lon="6.65877">
        <ele>1988</ele>
        <time>2020-03-21T15:24:41.251Z</time>
      </trkpt>
      <trkpt lat="44.09842" lon="6.65898">
        <ele>1986</ele>
        <time>2020-03-21T15:24:42.251Z</time>
      </trkpt>
      <trkpt lat="44.09842" lon="6.65919">
        <ele>1985</ele>
        <time>2020-03-21T15:24:43.251Z</time>
      </trkpt>
      <trkpt lat="44.09848" lon="6.65928">
        <ele>1987</ele>
        <time>2020-03-21T15:24:44.251Z</time>
      </trkpt>
      <trkpt lat="44.09849" lon="6.65931">
        <ele>1988</ele>
        <time>2020-03-21T15:24:45.251Z</time>
      </trkpt>
      <trkpt lat="44.09852" lon="6.65936">
        <ele>1989</ele>
        <time>2020-03-21T15:24:46.251Z</time>
      </trkpt>
      <trkpt lat="44.09852" lon="6.65937">
        <ele>1988</ele>
        <time>2020-03-21T15:24:47.251Z</time>
      </trkpt>
      <trkpt lat="44.09847" lon="6.65943">
        <ele>1987</ele>
        <time>2020-03-21T15:24:48.251Z</time>
      </trkpt>
      <trkpt lat="44.09842" lon="6.65945">
        <ele>1985</ele>
        <time>2020-03-21T15:24:49.251Z</time>
      </trkpt>
      <trkpt lat="44.09837" lon="6.65945">
        <ele>1983</ele>
        <time>2020-03-21T15:24:50.251Z</time>
      </trkpt>
      <trkpt lat="44.09835" lon="6.65943">
        <ele>1983</ele>
        <time>2020-03-21T15:24:51.251Z</time>
      </trkpt>
      <trkpt lat="44.09831" lon="6.6594">
        <ele>1981</ele>
        <time>2020-03-21T15:24:52.251Z</time>
      </trkpt>
      <trkpt lat="44.09826" lon="6.65938">
        <ele>1980</ele>
        <time>2020-03-21T15:24:53.251Z</time>
      </trkpt>
      <trkpt lat="44.09822" lon="6.65936">
        <ele>1980</ele>
        <time>2020-03-21T15:24:54.251Z</time>
      </trkpt>
      <trkpt lat="44.09812" lon="6.65929">
        <ele>1977</ele>
        <time>2020-03-21T15:24:55.251Z</time>
      </trkpt>
      <trkpt lat="44.09805" lon="6.65923">
        <ele>1976</ele>
        <time>2020-03-21T15:24:56.251Z</time>
      </trkpt>
      <trkpt lat="44.09799" lon="6.6592">
        <ele>1974</ele>
        <time>2020-03-21T15:24:57.251Z</time>
      </trkpt>
      <trkpt lat="44.09798" lon="6.6592">
        <ele>1974</ele>
        <time>2020-03-21T15:24:58.251Z</time>
      </trkpt>
      <trkpt lat="44.09794" lon="6.65927">
        <ele>1973</ele>
        <time>2020-03-21T15:24:59.251Z</time>
      </trkpt>
      <trkpt lat="44.09791" lon="6.65935">
        <ele>1973</ele>
        <time>2020-03-21T15:25:00.251Z</time>
      </trkpt>
      <trkpt lat="44.09788" lon="6.65942">
        <ele>1973</ele>
        <time>2020-03-21T15:25:01.251Z</time>
      </trkpt>
      <trkpt lat="44.09782" lon="6.65962">
        <ele>1974</ele>
        <time>2020-03-21T15:25:02.251Z</time>
      </trkpt>
      <trkpt lat="44.09771" lon="6.65986">
        <ele>1976</ele>
        <time>2020-03-21T15:25:03.251Z</time>
      </trkpt>
      <trkpt lat="44.09758" lon="6.66001">
        <ele>1977</ele>
        <time>2020-03-21T15:25:04.251Z</time>
      </trkpt>
      <trkpt lat="44.0975" lon="6.66018">
        <ele>1978</ele>
        <time>2020-03-21T15:25:05.251Z</time>
      </trkpt>
      <trkpt lat="44.09747" lon="6.66025">
        <ele>1980</ele>
        <time>2020-03-21T15:25:06.251Z</time>
      </trkpt>
      <trkpt lat="44.0974" lon="6.66041">
        <ele>1984</ele>
        <time>2020-03-21T15:25:07.251Z</time>
      </trkpt>
      <trkpt lat="44.09739" lon="6.66044">
        <ele>1984</ele>
        <time>2020-03-21T15:25:08.251Z</time>
      </trkpt>
      <trkpt lat="44.09738" lon="6.66045">
        <ele>1985</ele>
        <time>2020-03-21T15:25:09.251Z</time>
      </trkpt>
      <trkpt lat="44.09735" lon="6.66044">
        <ele>1985</ele>
        <time>2020-03-21T15:25:10.251Z</time>
      </trkpt>
      <trkpt lat="44.09729" lon="6.66037">
        <ele>1986</ele>
        <time>2020-03-21T15:25:11.251Z</time>
      </trkpt>
      <trkpt lat="44.09723" lon="6.66031">
        <ele>1987</ele>
        <time>2020-03-21T15:25:12.251Z</time>
      </trkpt>
      <trkpt lat="44.09715" lon="6.66024">
        <ele>1988</ele>
        <time>2020-03-21T15:25:13.251Z</time>
      </trkpt>
      <trkpt lat="44.09707" lon="6.66017">
        <ele>1989</ele>
        <time>2020-03-21T15:25:14.251Z</time>
      </trkpt>
      <trkpt lat="44.09702" lon="6.66009">
        <ele>1989</ele>
        <time>2020-03-21T15:25:15.251Z</time>
      </trkpt>
      <trkpt lat="44.09697" lon="6.66003">
        <ele>1989</ele>
        <time>2020-03-21T15:25:16.251Z</time>
      </trkpt>
      <trkpt lat="44.09696" lon="6.66002">
        <ele>1989</ele>
        <time>2020-03-21T15:25:17.251Z</time>
      </trkpt>
      <trkpt lat="44.09696" lon="6.66">
        <ele>1988</ele>
        <time>2020-03-21T15:25:18.251Z</time>
      </trkpt>
      <trkpt lat="44.09691" lon="6.65994">
        <ele>1988</ele>
        <time>2020-03-21T15:25:19.251Z</time>
      </trkpt>
      <trkpt lat="44.09691" lon="6.65993">
        <ele>1988</ele>
        <time>2020-03-21T15:25:20.251Z</time>
      </trkpt>
      <trkpt lat="44.09689" lon="6.6599">
        <ele>1988</ele>
        <time>2020-03-21T15:25:21.251Z</time>
      </trkpt>
      <trkpt lat="44.09687" lon="6.65986">
        <ele>1988</ele>
        <time>2020-03-21T15:25:22.251Z</time>
      </trkpt>
      <trkpt lat="44.09684" lon="6.6598">
        <ele>1987</ele>
        <time>2020-03-21T15:25:23.251Z</time>
      </trkpt>
      <trkpt lat="44.09679" lon="6.6597">
        <ele>1986</ele>
        <time>2020-03-21T15:25:24.251Z</time>
      </trkpt>
      <trkpt lat="44.09675" lon="6.65964">
        <ele>1986</ele>
        <time>2020-03-21T15:25:25.251Z</time>
      </trkpt>
      <trkpt lat="44.09672" lon="6.65959">
        <ele>1985</ele>
        <time>2020-03-21T15:25:26.251Z</time>
      </trkpt>
      <trkpt lat="44.09668" lon="6.65951">
        <ele>1984</ele>
        <time>2020-03-21T15:25:27.251Z</time>
      </trkpt>
      <trkpt lat="44.09665" lon="6.65944">
        <ele>1984</ele>
        <time>2020-03-21T15:25:28.251Z</time>
      </trkpt>
      <trkpt lat="44.09661" lon="6.65936">
        <ele>1985</ele>
        <time>2020-03-21T15:25:29.251Z</time>
      </trkpt>
      <trkpt lat="44.09656" lon="6.65929">
        <ele>1987</ele>
        <time>2020-03-21T15:25:30.251Z</time>
      </trkpt>
      <trkpt lat="44.09651" lon="6.65922">
        <ele>1990</ele>
        <time>2020-03-21T15:25:31.251Z</time>
      </trkpt>
      <trkpt lat="44.09649" lon="6.65918">
        <ele>1990</ele>
        <time>2020-03-21T15:25:32.251Z</time>
      </trkpt>
      <trkpt lat="44.09645" lon="6.6591">
        <ele>1992</ele>
        <time>2020-03-21T15:25:33.251Z</time>
      </trkpt>
      <trkpt lat="44.09642" lon="6.65899">
        <ele>1993</ele>
        <time>2020-03-21T15:25:34.251Z</time>
      </trkpt>
      <trkpt lat="44.09642" lon="6.65898">
        <ele>1993</ele>
        <time>2020-03-21T15:25:35.251Z</time>
      </trkpt>
      <trkpt lat="44.09641" lon="6.65892">
        <ele>1994</ele>
        <time>2020-03-21T15:25:36.251Z</time>
      </trkpt>
      <trkpt lat="44.09637" lon="6.6588">
        <ele>1996</ele>
        <time>2020-03-21T15:25:37.251Z</time>
      </trkpt>
      <trkpt lat="44.09633" lon="6.65865">
        <ele>1997</ele>
        <time>2020-03-21T15:25:38.251Z</time>
      </trkpt>
      <trkpt lat="44.09632" lon="6.65862">
        <ele>1998</ele>
        <time>2020-03-21T15:25:39.251Z</time>
      </trkpt>
      <trkpt lat="44.09628" lon="6.65863">
        <ele>2001</ele>
        <time>2020-03-21T15:25:40.251Z</time>
      </trkpt>
      <trkpt lat="44.09627" lon="6.65861">
        <ele>2001</ele>
        <time>2020-03-21T15:25:41.251Z</time>
      </trkpt>
      <trkpt lat="44.09624" lon="6.65858">
        <ele>2003</ele>
        <time>2020-03-21T15:25:42.251Z</time>
      </trkpt>
      <trkpt lat="44.09624" lon="6.65856">
        <ele>2003</ele>
        <time>2020-03-21T15:25:43.251Z</time>
      </trkpt>
      <trkpt lat="44.09619" lon="6.65852">
        <ele>2007</ele>
        <time>2020-03-21T15:25:44.251Z</time>
      </trkpt>
      <trkpt lat="44.09617" lon="6.65848">
        <ele>2008</ele>
        <time>2020-03-21T15:25:45.251Z</time>
      </trkpt>
      <trkpt lat="44.09616" lon="6.65847">
        <ele>2008</ele>
        <time>2020-03-21T15:25:46.251Z</time>
      </trkpt>
      <trkpt lat="44.09613" lon="6.6584">
        <ele>2010</ele>
        <time>2020-03-21T15:25:47.251Z</time>
      </trkpt>
      <trkpt lat="44.0961" lon="6.65834">
        <ele>2012</ele>
        <time>2020-03-21T15:25:48.251Z</time>
      </trkpt>
      <trkpt lat="44.09606" lon="6.65824">
        <ele>2015</ele>
        <time>2020-03-21T15:25:49.251Z</time>
      </trkpt>
      <trkpt lat="44.09603" lon="6.65821">
        <ele>2017</ele>
        <time>2020-03-21T15:25:50.251Z</time>
      </trkpt>
      <trkpt lat="44.09599" lon="6.65825">
        <ele>2020</ele>
        <time>2020-03-21T15:25:51.251Z</time>
      </trkpt>
      <trkpt lat="44.09597" lon="6.65825">
        <ele>2021</ele>
        <time>2020-03-21T15:25:52.251Z</time>
      </trkpt>
      <trkpt lat="44.09597" lon="6.65823">
        <ele>2022</ele>
        <time>2020-03-21T15:25:53.251Z</time>
      </trkpt>
      <trkpt lat="44.09594" lon="6.65816">
        <ele>2024</ele>
        <time>2020-03-21T15:25:54.251Z</time>
      </trkpt>
      <trkpt lat="44.09592" lon="6.65813">
        <ele>2025</ele>
        <time>2020-03-21T15:25:55.251Z</time>
      </trkpt>
      <trkpt lat="44.09589" lon="6.65805">
        <ele>2027</ele>
        <time>2020-03-21T15:25:56.251Z</time>
      </trkpt>
      <trkpt lat="44.09586" lon="6.65799">
        <ele>2029</ele>
        <time>2020-03-21T15:25:57.251Z</time>
      </trkpt>
      <trkpt lat="44.09579" lon="6.65796">
        <ele>2031</ele>
        <time>2020-03-21T15:25:58.251Z</time>
      </trkpt>
      <trkpt lat="44.09574" lon="6.65792">
        <ele>2030</ele>
        <time>2020-03-21T15:25:59.251Z</time>
      </trkpt>
      <trkpt lat="44.09573" lon="6.65788">
        <ele>2030</ele>
        <time>2020-03-21T15:26:00.251Z</time>
      </trkpt>
      <trkpt lat="44.09574" lon="6.65789">
        <ele>2030</ele>
        <time>2020-03-21T15:26:01.251Z</time>
      </trkpt>
      <trkpt lat="44.09578" lon="6.65781">
        <ele>2030</ele>
        <time>2020-03-21T15:26:02.251Z</time>
      </trkpt>
      <trkpt lat="44.09578" lon="6.65778">
        <ele>2030</ele>
        <time>2020-03-21T15:26:03.251Z</time>
      </trkpt>
      <trkpt lat="44.09571" lon="6.65767">
        <ele>2029</ele>
        <time>2020-03-21T15:26:04.251Z</time>
      </trkpt>
      <trkpt lat="44.09574" lon="6.65754">
        <ele>2029</ele>
        <time>2020-03-21T15:26:05.251Z</time>
      </trkpt>
      <trkpt lat="44.09575" lon="6.65746">
        <ele>2029</ele>
        <time>2020-03-21T15:26:06.251Z</time>
      </trkpt>
      <trkpt lat="44.09575" lon="6.65742">
        <ele>2029</ele>
        <time>2020-03-21T15:26:07.251Z</time>
      </trkpt>
      <trkpt lat="44.09572" lon="6.65731">
        <ele>2030</ele>
        <time>2020-03-21T15:26:08.251Z</time>
      </trkpt>
      <trkpt lat="44.0957" lon="6.65724">
        <ele>2030</ele>
        <time>2020-03-21T15:26:09.251Z</time>
      </trkpt>
      <trkpt lat="44.09565" lon="6.65713">
        <ele>2031</ele>
        <time>2020-03-21T15:26:10.251Z</time>
      </trkpt>
      <trkpt lat="44.09565" lon="6.65713">
        <ele>2031</ele>
        <time>2020-03-21T15:26:11.251Z</time>
      </trkpt>
      <trkpt lat="44.09561" lon="6.6571">
        <ele>2031</ele>
        <time>2020-03-21T15:26:12.251Z</time>
      </trkpt>
      <trkpt lat="44.09557" lon="6.65701">
        <ele>2032</ele>
        <time>2020-03-21T15:26:13.251Z</time>
      </trkpt>
      <trkpt lat="44.09548" lon="6.65677">
        <ele>2033</ele>
        <time>2020-03-21T15:26:14.251Z</time>
      </trkpt>
      <trkpt lat="44.09528" lon="6.65644">
        <ele>2037</ele>
        <time>2020-03-21T15:26:15.251Z</time>
      </trkpt>
      <trkpt lat="44.09515" lon="6.65628">
        <ele>2039</ele>
        <time>2020-03-21T15:26:16.251Z</time>
      </trkpt>
      <trkpt lat="44.09505" lon="6.6562">
        <ele>2041</ele>
        <time>2020-03-21T15:26:17.251Z</time>
      </trkpt>
      <trkpt lat="44.09491" lon="6.65615">
        <ele>2042</ele>
        <time>2020-03-21T15:26:18.251Z</time>
      </trkpt>
      <trkpt lat="44.09475" lon="6.65607">
        <ele>2043</ele>
        <time>2020-03-21T15:26:19.251Z</time>
      </trkpt>
      <trkpt lat="44.09461" lon="6.656">
        <ele>2043</ele>
        <time>2020-03-21T15:26:20.251Z</time>
      </trkpt>
      <trkpt lat="44.09448" lon="6.65595">
        <ele>2044</ele>
        <time>2020-03-21T15:26:21.251Z</time>
      </trkpt>
      <trkpt lat="44.09429" lon="6.65592">
        <ele>2044</ele>
        <time>2020-03-21T15:26:22.251Z</time>
      </trkpt>
      <trkpt lat="44.09425" lon="6.65591">
        <ele>2044</ele>
        <time>2020-03-21T15:26:23.251Z</time>
      </trkpt>
      <trkpt lat="44.09411" lon="6.65586">
        <ele>2045</ele>
        <time>2020-03-21T15:26:24.251Z</time>
      </trkpt>
      <trkpt lat="44.09408" lon="6.65582">
        <ele>2046</ele>
        <time>2020-03-21T15:26:25.251Z</time>
      </trkpt>
      <trkpt lat="44.09398" lon="6.65581">
        <ele>2046</ele>
        <time>2020-03-21T15:26:26.251Z</time>
      </trkpt>
      <trkpt lat="44.09395" lon="6.6558">
        <ele>2047</ele>
        <time>2020-03-21T15:26:27.251Z</time>
      </trkpt>
      <trkpt lat="44.09382" lon="6.65571">
        <ele>2048</ele>
        <time>2020-03-21T15:26:28.251Z</time>
      </trkpt>
      <trkpt lat="44.0937" lon="6.65569">
        <ele>2048</ele>
        <time>2020-03-21T15:26:29.251Z</time>
      </trkpt>
      <trkpt lat="44.09362" lon="6.65559">
        <ele>2050</ele>
        <time>2020-03-21T15:26:30.251Z</time>
      </trkpt>
      <trkpt lat="44.0936" lon="6.65556">
        <ele>2051</ele>
        <time>2020-03-21T15:26:31.251Z</time>
      </trkpt>
      <trkpt lat="44.09346" lon="6.65552">
        <ele>2051</ele>
        <time>2020-03-21T15:26:32.251Z</time>
      </trkpt>
      <trkpt lat="44.0934" lon="6.65551">
        <ele>2051</ele>
        <time>2020-03-21T15:26:33.251Z</time>
      </trkpt>
      <trkpt lat="44.09332" lon="6.65545">
        <ele>2052</ele>
        <time>2020-03-21T15:26:34.251Z</time>
      </trkpt>
      <trkpt lat="44.09315" lon="6.65536">
        <ele>2053</ele>
        <time>2020-03-21T15:26:35.251Z</time>
      </trkpt>
      <trkpt lat="44.0931" lon="6.65531">
        <ele>2054</ele>
        <time>2020-03-21T15:26:36.251Z</time>
      </trkpt>
      <trkpt lat="44.09309" lon="6.6553">
        <ele>2054</ele>
        <time>2020-03-21T15:26:37.251Z</time>
      </trkpt>
      <trkpt lat="44.09296" lon="6.6552">
        <ele>2055</ele>
        <time>2020-03-21T15:26:38.251Z</time>
      </trkpt>
      <trkpt lat="44.09287" lon="6.65514">
        <ele>2056</ele>
        <time>2020-03-21T15:26:39.251Z</time>
      </trkpt>
      <trkpt lat="44.09276" lon="6.65507">
        <ele>2057</ele>
        <time>2020-03-21T15:26:40.251Z</time>
      </trkpt>
      <trkpt lat="44.09258" lon="6.65502">
        <ele>2057</ele>
        <time>2020-03-21T15:26:41.251Z</time>
      </trkpt>
      <trkpt lat="44.09241" lon="6.65497">
        <ele>2056</ele>
        <time>2020-03-21T15:26:42.251Z</time>
      </trkpt>
      <trkpt lat="44.09227" lon="6.65489">
        <ele>2056</ele>
        <time>2020-03-21T15:26:43.251Z</time>
      </trkpt>
      <trkpt lat="44.09213" lon="6.6548">
        <ele>2055</ele>
        <time>2020-03-21T15:26:44.251Z</time>
      </trkpt>
      <trkpt lat="44.09193" lon="6.65465">
        <ele>2055</ele>
        <time>2020-03-21T15:26:45.251Z</time>
      </trkpt>
      <trkpt lat="44.09172" lon="6.65453">
        <ele>2054</ele>
        <time>2020-03-21T15:26:46.251Z</time>
      </trkpt>
      <trkpt lat="44.09159" lon="6.65442">
        <ele>2054</ele>
        <time>2020-03-21T15:26:47.251Z</time>
      </trkpt>
      <trkpt lat="44.0914" lon="6.65426">
        <ele>2053</ele>
        <time>2020-03-21T15:26:48.251Z</time>
      </trkpt>
      <trkpt lat="44.09129" lon="6.65412">
        <ele>2053</ele>
        <time>2020-03-21T15:26:49.251Z</time>
      </trkpt>
      <trkpt lat="44.09126" lon="6.65399">
        <ele>2053</ele>
        <time>2020-03-21T15:26:50.251Z</time>
      </trkpt>
      <trkpt lat="44.09132" lon="6.65376">
        <ele>2054</ele>
        <time>2020-03-21T15:26:51.251Z</time>
      </trkpt>
      <trkpt lat="44.09132" lon="6.65358">
        <ele>2055</ele>
        <time>2020-03-21T15:26:52.251Z</time>
      </trkpt>
      <trkpt lat="44.09131" lon="6.65338">
        <ele>2055</ele>
        <time>2020-03-21T15:26:53.251Z</time>
      </trkpt>
      <trkpt lat="44.09129" lon="6.65322">
        <ele>2054</ele>
        <time>2020-03-21T15:26:54.251Z</time>
      </trkpt>
      <trkpt lat="44.09124" lon="6.65303">
        <ele>2053</ele>
        <time>2020-03-21T15:26:55.251Z</time>
      </trkpt>
      <trkpt lat="44.09118" lon="6.65283">
        <ele>2051</ele>
        <time>2020-03-21T15:26:56.251Z</time>
      </trkpt>
      <trkpt lat="44.09117" lon="6.65273">
        <ele>2051</ele>
        <time>2020-03-21T15:26:57.251Z</time>
      </trkpt>
      <trkpt lat="44.09118" lon="6.65252">
        <ele>2050</ele>
        <time>2020-03-21T15:26:58.251Z</time>
      </trkpt>
      <trkpt lat="44.09127" lon="6.65232">
        <ele>2051</ele>
        <time>2020-03-21T15:26:59.251Z</time>
      </trkpt>
      <trkpt lat="44.09131" lon="6.65228">
        <ele>2052</ele>
        <time>2020-03-21T15:27:00.251Z</time>
      </trkpt>
      <trkpt lat="44.09136" lon="6.6522">
        <ele>2052</ele>
        <time>2020-03-21T15:27:01.251Z</time>
      </trkpt>
      <trkpt lat="44.09138" lon="6.65218">
        <ele>2053</ele>
        <time>2020-03-21T15:27:02.251Z</time>
      </trkpt>
      <trkpt lat="44.09146" lon="6.65209">
        <ele>2054</ele>
        <time>2020-03-21T15:27:03.251Z</time>
      </trkpt>
      <trkpt lat="44.09146" lon="6.65205">
        <ele>2054</ele>
        <time>2020-03-21T15:27:04.251Z</time>
      </trkpt>
      <trkpt lat="44.09144" lon="6.65197">
        <ele>2053</ele>
        <time>2020-03-21T15:27:05.251Z</time>
      </trkpt>
      <trkpt lat="44.09146" lon="6.65181">
        <ele>2053</ele>
        <time>2020-03-21T15:27:06.251Z</time>
      </trkpt>
      <trkpt lat="44.09147" lon="6.65177">
        <ele>2053</ele>
        <time>2020-03-21T15:27:07.251Z</time>
      </trkpt>
      <trkpt lat="44.09147" lon="6.65169">
        <ele>2053</ele>
        <time>2020-03-21T15:27:08.251Z</time>
      </trkpt>
      <trkpt lat="44.09157" lon="6.65146">
        <ele>2056</ele>
        <time>2020-03-21T15:27:09.251Z</time>
      </trkpt>
      <trkpt lat="44.0916" lon="6.65127">
        <ele>2057</ele>
        <time>2020-03-21T15:27:10.251Z</time>
      </trkpt>
      <trkpt lat="44.09169" lon="6.65105">
        <ele>2060</ele>
        <time>2020-03-21T15:27:11.251Z</time>
      </trkpt>
      <trkpt lat="44.09173" lon="6.65094">
        <ele>2061</ele>
        <time>2020-03-21T15:27:12.251Z</time>
      </trkpt>
      <trkpt lat="44.09181" lon="6.65082">
        <ele>2063</ele>
        <time>2020-03-21T15:27:13.251Z</time>
      </trkpt>
      <trkpt lat="44.09182" lon="6.65079">
        <ele>2063</ele>
        <time>2020-03-21T15:27:14.251Z</time>
      </trkpt>
      <trkpt lat="44.09178" lon="6.6507">
        <ele>2063</ele>
        <time>2020-03-21T15:27:15.251Z</time>
      </trkpt>
      <trkpt lat="44.09176" lon="6.65066">
        <ele>2064</ele>
        <time>2020-03-21T15:27:16.251Z</time>
      </trkpt>
      <trkpt lat="44.09171" lon="6.65052">
        <ele>2065</ele>
        <time>2020-03-21T15:27:17.251Z</time>
      </trkpt>
      <trkpt lat="44.09165" lon="6.65039">
        <ele>2066</ele>
        <time>2020-03-21T15:27:18.251Z</time>
      </trkpt>
      <trkpt lat="44.09157" lon="6.65028">
        <ele>2066</ele>
        <time>2020-03-21T15:27:19.251Z</time>
      </trkpt>
      <trkpt lat="44.09151" lon="6.65013">
        <ele>2067</ele>
        <time>2020-03-21T15:27:20.251Z</time>
      </trkpt>
      <trkpt lat="44.09145" lon="6.65">
        <ele>2068</ele>
        <time>2020-03-21T15:27:21.251Z</time>
      </trkpt>
      <trkpt lat="44.09139" lon="6.64984">
        <ele>2069</ele>
        <time>2020-03-21T15:27:22.251Z</time>
      </trkpt>
      <trkpt lat="44.09133" lon="6.64968">
        <ele>2070</ele>
        <time>2020-03-21T15:27:23.251Z</time>
      </trkpt>
      <trkpt lat="44.0913" lon="6.64954">
        <ele>2072</ele>
        <time>2020-03-21T15:27:24.251Z</time>
      </trkpt>
      <trkpt lat="44.09119" lon="6.64939">
        <ele>2072</ele>
        <time>2020-03-21T15:27:25.251Z</time>
      </trkpt>
      <trkpt lat="44.09115" lon="6.64932">
        <ele>2073</ele>
        <time>2020-03-21T15:27:26.251Z</time>
      </trkpt>
      <trkpt lat="44.09109" lon="6.64921">
        <ele>2074</ele>
        <time>2020-03-21T15:27:27.251Z</time>
      </trkpt>
      <trkpt lat="44.09102" lon="6.64911">
        <ele>2074</ele>
        <time>2020-03-21T15:27:28.251Z</time>
      </trkpt>
      <trkpt lat="44.09091" lon="6.64901">
        <ele>2075</ele>
        <time>2020-03-21T15:27:29.251Z</time>
      </trkpt>
      <trkpt lat="44.09084" lon="6.64895">
        <ele>2075</ele>
        <time>2020-03-21T15:27:30.251Z</time>
      </trkpt>
      <trkpt lat="44.09074" lon="6.64884">
        <ele>2075</ele>
        <time>2020-03-21T15:27:31.251Z</time>
      </trkpt>
      <trkpt lat="44.09072" lon="6.64882">
        <ele>2075</ele>
        <time>2020-03-21T15:27:32.251Z</time>
      </trkpt>
      <trkpt lat="44.09057" lon="6.64869">
        <ele>2076</ele>
        <time>2020-03-21T15:27:33.251Z</time>
      </trkpt>
      <trkpt lat="44.09045" lon="6.64859">
        <ele>2076</ele>
        <time>2020-03-21T15:27:34.251Z</time>
      </trkpt>
      <trkpt lat="44.09032" lon="6.64847">
        <ele>2076</ele>
        <time>2020-03-21T15:27:35.251Z</time>
      </trkpt>
      <trkpt lat="44.09022" lon="6.64837">
        <ele>2077</ele>
        <time>2020-03-21T15:27:36.251Z</time>
      </trkpt>
      <trkpt lat="44.09011" lon="6.64822">
        <ele>2077</ele>
        <time>2020-03-21T15:27:37.251Z</time>
      </trkpt>
      <trkpt lat="44.09001" lon="6.64811">
        <ele>2077</ele>
        <time>2020-03-21T15:27:38.251Z</time>
      </trkpt>
      <trkpt lat="44.08991" lon="6.64795">
        <ele>2076</ele>
        <time>2020-03-21T15:27:39.251Z</time>
      </trkpt>
      <trkpt lat="44.08982" lon="6.64779">
        <ele>2076</ele>
        <time>2020-03-21T15:27:40.251Z</time>
      </trkpt>
      <trkpt lat="44.08972" lon="6.64762">
        <ele>2076</ele>
        <time>2020-03-21T15:27:41.251Z</time>
      </trkpt>
      <trkpt lat="44.08964" lon="6.6474">
        <ele>2076</ele>
        <time>2020-03-21T15:27:42.251Z</time>
      </trkpt>
      <trkpt lat="44.0896" lon="6.64732">
        <ele>2076</ele>
        <time>2020-03-21T15:27:43.251Z</time>
      </trkpt>
      <trkpt lat="44.08948" lon="6.64712">
        <ele>2074</ele>
        <time>2020-03-21T15:27:44.251Z</time>
      </trkpt>
      <trkpt lat="44.08936" lon="6.64687">
        <ele>2073</ele>
        <time>2020-03-21T15:27:45.251Z</time>
      </trkpt>
      <trkpt lat="44.08921" lon="6.64654">
        <ele>2072</ele>
        <time>2020-03-21T15:27:46.251Z</time>
      </trkpt>
      <trkpt lat="44.08907" lon="6.64624">
        <ele>2069</ele>
        <time>2020-03-21T15:27:47.251Z</time>
      </trkpt>
      <trkpt lat="44.08893" lon="6.64598">
        <ele>2068</ele>
        <time>2020-03-21T15:27:48.251Z</time>
      </trkpt>
      <trkpt lat="44.08881" lon="6.64578">
        <ele>2066</ele>
        <time>2020-03-21T15:27:49.251Z</time>
      </trkpt>
      <trkpt lat="44.08857" lon="6.64546">
        <ele>2064</ele>
        <time>2020-03-21T15:27:50.251Z</time>
      </trkpt>
      <trkpt lat="44.08848" lon="6.64532">
        <ele>2064</ele>
        <time>2020-03-21T15:27:51.251Z</time>
      </trkpt>
      <trkpt lat="44.08841" lon="6.64522">
        <ele>2063</ele>
        <time>2020-03-21T15:27:52.251Z</time>
      </trkpt>
      <trkpt lat="44.08834" lon="6.64513">
        <ele>2062</ele>
        <time>2020-03-21T15:27:53.251Z</time>
      </trkpt>
      <trkpt lat="44.08819" lon="6.64493">
        <ele>2061</ele>
        <time>2020-03-21T15:27:54.251Z</time>
      </trkpt>
      <trkpt lat="44.08811" lon="6.64476">
        <ele>2061</ele>
        <time>2020-03-21T15:27:55.251Z</time>
      </trkpt>
      <trkpt lat="44.08797" lon="6.64455">
        <ele>2060</ele>
        <time>2020-03-21T15:27:56.251Z</time>
      </trkpt>
      <trkpt lat="44.0879" lon="6.64442">
        <ele>2059</ele>
        <time>2020-03-21T15:27:57.251Z</time>
      </trkpt>
      <trkpt lat="44.0877" lon="6.64412">
        <ele>2058</ele>
        <time>2020-03-21T15:27:58.251Z</time>
      </trkpt>
      <trkpt lat="44.08749" lon="6.64383">
        <ele>2057</ele>
        <time>2020-03-21T15:27:59.251Z</time>
      </trkpt>
      <trkpt lat="44.08738" lon="6.64366">
        <ele>2056</ele>
        <time>2020-03-21T15:28:00.251Z</time>
      </trkpt>
      <trkpt lat="44.08733" lon="6.64361">
        <ele>2055</ele>
        <time>2020-03-21T15:28:01.251Z</time>
      </trkpt>
      <trkpt lat="44.08731" lon="6.64359">
        <ele>2055</ele>
        <time>2020-03-21T15:28:02.251Z</time>
      </trkpt>
      <trkpt lat="44.08729" lon="6.64355">
        <ele>2055</ele>
        <time>2020-03-21T15:28:03.251Z</time>
      </trkpt>
      <trkpt lat="44.08724" lon="6.64353">
        <ele>2055</ele>
        <time>2020-03-21T15:28:04.251Z</time>
      </trkpt>
      <trkpt lat="44.08722" lon="6.64343">
        <ele>2055</ele>
        <time>2020-03-21T15:28:05.251Z</time>
      </trkpt>
      <trkpt lat="44.08733" lon="6.64333">
        <ele>2056</ele>
        <time>2020-03-21T15:28:06.251Z</time>
      </trkpt>
      <trkpt lat="44.08738" lon="6.64328">
        <ele>2056</ele>
        <time>2020-03-21T15:28:07.251Z</time>
      </trkpt>
      <trkpt lat="44.08756" lon="6.64316">
        <ele>2057</ele>
        <time>2020-03-21T15:28:08.251Z</time>
      </trkpt>
      <trkpt lat="44.08767" lon="6.64303">
        <ele>2056</ele>
        <time>2020-03-21T15:28:09.251Z</time>
      </trkpt>
      <trkpt lat="44.08777" lon="6.6428">
        <ele>2055</ele>
        <time>2020-03-21T15:28:10.251Z</time>
      </trkpt>
      <trkpt lat="44.08791" lon="6.64253">
        <ele>2052</ele>
        <time>2020-03-21T15:28:11.251Z</time>
      </trkpt>
      <trkpt lat="44.08802" lon="6.64232">
        <ele>2049</ele>
        <time>2020-03-21T15:28:12.251Z</time>
      </trkpt>
      <trkpt lat="44.08808" lon="6.64224">
        <ele>2048</ele>
        <time>2020-03-21T15:28:13.251Z</time>
      </trkpt>
      <trkpt lat="44.08818" lon="6.64212">
        <ele>2046</ele>
        <time>2020-03-21T15:28:14.251Z</time>
      </trkpt>
      <trkpt lat="44.08823" lon="6.64202">
        <ele>2044</ele>
        <time>2020-03-21T15:28:15.251Z</time>
      </trkpt>
      <trkpt lat="44.08824" lon="6.64191">
        <ele>2043</ele>
        <time>2020-03-21T15:28:16.251Z</time>
      </trkpt>
      <trkpt lat="44.08826" lon="6.64179">
        <ele>2042</ele>
        <time>2020-03-21T15:28:17.251Z</time>
      </trkpt>
      <trkpt lat="44.08833" lon="6.6412">
        <ele>2038</ele>
        <time>2020-03-21T15:28:18.251Z</time>
      </trkpt>
      <trkpt lat="44.08841" lon="6.64072">
        <ele>2033</ele>
        <time>2020-03-21T15:28:19.251Z</time>
      </trkpt>
      <trkpt lat="44.08844" lon="6.64056">
        <ele>2031</ele>
        <time>2020-03-21T15:28:20.251Z</time>
      </trkpt>
      <trkpt lat="44.08843" lon="6.64023">
        <ele>2029</ele>
        <time>2020-03-21T15:28:21.251Z</time>
      </trkpt>
      <trkpt lat="44.08844" lon="6.64006">
        <ele>2028</ele>
        <time>2020-03-21T15:28:22.251Z</time>
      </trkpt>
      <trkpt lat="44.08848" lon="6.63968">
        <ele>2025</ele>
        <time>2020-03-21T15:28:23.251Z</time>
      </trkpt>
      <trkpt lat="44.08848" lon="6.63941">
        <ele>2023</ele>
        <time>2020-03-21T15:28:24.251Z</time>
      </trkpt>
      <trkpt lat="44.0884" lon="6.63908">
        <ele>2025</ele>
        <time>2020-03-21T15:28:25.251Z</time>
      </trkpt>
      <trkpt lat="44.08841" lon="6.63875">
        <ele>2027</ele>
        <time>2020-03-21T15:28:26.251Z</time>
      </trkpt>
      <trkpt lat="44.08849" lon="6.63842">
        <ele>2025</ele>
        <time>2020-03-21T15:28:27.251Z</time>
      </trkpt>
      <trkpt lat="44.0886" lon="6.63807">
        <ele>2023</ele>
        <time>2020-03-21T15:28:28.251Z</time>
      </trkpt>
      <trkpt lat="44.08871" lon="6.63769">
        <ele>2021</ele>
        <time>2020-03-21T15:28:29.251Z</time>
      </trkpt>
      <trkpt lat="44.08873" lon="6.63763">
        <ele>2021</ele>
        <time>2020-03-21T15:28:30.251Z</time>
      </trkpt>
      <trkpt lat="44.08878" lon="6.63736">
        <ele>2020</ele>
        <time>2020-03-21T15:28:31.251Z</time>
      </trkpt>
      <trkpt lat="44.08878" lon="6.63723">
        <ele>2020</ele>
        <time>2020-03-21T15:28:32.251Z</time>
      </trkpt>
      <trkpt lat="44.0888" lon="6.63695">
        <ele>2019</ele>
        <time>2020-03-21T15:28:33.251Z</time>
      </trkpt>
      <trkpt lat="44.08883" lon="6.63655">
        <ele>2016</ele>
        <time>2020-03-21T15:28:34.251Z</time>
      </trkpt>
      <trkpt lat="44.0888" lon="6.6362">
        <ele>2013</ele>
        <time>2020-03-21T15:28:35.251Z</time>
      </trkpt>
      <trkpt lat="44.08876" lon="6.63607">
        <ele>2012</ele>
        <time>2020-03-21T15:28:36.251Z</time>
      </trkpt>
      <trkpt lat="44.08866" lon="6.63579">
        <ele>2013</ele>
        <time>2020-03-21T15:28:37.251Z</time>
      </trkpt>
      <trkpt lat="44.08856" lon="6.63543">
        <ele>2015</ele>
        <time>2020-03-21T15:28:38.251Z</time>
      </trkpt>
      <trkpt lat="44.08854" lon="6.63509">
        <ele>2015</ele>
        <time>2020-03-21T15:28:39.251Z</time>
      </trkpt>
      <trkpt lat="44.08853" lon="6.63472">
        <ele>2017</ele>
        <time>2020-03-21T15:28:40.251Z</time>
      </trkpt>
      <trkpt lat="44.08853" lon="6.63463">
        <ele>2018</ele>
        <time>2020-03-21T15:28:41.251Z</time>
      </trkpt>
      <trkpt lat="44.08859" lon="6.63419">
        <ele>2020</ele>
        <time>2020-03-21T15:28:42.251Z</time>
      </trkpt>
      <trkpt lat="44.08865" lon="6.63393">
        <ele>2023</ele>
        <time>2020-03-21T15:28:43.251Z</time>
      </trkpt>
      <trkpt lat="44.0887" lon="6.63371">
        <ele>2026</ele>
        <time>2020-03-21T15:28:44.251Z</time>
      </trkpt>
      <trkpt lat="44.08877" lon="6.63352">
        <ele>2028</ele>
        <time>2020-03-21T15:28:45.251Z</time>
      </trkpt>
      <trkpt lat="44.08882" lon="6.6334">
        <ele>2028</ele>
        <time>2020-03-21T15:28:46.251Z</time>
      </trkpt>
      <trkpt lat="44.08889" lon="6.63329">
        <ele>2029</ele>
        <time>2020-03-21T15:28:47.251Z</time>
      </trkpt>
      <trkpt lat="44.08894" lon="6.63318">
        <ele>2031</ele>
        <time>2020-03-21T15:28:48.251Z</time>
      </trkpt>
      <trkpt lat="44.08909" lon="6.63291">
        <ele>2035</ele>
        <time>2020-03-21T15:28:49.251Z</time>
      </trkpt>
      <trkpt lat="44.08922" lon="6.63288">
        <ele>2033</ele>
        <time>2020-03-21T15:28:50.251Z</time>
      </trkpt>
      <trkpt lat="44.08942" lon="6.63289">
        <ele>2030</ele>
        <time>2020-03-21T15:28:51.251Z</time>
      </trkpt>
      <trkpt lat="44.08954" lon="6.63282">
        <ele>2030</ele>
        <time>2020-03-21T15:28:52.251Z</time>
      </trkpt>
      <trkpt lat="44.08964" lon="6.63272">
        <ele>2031</ele>
        <time>2020-03-21T15:28:53.251Z</time>
      </trkpt>
      <trkpt lat="44.08972" lon="6.63265">
        <ele>2031</ele>
        <time>2020-03-21T15:28:54.251Z</time>
      </trkpt>
      <trkpt lat="44.08984" lon="6.63249">
        <ele>2032</ele>
        <time>2020-03-21T15:28:55.251Z</time>
      </trkpt>
      <trkpt lat="44.09003" lon="6.63228">
        <ele>2031</ele>
        <time>2020-03-21T15:28:56.251Z</time>
      </trkpt>
      <trkpt lat="44.09017" lon="6.6321">
        <ele>2031</ele>
        <time>2020-03-21T15:28:57.251Z</time>
      </trkpt>
      <trkpt lat="44.09029" lon="6.63193">
        <ele>2030</ele>
        <time>2020-03-21T15:28:58.251Z</time>
      </trkpt>
      <trkpt lat="44.09037" lon="6.63182">
        <ele>2030</ele>
        <time>2020-03-21T15:28:59.251Z</time>
      </trkpt>
      <trkpt lat="44.0905" lon="6.63164">
        <ele>2028</ele>
        <time>2020-03-21T15:29:00.251Z</time>
      </trkpt>
      <trkpt lat="44.09056" lon="6.63156">
        <ele>2025</ele>
        <time>2020-03-21T15:29:01.251Z</time>
      </trkpt>
      <trkpt lat="44.09066" lon="6.63144">
        <ele>2021</ele>
        <time>2020-03-21T15:29:02.251Z</time>
      </trkpt>
      <trkpt lat="44.09074" lon="6.63133">
        <ele>2018</ele>
        <time>2020-03-21T15:29:03.251Z</time>
      </trkpt>
      <trkpt lat="44.09085" lon="6.63095">
        <ele>2009</ele>
        <time>2020-03-21T15:29:04.251Z</time>
      </trkpt>
      <trkpt lat="44.09079" lon="6.63072">
        <ele>2006</ele>
        <time>2020-03-21T15:29:05.251Z</time>
      </trkpt>
      <trkpt lat="44.09075" lon="6.63066">
        <ele>2006</ele>
        <time>2020-03-21T15:29:06.251Z</time>
      </trkpt>
      <trkpt lat="44.09044" lon="6.63027">
        <ele>2008</ele>
        <time>2020-03-21T15:29:07.251Z</time>
      </trkpt>
      <trkpt lat="44.09033" lon="6.63008">
        <ele>2010</ele>
        <time>2020-03-21T15:29:08.251Z</time>
      </trkpt>
      <trkpt lat="44.0903" lon="6.63001">
        <ele>2010</ele>
        <time>2020-03-21T15:29:09.251Z</time>
      </trkpt>
      <trkpt lat="44.09017" lon="6.62972">
        <ele>2013</ele>
        <time>2020-03-21T15:29:10.251Z</time>
      </trkpt>
      <trkpt lat="44.09012" lon="6.62936">
        <ele>2013</ele>
        <time>2020-03-21T15:29:11.251Z</time>
      </trkpt>
      <trkpt lat="44.09012" lon="6.62928">
        <ele>2013</ele>
        <time>2020-03-21T15:29:12.251Z</time>
      </trkpt>
      <trkpt lat="44.09012" lon="6.62897">
        <ele>2011</ele>
        <time>2020-03-21T15:29:13.251Z</time>
      </trkpt>
      <trkpt lat="44.09015" lon="6.62855">
        <ele>2007</ele>
        <time>2020-03-21T15:29:14.251Z</time>
      </trkpt>
      <trkpt lat="44.09018" lon="6.6282">
        <ele>2006</ele>
        <time>2020-03-21T15:29:15.251Z</time>
      </trkpt>
      <trkpt lat="44.09018" lon="6.62802">
        <ele>2007</ele>
        <time>2020-03-21T15:29:16.251Z</time>
      </trkpt>
      <trkpt lat="44.09018" lon="6.62797">
        <ele>2008</ele>
        <time>2020-03-21T15:29:17.251Z</time>
      </trkpt>
      <trkpt lat="44.09021" lon="6.62781">
        <ele>2007</ele>
        <time>2020-03-21T15:29:18.251Z</time>
      </trkpt>
      <trkpt lat="44.09024" lon="6.62755">
        <ele>2008</ele>
        <time>2020-03-21T15:29:19.251Z</time>
      </trkpt>
      <trkpt lat="44.09031" lon="6.62732">
        <ele>2010</ele>
        <time>2020-03-21T15:29:20.251Z</time>
      </trkpt>
      <trkpt lat="44.09033" lon="6.62728">
        <ele>2010</ele>
        <time>2020-03-21T15:29:21.251Z</time>
      </trkpt>
      <trkpt lat="44.09036" lon="6.6272">
        <ele>2010</ele>
        <time>2020-03-21T15:29:22.251Z</time>
      </trkpt>
      <trkpt lat="44.09048" lon="6.62699">
        <ele>2011</ele>
        <time>2020-03-21T15:29:23.251Z</time>
      </trkpt>
      <trkpt lat="44.09058" lon="6.62685">
        <ele>2010</ele>
        <time>2020-03-21T15:29:24.251Z</time>
      </trkpt>
      <trkpt lat="44.09069" lon="6.62667">
        <ele>2010</ele>
        <time>2020-03-21T15:29:25.251Z</time>
      </trkpt>
      <trkpt lat="44.09073" lon="6.62659">
        <ele>2011</ele>
        <time>2020-03-21T15:29:26.251Z</time>
      </trkpt>
      <trkpt lat="44.09081" lon="6.62646">
        <ele>2012</ele>
        <time>2020-03-21T15:29:27.251Z</time>
      </trkpt>
      <trkpt lat="44.09098" lon="6.6264">
        <ele>2009</ele>
        <time>2020-03-21T15:29:28.251Z</time>
      </trkpt>
      <trkpt lat="44.09121" lon="6.62622">
        <ele>2008</ele>
        <time>2020-03-21T15:29:29.251Z</time>
      </trkpt>
      <trkpt lat="44.09148" lon="6.62597">
        <ele>2007</ele>
        <time>2020-03-21T15:29:30.251Z</time>
      </trkpt>
      <trkpt lat="44.09163" lon="6.62585">
        <ele>2006</ele>
        <time>2020-03-21T15:29:31.251Z</time>
      </trkpt>
      <trkpt lat="44.0917" lon="6.62579">
        <ele>2006</ele>
        <time>2020-03-21T15:29:32.251Z</time>
      </trkpt>
      <trkpt lat="44.09182" lon="6.62572">
        <ele>2004</ele>
        <time>2020-03-21T15:29:33.251Z</time>
      </trkpt>
      <trkpt lat="44.09199" lon="6.62556">
        <ele>2003</ele>
        <time>2020-03-21T15:29:34.251Z</time>
      </trkpt>
      <trkpt lat="44.09206" lon="6.62551">
        <ele>2002</ele>
        <time>2020-03-21T15:29:35.251Z</time>
      </trkpt>
      <trkpt lat="44.09211" lon="6.62545">
        <ele>2002</ele>
        <time>2020-03-21T15:29:36.251Z</time>
      </trkpt>
      <trkpt lat="44.09238" lon="6.62531">
        <ele>1998</ele>
        <time>2020-03-21T15:29:37.251Z</time>
      </trkpt>
      <trkpt lat="44.09255" lon="6.62518">
        <ele>1996</ele>
        <time>2020-03-21T15:29:38.251Z</time>
      </trkpt>
      <trkpt lat="44.09266" lon="6.62501">
        <ele>1995</ele>
        <time>2020-03-21T15:29:39.251Z</time>
      </trkpt>
      <trkpt lat="44.09268" lon="6.62493">
        <ele>1994</ele>
        <time>2020-03-21T15:29:40.251Z</time>
      </trkpt>
      <trkpt lat="44.0927" lon="6.62482">
        <ele>1991</ele>
        <time>2020-03-21T15:29:41.251Z</time>
      </trkpt>
      <trkpt lat="44.0927" lon="6.62457">
        <ele>1986</ele>
        <time>2020-03-21T15:29:42.251Z</time>
      </trkpt>
      <trkpt lat="44.09269" lon="6.62442">
        <ele>1984</ele>
        <time>2020-03-21T15:29:43.251Z</time>
      </trkpt>
      <trkpt lat="44.09251" lon="6.62417">
        <ele>1980</ele>
        <time>2020-03-21T15:29:44.251Z</time>
      </trkpt>
      <trkpt lat="44.09244" lon="6.62405">
        <ele>1978</ele>
        <time>2020-03-21T15:29:45.251Z</time>
      </trkpt>
      <trkpt lat="44.09237" lon="6.62395">
        <ele>1977</ele>
        <time>2020-03-21T15:29:46.251Z</time>
      </trkpt>
      <trkpt lat="44.0923" lon="6.62386">
        <ele>1977</ele>
        <time>2020-03-21T15:29:47.251Z</time>
      </trkpt>
      <trkpt lat="44.09225" lon="6.62378">
        <ele>1976</ele>
        <time>2020-03-21T15:29:48.251Z</time>
      </trkpt>
      <trkpt lat="44.09221" lon="6.62361">
        <ele>1974</ele>
        <time>2020-03-21T15:29:49.251Z</time>
      </trkpt>
      <trkpt lat="44.09213" lon="6.62338">
        <ele>1971</ele>
        <time>2020-03-21T15:29:50.251Z</time>
      </trkpt>
      <trkpt lat="44.09204" lon="6.62308">
        <ele>1968</ele>
        <time>2020-03-21T15:29:51.251Z</time>
      </trkpt>
      <trkpt lat="44.09196" lon="6.62279">
        <ele>1966</ele>
        <time>2020-03-21T15:29:52.251Z</time>
      </trkpt>
      <trkpt lat="44.09195" lon="6.62273">
        <ele>1965</ele>
        <time>2020-03-21T15:29:53.251Z</time>
      </trkpt>
      <trkpt lat="44.09189" lon="6.62239">
        <ele>1962</ele>
        <time>2020-03-21T15:29:54.251Z</time>
      </trkpt>
      <trkpt lat="44.09185" lon="6.62214">
        <ele>1960</ele>
        <time>2020-03-21T15:29:55.251Z</time>
      </trkpt>
      <trkpt lat="44.09173" lon="6.62172">
        <ele>1960</ele>
        <time>2020-03-21T15:29:56.251Z</time>
      </trkpt>
      <trkpt lat="44.09166" lon="6.62135">
        <ele>1962</ele>
        <time>2020-03-21T15:29:57.251Z</time>
      </trkpt>
      <trkpt lat="44.09169" lon="6.62101">
        <ele>1962</ele>
        <time>2020-03-21T15:29:58.251Z</time>
      </trkpt>
      <trkpt lat="44.09178" lon="6.62075">
        <ele>1960</ele>
        <time>2020-03-21T15:29:59.251Z</time>
      </trkpt>
      <trkpt lat="44.09199" lon="6.62031">
        <ele>1951</ele>
        <time>2020-03-21T15:30:00.251Z</time>
      </trkpt>
      <trkpt lat="44.09204" lon="6.62023">
        <ele>1950</ele>
        <time>2020-03-21T15:30:01.251Z</time>
      </trkpt>
      <trkpt lat="44.09222" lon="6.61998">
        <ele>1945</ele>
        <time>2020-03-21T15:30:02.251Z</time>
      </trkpt>
      <trkpt lat="44.09245" lon="6.61968">
        <ele>1930</ele>
        <time>2020-03-21T15:30:03.251Z</time>
      </trkpt>
      <trkpt lat="44.09249" lon="6.61963">
        <ele>1928</ele>
        <time>2020-03-21T15:30:04.251Z</time>
      </trkpt>
      <trkpt lat="44.09258" lon="6.61953">
        <ele>1924</ele>
        <time>2020-03-21T15:30:05.251Z</time>
      </trkpt>
      <trkpt lat="44.09275" lon="6.61942">
        <ele>1920</ele>
        <time>2020-03-21T15:30:06.251Z</time>
      </trkpt>
      <trkpt lat="44.09288" lon="6.61936">
        <ele>1918</ele>
        <time>2020-03-21T15:30:07.251Z</time>
      </trkpt>
      <trkpt lat="44.09305" lon="6.61932">
        <ele>1918</ele>
        <time>2020-03-21T15:30:08.251Z</time>
      </trkpt>
      <trkpt lat="44.09334" lon="6.61919">
        <ele>1917</ele>
        <time>2020-03-21T15:30:09.251Z</time>
      </trkpt>
      <trkpt lat="44.09371" lon="6.61903">
        <ele>1908</ele>
        <time>2020-03-21T15:30:10.251Z</time>
      </trkpt>
      <trkpt lat="44.09394" lon="6.61895">
        <ele>1904</ele>
        <time>2020-03-21T15:30:11.251Z</time>
      </trkpt>
      <trkpt lat="44.0942" lon="6.61879">
        <ele>1899</ele>
        <time>2020-03-21T15:30:12.251Z</time>
      </trkpt>
      <trkpt lat="44.0943" lon="6.61871">
        <ele>1897</ele>
        <time>2020-03-21T15:30:13.251Z</time>
      </trkpt>
      <trkpt lat="44.09446" lon="6.61864">
        <ele>1896</ele>
        <time>2020-03-21T15:30:14.251Z</time>
      </trkpt>
      <trkpt lat="44.09463" lon="6.61853">
        <ele>1894</ele>
        <time>2020-03-21T15:30:15.251Z</time>
      </trkpt>
      <trkpt lat="44.09474" lon="6.61839">
        <ele>1893</ele>
        <time>2020-03-21T15:30:16.251Z</time>
      </trkpt>
      <trkpt lat="44.09471" lon="6.61831">
        <ele>1891</ele>
        <time>2020-03-21T15:30:17.251Z</time>
      </trkpt>
      <trkpt lat="44.09464" lon="6.61828">
        <ele>1889</ele>
        <time>2020-03-21T15:30:18.251Z</time>
      </trkpt>
      <trkpt lat="44.0945" lon="6.6182">
        <ele>1885</ele>
        <time>2020-03-21T15:30:19.251Z</time>
      </trkpt>
      <trkpt lat="44.09438" lon="6.61817">
        <ele>1882</ele>
        <time>2020-03-21T15:30:20.251Z</time>
      </trkpt>
      <trkpt lat="44.09423" lon="6.61816">
        <ele>1880</ele>
        <time>2020-03-21T15:30:21.251Z</time>
      </trkpt>
      <trkpt lat="44.094" lon="6.61818">
        <ele>1879</ele>
        <time>2020-03-21T15:30:22.251Z</time>
      </trkpt>
      <trkpt lat="44.09371" lon="6.61808">
        <ele>1873</ele>
        <time>2020-03-21T15:30:23.251Z</time>
      </trkpt>
      <trkpt lat="44.09361" lon="6.61803">
        <ele>1870</ele>
        <time>2020-03-21T15:30:24.251Z</time>
      </trkpt>
      <trkpt lat="44.09348" lon="6.61798">
        <ele>1867</ele>
        <time>2020-03-21T15:30:25.251Z</time>
      </trkpt>
      <trkpt lat="44.0934" lon="6.61797">
        <ele>1866</ele>
        <time>2020-03-21T15:30:26.251Z</time>
      </trkpt>
      <trkpt lat="44.09331" lon="6.61799">
        <ele>1866</ele>
        <time>2020-03-21T15:30:27.251Z</time>
      </trkpt>
      <trkpt lat="44.09321" lon="6.61799">
        <ele>1865</ele>
        <time>2020-03-21T15:30:28.251Z</time>
      </trkpt>
      <trkpt lat="44.09311" lon="6.61801">
        <ele>1865</ele>
        <time>2020-03-21T15:30:29.251Z</time>
      </trkpt>
      <trkpt lat="44.09291" lon="6.61805">
        <ele>1866</ele>
        <time>2020-03-21T15:30:30.251Z</time>
      </trkpt>
      <trkpt lat="44.09271" lon="6.61806">
        <ele>1864</ele>
        <time>2020-03-21T15:30:31.251Z</time>
      </trkpt>
      <trkpt lat="44.09265" lon="6.61806">
        <ele>1864</ele>
        <time>2020-03-21T15:30:32.251Z</time>
      </trkpt>
      <trkpt lat="44.09244" lon="6.61806">
        <ele>1866</ele>
        <time>2020-03-21T15:30:33.251Z</time>
      </trkpt>
      <trkpt lat="44.09241" lon="6.61805">
        <ele>1867</ele>
        <time>2020-03-21T15:30:34.251Z</time>
      </trkpt>
      <trkpt lat="44.09245" lon="6.61788">
        <ele>1859</ele>
        <time>2020-03-21T15:30:35.251Z</time>
      </trkpt>
      <trkpt lat="44.09245" lon="6.6176">
        <ele>1851</ele>
        <time>2020-03-21T15:30:36.251Z</time>
      </trkpt>
      <trkpt lat="44.09241" lon="6.61724">
        <ele>1843</ele>
        <time>2020-03-21T15:30:37.251Z</time>
      </trkpt>
      <trkpt lat="44.09239" lon="6.61711">
        <ele>1841</ele>
        <time>2020-03-21T15:30:38.251Z</time>
      </trkpt>
      <trkpt lat="44.09226" lon="6.61672">
        <ele>1834</ele>
        <time>2020-03-21T15:30:39.251Z</time>
      </trkpt>
      <trkpt lat="44.09208" lon="6.61643">
        <ele>1831</ele>
        <time>2020-03-21T15:30:40.251Z</time>
      </trkpt>
      <trkpt lat="44.09201" lon="6.61632">
        <ele>1830</ele>
        <time>2020-03-21T15:30:41.251Z</time>
      </trkpt>
      <trkpt lat="44.09192" lon="6.61622">
        <ele>1829</ele>
        <time>2020-03-21T15:30:42.251Z</time>
      </trkpt>
      <trkpt lat="44.09165" lon="6.61593">
        <ele>1828</ele>
        <time>2020-03-21T15:30:43.251Z</time>
      </trkpt>
      <trkpt lat="44.0915" lon="6.61579">
        <ele>1827</ele>
        <time>2020-03-21T15:30:44.251Z</time>
      </trkpt>
      <trkpt lat="44.0913" lon="6.61555">
        <ele>1823</ele>
        <time>2020-03-21T15:30:45.251Z</time>
      </trkpt>
      <trkpt lat="44.09115" lon="6.61522">
        <ele>1815</ele>
        <time>2020-03-21T15:30:46.251Z</time>
      </trkpt>
      <trkpt lat="44.09108" lon="6.61508">
        <ele>1812</ele>
        <time>2020-03-21T15:30:47.251Z</time>
      </trkpt>
      <trkpt lat="44.09092" lon="6.61491">
        <ele>1810</ele>
        <time>2020-03-21T15:30:48.251Z</time>
      </trkpt>
      <trkpt lat="44.09077" lon="6.61472">
        <ele>1806</ele>
        <time>2020-03-21T15:30:49.251Z</time>
      </trkpt>
      <trkpt lat="44.0907" lon="6.61464">
        <ele>1803</ele>
        <time>2020-03-21T15:30:50.251Z</time>
      </trkpt>
      <trkpt lat="44.09063" lon="6.61445">
        <ele>1797</ele>
        <time>2020-03-21T15:30:51.251Z</time>
      </trkpt>
      <trkpt lat="44.09057" lon="6.61438">
        <ele>1795</ele>
        <time>2020-03-21T15:30:52.251Z</time>
      </trkpt>
      <trkpt lat="44.09042" lon="6.61419">
        <ele>1789</ele>
        <time>2020-03-21T15:30:53.251Z</time>
      </trkpt>
      <trkpt lat="44.09039" lon="6.61415">
        <ele>1788</ele>
        <time>2020-03-21T15:30:54.251Z</time>
      </trkpt>
      <trkpt lat="44.09028" lon="6.61403">
        <ele>1786</ele>
        <time>2020-03-21T15:30:55.251Z</time>
      </trkpt>
      <trkpt lat="44.0902" lon="6.61397">
        <ele>1786</ele>
        <time>2020-03-21T15:30:56.251Z</time>
      </trkpt>
      <trkpt lat="44.09016" lon="6.61393">
        <ele>1785</ele>
        <time>2020-03-21T15:30:57.251Z</time>
      </trkpt>
      <trkpt lat="44.0901" lon="6.61389">
        <ele>1785</ele>
        <time>2020-03-21T15:30:58.251Z</time>
      </trkpt>
      <trkpt lat="44.09003" lon="6.61388">
        <ele>1785</ele>
        <time>2020-03-21T15:30:59.251Z</time>
      </trkpt>
      <trkpt lat="44.08987" lon="6.61385">
        <ele>1785</ele>
        <time>2020-03-21T15:31:00.251Z</time>
      </trkpt>
      <trkpt lat="44.08984" lon="6.61383">
        <ele>1785</ele>
        <time>2020-03-21T15:31:01.251Z</time>
      </trkpt>
      <trkpt lat="44.08966" lon="6.61377">
        <ele>1784</ele>
        <time>2020-03-21T15:31:02.251Z</time>
      </trkpt>
      <trkpt lat="44.08948" lon="6.61376">
        <ele>1784</ele>
        <time>2020-03-21T15:31:03.251Z</time>
      </trkpt>
      <trkpt lat="44.08927" lon="6.6137">
        <ele>1784</ele>
        <time>2020-03-21T15:31:04.251Z</time>
      </trkpt>
      <trkpt lat="44.08904" lon="6.61358">
        <ele>1783</ele>
        <time>2020-03-21T15:31:05.251Z</time>
      </trkpt>
      <trkpt lat="44.08888" lon="6.61338">
        <ele>1782</ele>
        <time>2020-03-21T15:31:06.251Z</time>
      </trkpt>
      <trkpt lat="44.08868" lon="6.61332">
        <ele>1784</ele>
        <time>2020-03-21T15:31:07.251Z</time>
      </trkpt>
      <trkpt lat="44.08849" lon="6.61337">
        <ele>1785</ele>
        <time>2020-03-21T15:31:08.251Z</time>
      </trkpt>
      <trkpt lat="44.08818" lon="6.61346">
        <ele>1785</ele>
        <time>2020-03-21T15:31:09.251Z</time>
      </trkpt>
      <trkpt lat="44.08777" lon="6.61364">
        <ele>1782</ele>
        <time>2020-03-21T15:31:10.251Z</time>
      </trkpt>
      <trkpt lat="44.0877" lon="6.61368">
        <ele>1782</ele>
        <time>2020-03-21T15:31:11.251Z</time>
      </trkpt>
      <trkpt lat="44.0873" lon="6.61392">
        <ele>1777</ele>
        <time>2020-03-21T15:31:12.251Z</time>
      </trkpt>
      <trkpt lat="44.08723" lon="6.61396">
        <ele>1776</ele>
        <time>2020-03-21T15:31:13.251Z</time>
      </trkpt>
      <trkpt lat="44.08699" lon="6.61413">
        <ele>1772</ele>
        <time>2020-03-21T15:31:14.251Z</time>
      </trkpt>
      <trkpt lat="44.08661" lon="6.61434">
        <ele>1767</ele>
        <time>2020-03-21T15:31:15.251Z</time>
      </trkpt>
      <trkpt lat="44.08654" lon="6.61436">
        <ele>1767</ele>
        <time>2020-03-21T15:31:16.251Z</time>
      </trkpt>
      <trkpt lat="44.08619" lon="6.61451">
        <ele>1763</ele>
        <time>2020-03-21T15:31:17.251Z</time>
      </trkpt>
      <trkpt lat="44.08606" lon="6.61461">
        <ele>1761</ele>
        <time>2020-03-21T15:31:18.251Z</time>
      </trkpt>
      <trkpt lat="44.0857" lon="6.61482">
        <ele>1757</ele>
        <time>2020-03-21T15:31:19.251Z</time>
      </trkpt>
      <trkpt lat="44.08565" lon="6.61485">
        <ele>1756</ele>
        <time>2020-03-21T15:31:20.251Z</time>
      </trkpt>
      <trkpt lat="44.08544" lon="6.61497">
        <ele>1754</ele>
        <time>2020-03-21T15:31:21.251Z</time>
      </trkpt>
      <trkpt lat="44.08511" lon="6.61511">
        <ele>1750</ele>
        <time>2020-03-21T15:31:22.251Z</time>
      </trkpt>
      <trkpt lat="44.08485" lon="6.61527">
        <ele>1748</ele>
        <time>2020-03-21T15:31:23.251Z</time>
      </trkpt>
      <trkpt lat="44.08469" lon="6.61532">
        <ele>1747</ele>
        <time>2020-03-21T15:31:24.251Z</time>
      </trkpt>
      <trkpt lat="44.08449" lon="6.61535">
        <ele>1746</ele>
        <time>2020-03-21T15:31:25.251Z</time>
      </trkpt>
      <trkpt lat="44.08437" lon="6.61537">
        <ele>1745</ele>
        <time>2020-03-21T15:31:26.251Z</time>
      </trkpt>
      <trkpt lat="44.08429" lon="6.6154">
        <ele>1744</ele>
        <time>2020-03-21T15:31:27.251Z</time>
      </trkpt>
      <trkpt lat="44.08409" lon="6.61544">
        <ele>1742</ele>
        <time>2020-03-21T15:31:28.251Z</time>
      </trkpt>
      <trkpt lat="44.08395" lon="6.61546">
        <ele>1741</ele>
        <time>2020-03-21T15:31:29.251Z</time>
      </trkpt>
      <trkpt lat="44.08382" lon="6.61552">
        <ele>1740</ele>
        <time>2020-03-21T15:31:30.251Z</time>
      </trkpt>
      <trkpt lat="44.08367" lon="6.6155">
        <ele>1738</ele>
        <time>2020-03-21T15:31:31.251Z</time>
      </trkpt>
      <trkpt lat="44.08347" lon="6.6155">
        <ele>1736</ele>
        <time>2020-03-21T15:31:32.251Z</time>
      </trkpt>
      <trkpt lat="44.08322" lon="6.61551">
        <ele>1733</ele>
        <time>2020-03-21T15:31:33.251Z</time>
      </trkpt>
      <trkpt lat="44.08298" lon="6.61557">
        <ele>1727</ele>
        <time>2020-03-21T15:31:34.251Z</time>
      </trkpt>
      <trkpt lat="44.08273" lon="6.61563">
        <ele>1722</ele>
        <time>2020-03-21T15:31:35.251Z</time>
      </trkpt>
      <trkpt lat="44.08272" lon="6.61563">
        <ele>1722</ele>
        <time>2020-03-21T15:31:36.251Z</time>
      </trkpt>
      <trkpt lat="44.08275" lon="6.61552">
        <ele>1722</ele>
        <time>2020-03-21T15:31:37.251Z</time>
      </trkpt>
      <trkpt lat="44.0827" lon="6.61553">
        <ele>1721</ele>
        <time>2020-03-21T15:31:38.251Z</time>
      </trkpt>
      <trkpt lat="44.08262" lon="6.61555">
        <ele>1719</ele>
        <time>2020-03-21T15:31:39.251Z</time>
      </trkpt>
      <trkpt lat="44.08246" lon="6.61547">
        <ele>1715</ele>
        <time>2020-03-21T15:31:40.251Z</time>
      </trkpt>
      <trkpt lat="44.08229" lon="6.6154">
        <ele>1712</ele>
        <time>2020-03-21T15:31:41.251Z</time>
      </trkpt>
      <trkpt lat="44.08201" lon="6.61545">
        <ele>1706</ele>
        <time>2020-03-21T15:31:42.251Z</time>
      </trkpt>
      <trkpt lat="44.08164" lon="6.61549">
        <ele>1698</ele>
        <time>2020-03-21T15:31:43.251Z</time>
      </trkpt>
      <trkpt lat="44.08152" lon="6.6155">
        <ele>1696</ele>
        <time>2020-03-21T15:31:44.251Z</time>
      </trkpt>
      <trkpt lat="44.08133" lon="6.61549">
        <ele>1693</ele>
        <time>2020-03-21T15:31:45.251Z</time>
      </trkpt>
      <trkpt lat="44.081" lon="6.61548">
        <ele>1686</ele>
        <time>2020-03-21T15:31:46.251Z</time>
      </trkpt>
      <trkpt lat="44.0808" lon="6.61547">
        <ele>1682</ele>
        <time>2020-03-21T15:31:47.251Z</time>
      </trkpt>
      <trkpt lat="44.08046" lon="6.61547">
        <ele>1675</ele>
        <time>2020-03-21T15:31:48.251Z</time>
      </trkpt>
      <trkpt lat="44.0804" lon="6.61546">
        <ele>1674</ele>
        <time>2020-03-21T15:31:49.251Z</time>
      </trkpt>
      <trkpt lat="44.08034" lon="6.61547">
        <ele>1672</ele>
        <time>2020-03-21T15:31:50.251Z</time>
      </trkpt>
      <trkpt lat="44.08007" lon="6.6155">
        <ele>1667</ele>
        <time>2020-03-21T15:31:51.251Z</time>
      </trkpt>
      <trkpt lat="44.07988" lon="6.61554">
        <ele>1664</ele>
        <time>2020-03-21T15:31:52.251Z</time>
      </trkpt>
      <trkpt lat="44.07951" lon="6.61556">
        <ele>1658</ele>
        <time>2020-03-21T15:31:53.251Z</time>
      </trkpt>
      <trkpt lat="44.07921" lon="6.61562">
        <ele>1655</ele>
        <time>2020-03-21T15:31:54.251Z</time>
      </trkpt>
      <trkpt lat="44.07907" lon="6.61562">
        <ele>1653</ele>
        <time>2020-03-21T15:31:55.251Z</time>
      </trkpt>
      <trkpt lat="44.07892" lon="6.61561">
        <ele>1651</ele>
        <time>2020-03-21T15:31:56.251Z</time>
      </trkpt>
      <trkpt lat="44.07855" lon="6.61554">
        <ele>1644</ele>
        <time>2020-03-21T15:31:57.251Z</time>
      </trkpt>
      <trkpt lat="44.07833" lon="6.61549">
        <ele>1640</ele>
        <time>2020-03-21T15:31:58.251Z</time>
      </trkpt>
      <trkpt lat="44.07828" lon="6.61548">
        <ele>1639</ele>
        <time>2020-03-21T15:31:59.251Z</time>
      </trkpt>
      <trkpt lat="44.07809" lon="6.61552">
        <ele>1637</ele>
        <time>2020-03-21T15:32:00.251Z</time>
      </trkpt>
      <trkpt lat="44.07797" lon="6.61554">
        <ele>1636</ele>
        <time>2020-03-21T15:32:01.251Z</time>
      </trkpt>
      <trkpt lat="44.07786" lon="6.61554">
        <ele>1634</ele>
        <time>2020-03-21T15:32:02.251Z</time>
      </trkpt>
      <trkpt lat="44.07764" lon="6.61554">
        <ele>1631</ele>
        <time>2020-03-21T15:32:03.251Z</time>
      </trkpt>
      <trkpt lat="44.07753" lon="6.61555">
        <ele>1629</ele>
        <time>2020-03-21T15:32:04.251Z</time>
      </trkpt>
      <trkpt lat="44.07734" lon="6.61556">
        <ele>1627</ele>
        <time>2020-03-21T15:32:05.251Z</time>
      </trkpt>
      <trkpt lat="44.07723" lon="6.61562">
        <ele>1626</ele>
        <time>2020-03-21T15:32:06.251Z</time>
      </trkpt>
      <trkpt lat="44.07713" lon="6.61571">
        <ele>1626</ele>
        <time>2020-03-21T15:32:07.251Z</time>
      </trkpt>
      <trkpt lat="44.07687" lon="6.61585">
        <ele>1625</ele>
        <time>2020-03-21T15:32:08.251Z</time>
      </trkpt>
      <trkpt lat="44.07673" lon="6.61591">
        <ele>1624</ele>
        <time>2020-03-21T15:32:09.251Z</time>
      </trkpt>
      <trkpt lat="44.07647" lon="6.61599">
        <ele>1621</ele>
        <time>2020-03-21T15:32:10.251Z</time>
      </trkpt>
      <trkpt lat="44.0763" lon="6.61597">
        <ele>1618</ele>
        <time>2020-03-21T15:32:11.251Z</time>
      </trkpt>
      <trkpt lat="44.07622" lon="6.61597">
        <ele>1616</ele>
        <time>2020-03-21T15:32:12.251Z</time>
      </trkpt>
      <trkpt lat="44.07604" lon="6.616">
        <ele>1613</ele>
        <time>2020-03-21T15:32:13.251Z</time>
      </trkpt>
      <trkpt lat="44.07585" lon="6.61606">
        <ele>1611</ele>
        <time>2020-03-21T15:32:14.251Z</time>
      </trkpt>
      <trkpt lat="44.07581" lon="6.61608">
        <ele>1611</ele>
        <time>2020-03-21T15:32:15.251Z</time>
      </trkpt>
      <trkpt lat="44.07569" lon="6.61616">
        <ele>1610</ele>
        <time>2020-03-21T15:32:16.251Z</time>
      </trkpt>
      <trkpt lat="44.07558" lon="6.6162">
        <ele>1609</ele>
        <time>2020-03-21T15:32:17.251Z</time>
      </trkpt>
      <trkpt lat="44.07542" lon="6.61622">
        <ele>1607</ele>
        <time>2020-03-21T15:32:18.251Z</time>
      </trkpt>
      <trkpt lat="44.0753" lon="6.61624">
        <ele>1606</ele>
        <time>2020-03-21T15:32:19.251Z</time>
      </trkpt>
      <trkpt lat="44.07518" lon="6.61628">
        <ele>1605</ele>
        <time>2020-03-21T15:32:20.251Z</time>
      </trkpt>
      <trkpt lat="44.07506" lon="6.61632">
        <ele>1603</ele>
        <time>2020-03-21T15:32:21.251Z</time>
      </trkpt>
      <trkpt lat="44.07492" lon="6.61634">
        <ele>1602</ele>
        <time>2020-03-21T15:32:22.251Z</time>
      </trkpt>
      <trkpt lat="44.07463" lon="6.61639">
        <ele>1601</ele>
        <time>2020-03-21T15:32:23.251Z</time>
      </trkpt>
      <trkpt lat="44.07435" lon="6.61633">
        <ele>1599</ele>
        <time>2020-03-21T15:32:24.251Z</time>
      </trkpt>
      <trkpt lat="44.07406" lon="6.61622">
        <ele>1597</ele>
        <time>2020-03-21T15:32:25.251Z</time>
      </trkpt>
      <trkpt lat="44.07376" lon="6.61618">
        <ele>1595</ele>
        <time>2020-03-21T15:32:26.251Z</time>
      </trkpt>
      <trkpt lat="44.07371" lon="6.6162">
        <ele>1594</ele>
        <time>2020-03-21T15:32:27.251Z</time>
      </trkpt>
      <trkpt lat="44.07355" lon="6.61621">
        <ele>1593</ele>
        <time>2020-03-21T15:32:28.251Z</time>
      </trkpt>
      <trkpt lat="44.07326" lon="6.61601">
        <ele>1590</ele>
        <time>2020-03-21T15:32:29.251Z</time>
      </trkpt>
      <trkpt lat="44.0732" lon="6.61597">
        <ele>1589</ele>
        <time>2020-03-21T15:32:30.251Z</time>
      </trkpt>
      <trkpt lat="44.07303" lon="6.61592">
        <ele>1587</ele>
        <time>2020-03-21T15:32:31.251Z</time>
      </trkpt>
      <trkpt lat="44.07298" lon="6.61591">
        <ele>1586</ele>
        <time>2020-03-21T15:32:32.251Z</time>
      </trkpt>
      <trkpt lat="44.07285" lon="6.61584">
        <ele>1584</ele>
        <time>2020-03-21T15:32:33.251Z</time>
      </trkpt>
      <trkpt lat="44.07256" lon="6.61577">
        <ele>1582</ele>
        <time>2020-03-21T15:32:34.251Z</time>
      </trkpt>
      <trkpt lat="44.07231" lon="6.61579">
        <ele>1581</ele>
        <time>2020-03-21T15:32:35.251Z</time>
      </trkpt>
      <trkpt lat="44.07203" lon="6.61571">
        <ele>1580</ele>
        <time>2020-03-21T15:32:36.251Z</time>
      </trkpt>
      <trkpt lat="44.07198" lon="6.61568">
        <ele>1580</ele>
        <time>2020-03-21T15:32:37.251Z</time>
      </trkpt>
      <trkpt lat="44.07177" lon="6.6156">
        <ele>1580</ele>
        <time>2020-03-21T15:32:38.251Z</time>
      </trkpt>
      <trkpt lat="44.07172" lon="6.61558">
        <ele>1580</ele>
        <time>2020-03-21T15:32:39.251Z</time>
      </trkpt>
      <trkpt lat="44.07161" lon="6.61554">
        <ele>1580</ele>
        <time>2020-03-21T15:32:40.251Z</time>
      </trkpt>
      <trkpt lat="44.07154" lon="6.6155">
        <ele>1579</ele>
        <time>2020-03-21T15:32:41.251Z</time>
      </trkpt>
      <trkpt lat="44.0714" lon="6.61536">
        <ele>1577</ele>
        <time>2020-03-21T15:32:42.251Z</time>
      </trkpt>
      <trkpt lat="44.07139" lon="6.61534">
        <ele>1577</ele>
        <time>2020-03-21T15:32:43.251Z</time>
      </trkpt>
      <trkpt lat="44.07136" lon="6.61524">
        <ele>1576</ele>
        <time>2020-03-21T15:32:44.251Z</time>
      </trkpt>
      <trkpt lat="44.07138" lon="6.61522">
        <ele>1576</ele>
        <time>2020-03-21T15:32:45.251Z</time>
      </trkpt>
      <trkpt lat="44.07139" lon="6.61516">
        <ele>1576</ele>
        <time>2020-03-21T15:32:46.251Z</time>
      </trkpt>
      <trkpt lat="44.07135" lon="6.61508">
        <ele>1575</ele>
        <time>2020-03-21T15:32:47.251Z</time>
      </trkpt>
      <trkpt lat="44.07131" lon="6.61501">
        <ele>1574</ele>
        <time>2020-03-21T15:32:48.251Z</time>
      </trkpt>
      <trkpt lat="44.07121" lon="6.61483">
        <ele>1569</ele>
        <time>2020-03-21T15:32:49.251Z</time>
      </trkpt>
      <trkpt lat="44.07114" lon="6.61474">
        <ele>1566</ele>
        <time>2020-03-21T15:32:50.251Z</time>
      </trkpt>
      <trkpt lat="44.07085" lon="6.61459">
        <ele>1559</ele>
        <time>2020-03-21T15:32:51.251Z</time>
      </trkpt>
      <trkpt lat="44.07072" lon="6.61456">
        <ele>1556</ele>
        <time>2020-03-21T15:32:52.251Z</time>
      </trkpt>
      <trkpt lat="44.07066" lon="6.61452">
        <ele>1554</ele>
        <time>2020-03-21T15:32:53.251Z</time>
      </trkpt>
      <trkpt lat="44.07058" lon="6.61448">
        <ele>1552</ele>
        <time>2020-03-21T15:32:54.251Z</time>
      </trkpt>
      <trkpt lat="44.07047" lon="6.61441">
        <ele>1549</ele>
        <time>2020-03-21T15:32:55.251Z</time>
      </trkpt>
      <trkpt lat="44.07028" lon="6.61442">
        <ele>1546</ele>
        <time>2020-03-21T15:32:56.251Z</time>
      </trkpt>
      <trkpt lat="44.07016" lon="6.61436">
        <ele>1542</ele>
        <time>2020-03-21T15:32:57.251Z</time>
      </trkpt>
      <trkpt lat="44.07009" lon="6.61429">
        <ele>1539</ele>
        <time>2020-03-21T15:32:58.251Z</time>
      </trkpt>
      <trkpt lat="44.06992" lon="6.61417">
        <ele>1533</ele>
        <time>2020-03-21T15:32:59.251Z</time>
      </trkpt>
      <trkpt lat="44.06966" lon="6.6141">
        <ele>1528</ele>
        <time>2020-03-21T15:33:00.251Z</time>
      </trkpt>
      <trkpt lat="44.06951" lon="6.61409">
        <ele>1526</ele>
        <time>2020-03-21T15:33:01.251Z</time>
      </trkpt>
      <trkpt lat="44.06943" lon="6.61405">
        <ele>1524</ele>
        <time>2020-03-21T15:33:02.251Z</time>
      </trkpt>
      <trkpt lat="44.06929" lon="6.61391">
        <ele>1517</ele>
        <time>2020-03-21T15:33:03.251Z</time>
      </trkpt>
      <trkpt lat="44.06927" lon="6.61388">
        <ele>1516</ele>
        <time>2020-03-21T15:33:04.251Z</time>
      </trkpt>
      <trkpt lat="44.06918" lon="6.61382">
        <ele>1512</ele>
        <time>2020-03-21T15:33:05.251Z</time>
      </trkpt>
      <trkpt lat="44.06917" lon="6.61381">
        <ele>1512</ele>
        <time>2020-03-21T15:33:06.251Z</time>
      </trkpt>
      <trkpt lat="44.06917" lon="6.61382">
        <ele>1512</ele>
        <time>2020-03-21T15:33:07.251Z</time>
      </trkpt>
      <trkpt lat="44.06913" lon="6.61391">
        <ele>1515</ele>
        <time>2020-03-21T15:33:08.251Z</time>
      </trkpt>
      <trkpt lat="44.06913" lon="6.61403">
        <ele>1519</ele>
        <time>2020-03-21T15:33:09.251Z</time>
      </trkpt>
      <trkpt lat="44.06909" lon="6.61403">
        <ele>1518</ele>
        <time>2020-03-21T15:33:10.251Z</time>
      </trkpt>
      <trkpt lat="44.06909" lon="6.61399">
        <ele>1516</ele>
        <time>2020-03-21T15:33:11.251Z</time>
      </trkpt>
      <trkpt lat="44.06913" lon="6.61376">
        <ele>1509</ele>
        <time>2020-03-21T15:33:12.251Z</time>
      </trkpt>
      <trkpt lat="44.06922" lon="6.61362">
        <ele>1505</ele>
        <time>2020-03-21T15:33:13.251Z</time>
      </trkpt>
      <trkpt lat="44.0694" lon="6.61354">
        <ele>1504</ele>
        <time>2020-03-21T15:33:14.251Z</time>
      </trkpt>
      <trkpt lat="44.06948" lon="6.6135">
        <ele>1503</ele>
        <time>2020-03-21T15:33:15.251Z</time>
      </trkpt>
      <trkpt lat="44.06957" lon="6.61347">
        <ele>1503</ele>
        <time>2020-03-21T15:33:16.251Z</time>
      </trkpt>
      <trkpt lat="44.06978" lon="6.61345">
        <ele>1505</ele>
        <time>2020-03-21T15:33:17.251Z</time>
      </trkpt>
      <trkpt lat="44.07012" lon="6.61355">
        <ele>1514</ele>
        <time>2020-03-21T15:33:18.251Z</time>
      </trkpt>
      <trkpt lat="44.07018" lon="6.61358">
        <ele>1517</ele>
        <time>2020-03-21T15:33:19.251Z</time>
      </trkpt>
      <trkpt lat="44.07034" lon="6.61353">
        <ele>1519</ele>
        <time>2020-03-21T15:33:20.251Z</time>
      </trkpt>
      <trkpt lat="44.07037" lon="6.61345">
        <ele>1517</ele>
        <time>2020-03-21T15:33:21.251Z</time>
      </trkpt>
      <trkpt lat="44.07059" lon="6.61305">
        <ele>1509</ele>
        <time>2020-03-21T15:33:22.251Z</time>
      </trkpt>
      <trkpt lat="44.07065" lon="6.61299">
        <ele>1510</ele>
        <time>2020-03-21T15:33:23.251Z</time>
      </trkpt>
      <trkpt lat="44.0708" lon="6.61287">
        <ele>1513</ele>
        <time>2020-03-21T15:33:24.251Z</time>
      </trkpt>
      <trkpt lat="44.07122" lon="6.61261">
        <ele>1512</ele>
        <time>2020-03-21T15:33:25.251Z</time>
      </trkpt>
      <trkpt lat="44.07213" lon="6.61212">
        <ele>1512</ele>
        <time>2020-03-21T15:33:26.251Z</time>
      </trkpt>
      <trkpt lat="44.07229" lon="6.61203">
        <ele>1513</ele>
        <time>2020-03-21T15:33:27.251Z</time>
      </trkpt>
      <trkpt lat="44.07272" lon="6.61179">
        <ele>1514</ele>
        <time>2020-03-21T15:33:28.251Z</time>
      </trkpt>
      <trkpt lat="44.07291" lon="6.61166">
        <ele>1516</ele>
        <time>2020-03-21T15:33:29.251Z</time>
      </trkpt>
      <trkpt lat="44.07314" lon="6.61131">
        <ele>1523</ele>
        <time>2020-03-21T15:33:30.251Z</time>
      </trkpt>
      <trkpt lat="44.07319" lon="6.61104">
        <ele>1527</ele>
        <time>2020-03-21T15:33:31.251Z</time>
      </trkpt>
      <trkpt lat="44.07311" lon="6.61091">
        <ele>1527</ele>
        <time>2020-03-21T15:33:32.251Z</time>
      </trkpt>
      <trkpt lat="44.07298" lon="6.6109">
        <ele>1526</ele>
        <time>2020-03-21T15:33:33.251Z</time>
      </trkpt>
      <trkpt lat="44.07255" lon="6.61083">
        <ele>1524</ele>
        <time>2020-03-21T15:33:34.251Z</time>
      </trkpt>
      <trkpt lat="44.07221" lon="6.61059">
        <ele>1527</ele>
        <time>2020-03-21T15:33:35.251Z</time>
      </trkpt>
      <trkpt lat="44.07182" lon="6.61022">
        <ele>1531</ele>
        <time>2020-03-21T15:33:36.251Z</time>
      </trkpt>
      <trkpt lat="44.07148" lon="6.60996">
        <ele>1532</ele>
        <time>2020-03-21T15:33:37.251Z</time>
      </trkpt>
      <trkpt lat="44.07113" lon="6.60987">
        <ele>1527</ele>
        <time>2020-03-21T15:33:38.251Z</time>
      </trkpt>
      <trkpt lat="44.07085" lon="6.60982">
        <ele>1523</ele>
        <time>2020-03-21T15:33:39.251Z</time>
      </trkpt>
      <trkpt lat="44.07072" lon="6.60977">
        <ele>1513</ele>
        <time>2020-03-21T15:33:40.251Z</time>
      </trkpt>
      <trkpt lat="44.07059" lon="6.6096">
        <ele>1503</ele>
        <time>2020-03-21T15:33:41.251Z</time>
      </trkpt>
      <trkpt lat="44.0706" lon="6.60938">
        <ele>1505</ele>
        <time>2020-03-21T15:33:42.251Z</time>
      </trkpt>
      <trkpt lat="44.0707" lon="6.60917">
        <ele>1514</ele>
        <time>2020-03-21T15:33:43.251Z</time>
      </trkpt>
      <trkpt lat="44.07082" lon="6.60898">
        <ele>1522</ele>
        <time>2020-03-21T15:33:44.251Z</time>
      </trkpt>
      <trkpt lat="44.07094" lon="6.60858">
        <ele>1527</ele>
        <time>2020-03-21T15:33:45.251Z</time>
      </trkpt>
      <trkpt lat="44.07121" lon="6.60818">
        <ele>1544.9</ele>
      </trkpt>
      <trkpt lat="44.07081" lon="6.60711">
        <ele>1532.7</ele>
      </trkpt>
      <trkpt lat="44.07078" lon="6.60708">
        <ele>1533</ele>
      </trkpt>
      <trkpt lat="44.07065" lon="6.60663">
        <ele>1550</ele>
      </trkpt>
      <trkpt lat="44.0706" lon="6.60613">
        <ele>1554.4</ele>
      </trkpt>
      <trkpt lat="44.07045" lon="6.60591">
        <ele>1554.1</ele>
      </trkpt>
      <trkpt lat="44.06997" lon="6.60573">
        <ele>1549.1</ele>
      </trkpt>
      <trkpt lat="44.06993" lon="6.60572">
        <ele>1549.1</ele>
      </trkpt>
      <trkpt lat="44.06976" lon="6.60539">
        <ele>1553.5</ele>
      </trkpt>
      <trkpt lat="44.06962" lon="6.60501">
        <ele>1557.1</ele>
      </trkpt>
      <trkpt lat="44.06936" lon="6.60478">
        <ele>1565.7</ele>
      </trkpt>
      <trkpt lat="44.0692" lon="6.60459">
        <ele>1566.9</ele>
      </trkpt>
      <trkpt lat="44.06924" lon="6.60462">
        <ele>1566.8</ele>
      </trkpt>
      <trkpt lat="44.06948" lon="6.60481">
        <ele>1566</ele>
        <time>2020-03-24T13:26:34.540Z</time>
      </trkpt>
      <trkpt lat="44.06969" lon="6.60499">
        <ele>1572</ele>
        <time>2020-03-24T13:26:35.540Z</time>
      </trkpt>
      <trkpt lat="44.06979" lon="6.60514">
        <ele>1571</ele>
        <time>2020-03-24T13:26:36.540Z</time>
      </trkpt>
      <trkpt lat="44.06987" lon="6.60535">
        <ele>1569</ele>
        <time>2020-03-24T13:26:37.540Z</time>
      </trkpt>
      <trkpt lat="44.06995" lon="6.60548">
        <ele>1568</ele>
        <time>2020-03-24T13:26:38.540Z</time>
      </trkpt>
      <trkpt lat="44.07007" lon="6.60549">
        <ele>1571</ele>
        <time>2020-03-24T13:26:39.540Z</time>
      </trkpt>
      <trkpt lat="44.07024" lon="6.60547">
        <ele>1575</ele>
        <time>2020-03-24T13:26:40.540Z</time>
      </trkpt>
      <trkpt lat="44.07045" lon="6.60546">
        <ele>1581</ele>
        <time>2020-03-24T13:26:41.540Z</time>
      </trkpt>
      <trkpt lat="44.07063" lon="6.6055">
        <ele>1584</ele>
        <time>2020-03-24T13:26:42.540Z</time>
      </trkpt>
      <trkpt lat="44.07078" lon="6.60558">
        <ele>1586</ele>
        <time>2020-03-24T13:26:43.540Z</time>
      </trkpt>
      <trkpt lat="44.07093" lon="6.60566">
        <ele>1589</ele>
        <time>2020-03-24T13:26:44.540Z</time>
      </trkpt>
      <trkpt lat="44.071" lon="6.60581">
        <ele>1589</ele>
        <time>2020-03-24T13:26:45.540Z</time>
      </trkpt>
      <trkpt lat="44.07105" lon="6.60604">
        <ele>1586</ele>
        <time>2020-03-24T13:26:46.540Z</time>
      </trkpt>
      <trkpt lat="44.0711" lon="6.60618">
        <ele>1584</ele>
        <time>2020-03-24T13:26:47.540Z</time>
      </trkpt>
      <trkpt lat="44.07118" lon="6.60634">
        <ele>1584</ele>
        <time>2020-03-24T13:26:48.540Z</time>
      </trkpt>
      <trkpt lat="44.0713" lon="6.6065">
        <ele>1585</ele>
        <time>2020-03-24T13:26:49.540Z</time>
      </trkpt>
      <trkpt lat="44.07144" lon="6.6066">
        <ele>1589</ele>
        <time>2020-03-24T13:26:50.540Z</time>
      </trkpt>
      <trkpt lat="44.07151" lon="6.60675">
        <ele>1589</ele>
        <time>2020-03-24T13:26:51.540Z</time>
      </trkpt>
      <trkpt lat="44.07158" lon="6.60695">
        <ele>1587</ele>
        <time>2020-03-24T13:26:52.540Z</time>
      </trkpt>
      <trkpt lat="44.07174" lon="6.60718">
        <ele>1591</ele>
        <time>2020-03-24T13:26:53.540Z</time>
      </trkpt>
      <trkpt lat="44.07183" lon="6.60737">
        <ele>1591</ele>
        <time>2020-03-24T13:26:54.540Z</time>
      </trkpt>
      <trkpt lat="44.07192" lon="6.60747">
        <ele>1593</ele>
        <time>2020-03-24T13:26:55.540Z</time>
      </trkpt>
      <trkpt lat="44.07197" lon="6.60752">
        <ele>1594</ele>
        <time>2020-03-24T13:26:56.540Z</time>
      </trkpt>
      <trkpt lat="44.07202" lon="6.6076">
        <ele>1595</ele>
        <time>2020-03-24T13:26:57.540Z</time>
      </trkpt>
      <trkpt lat="44.07203" lon="6.60763">
        <ele>1595</ele>
        <time>2020-03-24T13:26:58.540Z</time>
      </trkpt>
      <trkpt lat="44.07211" lon="6.60778">
        <ele>1595</ele>
        <time>2020-03-24T13:26:59.540Z</time>
      </trkpt>
      <trkpt lat="44.07222" lon="6.60798">
        <ele>1595</ele>
        <time>2020-03-24T13:27:00.540Z</time>
      </trkpt>
      <trkpt lat="44.07237" lon="6.60821">
        <ele>1596</ele>
        <time>2020-03-24T13:27:01.540Z</time>
      </trkpt>
      <trkpt lat="44.07246" lon="6.60837">
        <ele>1597</ele>
        <time>2020-03-24T13:27:02.540Z</time>
      </trkpt>
      <trkpt lat="44.07259" lon="6.60855">
        <ele>1597</ele>
        <time>2020-03-24T13:27:03.540Z</time>
      </trkpt>
      <trkpt lat="44.07271" lon="6.60867">
        <ele>1598</ele>
        <time>2020-03-24T13:27:04.540Z</time>
      </trkpt>
      <trkpt lat="44.0728" lon="6.60875">
        <ele>1599</ele>
        <time>2020-03-24T13:27:05.540Z</time>
      </trkpt>
      <trkpt lat="44.07296" lon="6.60886">
        <ele>1601</ele>
        <time>2020-03-24T13:27:06.540Z</time>
      </trkpt>
      <trkpt lat="44.07314" lon="6.60895">
        <ele>1604</ele>
        <time>2020-03-24T13:27:07.540Z</time>
      </trkpt>
      <trkpt lat="44.0733" lon="6.609">
        <ele>1608</ele>
        <time>2020-03-24T13:27:08.540Z</time>
      </trkpt>
      <trkpt lat="44.07346" lon="6.60903">
        <ele>1609</ele>
        <time>2020-03-24T13:27:09.540Z</time>
      </trkpt>
      <trkpt lat="44.07365" lon="6.60906">
        <ele>1611</ele>
        <time>2020-03-24T13:27:10.540Z</time>
      </trkpt>
      <trkpt lat="44.07377" lon="6.60908">
        <ele>1612</ele>
        <time>2020-03-24T13:27:11.540Z</time>
      </trkpt>
      <trkpt lat="44.07395" lon="6.60914">
        <ele>1612</ele>
        <time>2020-03-24T13:27:12.540Z</time>
      </trkpt>
      <trkpt lat="44.07414" lon="6.60917">
        <ele>1613</ele>
        <time>2020-03-24T13:27:13.540Z</time>
      </trkpt>
      <trkpt lat="44.07434" lon="6.60919">
        <ele>1616</ele>
        <time>2020-03-24T13:27:14.540Z</time>
      </trkpt>
      <trkpt lat="44.07452" lon="6.60924">
        <ele>1617</ele>
        <time>2020-03-24T13:27:15.540Z</time>
      </trkpt>
      <trkpt lat="44.07462" lon="6.60929">
        <ele>1616</ele>
        <time>2020-03-24T13:27:16.540Z</time>
      </trkpt>
      <trkpt lat="44.07476" lon="6.60928">
        <ele>1619</ele>
        <time>2020-03-24T13:27:17.540Z</time>
      </trkpt>
      <trkpt lat="44.07493" lon="6.60928">
        <ele>1622</ele>
        <time>2020-03-24T13:27:18.540Z</time>
      </trkpt>
      <trkpt lat="44.07509" lon="6.6093">
        <ele>1622</ele>
        <time>2020-03-24T13:27:19.540Z</time>
      </trkpt>
      <trkpt lat="44.07523" lon="6.60936">
        <ele>1620</ele>
        <time>2020-03-24T13:27:20.540Z</time>
      </trkpt>
      <trkpt lat="44.07538" lon="6.60934">
        <ele>1622</ele>
        <time>2020-03-24T13:27:21.540Z</time>
      </trkpt>
      <trkpt lat="44.0755" lon="6.60933">
        <ele>1623</ele>
        <time>2020-03-24T13:27:22.540Z</time>
      </trkpt>
      <trkpt lat="44.07569" lon="6.60929">
        <ele>1625</ele>
        <time>2020-03-24T13:27:23.540Z</time>
      </trkpt>
      <trkpt lat="44.07586" lon="6.60926">
        <ele>1627</ele>
        <time>2020-03-24T13:27:24.540Z</time>
      </trkpt>
      <trkpt lat="44.076" lon="6.60921">
        <ele>1628</ele>
        <time>2020-03-24T13:27:25.540Z</time>
      </trkpt>
      <trkpt lat="44.07614" lon="6.60917">
        <ele>1629</ele>
        <time>2020-03-24T13:27:26.540Z</time>
      </trkpt>
      <trkpt lat="44.07631" lon="6.60912">
        <ele>1629</ele>
        <time>2020-03-24T13:27:27.540Z</time>
      </trkpt>
      <trkpt lat="44.07648" lon="6.60908">
        <ele>1629</ele>
        <time>2020-03-24T13:27:28.540Z</time>
      </trkpt>
      <trkpt lat="44.07663" lon="6.60904">
        <ele>1629</ele>
        <time>2020-03-24T13:27:29.540Z</time>
      </trkpt>
      <trkpt lat="44.07675" lon="6.60901">
        <ele>1630</ele>
        <time>2020-03-24T13:27:30.540Z</time>
      </trkpt>
      <trkpt lat="44.0769" lon="6.60895">
        <ele>1631</ele>
        <time>2020-03-24T13:27:31.540Z</time>
      </trkpt>
      <trkpt lat="44.07707" lon="6.6089">
        <ele>1632</ele>
        <time>2020-03-24T13:27:32.540Z</time>
      </trkpt>
      <trkpt lat="44.07722" lon="6.60886">
        <ele>1633</ele>
        <time>2020-03-24T13:27:33.540Z</time>
      </trkpt>
      <trkpt lat="44.07738" lon="6.6088">
        <ele>1633</ele>
        <time>2020-03-24T13:27:34.540Z</time>
      </trkpt>
      <trkpt lat="44.07757" lon="6.60876">
        <ele>1633</ele>
        <time>2020-03-24T13:27:35.540Z</time>
      </trkpt>
      <trkpt lat="44.07774" lon="6.6087">
        <ele>1633</ele>
        <time>2020-03-24T13:27:36.540Z</time>
      </trkpt>
      <trkpt lat="44.07787" lon="6.60862">
        <ele>1634</ele>
        <time>2020-03-24T13:27:37.540Z</time>
      </trkpt>
      <trkpt lat="44.07804" lon="6.6085">
        <ele>1635</ele>
        <time>2020-03-24T13:27:38.540Z</time>
      </trkpt>
      <trkpt lat="44.0782" lon="6.60835">
        <ele>1636</ele>
        <time>2020-03-24T13:27:39.540Z</time>
      </trkpt>
      <trkpt lat="44.07837" lon="6.60817">
        <ele>1639</ele>
        <time>2020-03-24T13:27:40.540Z</time>
      </trkpt>
      <trkpt lat="44.07855" lon="6.60802">
        <ele>1642</ele>
        <time>2020-03-24T13:27:41.540Z</time>
      </trkpt>
      <trkpt lat="44.07873" lon="6.60788">
        <ele>1644</ele>
        <time>2020-03-24T13:27:42.540Z</time>
      </trkpt>
      <trkpt lat="44.07893" lon="6.60773">
        <ele>1647</ele>
        <time>2020-03-24T13:27:43.540Z</time>
      </trkpt>
      <trkpt lat="44.07905" lon="6.6076">
        <ele>1649</ele>
        <time>2020-03-24T13:27:44.540Z</time>
      </trkpt>
      <trkpt lat="44.07917" lon="6.60748">
        <ele>1650</ele>
        <time>2020-03-24T13:27:45.540Z</time>
      </trkpt>
      <trkpt lat="44.07918" lon="6.60746">
        <ele>1651</ele>
        <time>2020-03-24T13:27:46.540Z</time>
      </trkpt>
      <trkpt lat="44.07913" lon="6.60741">
        <ele>1653</ele>
        <time>2020-03-24T13:27:47.540Z</time>
      </trkpt>
      <trkpt lat="44.07909" lon="6.60742">
        <ele>1652</ele>
        <time>2020-03-24T13:27:48.540Z</time>
      </trkpt>
      <trkpt lat="44.07883" lon="6.60758">
        <ele>1650</ele>
        <time>2020-03-24T13:27:49.540Z</time>
      </trkpt>
      <trkpt lat="44.07869" lon="6.60758">
        <ele>1650</ele>
        <time>2020-03-24T13:27:50.540Z</time>
      </trkpt>
      <trkpt lat="44.07854" lon="6.60754">
        <ele>1651</ele>
        <time>2020-03-24T13:27:51.540Z</time>
      </trkpt>
      <trkpt lat="44.07843" lon="6.60754">
        <ele>1652</ele>
        <time>2020-03-24T13:27:52.540Z</time>
      </trkpt>
      <trkpt lat="44.07825" lon="6.60754">
        <ele>1653</ele>
        <time>2020-03-24T13:27:53.540Z</time>
      </trkpt>
      <trkpt lat="44.07814" lon="6.60754">
        <ele>1655</ele>
        <time>2020-03-24T13:27:54.540Z</time>
      </trkpt>
      <trkpt lat="44.07796" lon="6.60757">
        <ele>1657</ele>
        <time>2020-03-24T13:27:55.540Z</time>
      </trkpt>
      <trkpt lat="44.07783" lon="6.60763">
        <ele>1657</ele>
        <time>2020-03-24T13:27:56.540Z</time>
      </trkpt>
      <trkpt lat="44.0777" lon="6.60768">
        <ele>1658</ele>
        <time>2020-03-24T13:27:57.540Z</time>
      </trkpt>
      <trkpt lat="44.07755" lon="6.60771">
        <ele>1658</ele>
        <time>2020-03-24T13:27:58.540Z</time>
      </trkpt>
      <trkpt lat="44.07742" lon="6.60775">
        <ele>1659</ele>
        <time>2020-03-24T13:27:59.540Z</time>
      </trkpt>
      <trkpt lat="44.07725" lon="6.60778">
        <ele>1661</ele>
        <time>2020-03-24T13:28:00.540Z</time>
      </trkpt>
      <trkpt lat="44.0771" lon="6.6078">
        <ele>1662</ele>
        <time>2020-03-24T13:28:01.540Z</time>
      </trkpt>
      <trkpt lat="44.07695" lon="6.60783">
        <ele>1663</ele>
        <time>2020-03-24T13:28:02.540Z</time>
      </trkpt>
      <trkpt lat="44.0768" lon="6.60786">
        <ele>1665</ele>
        <time>2020-03-24T13:28:03.540Z</time>
      </trkpt>
      <trkpt lat="44.07664" lon="6.60789">
        <ele>1666</ele>
        <time>2020-03-24T13:28:04.540Z</time>
      </trkpt>
      <trkpt lat="44.07649" lon="6.60791">
        <ele>1667</ele>
        <time>2020-03-24T13:28:05.540Z</time>
      </trkpt>
      <trkpt lat="44.07635" lon="6.60791">
        <ele>1668</ele>
        <time>2020-03-24T13:28:06.540Z</time>
      </trkpt>
      <trkpt lat="44.07621" lon="6.60792">
        <ele>1668</ele>
        <time>2020-03-24T13:28:07.540Z</time>
      </trkpt>
      <trkpt lat="44.0761" lon="6.60791">
        <ele>1669</ele>
        <time>2020-03-24T13:28:08.540Z</time>
      </trkpt>
      <trkpt lat="44.07599" lon="6.60791">
        <ele>1670</ele>
        <time>2020-03-24T13:28:09.540Z</time>
      </trkpt>
      <trkpt lat="44.07589" lon="6.60791">
        <ele>1671</ele>
        <time>2020-03-24T13:28:10.540Z</time>
      </trkpt>
      <trkpt lat="44.07576" lon="6.60791">
        <ele>1671</ele>
        <time>2020-03-24T13:28:11.540Z</time>
      </trkpt>
      <trkpt lat="44.07562" lon="6.60791">
        <ele>1671</ele>
        <time>2020-03-24T13:28:12.540Z</time>
      </trkpt>
      <trkpt lat="44.07544" lon="6.60793">
        <ele>1670</ele>
        <time>2020-03-24T13:28:13.540Z</time>
      </trkpt>
      <trkpt lat="44.0753" lon="6.60789">
        <ele>1671</ele>
        <time>2020-03-24T13:28:14.540Z</time>
      </trkpt>
      <trkpt lat="44.07518" lon="6.60776">
        <ele>1674</ele>
        <time>2020-03-24T13:28:15.540Z</time>
      </trkpt>
      <trkpt lat="44.07512" lon="6.60763">
        <ele>1676</ele>
        <time>2020-03-24T13:28:16.540Z</time>
      </trkpt>
      <trkpt lat="44.07506" lon="6.6075">
        <ele>1679</ele>
        <time>2020-03-24T13:28:17.540Z</time>
      </trkpt>
      <trkpt lat="44.07499" lon="6.60742">
        <ele>1679</ele>
        <time>2020-03-24T13:28:18.540Z</time>
      </trkpt>
      <trkpt lat="44.07493" lon="6.60733">
        <ele>1679</ele>
        <time>2020-03-24T13:28:19.540Z</time>
      </trkpt>
      <trkpt lat="44.07482" lon="6.60724">
        <ele>1680</ele>
        <time>2020-03-24T13:28:20.540Z</time>
      </trkpt>
      <trkpt lat="44.07474" lon="6.60716">
        <ele>1680</ele>
        <time>2020-03-24T13:28:21.540Z</time>
      </trkpt>
      <trkpt lat="44.07464" lon="6.60701">
        <ele>1680</ele>
        <time>2020-03-24T13:28:22.540Z</time>
      </trkpt>
      <trkpt lat="44.07467" lon="6.6069">
        <ele>1680</ele>
        <time>2020-03-24T13:28:23.540Z</time>
      </trkpt>
      <trkpt lat="44.07476" lon="6.6068">
        <ele>1681</ele>
        <time>2020-03-24T13:28:24.540Z</time>
      </trkpt>
      <trkpt lat="44.07487" lon="6.60676">
        <ele>1681</ele>
        <time>2020-03-24T13:28:25.540Z</time>
      </trkpt>
      <trkpt lat="44.075" lon="6.6067">
        <ele>1681</ele>
        <time>2020-03-24T13:28:26.540Z</time>
      </trkpt>
      <trkpt lat="44.07519" lon="6.60655">
        <ele>1681</ele>
        <time>2020-03-24T13:28:27.540Z</time>
      </trkpt>
      <trkpt lat="44.0753" lon="6.6064">
        <ele>1681</ele>
        <time>2020-03-24T13:28:28.540Z</time>
      </trkpt>
      <trkpt lat="44.07537" lon="6.60629">
        <ele>1681</ele>
        <time>2020-03-24T13:28:29.540Z</time>
      </trkpt>
      <trkpt lat="44.07549" lon="6.60608">
        <ele>1681</ele>
        <time>2020-03-24T13:28:30.540Z</time>
      </trkpt>
      <trkpt lat="44.07563" lon="6.60582">
        <ele>1681</ele>
        <time>2020-03-24T13:28:31.540Z</time>
      </trkpt>
      <trkpt lat="44.07581" lon="6.60546">
        <ele>1681</ele>
        <time>2020-03-24T13:28:32.540Z</time>
      </trkpt>
      <trkpt lat="44.07594" lon="6.60516">
        <ele>1681</ele>
        <time>2020-03-24T13:28:33.540Z</time>
      </trkpt>
      <trkpt lat="44.07608" lon="6.605">
        <ele>1681</ele>
        <time>2020-03-24T13:28:34.540Z</time>
      </trkpt>
      <trkpt lat="44.07641" lon="6.60465">
        <ele>1681</ele>
        <time>2020-03-24T13:28:35.540Z</time>
      </trkpt>
      <trkpt lat="44.07655" lon="6.60446">
        <ele>1682</ele>
        <time>2020-03-24T13:28:36.540Z</time>
      </trkpt>
      <trkpt lat="44.07676" lon="6.60418">
        <ele>1682</ele>
        <time>2020-03-24T13:28:37.540Z</time>
      </trkpt>
      <trkpt lat="44.07694" lon="6.60406">
        <ele>1683</ele>
        <time>2020-03-24T13:28:38.540Z</time>
      </trkpt>
      <trkpt lat="44.07708" lon="6.6039">
        <ele>1684</ele>
        <time>2020-03-24T13:28:39.540Z</time>
      </trkpt>
      <trkpt lat="44.07712" lon="6.60384">
        <ele>1684</ele>
        <time>2020-03-24T13:28:40.540Z</time>
      </trkpt>
      <trkpt lat="44.07731" lon="6.60364">
        <ele>1685</ele>
        <time>2020-03-24T13:28:41.540Z</time>
      </trkpt>
      <trkpt lat="44.07767" lon="6.60345">
        <ele>1686</ele>
        <time>2020-03-24T13:28:42.540Z</time>
      </trkpt>
      <trkpt lat="44.07808" lon="6.60332">
        <ele>1687</ele>
        <time>2020-03-24T13:28:43.540Z</time>
      </trkpt>
      <trkpt lat="44.07836" lon="6.60328">
        <ele>1688</ele>
        <time>2020-03-24T13:28:44.540Z</time>
      </trkpt>
      <trkpt lat="44.07841" lon="6.60327">
        <ele>1688</ele>
        <time>2020-03-24T13:28:45.540Z</time>
      </trkpt>
      <trkpt lat="44.07872" lon="6.60318">
        <ele>1689</ele>
        <time>2020-03-24T13:28:46.540Z</time>
      </trkpt>
      <trkpt lat="44.07894" lon="6.60307">
        <ele>1689</ele>
        <time>2020-03-24T13:28:47.540Z</time>
      </trkpt>
      <trkpt lat="44.07918" lon="6.60297">
        <ele>1689</ele>
        <time>2020-03-24T13:28:48.540Z</time>
      </trkpt>
      <trkpt lat="44.07933" lon="6.60296">
        <ele>1690</ele>
        <time>2020-03-24T13:28:49.540Z</time>
      </trkpt>
      <trkpt lat="44.07951" lon="6.60293">
        <ele>1692</ele>
        <time>2020-03-24T13:28:50.540Z</time>
      </trkpt>
      <trkpt lat="44.07964" lon="6.60291">
        <ele>1693</ele>
        <time>2020-03-24T13:28:51.540Z</time>
      </trkpt>
      <trkpt lat="44.0798" lon="6.60287">
        <ele>1694</ele>
        <time>2020-03-24T13:28:52.540Z</time>
      </trkpt>
      <trkpt lat="44.07992" lon="6.60285">
        <ele>1696</ele>
        <time>2020-03-24T13:28:53.540Z</time>
      </trkpt>
      <trkpt lat="44.08006" lon="6.60288">
        <ele>1697</ele>
        <time>2020-03-24T13:28:54.540Z</time>
      </trkpt>
      <trkpt lat="44.08026" lon="6.60288">
        <ele>1699</ele>
        <time>2020-03-24T13:28:55.540Z</time>
      </trkpt>
      <trkpt lat="44.08037" lon="6.60281">
        <ele>1699</ele>
        <time>2020-03-24T13:28:56.540Z</time>
      </trkpt>
      <trkpt lat="44.08054" lon="6.60273">
        <ele>1700</ele>
        <time>2020-03-24T13:28:57.540Z</time>
      </trkpt>
      <trkpt lat="44.08068" lon="6.60266">
        <ele>1701</ele>
        <time>2020-03-24T13:28:58.540Z</time>
      </trkpt>
      <trkpt lat="44.08081" lon="6.60252">
        <ele>1702</ele>
        <time>2020-03-24T13:28:59.540Z</time>
      </trkpt>
      <trkpt lat="44.08097" lon="6.60236">
        <ele>1704</ele>
        <time>2020-03-24T13:29:00.540Z</time>
      </trkpt>
      <trkpt lat="44.08114" lon="6.60221">
        <ele>1706</ele>
        <time>2020-03-24T13:29:01.540Z</time>
      </trkpt>
      <trkpt lat="44.08129" lon="6.60211">
        <ele>1708</ele>
        <time>2020-03-24T13:29:02.540Z</time>
      </trkpt>
      <trkpt lat="44.08144" lon="6.60206">
        <ele>1710</ele>
        <time>2020-03-24T13:29:03.540Z</time>
      </trkpt>
      <trkpt lat="44.08159" lon="6.602">
        <ele>1711</ele>
        <time>2020-03-24T13:29:04.540Z</time>
      </trkpt>
      <trkpt lat="44.08174" lon="6.6019">
        <ele>1713</ele>
        <time>2020-03-24T13:29:05.540Z</time>
      </trkpt>
      <trkpt lat="44.08188" lon="6.60184">
        <ele>1714</ele>
        <time>2020-03-24T13:29:06.540Z</time>
      </trkpt>
      <trkpt lat="44.08202" lon="6.60181">
        <ele>1715</ele>
        <time>2020-03-24T13:29:07.540Z</time>
      </trkpt>
      <trkpt lat="44.08213" lon="6.60176">
        <ele>1716</ele>
        <time>2020-03-24T13:29:08.540Z</time>
      </trkpt>
      <trkpt lat="44.08225" lon="6.6017">
        <ele>1717</ele>
        <time>2020-03-24T13:29:09.540Z</time>
      </trkpt>
      <trkpt lat="44.08238" lon="6.60165">
        <ele>1718</ele>
        <time>2020-03-24T13:29:10.540Z</time>
      </trkpt>
      <trkpt lat="44.08251" lon="6.60156">
        <ele>1719</ele>
        <time>2020-03-24T13:29:11.540Z</time>
      </trkpt>
      <trkpt lat="44.08266" lon="6.60141">
        <ele>1721</ele>
        <time>2020-03-24T13:29:12.540Z</time>
      </trkpt>
      <trkpt lat="44.08282" lon="6.60123">
        <ele>1722</ele>
        <time>2020-03-24T13:29:13.540Z</time>
      </trkpt>
      <trkpt lat="44.08295" lon="6.60111">
        <ele>1724</ele>
        <time>2020-03-24T13:29:14.540Z</time>
      </trkpt>
      <trkpt lat="44.08303" lon="6.60101">
        <ele>1725</ele>
        <time>2020-03-24T13:29:15.540Z</time>
      </trkpt>
      <trkpt lat="44.08317" lon="6.60085">
        <ele>1726</ele>
        <time>2020-03-24T13:29:16.540Z</time>
      </trkpt>
      <trkpt lat="44.08328" lon="6.60073">
        <ele>1727</ele>
        <time>2020-03-24T13:29:17.540Z</time>
      </trkpt>
      <trkpt lat="44.08342" lon="6.6007">
        <ele>1728</ele>
        <time>2020-03-24T13:29:18.540Z</time>
      </trkpt>
      <trkpt lat="44.08356" lon="6.60063">
        <ele>1730</ele>
        <time>2020-03-24T13:29:19.540Z</time>
      </trkpt>
      <trkpt lat="44.08368" lon="6.60058">
        <ele>1731</ele>
        <time>2020-03-24T13:29:20.540Z</time>
      </trkpt>
      <trkpt lat="44.0839" lon="6.6005">
        <ele>1733</ele>
        <time>2020-03-24T13:29:21.540Z</time>
      </trkpt>
      <trkpt lat="44.08404" lon="6.60051">
        <ele>1734</ele>
        <time>2020-03-24T13:29:22.540Z</time>
      </trkpt>
      <trkpt lat="44.08419" lon="6.60053">
        <ele>1735</ele>
        <time>2020-03-24T13:29:23.540Z</time>
      </trkpt>
      <trkpt lat="44.08434" lon="6.60052">
        <ele>1737</ele>
        <time>2020-03-24T13:29:24.540Z</time>
      </trkpt>
      <trkpt lat="44.08452" lon="6.60051">
        <ele>1738</ele>
        <time>2020-03-24T13:29:25.540Z</time>
      </trkpt>
      <trkpt lat="44.08469" lon="6.60048">
        <ele>1740</ele>
        <time>2020-03-24T13:29:26.540Z</time>
      </trkpt>
      <trkpt lat="44.08488" lon="6.60048">
        <ele>1742</ele>
        <time>2020-03-24T13:29:27.540Z</time>
      </trkpt>
      <trkpt lat="44.08506" lon="6.60048">
        <ele>1743</ele>
        <time>2020-03-24T13:29:28.540Z</time>
      </trkpt>
      <trkpt lat="44.0852" lon="6.60045">
        <ele>1745</ele>
        <time>2020-03-24T13:29:29.540Z</time>
      </trkpt>
      <trkpt lat="44.08538" lon="6.60036">
        <ele>1748</ele>
        <time>2020-03-24T13:29:30.540Z</time>
      </trkpt>
      <trkpt lat="44.08554" lon="6.60027">
        <ele>1750</ele>
        <time>2020-03-24T13:29:31.540Z</time>
      </trkpt>
      <trkpt lat="44.08569" lon="6.60019">
        <ele>1753</ele>
        <time>2020-03-24T13:29:32.540Z</time>
      </trkpt>
      <trkpt lat="44.08585" lon="6.60018">
        <ele>1755</ele>
        <time>2020-03-24T13:29:33.540Z</time>
      </trkpt>
      <trkpt lat="44.08602" lon="6.6002">
        <ele>1756</ele>
        <time>2020-03-24T13:29:34.540Z</time>
      </trkpt>
      <trkpt lat="44.08617" lon="6.60024">
        <ele>1757</ele>
        <time>2020-03-24T13:29:35.540Z</time>
      </trkpt>
      <trkpt lat="44.08629" lon="6.60031">
        <ele>1757</ele>
        <time>2020-03-24T13:29:36.540Z</time>
      </trkpt>
      <trkpt lat="44.08641" lon="6.6004">
        <ele>1758</ele>
        <time>2020-03-24T13:29:37.540Z</time>
      </trkpt>
      <trkpt lat="44.08652" lon="6.6005">
        <ele>1759</ele>
        <time>2020-03-24T13:29:38.540Z</time>
      </trkpt>
      <trkpt lat="44.08665" lon="6.60059">
        <ele>1761</ele>
        <time>2020-03-24T13:29:39.540Z</time>
      </trkpt>
      <trkpt lat="44.08676" lon="6.60072">
        <ele>1761</ele>
        <time>2020-03-24T13:29:40.540Z</time>
      </trkpt>
      <trkpt lat="44.08684" lon="6.60091">
        <ele>1761</ele>
        <time>2020-03-24T13:29:41.540Z</time>
      </trkpt>
      <trkpt lat="44.08692" lon="6.60112">
        <ele>1761</ele>
        <time>2020-03-24T13:29:42.540Z</time>
      </trkpt>
      <trkpt lat="44.08696" lon="6.60125">
        <ele>1761</ele>
        <time>2020-03-24T13:29:43.540Z</time>
      </trkpt>
      <trkpt lat="44.08712" lon="6.60134">
        <ele>1762</ele>
        <time>2020-03-24T13:29:44.540Z</time>
      </trkpt>
      <trkpt lat="44.0873" lon="6.60138">
        <ele>1763</ele>
        <time>2020-03-24T13:29:45.540Z</time>
      </trkpt>
      <trkpt lat="44.08751" lon="6.60137">
        <ele>1764</ele>
        <time>2020-03-24T13:29:46.540Z</time>
      </trkpt>
      <trkpt lat="44.08772" lon="6.60138">
        <ele>1761</ele>
        <time>2020-03-24T13:29:47.540Z</time>
      </trkpt>
      <trkpt lat="44.08789" lon="6.60138">
        <ele>1759</ele>
        <time>2020-03-24T13:29:48.540Z</time>
      </trkpt>
      <trkpt lat="44.08804" lon="6.60148">
        <ele>1757</ele>
        <time>2020-03-24T13:29:49.540Z</time>
      </trkpt>
      <trkpt lat="44.08807" lon="6.60152">
        <ele>1757</ele>
        <time>2020-03-24T13:29:50.540Z</time>
      </trkpt>
      <trkpt lat="44.0881" lon="6.60162">
        <ele>1756</ele>
        <time>2020-03-24T13:29:51.540Z</time>
      </trkpt>
      <trkpt lat="44.08819" lon="6.60164">
        <ele>1755</ele>
        <time>2020-03-24T13:29:52.540Z</time>
      </trkpt>
      <trkpt lat="44.0882" lon="6.60157">
        <ele>1755</ele>
        <time>2020-03-24T13:29:53.540Z</time>
      </trkpt>
      <trkpt lat="44.08819" lon="6.60147">
        <ele>1755</ele>
        <time>2020-03-24T13:29:54.540Z</time>
      </trkpt>
      <trkpt lat="44.08822" lon="6.60123">
        <ele>1754</ele>
        <time>2020-03-24T13:29:55.540Z</time>
      </trkpt>
      <trkpt lat="44.08824" lon="6.60111">
        <ele>1754</ele>
        <time>2020-03-24T13:29:56.540Z</time>
      </trkpt>
      <trkpt lat="44.08825" lon="6.601">
        <ele>1754</ele>
        <time>2020-03-24T13:29:57.540Z</time>
      </trkpt>
      <trkpt lat="44.08833" lon="6.60098">
        <ele>1753</ele>
        <time>2020-03-24T13:29:58.540Z</time>
      </trkpt>
      <trkpt lat="44.08835" lon="6.60109">
        <ele>1752</ele>
        <time>2020-03-24T13:29:59.540Z</time>
      </trkpt>
      <trkpt lat="44.08839" lon="6.60143">
        <ele>1751</ele>
        <time>2020-03-24T13:30:00.540Z</time>
      </trkpt>
      <trkpt lat="44.08849" lon="6.60171">
        <ele>1747</ele>
        <time>2020-03-24T13:30:01.540Z</time>
      </trkpt>
      <trkpt lat="44.0886" lon="6.60193">
        <ele>1744</ele>
        <time>2020-03-24T13:30:02.540Z</time>
      </trkpt>
      <trkpt lat="44.0889" lon="6.60225">
        <ele>1737</ele>
        <time>2020-03-24T13:30:03.540Z</time>
      </trkpt>
      <trkpt lat="44.08896" lon="6.60231">
        <ele>1735</ele>
        <time>2020-03-24T13:30:04.540Z</time>
      </trkpt>
      <trkpt lat="44.08934" lon="6.60259">
        <ele>1728</ele>
        <time>2020-03-24T13:30:05.540Z</time>
      </trkpt>
      <trkpt lat="44.08943" lon="6.60263">
        <ele>1727</ele>
        <time>2020-03-24T13:30:06.540Z</time>
      </trkpt>
      <trkpt lat="44.08968" lon="6.6027">
        <ele>1723</ele>
        <time>2020-03-24T13:30:07.540Z</time>
      </trkpt>
      <trkpt lat="44.09002" lon="6.60271">
        <ele>1716</ele>
        <time>2020-03-24T13:30:08.540Z</time>
      </trkpt>
      <trkpt lat="44.09018" lon="6.60269">
        <ele>1715</ele>
        <time>2020-03-24T13:30:09.540Z</time>
      </trkpt>
      <trkpt lat="44.09049" lon="6.6028">
        <ele>1718</ele>
        <time>2020-03-24T13:30:10.540Z</time>
      </trkpt>
      <trkpt lat="44.09056" lon="6.60286">
        <ele>1720</ele>
        <time>2020-03-24T13:30:11.540Z</time>
      </trkpt>
      <trkpt lat="44.09065" lon="6.60295">
        <ele>1723</ele>
        <time>2020-03-24T13:30:12.540Z</time>
      </trkpt>
      <trkpt lat="44.09068" lon="6.60284">
        <ele>1719</ele>
        <time>2020-03-24T13:30:13.540Z</time>
      </trkpt>
      <trkpt lat="44.09061" lon="6.60278">
        <ele>1717</ele>
        <time>2020-03-24T13:30:14.540Z</time>
      </trkpt>
      <trkpt lat="44.09054" lon="6.60272">
        <ele>1715</ele>
        <time>2020-03-24T13:30:15.540Z</time>
      </trkpt>
      <trkpt lat="44.09045" lon="6.60256">
        <ele>1710</ele>
        <time>2020-03-24T13:30:16.540Z</time>
      </trkpt>
      <trkpt lat="44.09037" lon="6.60244">
        <ele>1706</ele>
        <time>2020-03-24T13:30:17.540Z</time>
      </trkpt>
      <trkpt lat="44.09011" lon="6.60224">
        <ele>1700</ele>
        <time>2020-03-24T13:30:18.540Z</time>
      </trkpt>
      <trkpt lat="44.08997" lon="6.60214">
        <ele>1698</ele>
        <time>2020-03-24T13:30:19.540Z</time>
      </trkpt>
      <trkpt lat="44.08983" lon="6.60205">
        <ele>1700</ele>
        <time>2020-03-24T13:30:20.540Z</time>
      </trkpt>
      <trkpt lat="44.08969" lon="6.60183">
        <ele>1699</ele>
        <time>2020-03-24T13:30:21.540Z</time>
      </trkpt>
      <trkpt lat="44.08957" lon="6.6014">
        <ele>1698</ele>
        <time>2020-03-24T13:30:22.540Z</time>
      </trkpt>
      <trkpt lat="44.08955" lon="6.60104">
        <ele>1696</ele>
        <time>2020-03-24T13:30:23.540Z</time>
      </trkpt>
      <trkpt lat="44.08959" lon="6.60061">
        <ele>1692</ele>
        <time>2020-03-24T13:30:24.540Z</time>
      </trkpt>
      <trkpt lat="44.08963" lon="6.60017">
        <ele>1691</ele>
        <time>2020-03-24T13:30:25.540Z</time>
      </trkpt>
      <trkpt lat="44.08967" lon="6.59989">
        <ele>1688</ele>
        <time>2020-03-24T13:30:26.540Z</time>
      </trkpt>
      <trkpt lat="44.0897" lon="6.59959">
        <ele>1686</ele>
        <time>2020-03-24T13:30:27.540Z</time>
      </trkpt>
      <trkpt lat="44.08968" lon="6.5993">
        <ele>1686</ele>
        <time>2020-03-24T13:30:28.540Z</time>
      </trkpt>
      <trkpt lat="44.0897" lon="6.59884">
        <ele>1683</ele>
        <time>2020-03-24T13:30:29.540Z</time>
      </trkpt>
      <trkpt lat="44.08982" lon="6.59841">
        <ele>1680</ele>
        <time>2020-03-24T13:30:30.540Z</time>
      </trkpt>
      <trkpt lat="44.09" lon="6.5979">
        <ele>1675</ele>
        <time>2020-03-24T13:30:31.540Z</time>
      </trkpt>
      <trkpt lat="44.09004" lon="6.59777">
        <ele>1673</ele>
        <time>2020-03-24T13:30:32.540Z</time>
      </trkpt>
      <trkpt lat="44.0901" lon="6.59752">
        <ele>1670</ele>
        <time>2020-03-24T13:30:33.540Z</time>
      </trkpt>
      <trkpt lat="44.09013" lon="6.5972">
        <ele>1663</ele>
        <time>2020-03-24T13:30:34.540Z</time>
      </trkpt>
      <trkpt lat="44.09007" lon="6.5971">
        <ele>1663</ele>
        <time>2020-03-24T13:30:35.540Z</time>
      </trkpt>
      <trkpt lat="44.08994" lon="6.59716">
        <ele>1664</ele>
        <time>2020-03-24T13:30:36.540Z</time>
      </trkpt>
      <trkpt lat="44.08994" lon="6.59717">
        <ele>1664</ele>
        <time>2020-03-24T13:30:37.540Z</time>
      </trkpt>
      <trkpt lat="44.08992" lon="6.5972">
        <ele>1665</ele>
        <time>2020-03-24T13:30:38.540Z</time>
      </trkpt>
      <trkpt lat="44.08986" lon="6.59724">
        <ele>1664</ele>
        <time>2020-03-24T13:30:39.540Z</time>
      </trkpt>
      <trkpt lat="44.08977" lon="6.59731">
        <ele>1664</ele>
        <time>2020-03-24T13:30:40.540Z</time>
      </trkpt>
      <trkpt lat="44.08943" lon="6.59758">
        <ele>1664</ele>
        <time>2020-03-24T13:30:41.540Z</time>
      </trkpt>
      <trkpt lat="44.08932" lon="6.59766">
        <ele>1665</ele>
        <time>2020-03-24T13:30:42.540Z</time>
      </trkpt>
      <trkpt lat="44.08908" lon="6.59776">
        <ele>1666</ele>
        <time>2020-03-24T13:30:43.540Z</time>
      </trkpt>
      <trkpt lat="44.08876" lon="6.59764">
        <ele>1662</ele>
        <time>2020-03-24T13:30:44.540Z</time>
      </trkpt>
      <trkpt lat="44.08846" lon="6.59751">
        <ele>1657</ele>
        <time>2020-03-24T13:30:45.540Z</time>
      </trkpt>
      <trkpt lat="44.0882" lon="6.59753">
        <ele>1659</ele>
        <time>2020-03-24T13:30:46.540Z</time>
      </trkpt>
      <trkpt lat="44.08788" lon="6.59737">
        <ele>1658</ele>
        <time>2020-03-24T13:30:47.540Z</time>
      </trkpt>
      <trkpt lat="44.08775" lon="6.5973">
        <ele>1657</ele>
        <time>2020-03-24T13:30:48.540Z</time>
      </trkpt>
      <trkpt lat="44.08761" lon="6.59725">
        <ele>1658</ele>
        <time>2020-03-24T13:30:49.540Z</time>
      </trkpt>
      <trkpt lat="44.08748" lon="6.59714">
        <ele>1656</ele>
        <time>2020-03-24T13:30:50.540Z</time>
      </trkpt>
      <trkpt lat="44.08732" lon="6.59691">
        <ele>1654</ele>
        <time>2020-03-24T13:30:51.540Z</time>
      </trkpt>
      <trkpt lat="44.08696" lon="6.59656">
        <ele>1656</ele>
        <time>2020-03-24T13:30:52.540Z</time>
      </trkpt>
      <trkpt lat="44.08684" lon="6.59648">
        <ele>1658</ele>
        <time>2020-03-24T13:30:53.540Z</time>
      </trkpt>
      <trkpt lat="44.08671" lon="6.59639">
        <ele>1661</ele>
        <time>2020-03-24T13:30:54.540Z</time>
      </trkpt>
      <trkpt lat="44.08661" lon="6.59618">
        <ele>1663</ele>
        <time>2020-03-24T13:30:55.540Z</time>
      </trkpt>
      <trkpt lat="44.08661" lon="6.5961">
        <ele>1662</ele>
        <time>2020-03-24T13:30:56.540Z</time>
      </trkpt>
      <trkpt lat="44.08669" lon="6.59572">
        <ele>1654</ele>
        <time>2020-03-24T13:30:57.540Z</time>
      </trkpt>
      <trkpt lat="44.08663" lon="6.59537">
        <ele>1651</ele>
        <time>2020-03-24T13:30:58.540Z</time>
      </trkpt>
      <trkpt lat="44.08645" lon="6.59521">
        <ele>1655</ele>
        <time>2020-03-24T13:30:59.540Z</time>
      </trkpt>
      <trkpt lat="44.08615" lon="6.59494">
        <ele>1665</ele>
        <time>2020-03-24T13:31:00.540Z</time>
      </trkpt>
      <trkpt lat="44.08615" lon="6.59464">
        <ele>1668</ele>
        <time>2020-03-24T13:31:01.540Z</time>
      </trkpt>
      <trkpt lat="44.08626" lon="6.59426">
        <ele>1666</ele>
        <time>2020-03-24T13:31:02.540Z</time>
      </trkpt>
      <trkpt lat="44.08631" lon="6.59406">
        <ele>1667</ele>
        <time>2020-03-24T13:31:03.540Z</time>
      </trkpt>
      <trkpt lat="44.08638" lon="6.59376">
        <ele>1673</ele>
        <time>2020-03-24T13:31:04.540Z</time>
      </trkpt>
      <trkpt lat="44.08659" lon="6.59344">
        <ele>1674</ele>
        <time>2020-03-24T13:31:05.540Z</time>
      </trkpt>
      <trkpt lat="44.08666" lon="6.5934">
        <ele>1673</ele>
        <time>2020-03-24T13:31:06.540Z</time>
      </trkpt>
      <trkpt lat="44.08702" lon="6.59315">
        <ele>1666</ele>
        <time>2020-03-24T13:31:07.540Z</time>
      </trkpt>
      <trkpt lat="44.08723" lon="6.59294">
        <ele>1662</ele>
        <time>2020-03-24T13:31:08.540Z</time>
      </trkpt>
      <trkpt lat="44.08737" lon="6.59269">
        <ele>1661</ele>
        <time>2020-03-24T13:31:09.540Z</time>
      </trkpt>
      <trkpt lat="44.08747" lon="6.59236">
        <ele>1662</ele>
        <time>2020-03-24T13:31:10.540Z</time>
      </trkpt>
      <trkpt lat="44.08746" lon="6.5921">
        <ele>1665</ele>
        <time>2020-03-24T13:31:11.540Z</time>
      </trkpt>
      <trkpt lat="44.08744" lon="6.59186">
        <ele>1668</ele>
        <time>2020-03-24T13:31:12.540Z</time>
      </trkpt>
      <trkpt lat="44.08753" lon="6.59154">
        <ele>1666</ele>
        <time>2020-03-24T13:31:13.540Z</time>
      </trkpt>
      <trkpt lat="44.08761" lon="6.59134">
        <ele>1662</ele>
        <time>2020-03-24T13:31:14.540Z</time>
      </trkpt>
      <trkpt lat="44.08768" lon="6.59102">
        <ele>1657</ele>
        <time>2020-03-24T13:31:15.540Z</time>
      </trkpt>
      <trkpt lat="44.08768" lon="6.59097">
        <ele>1656</ele>
        <time>2020-03-24T13:31:16.540Z</time>
      </trkpt>
      <trkpt lat="44.08759" lon="6.59069">
        <ele>1656</ele>
        <time>2020-03-24T13:31:17.540Z</time>
      </trkpt>
      <trkpt lat="44.08734" lon="6.59038">
        <ele>1660</ele>
        <time>2020-03-24T13:31:18.540Z</time>
      </trkpt>
      <trkpt lat="44.08718" lon="6.59018">
        <ele>1661</ele>
        <time>2020-03-24T13:31:19.540Z</time>
      </trkpt>
      <trkpt lat="44.08706" lon="6.58993">
        <ele>1661</ele>
        <time>2020-03-24T13:31:20.540Z</time>
      </trkpt>
      <trkpt lat="44.08702" lon="6.58948">
        <ele>1660</ele>
        <time>2020-03-24T13:31:21.540Z</time>
      </trkpt>
      <trkpt lat="44.08702" lon="6.58943">
        <ele>1660</ele>
        <time>2020-03-24T13:31:22.540Z</time>
      </trkpt>
      <trkpt lat="44.08693" lon="6.58932">
        <ele>1660</ele>
        <time>2020-03-24T13:31:23.540Z</time>
      </trkpt>
      <trkpt lat="44.08678" lon="6.58936">
        <ele>1660</ele>
        <time>2020-03-24T13:31:24.540Z</time>
      </trkpt>
      <trkpt lat="44.08668" lon="6.58942">
        <ele>1660</ele>
        <time>2020-03-24T13:31:25.540Z</time>
      </trkpt>
      <trkpt lat="44.08632" lon="6.58959">
        <ele>1661</ele>
        <time>2020-03-24T13:31:26.540Z</time>
      </trkpt>
      <trkpt lat="44.08614" lon="6.5897">
        <ele>1661</ele>
        <time>2020-03-24T13:31:27.540Z</time>
      </trkpt>
      <trkpt lat="44.08575" lon="6.58979">
        <ele>1662</ele>
        <time>2020-03-24T13:31:28.540Z</time>
      </trkpt>
      <trkpt lat="44.08569" lon="6.5898">
        <ele>1662</ele>
        <time>2020-03-24T13:31:29.540Z</time>
      </trkpt>
      <trkpt lat="44.08549" lon="6.58972">
        <ele>1664</ele>
        <time>2020-03-24T13:31:30.540Z</time>
      </trkpt>
      <trkpt lat="44.08539" lon="6.58958">
        <ele>1663</ele>
        <time>2020-03-24T13:31:31.540Z</time>
      </trkpt>
      <trkpt lat="44.08521" lon="6.58934">
        <ele>1662</ele>
        <time>2020-03-24T13:31:32.540Z</time>
      </trkpt>
      <trkpt lat="44.08492" lon="6.58913">
        <ele>1662</ele>
        <time>2020-03-24T13:31:33.540Z</time>
      </trkpt>
      <trkpt lat="44.08463" lon="6.58906">
        <ele>1662</ele>
        <time>2020-03-24T13:31:34.540Z</time>
      </trkpt>
      <trkpt lat="44.08423" lon="6.58905">
        <ele>1663</ele>
        <time>2020-03-24T13:31:35.540Z</time>
      </trkpt>
      <trkpt lat="44.08418" lon="6.58904">
        <ele>1663</ele>
        <time>2020-03-24T13:31:36.540Z</time>
      </trkpt>
      <trkpt lat="44.08397" lon="6.58897">
        <ele>1664</ele>
        <time>2020-03-24T13:31:37.540Z</time>
      </trkpt>
      <trkpt lat="44.08386" lon="6.58892">
        <ele>1664</ele>
        <time>2020-03-24T13:31:38.540Z</time>
      </trkpt>
      <trkpt lat="44.08371" lon="6.58886">
        <ele>1664</ele>
        <time>2020-03-24T13:31:39.540Z</time>
      </trkpt>
      <trkpt lat="44.08349" lon="6.58881">
        <ele>1664</ele>
        <time>2020-03-24T13:31:40.540Z</time>
      </trkpt>
      <trkpt lat="44.08327" lon="6.5888">
        <ele>1665</ele>
        <time>2020-03-24T13:31:41.540Z</time>
      </trkpt>
      <trkpt lat="44.08283" lon="6.58895">
        <ele>1664</ele>
        <time>2020-03-24T13:31:42.540Z</time>
      </trkpt>
      <trkpt lat="44.08248" lon="6.58914">
        <ele>1665</ele>
        <time>2020-03-24T13:31:43.540Z</time>
      </trkpt>
      <trkpt lat="44.08238" lon="6.58921">
        <ele>1664</ele>
        <time>2020-03-24T13:31:44.540Z</time>
      </trkpt>
      <trkpt lat="44.08222" lon="6.58933">
        <ele>1664</ele>
        <time>2020-03-24T13:31:45.540Z</time>
      </trkpt>
      <trkpt lat="44.08194" lon="6.58963">
        <ele>1664</ele>
        <time>2020-03-24T13:31:46.540Z</time>
      </trkpt>
      <trkpt lat="44.08177" lon="6.59013">
        <ele>1664</ele>
        <time>2020-03-24T13:31:47.540Z</time>
      </trkpt>
      <trkpt lat="44.08179" lon="6.59043">
        <ele>1664</ele>
        <time>2020-03-24T13:31:48.540Z</time>
      </trkpt>
      <trkpt lat="44.08183" lon="6.59064">
        <ele>1665</ele>
        <time>2020-03-24T13:31:49.540Z</time>
      </trkpt>
      <trkpt lat="44.082" lon="6.59106">
        <ele>1669</ele>
        <time>2020-03-24T13:31:50.540Z</time>
      </trkpt>
      <trkpt lat="44.08208" lon="6.59132">
        <ele>1671</ele>
        <time>2020-03-24T13:31:51.540Z</time>
      </trkpt>
      <trkpt lat="44.08198" lon="6.59154">
        <ele>1665</ele>
        <time>2020-03-24T13:31:52.540Z</time>
      </trkpt>
      <trkpt lat="44.08182" lon="6.59175">
        <ele>1656</ele>
        <time>2020-03-24T13:31:53.540Z</time>
      </trkpt>
      <trkpt lat="44.0817" lon="6.59203">
        <ele>1651</ele>
        <time>2020-03-24T13:31:54.540Z</time>
      </trkpt>
      <trkpt lat="44.08171" lon="6.59238">
        <ele>1653</ele>
        <time>2020-03-24T13:31:55.540Z</time>
      </trkpt>
      <trkpt lat="44.0816" lon="6.59273">
        <ele>1651</ele>
        <time>2020-03-24T13:31:56.540Z</time>
      </trkpt>
      <trkpt lat="44.08154" lon="6.59283">
        <ele>1649</ele>
        <time>2020-03-24T13:31:57.540Z</time>
      </trkpt>
      <trkpt lat="44.08136" lon="6.59311">
        <ele>1643</ele>
        <time>2020-03-24T13:31:58.540Z</time>
      </trkpt>
      <trkpt lat="44.08126" lon="6.59331">
        <ele>1641</ele>
        <time>2020-03-24T13:31:59.540Z</time>
      </trkpt>
      <trkpt lat="44.08125" lon="6.59333">
        <ele>1641</ele>
        <time>2020-03-24T13:32:00.540Z</time>
      </trkpt>
      <trkpt lat="44.08125" lon="6.59334">
        <ele>1641</ele>
        <time>2020-03-24T13:32:01.540Z</time>
      </trkpt>
      <trkpt lat="44.08122" lon="6.59334">
        <ele>1640</ele>
        <time>2020-03-24T13:32:02.540Z</time>
      </trkpt>
      <trkpt lat="44.08118" lon="6.59343">
        <ele>1638</ele>
        <time>2020-03-24T13:32:03.540Z</time>
      </trkpt>
      <trkpt lat="44.08115" lon="6.59352">
        <ele>1637</ele>
        <time>2020-03-24T13:32:04.540Z</time>
      </trkpt>
      <trkpt lat="44.08109" lon="6.59371">
        <ele>1635</ele>
        <time>2020-03-24T13:32:05.540Z</time>
      </trkpt>
      <trkpt lat="44.08111" lon="6.59384">
        <ele>1636</ele>
        <time>2020-03-24T13:32:06.540Z</time>
      </trkpt>
      <trkpt lat="44.08111" lon="6.59384">
        <ele>1636</ele>
        <time>2020-03-24T13:32:07.540Z</time>
      </trkpt>
      <trkpt lat="44.08111" lon="6.59386">
        <ele>1636</ele>
        <time>2020-03-24T13:32:08.540Z</time>
      </trkpt>
      <trkpt lat="44.0811" lon="6.59397">
        <ele>1636</ele>
        <time>2020-03-24T13:32:09.540Z</time>
      </trkpt>
      <trkpt lat="44.0811" lon="6.59403">
        <ele>1637</ele>
        <time>2020-03-24T13:32:10.540Z</time>
      </trkpt>
      <trkpt lat="44.08113" lon="6.59413">
        <ele>1638</ele>
        <time>2020-03-24T13:32:11.540Z</time>
      </trkpt>
      <trkpt lat="44.08119" lon="6.59434">
        <ele>1638</ele>
        <time>2020-03-24T13:32:12.540Z</time>
      </trkpt>
      <trkpt lat="44.08123" lon="6.59453">
        <ele>1637</ele>
        <time>2020-03-24T13:32:13.540Z</time>
      </trkpt>
      <trkpt lat="44.08125" lon="6.59481">
        <ele>1633</ele>
        <time>2020-03-24T13:32:14.540Z</time>
      </trkpt>
      <trkpt lat="44.08124" lon="6.59506">
        <ele>1629</ele>
        <time>2020-03-24T13:32:15.540Z</time>
      </trkpt>
      <trkpt lat="44.08123" lon="6.59507">
        <ele>1628</ele>
        <time>2020-03-24T13:32:16.540Z</time>
      </trkpt>
      <trkpt lat="44.08114" lon="6.595">
        <ele>1624</ele>
        <time>2020-03-24T13:32:17.540Z</time>
      </trkpt>
      <trkpt lat="44.08108" lon="6.59495">
        <ele>1622</ele>
        <time>2020-03-24T13:32:18.540Z</time>
      </trkpt>
      <trkpt lat="44.081" lon="6.59498">
        <ele>1617</ele>
        <time>2020-03-24T13:32:19.540Z</time>
      </trkpt>
      <trkpt lat="44.08093" lon="6.59506">
        <ele>1612</ele>
        <time>2020-03-24T13:32:20.540Z</time>
      </trkpt>
      <trkpt lat="44.08087" lon="6.59505">
        <ele>1610</ele>
        <time>2020-03-24T13:32:21.540Z</time>
      </trkpt>
      <trkpt lat="44.0808" lon="6.59506">
        <ele>1606</ele>
        <time>2020-03-24T13:32:22.540Z</time>
      </trkpt>
      <trkpt lat="44.08074" lon="6.59517">
        <ele>1602</ele>
        <time>2020-03-24T13:32:23.540Z</time>
      </trkpt>
      <trkpt lat="44.08072" lon="6.59519">
        <ele>1601</ele>
        <time>2020-03-24T13:32:24.540Z</time>
      </trkpt>
      <trkpt lat="44.0806" lon="6.59511">
        <ele>1597</ele>
        <time>2020-03-24T13:32:25.540Z</time>
      </trkpt>
      <trkpt lat="44.08057" lon="6.59496">
        <ele>1597</ele>
        <time>2020-03-24T13:32:26.540Z</time>
      </trkpt>
      <trkpt lat="44.08052" lon="6.5949">
        <ele>1596</ele>
        <time>2020-03-24T13:32:27.540Z</time>
      </trkpt>
      <trkpt lat="44.08037" lon="6.59477">
        <ele>1592</ele>
        <time>2020-03-24T13:32:28.540Z</time>
      </trkpt>
      <trkpt lat="44.08022" lon="6.59463">
        <ele>1589</ele>
        <time>2020-03-24T13:32:29.540Z</time>
      </trkpt>
      <trkpt lat="44.08008" lon="6.59443">
        <ele>1587</ele>
        <time>2020-03-24T13:32:30.540Z</time>
      </trkpt>
      <trkpt lat="44.08006" lon="6.59441">
        <ele>1586</ele>
        <time>2020-03-24T13:32:31.540Z</time>
      </trkpt>
      <trkpt lat="44.07999" lon="6.59437">
        <ele>1584</ele>
        <time>2020-03-24T13:32:32.540Z</time>
      </trkpt>
      <trkpt lat="44.07996" lon="6.59435">
        <ele>1583</ele>
        <time>2020-03-24T13:32:33.540Z</time>
      </trkpt>
      <trkpt lat="44.07992" lon="6.59433">
        <ele>1583</ele>
        <time>2020-03-24T13:32:34.540Z</time>
      </trkpt>
      <trkpt lat="44.07987" lon="6.5943">
        <ele>1581</ele>
        <time>2020-03-24T13:32:35.540Z</time>
      </trkpt>
      <trkpt lat="44.07984" lon="6.59428">
        <ele>1580</ele>
        <time>2020-03-24T13:32:36.540Z</time>
      </trkpt>
      <trkpt lat="44.07981" lon="6.59424">
        <ele>1580</ele>
        <time>2020-03-24T13:32:37.540Z</time>
      </trkpt>
      <trkpt lat="44.07981" lon="6.59424">
        <ele>1580</ele>
        <time>2020-03-24T13:32:38.540Z</time>
      </trkpt>
      <trkpt lat="44.07971" lon="6.5942">
        <ele>1577</ele>
        <time>2020-03-24T13:32:39.540Z</time>
      </trkpt>
      <trkpt lat="44.07954" lon="6.59413">
        <ele>1571</ele>
        <time>2020-03-24T13:32:40.540Z</time>
      </trkpt>
      <trkpt lat="44.07933" lon="6.59398">
        <ele>1562</ele>
        <time>2020-03-24T13:32:41.540Z</time>
      </trkpt>
      <trkpt lat="44.07922" lon="6.59393">
        <ele>1558</ele>
        <time>2020-03-24T13:32:42.540Z</time>
      </trkpt>
      <trkpt lat="44.07916" lon="6.59386">
        <ele>1556</ele>
        <time>2020-03-24T13:32:43.540Z</time>
      </trkpt>
      <trkpt lat="44.0791" lon="6.5938">
        <ele>1554</ele>
        <time>2020-03-24T13:32:44.540Z</time>
      </trkpt>
      <trkpt lat="44.07901" lon="6.59356">
        <ele>1551</ele>
        <time>2020-03-24T13:32:45.540Z</time>
      </trkpt>
      <trkpt lat="44.079" lon="6.59344">
        <ele>1550</ele>
        <time>2020-03-24T13:32:46.540Z</time>
      </trkpt>
      <trkpt lat="44.07899" lon="6.59326">
        <ele>1549</ele>
        <time>2020-03-24T13:32:47.540Z</time>
      </trkpt>
      <trkpt lat="44.07899" lon="6.59319">
        <ele>1548</ele>
        <time>2020-03-24T13:32:48.540Z</time>
      </trkpt>
      <trkpt lat="44.07895" lon="6.59303">
        <ele>1544</ele>
        <time>2020-03-24T13:32:49.540Z</time>
      </trkpt>
      <trkpt lat="44.07896" lon="6.59305">
        <ele>1544</ele>
        <time>2020-03-24T13:32:50.540Z</time>
      </trkpt>
      <trkpt lat="44.07898" lon="6.59312">
        <ele>1546</ele>
        <time>2020-03-24T13:32:51.540Z</time>
      </trkpt>
      <trkpt lat="44.07899" lon="6.59317">
        <ele>1547</ele>
        <time>2020-03-24T13:32:52.540Z</time>
      </trkpt>
      <trkpt lat="44.07899" lon="6.59318">
        <ele>1548</ele>
        <time>2020-03-24T13:32:53.540Z</time>
      </trkpt>
      <trkpt lat="44.07898" lon="6.5932">
        <ele>1548</ele>
        <time>2020-03-24T13:32:54.540Z</time>
      </trkpt>
      <trkpt lat="44.07896" lon="6.5933">
        <ele>1549</ele>
        <time>2020-03-24T13:32:55.540Z</time>
      </trkpt>
      <trkpt lat="44.0789" lon="6.59346">
        <ele>1547</ele>
        <time>2020-03-24T13:32:56.540Z</time>
      </trkpt>
      <trkpt lat="44.07887" lon="6.59361">
        <ele>1546</ele>
        <time>2020-03-24T13:32:57.540Z</time>
      </trkpt>
      <trkpt lat="44.07885" lon="6.59379">
        <ele>1544</ele>
        <time>2020-03-24T13:32:58.540Z</time>
      </trkpt>
      <trkpt lat="44.07886" lon="6.59404">
        <ele>1544</ele>
        <time>2020-03-24T13:32:59.540Z</time>
      </trkpt>
      <trkpt lat="44.07888" lon="6.59413">
        <ele>1544</ele>
        <time>2020-03-24T13:33:00.540Z</time>
      </trkpt>
      <trkpt lat="44.07888" lon="6.59417">
        <ele>1544</ele>
        <time>2020-03-24T13:33:01.540Z</time>
      </trkpt>
      <trkpt lat="44.07887" lon="6.59416">
        <ele>1544</ele>
        <time>2020-03-24T13:33:02.540Z</time>
      </trkpt>
      <trkpt lat="44.07878" lon="6.59401">
        <ele>1541</ele>
        <time>2020-03-24T13:33:03.540Z</time>
      </trkpt>
      <trkpt lat="44.07876" lon="6.59395">
        <ele>1540</ele>
        <time>2020-03-24T13:33:04.540Z</time>
      </trkpt>
      <trkpt lat="44.07873" lon="6.59389">
        <ele>1539</ele>
        <time>2020-03-24T13:33:05.540Z</time>
      </trkpt>
      <trkpt lat="44.07867" lon="6.59377">
        <ele>1538</ele>
        <time>2020-03-24T13:33:06.540Z</time>
      </trkpt>
      <trkpt lat="44.07862" lon="6.59363">
        <ele>1537</ele>
        <time>2020-03-24T13:33:07.540Z</time>
      </trkpt>
      <trkpt lat="44.07854" lon="6.59343">
        <ele>1535</ele>
        <time>2020-03-24T13:33:08.540Z</time>
      </trkpt>
      <trkpt lat="44.07842" lon="6.59331">
        <ele>1532</ele>
        <time>2020-03-24T13:33:09.540Z</time>
      </trkpt>
      <trkpt lat="44.07819" lon="6.59309">
        <ele>1520</ele>
        <time>2020-03-24T13:33:10.540Z</time>
      </trkpt>
      <trkpt lat="44.07817" lon="6.59292">
        <ele>1516</ele>
        <time>2020-03-24T13:33:11.540Z</time>
      </trkpt>
      <trkpt lat="44.07822" lon="6.59288">
        <ele>1517</ele>
        <time>2020-03-24T13:33:12.540Z</time>
      </trkpt>
      <trkpt lat="44.07824" lon="6.59287">
        <ele>1518</ele>
        <time>2020-03-24T13:33:13.540Z</time>
      </trkpt>
      <trkpt lat="44.0783" lon="6.59283">
        <ele>1519</ele>
        <time>2020-03-24T13:33:14.540Z</time>
      </trkpt>
      <trkpt lat="44.0784" lon="6.59273">
        <ele>1521</ele>
        <time>2020-03-24T13:33:15.540Z</time>
      </trkpt>
      <trkpt lat="44.0785" lon="6.59263">
        <ele>1522</ele>
        <time>2020-03-24T13:33:16.540Z</time>
      </trkpt>
      <trkpt lat="44.07862" lon="6.59245">
        <ele>1525</ele>
        <time>2020-03-24T13:33:17.540Z</time>
      </trkpt>
      <trkpt lat="44.07881" lon="6.59222">
        <ele>1537</ele>
        <time>2020-03-24T13:33:18.540Z</time>
      </trkpt>
      <trkpt lat="44.07892" lon="6.5921">
        <ele>1543</ele>
        <time>2020-03-24T13:33:19.540Z</time>
      </trkpt>
      <trkpt lat="44.0789" lon="6.59202">
        <ele>1544</ele>
        <time>2020-03-24T13:33:20.540Z</time>
      </trkpt>
      <trkpt lat="44.07873" lon="6.59192">
        <ele>1543</ele>
        <time>2020-03-24T13:33:21.540Z</time>
      </trkpt>
      <trkpt lat="44.07869" lon="6.59192">
        <ele>1542</ele>
        <time>2020-03-24T13:33:22.540Z</time>
      </trkpt>
      <trkpt lat="44.07854" lon="6.59192">
        <ele>1539</ele>
        <time>2020-03-24T13:33:23.540Z</time>
      </trkpt>
      <trkpt lat="44.07835" lon="6.59186">
        <ele>1537</ele>
        <time>2020-03-24T13:33:24.540Z</time>
      </trkpt>
      <trkpt lat="44.07816" lon="6.59182">
        <ele>1532</ele>
        <time>2020-03-24T13:33:25.540Z</time>
      </trkpt>
      <trkpt lat="44.07795" lon="6.59171">
        <ele>1529</ele>
        <time>2020-03-24T13:33:26.540Z</time>
      </trkpt>
      <trkpt lat="44.0778" lon="6.59164">
        <ele>1527</ele>
        <time>2020-03-24T13:33:27.540Z</time>
      </trkpt>
      <trkpt lat="44.07759" lon="6.59155">
        <ele>1522</ele>
        <time>2020-03-24T13:33:28.540Z</time>
      </trkpt>
      <trkpt lat="44.07738" lon="6.59139">
        <ele>1517</ele>
        <time>2020-03-24T13:33:29.540Z</time>
      </trkpt>
      <trkpt lat="44.07737" lon="6.59135">
        <ele>1518</ele>
        <time>2020-03-24T13:33:30.540Z</time>
      </trkpt>
      <trkpt lat="44.07737" lon="6.59122">
        <ele>1519</ele>
        <time>2020-03-24T13:33:31.540Z</time>
      </trkpt>
      <trkpt lat="44.07728" lon="6.59102">
        <ele>1518</ele>
        <time>2020-03-24T13:33:32.540Z</time>
      </trkpt>
      <trkpt lat="44.07726" lon="6.59098">
        <ele>1518</ele>
        <time>2020-03-24T13:33:33.540Z</time>
      </trkpt>
      <trkpt lat="44.07715" lon="6.5908">
        <ele>1515</ele>
        <time>2020-03-24T13:33:34.540Z</time>
      </trkpt>
      <trkpt lat="44.07698" lon="6.59054">
        <ele>1509</ele>
        <time>2020-03-24T13:33:35.540Z</time>
      </trkpt>
      <trkpt lat="44.07689" lon="6.59045">
        <ele>1506</ele>
        <time>2020-03-24T13:33:36.540Z</time>
      </trkpt>
      <trkpt lat="44.07677" lon="6.59025">
        <ele>1503</ele>
        <time>2020-03-24T13:33:37.540Z</time>
      </trkpt>
      <trkpt lat="44.07673" lon="6.59008">
        <ele>1504</ele>
        <time>2020-03-24T13:33:38.540Z</time>
      </trkpt>
      <trkpt lat="44.07673" lon="6.58992">
        <ele>1507</ele>
        <time>2020-03-24T13:33:39.540Z</time>
      </trkpt>
      <trkpt lat="44.07677" lon="6.58976">
        <ele>1514</ele>
        <time>2020-03-24T13:33:40.540Z</time>
      </trkpt>
      <trkpt lat="44.0768" lon="6.58964">
        <ele>1518</ele>
        <time>2020-03-24T13:33:41.540Z</time>
      </trkpt>
      <trkpt lat="44.07669" lon="6.58959">
        <ele>1517</ele>
        <time>2020-03-24T13:33:42.540Z</time>
      </trkpt>
      <trkpt lat="44.07666" lon="6.5896">
        <ele>1516</ele>
        <time>2020-03-24T13:33:43.540Z</time>
      </trkpt>
      <trkpt lat="44.07644" lon="6.58967">
        <ele>1513</ele>
        <time>2020-03-24T13:33:44.540Z</time>
      </trkpt>
      <trkpt lat="44.07629" lon="6.58966">
        <ele>1514</ele>
        <time>2020-03-24T13:33:45.540Z</time>
      </trkpt>
      <trkpt lat="44.0761" lon="6.58972">
        <ele>1511</ele>
        <time>2020-03-24T13:33:46.540Z</time>
      </trkpt>
      <trkpt lat="44.07598" lon="6.58978">
        <ele>1507</ele>
        <time>2020-03-24T13:33:47.540Z</time>
      </trkpt>
      <trkpt lat="44.07582" lon="6.58989">
        <ele>1501</ele>
        <time>2020-03-24T13:33:48.540Z</time>
      </trkpt>
      <trkpt lat="44.07556" lon="6.58996">
        <ele>1493</ele>
        <time>2020-03-24T13:33:49.540Z</time>
      </trkpt>
      <trkpt lat="44.07541" lon="6.58991">
        <ele>1492</ele>
        <time>2020-03-24T13:33:50.540Z</time>
      </trkpt>
      <trkpt lat="44.07521" lon="6.58986">
        <ele>1490</ele>
        <time>2020-03-24T13:33:51.540Z</time>
      </trkpt>
      <trkpt lat="44.07517" lon="6.58985">
        <ele>1490</ele>
        <time>2020-03-24T13:33:52.540Z</time>
      </trkpt>
      <trkpt lat="44.07504" lon="6.58982">
        <ele>1488</ele>
        <time>2020-03-24T13:33:53.540Z</time>
      </trkpt>
      <trkpt lat="44.07486" lon="6.58975">
        <ele>1477</ele>
        <time>2020-03-24T13:33:54.540Z</time>
      </trkpt>
      <trkpt lat="44.07472" lon="6.58972">
        <ele>1468</ele>
        <time>2020-03-24T13:33:55.540Z</time>
      </trkpt>
      <trkpt lat="44.07468" lon="6.58965">
        <ele>1465</ele>
        <time>2020-03-24T13:33:56.540Z</time>
      </trkpt>
      <trkpt lat="44.07467" lon="6.58966">
        <ele>1465</ele>
        <time>2020-03-24T13:33:57.540Z</time>
      </trkpt>
      <trkpt lat="44.07464" lon="6.58954">
        <ele>1464</ele>
        <time>2020-03-24T13:33:58.540Z</time>
      </trkpt>
      <trkpt lat="44.07463" lon="6.58937">
        <ele>1465</ele>
        <time>2020-03-24T13:33:59.540Z</time>
      </trkpt>
      <trkpt lat="44.07463" lon="6.58925">
        <ele>1467</ele>
        <time>2020-03-24T13:34:00.540Z</time>
      </trkpt>
      <trkpt lat="44.07462" lon="6.58907">
        <ele>1467</ele>
        <time>2020-03-24T13:34:01.540Z</time>
      </trkpt>
      <trkpt lat="44.07461" lon="6.58891">
        <ele>1466</ele>
        <time>2020-03-24T13:34:02.540Z</time>
      </trkpt>
      <trkpt lat="44.07456" lon="6.58875">
        <ele>1463</ele>
        <time>2020-03-24T13:34:03.540Z</time>
      </trkpt>
      <trkpt lat="44.07453" lon="6.58877">
        <ele>1460</ele>
        <time>2020-03-24T13:34:04.540Z</time>
      </trkpt>
      <trkpt lat="44.07452" lon="6.58896">
        <ele>1459</ele>
        <time>2020-03-24T13:34:05.540Z</time>
      </trkpt>
      <trkpt lat="44.0745" lon="6.58898">
        <ele>1457</ele>
        <time>2020-03-24T13:34:06.540Z</time>
      </trkpt>
      <trkpt lat="44.07449" lon="6.58894">
        <ele>1456</ele>
        <time>2020-03-24T13:34:07.540Z</time>
      </trkpt>
      <trkpt lat="44.07442" lon="6.58873">
        <ele>1451</ele>
        <time>2020-03-24T13:34:08.540Z</time>
      </trkpt>
      <trkpt lat="44.07438" lon="6.58853">
        <ele>1447</ele>
        <time>2020-03-24T13:34:09.540Z</time>
      </trkpt>
      <trkpt lat="44.07434" lon="6.58828">
        <ele>1444</ele>
        <time>2020-03-24T13:34:10.540Z</time>
      </trkpt>
      <trkpt lat="44.07432" lon="6.58816">
        <ele>1443</ele>
        <time>2020-03-24T13:34:11.540Z</time>
      </trkpt>
      <trkpt lat="44.07427" lon="6.58791">
        <ele>1439</ele>
        <time>2020-03-24T13:34:12.540Z</time>
      </trkpt>
      <trkpt lat="44.07426" lon="6.58788">
        <ele>1439</ele>
        <time>2020-03-24T13:34:13.540Z</time>
      </trkpt>
      <trkpt lat="44.07426" lon="6.58786">
        <ele>1439</ele>
        <time>2020-03-24T13:34:14.540Z</time>
      </trkpt>
      <trkpt lat="44.07424" lon="6.58784">
        <ele>1437</ele>
        <time>2020-03-24T13:34:15.540Z</time>
      </trkpt>
      <trkpt lat="44.07424" lon="6.58786">
        <ele>1437</ele>
        <time>2020-03-24T13:34:16.540Z</time>
      </trkpt>
      <trkpt lat="44.07422" lon="6.58797">
        <ele>1435</ele>
        <time>2020-03-24T13:34:17.540Z</time>
      </trkpt>
      <trkpt lat="44.07419" lon="6.58785">
        <ele>1433</ele>
        <time>2020-03-24T13:34:18.540Z</time>
      </trkpt>
      <trkpt lat="44.07414" lon="6.58749">
        <ele>1430</ele>
        <time>2020-03-24T13:34:19.540Z</time>
      </trkpt>
      <trkpt lat="44.07413" lon="6.58741">
        <ele>1429</ele>
        <time>2020-03-24T13:34:20.540Z</time>
      </trkpt>
      <trkpt lat="44.07406" lon="6.58726">
        <ele>1425</ele>
        <time>2020-03-24T13:34:21.540Z</time>
      </trkpt>
      <trkpt lat="44.07406" lon="6.58721">
        <ele>1424</ele>
        <time>2020-03-24T13:34:22.540Z</time>
      </trkpt>
      <trkpt lat="44.074" lon="6.58694">
        <ele>1421</ele>
        <time>2020-03-24T13:34:23.540Z</time>
      </trkpt>
      <trkpt lat="44.07393" lon="6.58667">
        <ele>1417</ele>
        <time>2020-03-24T13:34:24.540Z</time>
      </trkpt>
      <trkpt lat="44.07389" lon="6.58655">
        <ele>1413</ele>
        <time>2020-03-24T13:34:25.540Z</time>
      </trkpt>
      <trkpt lat="44.07387" lon="6.58643">
        <ele>1412</ele>
        <time>2020-03-24T13:34:26.540Z</time>
      </trkpt>
      <trkpt lat="44.07385" lon="6.58626">
        <ele>1410</ele>
        <time>2020-03-24T13:34:27.540Z</time>
      </trkpt>
      <trkpt lat="44.07383" lon="6.58621">
        <ele>1409</ele>
        <time>2020-03-24T13:34:28.540Z</time>
      </trkpt>
      <trkpt lat="44.07383" lon="6.58605">
        <ele>1408</ele>
        <time>2020-03-24T13:34:29.540Z</time>
      </trkpt>
      <trkpt lat="44.07383" lon="6.58593">
        <ele>1408</ele>
        <time>2020-03-24T13:34:30.540Z</time>
      </trkpt>
      <trkpt lat="44.07384" lon="6.58574">
        <ele>1408</ele>
        <time>2020-03-24T13:34:31.540Z</time>
      </trkpt>
      <trkpt lat="44.07384" lon="6.58569">
        <ele>1408</ele>
        <time>2020-03-24T13:34:32.540Z</time>
      </trkpt>
      <trkpt lat="44.07386" lon="6.58542">
        <ele>1406</ele>
        <time>2020-03-24T13:34:33.540Z</time>
      </trkpt>
      <trkpt lat="44.07387" lon="6.58517">
        <ele>1403</ele>
        <time>2020-03-24T13:34:34.540Z</time>
      </trkpt>
      <trkpt lat="44.07385" lon="6.58499">
        <ele>1400</ele>
        <time>2020-03-24T13:34:35.540Z</time>
      </trkpt>
      <trkpt lat="44.07386" lon="6.58488">
        <ele>1396</ele>
        <time>2020-03-24T13:34:36.540Z</time>
      </trkpt>
      <trkpt lat="44.07387" lon="6.58455">
        <ele>1385</ele>
        <time>2020-03-24T13:34:37.540Z</time>
      </trkpt>
      <trkpt lat="44.07391" lon="6.58433">
        <ele>1380</ele>
        <time>2020-03-24T13:34:38.540Z</time>
      </trkpt>
      <trkpt lat="44.07401" lon="6.5841">
        <ele>1378</ele>
        <time>2020-03-24T13:34:39.540Z</time>
      </trkpt>
      <trkpt lat="44.07405" lon="6.58403">
        <ele>1380</ele>
        <time>2020-03-24T13:34:40.540Z</time>
      </trkpt>
      <trkpt lat="44.07406" lon="6.58399">
        <ele>1380</ele>
        <time>2020-03-24T13:34:41.540Z</time>
      </trkpt>
      <trkpt lat="44.07423" lon="6.58374">
        <ele>1389</ele>
        <time>2020-03-24T13:34:42.540Z</time>
      </trkpt>
      <trkpt lat="44.07428" lon="6.58371">
        <ele>1392</ele>
        <time>2020-03-24T13:34:43.540Z</time>
      </trkpt>
      <trkpt lat="44.07437" lon="6.58365">
        <ele>1398</ele>
        <time>2020-03-24T13:34:44.540Z</time>
      </trkpt>
      <trkpt lat="44.07442" lon="6.58363">
        <ele>1401</ele>
        <time>2020-03-24T13:34:45.540Z</time>
      </trkpt>
      <trkpt lat="44.07445" lon="6.58353">
        <ele>1403</ele>
        <time>2020-03-24T13:34:46.540Z</time>
      </trkpt>
      <trkpt lat="44.07442" lon="6.58346">
        <ele>1401</ele>
        <time>2020-03-24T13:34:47.540Z</time>
      </trkpt>
      <trkpt lat="44.07426" lon="6.58316">
        <ele>1388</ele>
        <time>2020-03-24T13:34:48.540Z</time>
      </trkpt>
      <trkpt lat="44.07424" lon="6.58309">
        <ele>1387</ele>
        <time>2020-03-24T13:34:49.540Z</time>
      </trkpt>
      <trkpt lat="44.07423" lon="6.58305">
        <ele>1386</ele>
        <time>2020-03-24T13:34:50.540Z</time>
      </trkpt>
      <trkpt lat="44.07419" lon="6.58292">
        <ele>1383</ele>
        <time>2020-03-24T13:34:51.540Z</time>
      </trkpt>
      <trkpt lat="44.07415" lon="6.58259">
        <ele>1380</ele>
        <time>2020-03-24T13:34:52.540Z</time>
      </trkpt>
      <trkpt lat="44.07414" lon="6.58248">
        <ele>1380</ele>
        <time>2020-03-24T13:34:53.540Z</time>
      </trkpt>
      <trkpt lat="44.07414" lon="6.58219">
        <ele>1376</ele>
        <time>2020-03-24T13:34:54.540Z</time>
      </trkpt>
      <trkpt lat="44.07415" lon="6.58202">
        <ele>1374</ele>
        <time>2020-03-24T13:34:55.540Z</time>
      </trkpt>
      <trkpt lat="44.07415" lon="6.58189">
        <ele>1373</ele>
        <time>2020-03-24T13:34:56.540Z</time>
      </trkpt>
      <trkpt lat="44.07416" lon="6.58173">
        <ele>1372</ele>
        <time>2020-03-24T13:34:57.540Z</time>
      </trkpt>
      <trkpt lat="44.07418" lon="6.58157">
        <ele>1371</ele>
        <time>2020-03-24T13:34:58.540Z</time>
      </trkpt>
      <trkpt lat="44.07418" lon="6.58152">
        <ele>1370</ele>
        <time>2020-03-24T13:34:59.540Z</time>
      </trkpt>
      <trkpt lat="44.07414" lon="6.58123">
        <ele>1362</ele>
        <time>2020-03-24T13:35:00.540Z</time>
      </trkpt>
      <trkpt lat="44.07414" lon="6.58113">
        <ele>1361</ele>
        <time>2020-03-24T13:35:01.540Z</time>
      </trkpt>
      <trkpt lat="44.07411" lon="6.58082">
        <ele>1354</ele>
        <time>2020-03-24T13:35:02.540Z</time>
      </trkpt>
      <trkpt lat="44.07412" lon="6.58054">
        <ele>1350</ele>
        <time>2020-03-24T13:35:03.540Z</time>
      </trkpt>
      <trkpt lat="44.07415" lon="6.5804">
        <ele>1350</ele>
        <time>2020-03-24T13:35:04.540Z</time>
      </trkpt>
      <trkpt lat="44.0741" lon="6.58046">
        <ele>1347</ele>
        <time>2020-03-24T13:35:05.540Z</time>
      </trkpt>
      <trkpt lat="44.07407" lon="6.58056">
        <ele>1347</ele>
        <time>2020-03-24T13:35:06.540Z</time>
      </trkpt>
      <trkpt lat="44.07399" lon="6.5808">
        <ele>1345</ele>
        <time>2020-03-24T13:35:07.540Z</time>
      </trkpt>
      <trkpt lat="44.07396" lon="6.58091">
        <ele>1344</ele>
        <time>2020-03-24T13:35:08.540Z</time>
      </trkpt>
      <trkpt lat="44.0739" lon="6.58109">
        <ele>1343</ele>
        <time>2020-03-24T13:35:09.540Z</time>
      </trkpt>
      <trkpt lat="44.07386" lon="6.5813">
        <ele>1343</ele>
        <time>2020-03-24T13:35:10.540Z</time>
      </trkpt>
      <trkpt lat="44.07384" lon="6.58142">
        <ele>1344</ele>
        <time>2020-03-24T13:35:11.540Z</time>
      </trkpt>
      <trkpt lat="44.07381" lon="6.58138">
        <ele>1341</ele>
        <time>2020-03-24T13:35:12.540Z</time>
      </trkpt>
      <trkpt lat="44.0738" lon="6.58114">
        <ele>1336</ele>
        <time>2020-03-24T13:35:13.540Z</time>
      </trkpt>
      <trkpt lat="44.07376" lon="6.58083">
        <ele>1330</ele>
        <time>2020-03-24T13:35:14.540Z</time>
      </trkpt>
      <trkpt lat="44.07375" lon="6.58053">
        <ele>1324</ele>
        <time>2020-03-24T13:35:15.540Z</time>
      </trkpt>
      <trkpt lat="44.07377" lon="6.58036">
        <ele>1322</ele>
        <time>2020-03-24T13:35:16.540Z</time>
      </trkpt>
      <trkpt lat="44.07378" lon="6.58022">
        <ele>1321</ele>
        <time>2020-03-24T13:35:17.540Z</time>
      </trkpt>
      <trkpt lat="44.07377" lon="6.57995">
        <ele>1315</ele>
        <time>2020-03-24T13:35:18.540Z</time>
      </trkpt>
      <trkpt lat="44.07377" lon="6.5799">
        <ele>1314</ele>
        <time>2020-03-24T13:35:19.540Z</time>
      </trkpt>
      <trkpt lat="44.07377" lon="6.57977">
        <ele>1312</ele>
        <time>2020-03-24T13:35:20.540Z</time>
      </trkpt>
      <trkpt lat="44.07375" lon="6.57964">
        <ele>1309</ele>
        <time>2020-03-24T13:35:21.540Z</time>
      </trkpt>
      <trkpt lat="44.07371" lon="6.57936">
        <ele>1301</ele>
        <time>2020-03-24T13:35:22.540Z</time>
      </trkpt>
      <trkpt lat="44.07371" lon="6.57919">
        <ele>1299</ele>
        <time>2020-03-24T13:35:23.540Z</time>
      </trkpt>
      <trkpt lat="44.07373" lon="6.57909">
        <ele>1300</ele>
        <time>2020-03-24T13:35:24.540Z</time>
      </trkpt>
      <trkpt lat="44.07375" lon="6.57899">
        <ele>1300</ele>
        <time>2020-03-24T13:35:25.540Z</time>
      </trkpt>
      <trkpt lat="44.0738" lon="6.57882">
        <ele>1302</ele>
        <time>2020-03-24T13:35:26.540Z</time>
      </trkpt>
      <trkpt lat="44.0738" lon="6.57863">
        <ele>1301</ele>
        <time>2020-03-24T13:35:27.540Z</time>
      </trkpt>
      <trkpt lat="44.07376" lon="6.57836">
        <ele>1296</ele>
        <time>2020-03-24T13:35:28.540Z</time>
      </trkpt>
      <trkpt lat="44.0737" lon="6.57817">
        <ele>1288</ele>
        <time>2020-03-24T13:35:29.540Z</time>
      </trkpt>
      <trkpt lat="44.07362" lon="6.57789">
        <ele>1277</ele>
        <time>2020-03-24T13:35:30.540Z</time>
      </trkpt>
      <trkpt lat="44.07362" lon="6.57778">
        <ele>1274</ele>
        <time>2020-03-24T13:35:31.540Z</time>
      </trkpt>
      <trkpt lat="44.07362" lon="6.57759">
        <ele>1269</ele>
        <time>2020-03-24T13:35:32.540Z</time>
      </trkpt>
      <trkpt lat="44.07373" lon="6.57739">
        <ele>1265</ele>
        <time>2020-03-24T13:35:33.540Z</time>
      </trkpt>
      <trkpt lat="44.07381" lon="6.57731">
        <ele>1264</ele>
        <time>2020-03-24T13:35:34.540Z</time>
      </trkpt>
      <trkpt lat="44.0739" lon="6.57721">
        <ele>1262</ele>
        <time>2020-03-24T13:35:35.540Z</time>
      </trkpt>
      <trkpt lat="44.0741" lon="6.57704">
        <ele>1259</ele>
        <time>2020-03-24T13:35:36.540Z</time>
      </trkpt>
      <trkpt lat="44.07419" lon="6.57696">
        <ele>1257</ele>
        <time>2020-03-24T13:35:37.540Z</time>
      </trkpt>
      <trkpt lat="44.07437" lon="6.57678">
        <ele>1253</ele>
        <time>2020-03-24T13:35:38.540Z</time>
      </trkpt>
      <trkpt lat="44.07454" lon="6.57668">
        <ele>1253</ele>
        <time>2020-03-24T13:35:39.540Z</time>
      </trkpt>
      <trkpt lat="44.07457" lon="6.57665">
        <ele>1251</ele>
        <time>2020-03-24T13:35:40.540Z</time>
      </trkpt>
      <trkpt lat="44.07449" lon="6.57665">
        <ele>1249</ele>
        <time>2020-03-24T13:35:41.540Z</time>
      </trkpt>
      <trkpt lat="44.07438" lon="6.57665">
        <ele>1247</ele>
        <time>2020-03-24T13:35:42.540Z</time>
      </trkpt>
      <trkpt lat="44.07427" lon="6.57664">
        <ele>1243</ele>
        <time>2020-03-24T13:35:43.540Z</time>
      </trkpt>
      <trkpt lat="44.07403" lon="6.57667">
        <ele>1239</ele>
        <time>2020-03-24T13:35:44.540Z</time>
      </trkpt>
      <trkpt lat="44.07389" lon="6.57669">
        <ele>1236</ele>
        <time>2020-03-24T13:35:45.540Z</time>
      </trkpt>
      <trkpt lat="44.0739" lon="6.57666">
        <ele>1235</ele>
        <time>2020-03-24T13:35:46.540Z</time>
      </trkpt>
      <trkpt lat="44.07393" lon="6.57663">
        <ele>1234</ele>
        <time>2020-03-24T13:35:47.540Z</time>
      </trkpt>
      <trkpt lat="44.07416" lon="6.57639">
        <ele>1226</ele>
        <time>2020-03-24T13:35:48.540Z</time>
      </trkpt>
      <trkpt lat="44.07426" lon="6.57629">
        <ele>1224</ele>
        <time>2020-03-24T13:35:49.540Z</time>
      </trkpt>
      <trkpt lat="44.07458" lon="6.57599">
        <ele>1219</ele>
        <time>2020-03-24T13:35:50.540Z</time>
      </trkpt>
      <trkpt lat="44.07466" lon="6.57591">
        <ele>1217</ele>
        <time>2020-03-24T13:35:51.540Z</time>
      </trkpt>
      <trkpt lat="44.07472" lon="6.5758">
        <ele>1214</ele>
        <time>2020-03-24T13:35:52.540Z</time>
      </trkpt>
      <trkpt lat="44.07487" lon="6.57548">
        <ele>1205</ele>
        <time>2020-03-24T13:35:53.540Z</time>
      </trkpt>
      <trkpt lat="44.07497" lon="6.57527">
        <ele>1200</ele>
        <time>2020-03-24T13:35:54.540Z</time>
      </trkpt>
      <trkpt lat="44.075" lon="6.57522">
        <ele>1199</ele>
        <time>2020-03-24T13:35:55.540Z</time>
      </trkpt>
      <trkpt lat="44.07517" lon="6.5749">
        <ele>1190</ele>
        <time>2020-03-24T13:35:56.540Z</time>
      </trkpt>
      <trkpt lat="44.07521" lon="6.57484">
        <ele>1189</ele>
        <time>2020-03-24T13:35:57.540Z</time>
      </trkpt>
      <trkpt lat="44.07529" lon="6.57469">
        <ele>1185</ele>
        <time>2020-03-24T13:35:58.540Z</time>
      </trkpt>
      <trkpt lat="44.07535" lon="6.57456">
        <ele>1181</ele>
        <time>2020-03-24T13:35:59.540Z</time>
      </trkpt>
      <trkpt lat="44.07533" lon="6.57456">
        <ele>1181</ele>
        <time>2020-03-24T13:36:00.540Z</time>
      </trkpt>
      <trkpt lat="44.07514" lon="6.57468">
        <ele>1180</ele>
        <time>2020-03-24T13:36:01.540Z</time>
      </trkpt>
      <trkpt lat="44.07484" lon="6.57487">
        <ele>1177</ele>
        <time>2020-03-24T13:36:02.540Z</time>
      </trkpt>
      <trkpt lat="44.07478" lon="6.57492">
        <ele>1177</ele>
        <time>2020-03-24T13:36:03.540Z</time>
      </trkpt>
      <trkpt lat="44.07476" lon="6.57489">
        <ele>1175</ele>
        <time>2020-03-24T13:36:04.540Z</time>
      </trkpt>
      <trkpt lat="44.0748" lon="6.57483">
        <ele>1174</ele>
        <time>2020-03-24T13:36:05.540Z</time>
      </trkpt>
      <trkpt lat="44.07494" lon="6.57456">
        <ele>1169</ele>
        <time>2020-03-24T13:36:06.540Z</time>
      </trkpt>
      <trkpt lat="44.07507" lon="6.57435">
        <ele>1165</ele>
        <time>2020-03-24T13:36:07.540Z</time>
      </trkpt>
      <trkpt lat="44.07516" lon="6.57422">
        <ele>1162</ele>
        <time>2020-03-24T13:36:08.540Z</time>
      </trkpt>
      <trkpt lat="44.0752" lon="6.57408">
        <ele>1158</ele>
        <time>2020-03-24T13:36:09.540Z</time>
      </trkpt>
      <trkpt lat="44.07521" lon="6.57405">
        <ele>1157</ele>
        <time>2020-03-24T13:36:10.540Z</time>
      </trkpt>
      <trkpt lat="44.07525" lon="6.57395">
        <ele>1154</ele>
        <time>2020-03-24T13:36:11.540Z</time>
      </trkpt>
      <trkpt lat="44.07531" lon="6.57385">
        <ele>1151</ele>
        <time>2020-03-24T13:36:12.540Z</time>
      </trkpt>
      <trkpt lat="44.07532" lon="6.57383">
        <ele>1151</ele>
        <time>2020-03-24T13:36:13.540Z</time>
      </trkpt>
      <trkpt lat="44.07538" lon="6.57374">
        <ele>1149</ele>
        <time>2020-03-24T13:36:14.540Z</time>
      </trkpt>
      <trkpt lat="44.07545" lon="6.57362">
        <ele>1146</ele>
        <time>2020-03-24T13:36:15.540Z</time>
      </trkpt>
      <trkpt lat="44.07557" lon="6.57339">
        <ele>1140</ele>
        <time>2020-03-24T13:36:16.540Z</time>
      </trkpt>
      <trkpt lat="44.07569" lon="6.57322">
        <ele>1136</ele>
        <time>2020-03-24T13:36:17.540Z</time>
      </trkpt>
      <trkpt lat="44.07564" lon="6.57317">
        <ele>1133</ele>
        <time>2020-03-24T13:36:18.540Z</time>
      </trkpt>
      <trkpt lat="44.07548" lon="6.57322">
        <ele>1130</ele>
        <time>2020-03-24T13:36:19.540Z</time>
      </trkpt>
      <trkpt lat="44.07535" lon="6.57331">
        <ele>1130</ele>
        <time>2020-03-24T13:36:20.540Z</time>
      </trkpt>
      <trkpt lat="44.07515" lon="6.57344">
        <ele>1130</ele>
        <time>2020-03-24T13:36:21.540Z</time>
      </trkpt>
      <trkpt lat="44.07512" lon="6.57347">
        <ele>1130</ele>
        <time>2020-03-24T13:36:22.540Z</time>
      </trkpt>
      <trkpt lat="44.07508" lon="6.57349">
        <ele>1130</ele>
        <time>2020-03-24T13:36:23.540Z</time>
      </trkpt>
      <trkpt lat="44.07481" lon="6.57363">
        <ele>1125</ele>
        <time>2020-03-24T13:36:24.540Z</time>
      </trkpt>
      <trkpt lat="44.07475" lon="6.57367">
        <ele>1124</ele>
        <time>2020-03-24T13:36:25.540Z</time>
      </trkpt>
      <trkpt lat="44.07473" lon="6.57364">
        <ele>1122</ele>
        <time>2020-03-24T13:36:26.540Z</time>
      </trkpt>
      <trkpt lat="44.07473" lon="6.57363">
        <ele>1121</ele>
        <time>2020-03-24T13:36:27.540Z</time>
      </trkpt>
      <trkpt lat="44.07482" lon="6.57352">
        <ele>1120</ele>
        <time>2020-03-24T13:36:28.540Z</time>
      </trkpt>
      <trkpt lat="44.07493" lon="6.57329">
        <ele>1116</ele>
        <time>2020-03-24T13:36:29.540Z</time>
      </trkpt>
      <trkpt lat="44.07496" lon="6.57324">
        <ele>1114</ele>
        <time>2020-03-24T13:36:30.540Z</time>
      </trkpt>
      <trkpt lat="44.07502" lon="6.57309">
        <ele>1110</ele>
        <time>2020-03-24T13:36:31.540Z</time>
      </trkpt>
      <trkpt lat="44.0751" lon="6.57298">
        <ele>1107</ele>
        <time>2020-03-24T13:36:32.540Z</time>
      </trkpt>
      <trkpt lat="44.07517" lon="6.57286">
        <ele>1104</ele>
        <time>2020-03-24T13:36:33.540Z</time>
      </trkpt>
      <trkpt lat="44.0752" lon="6.57279">
        <ele>1102</ele>
        <time>2020-03-24T13:36:34.540Z</time>
      </trkpt>
      <trkpt lat="44.07533" lon="6.57262">
        <ele>1099</ele>
        <time>2020-03-24T13:36:35.540Z</time>
      </trkpt>
      <trkpt lat="44.07554" lon="6.57238">
        <ele>1097</ele>
        <time>2020-03-24T13:36:36.540Z</time>
      </trkpt>
      <trkpt lat="44.07569" lon="6.57225">
        <ele>1098</ele>
        <time>2020-03-24T13:36:37.540Z</time>
      </trkpt>
      <trkpt lat="44.0757" lon="6.57221">
        <ele>1097</ele>
        <time>2020-03-24T13:36:38.540Z</time>
      </trkpt>
      <trkpt lat="44.07563" lon="6.57222">
        <ele>1094</ele>
        <time>2020-03-24T13:36:39.540Z</time>
      </trkpt>
      <trkpt lat="44.0756" lon="6.57219">
        <ele>1092</ele>
        <time>2020-03-24T13:36:40.540Z</time>
      </trkpt>
      <trkpt lat="44.07562" lon="6.57217">
        <ele>1092</ele>
        <time>2020-03-24T13:36:41.540Z</time>
      </trkpt>
      <trkpt lat="44.07575" lon="6.57212">
        <ele>1095</ele>
        <time>2020-03-24T13:36:42.540Z</time>
      </trkpt>
      <trkpt lat="44.07582" lon="6.57194">
        <ele>1091</ele>
        <time>2020-03-24T13:36:43.540Z</time>
      </trkpt>
      <trkpt lat="44.07591" lon="6.57182">
        <ele>1089</ele>
        <time>2020-03-24T13:36:44.540Z</time>
      </trkpt>
      <trkpt lat="44.07601" lon="6.5717">
        <ele>1087</ele>
        <time>2020-03-24T13:36:45.540Z</time>
      </trkpt>
      <trkpt lat="44.07615" lon="6.57151">
        <ele>1085</ele>
        <time>2020-03-24T13:36:46.540Z</time>
      </trkpt>
      <trkpt lat="44.07623" lon="6.57141">
        <ele>1085</ele>
        <time>2020-03-24T13:36:47.540Z</time>
      </trkpt>
      <trkpt lat="44.07631" lon="6.57134">
        <ele>1084</ele>
        <time>2020-03-24T13:36:48.540Z</time>
      </trkpt>
      <trkpt lat="44.07637" lon="6.57126">
        <ele>1084</ele>
        <time>2020-03-24T13:36:49.540Z</time>
      </trkpt>
      <trkpt lat="44.07648" lon="6.57106">
        <ele>1080</ele>
        <time>2020-03-24T13:36:50.540Z</time>
      </trkpt>
      <trkpt lat="44.07647" lon="6.57101">
        <ele>1079</ele>
        <time>2020-03-24T13:36:51.540Z</time>
      </trkpt>
      <trkpt lat="44.07637" lon="6.57104">
        <ele>1078</ele>
        <time>2020-03-24T13:36:52.540Z</time>
      </trkpt>
      <trkpt lat="44.0762" lon="6.5711">
        <ele>1075</ele>
        <time>2020-03-24T13:36:53.540Z</time>
      </trkpt>
      <trkpt lat="44.07621" lon="6.57107">
        <ele>1075</ele>
        <time>2020-03-24T13:36:54.540Z</time>
      </trkpt>
      <trkpt lat="44.0763" lon="6.5709">
        <ele>1072</ele>
        <time>2020-03-24T13:36:55.540Z</time>
      </trkpt>
      <trkpt lat="44.07631" lon="6.57076">
        <ele>1069</ele>
        <time>2020-03-24T13:36:56.540Z</time>
      </trkpt>
      <trkpt lat="44.07621" lon="6.57082">
        <ele>1068</ele>
        <time>2020-03-24T13:36:57.540Z</time>
      </trkpt>
      <trkpt lat="44.07613" lon="6.57085">
        <ele>1068</ele>
        <time>2020-03-24T13:36:58.540Z</time>
      </trkpt>
      <trkpt lat="44.07598" lon="6.57086">
        <ele>1065</ele>
        <time>2020-03-24T13:36:59.540Z</time>
      </trkpt>
      <trkpt lat="44.07585" lon="6.57083">
        <ele>1061</ele>
        <time>2020-03-24T13:37:00.540Z</time>
      </trkpt>
      <trkpt lat="44.07561" lon="6.57087">
        <ele>1057</ele>
        <time>2020-03-24T13:37:01.540Z</time>
      </trkpt>
      <trkpt lat="44.07558" lon="6.57091">
        <ele>1056</ele>
        <time>2020-03-24T13:37:02.540Z</time>
      </trkpt>
      <trkpt lat="44.07546" lon="6.57106">
        <ele>1056</ele>
        <time>2020-03-24T13:37:03.540Z</time>
      </trkpt>
      <trkpt lat="44.07544" lon="6.5711">
        <ele>1056</ele>
        <time>2020-03-24T13:37:04.540Z</time>
      </trkpt>
      <trkpt lat="44.07541" lon="6.57114">
        <ele>1056</ele>
        <time>2020-03-24T13:37:05.540Z</time>
      </trkpt>
      <trkpt lat="44.07538" lon="6.571">
        <ele>1053</ele>
        <time>2020-03-24T13:37:06.540Z</time>
      </trkpt>
      <trkpt lat="44.07538" lon="6.57087">
        <ele>1051</ele>
        <time>2020-03-24T13:37:07.540Z</time>
      </trkpt>
      <trkpt lat="44.07547" lon="6.5706">
        <ele>1050</ele>
        <time>2020-03-24T13:37:08.540Z</time>
      </trkpt>
      <trkpt lat="44.07551" lon="6.57051">
        <ele>1050</ele>
        <time>2020-03-24T13:37:09.540Z</time>
      </trkpt>
      <trkpt lat="44.07566" lon="6.57028">
        <ele>1049</ele>
        <time>2020-03-24T13:37:10.540Z</time>
      </trkpt>
      <trkpt lat="44.07604" lon="6.56979">
        <ele>1046</ele>
        <time>2020-03-24T13:37:11.540Z</time>
      </trkpt>
      <trkpt lat="44.07614" lon="6.56965">
        <ele>1046</ele>
        <time>2020-03-24T13:37:12.540Z</time>
      </trkpt>
      <trkpt lat="44.07625" lon="6.56928">
        <ele>1044</ele>
        <time>2020-03-24T13:37:13.540Z</time>
      </trkpt>
      <trkpt lat="44.07625" lon="6.56908">
        <ele>1045</ele>
        <time>2020-03-24T13:37:14.540Z</time>
      </trkpt>
      <trkpt lat="44.07622" lon="6.5685">
        <ele>1057</ele>
        <time>2020-03-24T13:37:15.540Z</time>
      </trkpt>
      <trkpt lat="44.07625" lon="6.56822">
        <ele>1063</ele>
        <time>2020-03-24T13:37:16.540Z</time>
      </trkpt>
      <trkpt lat="44.07632" lon="6.56809">
        <ele>1065</ele>
        <time>2020-03-24T13:37:17.540Z</time>
      </trkpt>
      <trkpt lat="44.0765" lon="6.56791">
        <ele>1065</ele>
        <time>2020-03-24T13:37:18.540Z</time>
      </trkpt>
      <trkpt lat="44.07671" lon="6.5677">
        <ele>1064</ele>
        <time>2020-03-24T13:37:19.540Z</time>
      </trkpt>
      <trkpt lat="44.07696" lon="6.56745">
        <ele>1064</ele>
        <time>2020-03-24T13:37:20.540Z</time>
      </trkpt>
      <trkpt lat="44.07711" lon="6.56721">
        <ele>1067</ele>
        <time>2020-03-24T13:37:21.540Z</time>
      </trkpt>
      <trkpt lat="44.07728" lon="6.56685">
        <ele>1069</ele>
        <time>2020-03-24T13:37:22.540Z</time>
      </trkpt>
      <trkpt lat="44.07743" lon="6.56655">
        <ele>1069</ele>
        <time>2020-03-24T13:37:23.540Z</time>
      </trkpt>
      <trkpt lat="44.07759" lon="6.5662">
        <ele>1071</ele>
        <time>2020-03-24T13:37:24.540Z</time>
      </trkpt>
      <trkpt lat="44.07772" lon="6.56595">
        <ele>1074</ele>
        <time>2020-03-24T13:37:25.540Z</time>
      </trkpt>
      <trkpt lat="44.07788" lon="6.56567">
        <ele>1076</ele>
        <time>2020-03-24T13:37:26.540Z</time>
      </trkpt>
      <trkpt lat="44.07809" lon="6.56547">
        <ele>1076</ele>
        <time>2020-03-24T13:37:27.540Z</time>
      </trkpt>
      <trkpt lat="44.0783" lon="6.56532">
        <ele>1075</ele>
        <time>2020-03-24T13:37:28.540Z</time>
      </trkpt>
      <trkpt lat="44.07862" lon="6.56505">
        <ele>1074</ele>
        <time>2020-03-24T13:37:29.540Z</time>
      </trkpt>
      <trkpt lat="44.07889" lon="6.56473">
        <ele>1073</ele>
        <time>2020-03-24T13:37:30.540Z</time>
      </trkpt>
      <trkpt lat="44.07908" lon="6.56433">
        <ele>1074</ele>
        <time>2020-03-24T13:37:31.540Z</time>
      </trkpt>
      <trkpt lat="44.07933" lon="6.56387">
        <ele>1078</ele>
        <time>2020-03-24T13:37:32.540Z</time>
      </trkpt>
      <trkpt lat="44.07955" lon="6.56351">
        <ele>1081</ele>
        <time>2020-03-24T13:37:33.540Z</time>
      </trkpt>
      <trkpt lat="44.07981" lon="6.56311">
        <ele>1086</ele>
        <time>2020-03-24T13:37:34.540Z</time>
      </trkpt>
      <trkpt lat="44.07997" lon="6.56286">
        <ele>1089</ele>
        <time>2020-03-24T13:37:35.540Z</time>
      </trkpt>
      <trkpt lat="44.08019" lon="6.56254">
        <ele>1094</ele>
        <time>2020-03-24T13:37:36.540Z</time>
      </trkpt>
      <trkpt lat="44.0804" lon="6.56245">
        <ele>1093</ele>
        <time>2020-03-24T13:37:37.540Z</time>
      </trkpt>
      <trkpt lat="44.08075" lon="6.56231">
        <ele>1091</ele>
        <time>2020-03-24T13:37:38.540Z</time>
      </trkpt>
      <trkpt lat="44.08103" lon="6.56206">
        <ele>1092</ele>
        <time>2020-03-24T13:37:39.540Z</time>
      </trkpt>
      <trkpt lat="44.08134" lon="6.56177">
        <ele>1092</ele>
        <time>2020-03-24T13:37:40.540Z</time>
      </trkpt>
      <trkpt lat="44.08169" lon="6.56147">
        <ele>1091</ele>
        <time>2020-03-24T13:37:41.540Z</time>
      </trkpt>
      <trkpt lat="44.08186" lon="6.56126">
        <ele>1091</ele>
        <time>2020-03-24T13:37:42.540Z</time>
      </trkpt>
      <trkpt lat="44.08204" lon="6.56089">
        <ele>1094</ele>
        <time>2020-03-24T13:37:43.540Z</time>
      </trkpt>
      <trkpt lat="44.08219" lon="6.56056">
        <ele>1096</ele>
        <time>2020-03-24T13:37:44.540Z</time>
      </trkpt>
      <trkpt lat="44.08235" lon="6.5604">
        <ele>1097</ele>
        <time>2020-03-24T13:37:45.540Z</time>
      </trkpt>
      <trkpt lat="44.08265" lon="6.56023">
        <ele>1098</ele>
        <time>2020-03-24T13:37:46.540Z</time>
      </trkpt>
      <trkpt lat="44.08295" lon="6.56004">
        <ele>1099</ele>
        <time>2020-03-24T13:37:47.540Z</time>
      </trkpt>
      <trkpt lat="44.08321" lon="6.55989">
        <ele>1099</ele>
        <time>2020-03-24T13:37:48.540Z</time>
      </trkpt>
      <trkpt lat="44.08352" lon="6.5597">
        <ele>1097</ele>
        <time>2020-03-24T13:37:49.540Z</time>
      </trkpt>
      <trkpt lat="44.08376" lon="6.55949">
        <ele>1096</ele>
        <time>2020-03-24T13:37:50.540Z</time>
      </trkpt>
      <trkpt lat="44.08384" lon="6.55948">
        <ele>1095</ele>
        <time>2020-03-24T13:37:51.540Z</time>
      </trkpt>
      <trkpt lat="44.08405" lon="6.55939">
        <ele>1093</ele>
        <time>2020-03-24T13:37:52.540Z</time>
      </trkpt>
      <trkpt lat="44.08422" lon="6.55925">
        <ele>1093</ele>
        <time>2020-03-24T13:37:53.540Z</time>
      </trkpt>
      <trkpt lat="44.08439" lon="6.55904">
        <ele>1097</ele>
        <time>2020-03-24T13:37:54.540Z</time>
      </trkpt>
      <trkpt lat="44.08452" lon="6.55899">
        <ele>1098</ele>
        <time>2020-03-24T13:37:55.540Z</time>
      </trkpt>
      <trkpt lat="44.08472" lon="6.55893">
        <ele>1099</ele>
        <time>2020-03-24T13:37:56.540Z</time>
      </trkpt>
      <trkpt lat="44.08493" lon="6.55885">
        <ele>1100</ele>
        <time>2020-03-24T13:37:57.540Z</time>
      </trkpt>
      <trkpt lat="44.08514" lon="6.55876">
        <ele>1099</ele>
        <time>2020-03-24T13:37:58.540Z</time>
      </trkpt>
      <trkpt lat="44.08537" lon="6.55865">
        <ele>1097</ele>
        <time>2020-03-24T13:37:59.540Z</time>
      </trkpt>
      <trkpt lat="44.08559" lon="6.5585">
        <ele>1096</ele>
        <time>2020-03-24T13:38:00.540Z</time>
      </trkpt>
      <trkpt lat="44.08581" lon="6.55825">
        <ele>1095</ele>
        <time>2020-03-24T13:38:01.540Z</time>
      </trkpt>
      <trkpt lat="44.08594" lon="6.55797">
        <ele>1098</ele>
        <time>2020-03-24T13:38:02.540Z</time>
      </trkpt>
      <trkpt lat="44.08597" lon="6.55767">
        <ele>1101</ele>
        <time>2020-03-24T13:38:03.540Z</time>
      </trkpt>
      <trkpt lat="44.08596" lon="6.55748">
        <ele>1102</ele>
        <time>2020-03-24T13:38:04.540Z</time>
      </trkpt>
      <trkpt lat="44.08606" lon="6.55742">
        <ele>1103</ele>
        <time>2020-03-24T13:38:05.540Z</time>
      </trkpt>
      <trkpt lat="44.0861" lon="6.55742">
        <ele>1104</ele>
        <time>2020-03-24T13:38:06.540Z</time>
      </trkpt>
      <trkpt lat="44.08651" lon="6.55741">
        <ele>1107</ele>
        <time>2020-03-24T13:38:07.540Z</time>
      </trkpt>
      <trkpt lat="44.08673" lon="6.5574">
        <ele>1108</ele>
        <time>2020-03-24T13:38:08.540Z</time>
      </trkpt>
      <trkpt lat="44.08707" lon="6.55728">
        <ele>1108</ele>
        <time>2020-03-24T13:38:09.540Z</time>
      </trkpt>
      <trkpt lat="44.08743" lon="6.55702">
        <ele>1108</ele>
        <time>2020-03-24T13:38:10.540Z</time>
      </trkpt>
      <trkpt lat="44.08775" lon="6.55666">
        <ele>1109</ele>
        <time>2020-03-24T13:38:11.540Z</time>
      </trkpt>
      <trkpt lat="44.08781" lon="6.55648">
        <ele>1110</ele>
        <time>2020-03-24T13:38:12.540Z</time>
      </trkpt>
      <trkpt lat="44.08776" lon="6.55637">
        <ele>1111</ele>
        <time>2020-03-24T13:38:13.540Z</time>
      </trkpt>
      <trkpt lat="44.08761" lon="6.55619">
        <ele>1113</ele>
        <time>2020-03-24T13:38:14.540Z</time>
      </trkpt>
      <trkpt lat="44.08754" lon="6.55604">
        <ele>1114</ele>
        <time>2020-03-24T13:38:15.540Z</time>
      </trkpt>
      <trkpt lat="44.08742" lon="6.55588">
        <ele>1115</ele>
        <time>2020-03-24T13:38:16.540Z</time>
      </trkpt>
      <trkpt lat="44.08731" lon="6.55574">
        <ele>1117</ele>
        <time>2020-03-24T13:38:17.540Z</time>
      </trkpt>
      <trkpt lat="44.08722" lon="6.55557">
        <ele>1120</ele>
        <time>2020-03-24T13:38:18.540Z</time>
      </trkpt>
      <trkpt lat="44.08716" lon="6.55538">
        <ele>1122</ele>
        <time>2020-03-24T13:38:19.540Z</time>
      </trkpt>
      <trkpt lat="44.08714" lon="6.55516">
        <ele>1124</ele>
        <time>2020-03-24T13:38:20.540Z</time>
      </trkpt>
      <trkpt lat="44.08714" lon="6.55508">
        <ele>1125</ele>
        <time>2020-03-24T13:38:21.540Z</time>
      </trkpt>
      <trkpt lat="44.08706" lon="6.55503">
        <ele>1126</ele>
        <time>2020-03-24T13:38:22.540Z</time>
      </trkpt>
      <trkpt lat="44.08698" lon="6.55502">
        <ele>1128</ele>
        <time>2020-03-24T13:38:23.540Z</time>
      </trkpt>
      <trkpt lat="44.08696" lon="6.5549">
        <ele>1129</ele>
        <time>2020-03-24T13:38:24.540Z</time>
      </trkpt>
      <trkpt lat="44.08706" lon="6.55477">
        <ele>1129</ele>
        <time>2020-03-24T13:38:25.540Z</time>
      </trkpt>
      <trkpt lat="44.08717" lon="6.55464">
        <ele>1129</ele>
        <time>2020-03-24T13:38:26.540Z</time>
      </trkpt>
      <trkpt lat="44.08724" lon="6.55444">
        <ele>1130</ele>
        <time>2020-03-24T13:38:27.540Z</time>
      </trkpt>
      <trkpt lat="44.08726" lon="6.55418">
        <ele>1133</ele>
        <time>2020-03-24T13:38:28.540Z</time>
      </trkpt>
      <trkpt lat="44.08731" lon="6.55396">
        <ele>1134</ele>
        <time>2020-03-24T13:38:29.540Z</time>
      </trkpt>
      <trkpt lat="44.08735" lon="6.5537">
        <ele>1137</ele>
        <time>2020-03-24T13:38:30.540Z</time>
      </trkpt>
      <trkpt lat="44.08734" lon="6.55347">
        <ele>1140</ele>
        <time>2020-03-24T13:38:31.540Z</time>
      </trkpt>
      <trkpt lat="44.08736" lon="6.55319">
        <ele>1143</ele>
        <time>2020-03-24T13:38:32.540Z</time>
      </trkpt>
      <trkpt lat="44.08738" lon="6.55302">
        <ele>1144</ele>
        <time>2020-03-24T13:38:33.540Z</time>
      </trkpt>
      <trkpt lat="44.08743" lon="6.55278">
        <ele>1146</ele>
        <time>2020-03-24T13:38:34.540Z</time>
      </trkpt>
      <trkpt lat="44.08747" lon="6.5526">
        <ele>1147</ele>
        <time>2020-03-24T13:38:35.540Z</time>
      </trkpt>
      <trkpt lat="44.0875" lon="6.55249">
        <ele>1148</ele>
        <time>2020-03-24T13:38:36.540Z</time>
      </trkpt>
      <trkpt lat="44.08753" lon="6.55239">
        <ele>1149</ele>
        <time>2020-03-24T13:38:37.540Z</time>
      </trkpt>
      <trkpt lat="44.08755" lon="6.55219">
        <ele>1150</ele>
        <time>2020-03-24T13:38:38.540Z</time>
      </trkpt>
      <trkpt lat="44.08756" lon="6.55203">
        <ele>1151</ele>
        <time>2020-03-24T13:38:39.540Z</time>
      </trkpt>
      <trkpt lat="44.08756" lon="6.55182">
        <ele>1153</ele>
        <time>2020-03-24T13:38:40.540Z</time>
      </trkpt>
      <trkpt lat="44.08757" lon="6.5516">
        <ele>1154</ele>
        <time>2020-03-24T13:38:41.540Z</time>
      </trkpt>
      <trkpt lat="44.08758" lon="6.55145">
        <ele>1155</ele>
        <time>2020-03-24T13:38:42.540Z</time>
      </trkpt>
      <trkpt lat="44.08759" lon="6.55121">
        <ele>1155</ele>
        <time>2020-03-24T13:38:43.540Z</time>
      </trkpt>
      <trkpt lat="44.08757" lon="6.55099">
        <ele>1156</ele>
        <time>2020-03-24T13:38:44.540Z</time>
      </trkpt>
      <trkpt lat="44.0876" lon="6.55072">
        <ele>1156</ele>
        <time>2020-03-24T13:38:45.540Z</time>
      </trkpt>
      <trkpt lat="44.0876" lon="6.55041">
        <ele>1155</ele>
        <time>2020-03-24T13:38:46.540Z</time>
      </trkpt>
      <trkpt lat="44.08754" lon="6.55">
        <ele>1154</ele>
        <time>2020-03-24T13:38:47.540Z</time>
      </trkpt>
      <trkpt lat="44.0874" lon="6.54965">
        <ele>1154</ele>
        <time>2020-03-24T13:38:48.540Z</time>
      </trkpt>
      <trkpt lat="44.0872" lon="6.54937">
        <ele>1156</ele>
        <time>2020-03-24T13:38:49.540Z</time>
      </trkpt>
      <trkpt lat="44.08699" lon="6.54912">
        <ele>1159</ele>
        <time>2020-03-24T13:38:50.540Z</time>
      </trkpt>
      <trkpt lat="44.08685" lon="6.54891">
        <ele>1161</ele>
        <time>2020-03-24T13:38:51.540Z</time>
      </trkpt>
      <trkpt lat="44.08679" lon="6.54854">
        <ele>1163</ele>
        <time>2020-03-24T13:38:52.540Z</time>
      </trkpt>
      <trkpt lat="44.08674" lon="6.54799">
        <ele>1167</ele>
        <time>2020-03-24T13:38:53.540Z</time>
      </trkpt>
      <trkpt lat="44.08676" lon="6.54777">
        <ele>1168</ele>
        <time>2020-03-24T13:38:54.540Z</time>
      </trkpt>
      <trkpt lat="44.08693" lon="6.54755">
        <ele>1167</ele>
        <time>2020-03-24T13:38:55.540Z</time>
      </trkpt>
      <trkpt lat="44.08709" lon="6.54736">
        <ele>1166</ele>
        <time>2020-03-24T13:38:56.540Z</time>
      </trkpt>
      <trkpt lat="44.08721" lon="6.54708">
        <ele>1167</ele>
        <time>2020-03-24T13:38:57.540Z</time>
      </trkpt>
      <trkpt lat="44.08734" lon="6.5468">
        <ele>1167</ele>
        <time>2020-03-24T13:38:58.540Z</time>
      </trkpt>
      <trkpt lat="44.08752" lon="6.54645">
        <ele>1165</ele>
        <time>2020-03-24T13:38:59.540Z</time>
      </trkpt>
      <trkpt lat="44.08754" lon="6.54619">
        <ele>1166</ele>
        <time>2020-03-24T13:39:00.540Z</time>
      </trkpt>
      <trkpt lat="44.08751" lon="6.54605">
        <ele>1167</ele>
        <time>2020-03-24T13:39:01.540Z</time>
      </trkpt>
      <trkpt lat="44.08757" lon="6.54574">
        <ele>1167</ele>
        <time>2020-03-24T13:39:02.540Z</time>
      </trkpt>
      <trkpt lat="44.08761" lon="6.54539">
        <ele>1166</ele>
        <time>2020-03-24T13:39:03.540Z</time>
      </trkpt>
      <trkpt lat="44.08763" lon="6.54496">
        <ele>1166</ele>
        <time>2020-03-24T13:39:04.540Z</time>
      </trkpt>
      <trkpt lat="44.0876" lon="6.54462">
        <ele>1167</ele>
        <time>2020-03-24T13:39:05.540Z</time>
      </trkpt>
      <trkpt lat="44.0876" lon="6.54427">
        <ele>1167</ele>
        <time>2020-03-24T13:39:06.540Z</time>
      </trkpt>
      <trkpt lat="44.08759" lon="6.54403">
        <ele>1168</ele>
        <time>2020-03-24T13:39:07.540Z</time>
      </trkpt>
      <trkpt lat="44.08763" lon="6.54397">
        <ele>1168</ele>
        <time>2020-03-24T13:39:08.540Z</time>
      </trkpt>
      <trkpt lat="44.08761" lon="6.54386">
        <ele>1168</ele>
        <time>2020-03-24T13:39:09.540Z</time>
      </trkpt>
      <trkpt lat="44.08754" lon="6.54367">
        <ele>1171</ele>
        <time>2020-03-24T13:39:10.540Z</time>
      </trkpt>
      <trkpt lat="44.08751" lon="6.54358">
        <ele>1172</ele>
        <time>2020-03-24T13:39:11.540Z</time>
      </trkpt>
      <trkpt lat="44.08756" lon="6.54348">
        <ele>1171</ele>
        <time>2020-03-24T13:39:12.540Z</time>
      </trkpt>
      <trkpt lat="44.08767" lon="6.54343">
        <ele>1169</ele>
        <time>2020-03-24T13:39:13.540Z</time>
      </trkpt>
      <trkpt lat="44.08771" lon="6.54344">
        <ele>1169</ele>
        <time>2020-03-24T13:39:14.540Z</time>
      </trkpt>
      <trkpt lat="44.08786" lon="6.54336">
        <ele>1166</ele>
        <time>2020-03-24T13:39:15.540Z</time>
      </trkpt>
      <trkpt lat="44.088" lon="6.54329">
        <ele>1164</ele>
        <time>2020-03-24T13:39:16.540Z</time>
      </trkpt>
      <trkpt lat="44.0881" lon="6.54336">
        <ele>1161</ele>
        <time>2020-03-24T13:39:17.540Z</time>
      </trkpt>
      <trkpt lat="44.08819" lon="6.54339">
        <ele>1159</ele>
        <time>2020-03-24T13:39:18.540Z</time>
      </trkpt>
      <trkpt lat="44.08829" lon="6.54325">
        <ele>1158</ele>
        <time>2020-03-24T13:39:19.540Z</time>
      </trkpt>
      <trkpt lat="44.08829" lon="6.54306">
        <ele>1159</ele>
        <time>2020-03-24T13:39:20.540Z</time>
      </trkpt>
      <trkpt lat="44.0883" lon="6.54302">
        <ele>1159</ele>
        <time>2020-03-24T13:39:21.540Z</time>
      </trkpt>
      <trkpt lat="44.08838" lon="6.54281">
        <ele>1158</ele>
        <time>2020-03-24T13:39:22.540Z</time>
      </trkpt>
      <trkpt lat="44.08846" lon="6.54259">
        <ele>1157</ele>
        <time>2020-03-24T13:39:23.540Z</time>
      </trkpt>
      <trkpt lat="44.08852" lon="6.54237">
        <ele>1157</ele>
        <time>2020-03-24T13:39:24.540Z</time>
      </trkpt>
      <trkpt lat="44.08854" lon="6.54224">
        <ele>1157</ele>
        <time>2020-03-24T13:39:25.540Z</time>
      </trkpt>
      <trkpt lat="44.08856" lon="6.54207">
        <ele>1157</ele>
        <time>2020-03-24T13:39:26.540Z</time>
      </trkpt>
      <trkpt lat="44.08856" lon="6.54176">
        <ele>1158</ele>
        <time>2020-03-24T13:39:27.540Z</time>
      </trkpt>
      <trkpt lat="44.08855" lon="6.54153">
        <ele>1158</ele>
        <time>2020-03-24T13:39:28.540Z</time>
      </trkpt>
      <trkpt lat="44.08853" lon="6.54138">
        <ele>1159</ele>
        <time>2020-03-24T13:39:29.540Z</time>
      </trkpt>
      <trkpt lat="44.08856" lon="6.54117">
        <ele>1158</ele>
        <time>2020-03-24T13:39:30.540Z</time>
      </trkpt>
      <trkpt lat="44.08857" lon="6.541">
        <ele>1158</ele>
        <time>2020-03-24T13:39:31.540Z</time>
      </trkpt>
      <trkpt lat="44.08858" lon="6.54082">
        <ele>1158</ele>
        <time>2020-03-24T13:39:32.540Z</time>
      </trkpt>
      <trkpt lat="44.08858" lon="6.5405">
        <ele>1160</ele>
        <time>2020-03-24T13:39:33.540Z</time>
      </trkpt>
      <trkpt lat="44.08861" lon="6.54032">
        <ele>1160</ele>
        <time>2020-03-24T13:39:34.540Z</time>
      </trkpt>
      <trkpt lat="44.08864" lon="6.54018">
        <ele>1160</ele>
        <time>2020-03-24T13:39:35.540Z</time>
      </trkpt>
      <trkpt lat="44.08867" lon="6.53983">
        <ele>1160</ele>
        <time>2020-03-24T13:39:36.540Z</time>
      </trkpt>
      <trkpt lat="44.08869" lon="6.53964">
        <ele>1161</ele>
        <time>2020-03-24T13:39:37.540Z</time>
      </trkpt>
      <trkpt lat="44.0887" lon="6.53959">
        <ele>1160</ele>
        <time>2020-03-24T13:39:38.540Z</time>
      </trkpt>
      <trkpt lat="44.08873" lon="6.53947">
        <ele>1160</ele>
        <time>2020-03-24T13:39:39.540Z</time>
      </trkpt>
      <trkpt lat="44.08886" lon="6.53915">
        <ele>1160</ele>
        <time>2020-03-24T13:39:40.540Z</time>
      </trkpt>
      <trkpt lat="44.08891" lon="6.53904">
        <ele>1159</ele>
        <time>2020-03-24T13:39:41.540Z</time>
      </trkpt>
      <trkpt lat="44.08905" lon="6.53867">
        <ele>1158</ele>
        <time>2020-03-24T13:39:42.540Z</time>
      </trkpt>
      <trkpt lat="44.08918" lon="6.53841">
        <ele>1158</ele>
        <time>2020-03-24T13:39:43.540Z</time>
      </trkpt>
      <trkpt lat="44.08926" lon="6.5382">
        <ele>1158</ele>
        <time>2020-03-24T13:39:44.540Z</time>
      </trkpt>
      <trkpt lat="44.08933" lon="6.53782">
        <ele>1159</ele>
        <time>2020-03-24T13:39:45.540Z</time>
      </trkpt>
      <trkpt lat="44.08939" lon="6.53765">
        <ele>1159</ele>
        <time>2020-03-24T13:39:46.540Z</time>
      </trkpt>
      <trkpt lat="44.08934" lon="6.5375">
        <ele>1160</ele>
        <time>2020-03-24T13:39:47.540Z</time>
      </trkpt>
      <trkpt lat="44.08925" lon="6.53727">
        <ele>1160</ele>
        <time>2020-03-24T13:39:48.540Z</time>
      </trkpt>
      <trkpt lat="44.08922" lon="6.53703">
        <ele>1160</ele>
        <time>2020-03-24T13:39:49.540Z</time>
      </trkpt>
      <trkpt lat="44.08922" lon="6.537">
        <ele>1160</ele>
        <time>2020-03-24T13:39:50.540Z</time>
      </trkpt>
      <trkpt lat="44.0892" lon="6.53695">
        <ele>1160</ele>
        <time>2020-03-24T13:39:51.540Z</time>
      </trkpt>
      <trkpt lat="44.08923" lon="6.53709">
        <ele>1160</ele>
        <time>2020-03-24T13:39:52.540Z</time>
      </trkpt>
      <trkpt lat="44.08915" lon="6.53719">
        <ele>1160</ele>
        <time>2020-03-24T13:39:53.540Z</time>
      </trkpt>
      <trkpt lat="44.08907" lon="6.53715">
        <ele>1161</ele>
        <time>2020-03-24T13:39:54.540Z</time>
      </trkpt>
      <trkpt lat="44.08901" lon="6.53706">
        <ele>1162</ele>
        <time>2020-03-24T13:39:55.540Z</time>
      </trkpt>
      <trkpt lat="44.08897" lon="6.53685">
        <ele>1163</ele>
        <time>2020-03-24T13:39:56.540Z</time>
      </trkpt>
      <trkpt lat="44.08894" lon="6.5367">
        <ele>1164</ele>
        <time>2020-03-24T13:39:57.540Z</time>
      </trkpt>
      <trkpt lat="44.08904" lon="6.53653">
        <ele>1162</ele>
        <time>2020-03-24T13:39:58.540Z</time>
      </trkpt>
      <trkpt lat="44.08912" lon="6.53635">
        <ele>1161</ele>
        <time>2020-03-24T13:39:59.540Z</time>
      </trkpt>
      <trkpt lat="44.08912" lon="6.53622">
        <ele>1161</ele>
        <time>2020-03-24T13:40:00.540Z</time>
      </trkpt>
      <trkpt lat="44.08918" lon="6.53604">
        <ele>1160</ele>
        <time>2020-03-24T13:40:01.540Z</time>
      </trkpt>
      <trkpt lat="44.08922" lon="6.53589">
        <ele>1160</ele>
        <time>2020-03-24T13:40:02.540Z</time>
      </trkpt>
      <trkpt lat="44.08923" lon="6.53568">
        <ele>1160</ele>
        <time>2020-03-24T13:40:03.540Z</time>
      </trkpt>
      <trkpt lat="44.08931" lon="6.53545">
        <ele>1160</ele>
        <time>2020-03-24T13:40:04.540Z</time>
      </trkpt>
      <trkpt lat="44.08933" lon="6.53517">
        <ele>1160</ele>
        <time>2020-03-24T13:40:05.540Z</time>
      </trkpt>
      <trkpt lat="44.0893" lon="6.53481">
        <ele>1160</ele>
        <time>2020-03-24T13:40:06.540Z</time>
      </trkpt>
      <trkpt lat="44.08929" lon="6.53445">
        <ele>1159</ele>
        <time>2020-03-24T13:40:07.540Z</time>
      </trkpt>
      <trkpt lat="44.08921" lon="6.53415">
        <ele>1159</ele>
        <time>2020-03-24T13:40:08.540Z</time>
      </trkpt>
      <trkpt lat="44.08911" lon="6.53399">
        <ele>1159</ele>
        <time>2020-03-24T13:40:09.540Z</time>
      </trkpt>
      <trkpt lat="44.08911" lon="6.53389">
        <ele>1159</ele>
        <time>2020-03-24T13:40:10.540Z</time>
      </trkpt>
      <trkpt lat="44.08926" lon="6.53374">
        <ele>1158</ele>
        <time>2020-03-24T13:40:11.540Z</time>
      </trkpt>
      <trkpt lat="44.08932" lon="6.53372">
        <ele>1158</ele>
        <time>2020-03-24T13:40:12.540Z</time>
      </trkpt>
      <trkpt lat="44.08989" lon="6.53343">
        <ele>1158</ele>
        <time>2020-03-24T13:40:13.540Z</time>
      </trkpt>
      <trkpt lat="44.09028" lon="6.53323">
        <ele>1159</ele>
        <time>2020-03-24T13:40:14.540Z</time>
      </trkpt>
      <trkpt lat="44.0904" lon="6.53308">
        <ele>1159</ele>
        <time>2020-03-24T13:40:15.540Z</time>
      </trkpt>
      <trkpt lat="44.09042" lon="6.53305">
        <ele>1159</ele>
        <time>2020-03-24T13:40:16.540Z</time>
      </trkpt>
      <trkpt lat="44.09062" lon="6.53302">
        <ele>1159</ele>
        <time>2020-03-24T13:40:17.540Z</time>
      </trkpt>
      <trkpt lat="44.09066" lon="6.53301">
        <ele>1160</ele>
        <time>2020-03-24T13:40:18.540Z</time>
      </trkpt>
      <trkpt lat="44.09087" lon="6.53288">
        <ele>1160</ele>
        <time>2020-03-24T13:40:19.540Z</time>
      </trkpt>
      <trkpt lat="44.09085" lon="6.53266">
        <ele>1160</ele>
        <time>2020-03-24T13:40:20.540Z</time>
      </trkpt>
      <trkpt lat="44.09063" lon="6.53205">
        <ele>1160</ele>
        <time>2020-03-24T13:40:21.540Z</time>
      </trkpt>
      <trkpt lat="44.09041" lon="6.5314">
        <ele>1159</ele>
        <time>2020-03-24T13:40:22.540Z</time>
      </trkpt>
      <trkpt lat="44.09022" lon="6.53088">
        <ele>1158</ele>
        <time>2020-03-24T13:40:23.540Z</time>
      </trkpt>
      <trkpt lat="44.08998" lon="6.53015">
        <ele>1153</ele>
        <time>2020-03-24T13:40:24.540Z</time>
      </trkpt>
      <trkpt lat="44.08992" lon="6.5297">
        <ele>1152</ele>
        <time>2020-03-24T13:40:25.540Z</time>
      </trkpt>
      <trkpt lat="44.08991" lon="6.5291">
        <ele>1151</ele>
        <time>2020-03-24T13:40:26.540Z</time>
      </trkpt>
      <trkpt lat="44.08992" lon="6.52796">
        <ele>1149</ele>
        <time>2020-03-24T13:40:27.540Z</time>
      </trkpt>
      <trkpt lat="44.08997" lon="6.52725">
        <ele>1147</ele>
        <time>2020-03-24T13:40:28.540Z</time>
      </trkpt>
      <trkpt lat="44.09004" lon="6.52655">
        <ele>1147</ele>
        <time>2020-03-24T13:40:29.540Z</time>
      </trkpt>
      <trkpt lat="44.09005" lon="6.52587">
        <ele>1147</ele>
        <time>2020-03-24T13:40:30.540Z</time>
      </trkpt>
      <trkpt lat="44.09013" lon="6.5253">
        <ele>1147</ele>
        <time>2020-03-24T13:40:31.540Z</time>
      </trkpt>
      <trkpt lat="44.09023" lon="6.52465">
        <ele>1147</ele>
        <time>2020-03-24T13:40:32.540Z</time>
      </trkpt>
      <trkpt lat="44.09034" lon="6.52409">
        <ele>1147</ele>
        <time>2020-03-24T13:40:33.540Z</time>
      </trkpt>
      <trkpt lat="44.09047" lon="6.52347">
        <ele>1149</ele>
        <time>2020-03-24T13:40:34.540Z</time>
      </trkpt>
      <trkpt lat="44.09061" lon="6.52274">
        <ele>1152</ele>
        <time>2020-03-24T13:40:35.540Z</time>
      </trkpt>
      <trkpt lat="44.09059" lon="6.5221">
        <ele>1154</ele>
        <time>2020-03-24T13:40:36.540Z</time>
      </trkpt>
      <trkpt lat="44.09052" lon="6.5216">
        <ele>1154</ele>
        <time>2020-03-24T13:40:37.540Z</time>
      </trkpt>
      <trkpt lat="44.09039" lon="6.52122">
        <ele>1152</ele>
        <time>2020-03-24T13:40:38.540Z</time>
      </trkpt>
      <trkpt lat="44.09018" lon="6.52065">
        <ele>1151</ele>
        <time>2020-03-24T13:40:39.540Z</time>
      </trkpt>
      <trkpt lat="44.09007" lon="6.52017">
        <ele>1150</ele>
        <time>2020-03-24T13:40:40.540Z</time>
      </trkpt>
      <trkpt lat="44.09005" lon="6.51998">
        <ele>1150</ele>
        <time>2020-03-24T13:40:41.540Z</time>
      </trkpt>
      <trkpt lat="44.09013" lon="6.51976">
        <ele>1150</ele>
        <time>2020-03-24T13:40:42.540Z</time>
      </trkpt>
      <trkpt lat="44.09017" lon="6.51973">
        <ele>1150</ele>
        <time>2020-03-24T13:40:43.540Z</time>
      </trkpt>
      <trkpt lat="44.09055" lon="6.51951">
        <ele>1153</ele>
        <time>2020-03-24T13:40:44.540Z</time>
      </trkpt>
      <trkpt lat="44.09093" lon="6.51931">
        <ele>1155</ele>
        <time>2020-03-24T13:40:45.540Z</time>
      </trkpt>
      <trkpt lat="44.09109" lon="6.51918">
        <ele>1155</ele>
        <time>2020-03-24T13:40:46.540Z</time>
      </trkpt>
      <trkpt lat="44.09132" lon="6.51881">
        <ele>1155</ele>
        <time>2020-03-24T13:40:47.540Z</time>
      </trkpt>
      <trkpt lat="44.09157" lon="6.51838">
        <ele>1155</ele>
        <time>2020-03-24T13:40:48.540Z</time>
      </trkpt>
      <trkpt lat="44.09181" lon="6.51799">
        <ele>1155</ele>
        <time>2020-03-24T13:40:49.540Z</time>
      </trkpt>
      <trkpt lat="44.09207" lon="6.51778">
        <ele>1155</ele>
        <time>2020-03-24T13:40:50.540Z</time>
      </trkpt>
      <trkpt lat="44.09224" lon="6.51773">
        <ele>1156</ele>
        <time>2020-03-24T13:40:51.540Z</time>
      </trkpt>
      <trkpt lat="44.09246" lon="6.51773">
        <ele>1157</ele>
        <time>2020-03-24T13:40:52.540Z</time>
      </trkpt>
      <trkpt lat="44.0928" lon="6.51773">
        <ele>1161</ele>
        <time>2020-03-24T13:40:53.540Z</time>
      </trkpt>
      <trkpt lat="44.09284" lon="6.51774">
        <ele>1162</ele>
        <time>2020-03-24T13:40:54.540Z</time>
      </trkpt>
      <trkpt lat="44.09293" lon="6.51773">
        <ele>1163</ele>
        <time>2020-03-24T13:40:55.540Z</time>
      </trkpt>
      <trkpt lat="44.09308" lon="6.51765">
        <ele>1164</ele>
        <time>2020-03-24T13:40:56.540Z</time>
      </trkpt>
      <trkpt lat="44.0933" lon="6.51751">
        <ele>1167</ele>
        <time>2020-03-24T13:40:57.540Z</time>
      </trkpt>
      <trkpt lat="44.09343" lon="6.51748">
        <ele>1168</ele>
        <time>2020-03-24T13:40:58.540Z</time>
      </trkpt>
      <trkpt lat="44.09344" lon="6.51748">
        <ele>1168</ele>
        <time>2020-03-24T13:40:59.540Z</time>
      </trkpt>
      <trkpt lat="44.09351" lon="6.51744">
        <ele>1169</ele>
        <time>2020-03-24T13:41:00.540Z</time>
      </trkpt>
      <trkpt lat="44.09362" lon="6.51731">
        <ele>1170</ele>
        <time>2020-03-24T13:41:01.540Z</time>
      </trkpt>
      <trkpt lat="44.09364" lon="6.51729">
        <ele>1170</ele>
        <time>2020-03-24T13:41:02.540Z</time>
      </trkpt>
      <trkpt lat="44.09381" lon="6.51717">
        <ele>1172</ele>
        <time>2020-03-24T13:41:03.540Z</time>
      </trkpt>
      <trkpt lat="44.09391" lon="6.51698">
        <ele>1172</ele>
        <time>2020-03-24T13:41:04.540Z</time>
      </trkpt>
      <trkpt lat="44.09396" lon="6.51687">
        <ele>1172</ele>
        <time>2020-03-24T13:41:05.540Z</time>
      </trkpt>
      <trkpt lat="44.09394" lon="6.51651">
        <ele>1170</ele>
        <time>2020-03-24T13:41:06.540Z</time>
      </trkpt>
      <trkpt lat="44.09383" lon="6.51625">
        <ele>1169</ele>
        <time>2020-03-24T13:41:07.540Z</time>
      </trkpt>
      <trkpt lat="44.09375" lon="6.51587">
        <ele>1168</ele>
        <time>2020-03-24T13:41:08.540Z</time>
      </trkpt>
      <trkpt lat="44.09376" lon="6.51578">
        <ele>1168</ele>
        <time>2020-03-24T13:41:09.540Z</time>
      </trkpt>
      <trkpt lat="44.09381" lon="6.51553">
        <ele>1168</ele>
        <time>2020-03-24T13:41:10.540Z</time>
      </trkpt>
      <trkpt lat="44.09385" lon="6.51539">
        <ele>1169</ele>
        <time>2020-03-24T13:41:11.540Z</time>
      </trkpt>
      <trkpt lat="44.09389" lon="6.51511">
        <ele>1170</ele>
        <time>2020-03-24T13:41:12.540Z</time>
      </trkpt>
      <trkpt lat="44.09396" lon="6.51464">
        <ele>1172</ele>
        <time>2020-03-24T13:41:13.540Z</time>
      </trkpt>
      <trkpt lat="44.094" lon="6.5142">
        <ele>1174</ele>
        <time>2020-03-24T13:41:14.540Z</time>
      </trkpt>
      <trkpt lat="44.09396" lon="6.51382">
        <ele>1175</ele>
        <time>2020-03-24T13:41:15.540Z</time>
      </trkpt>
      <trkpt lat="44.0939" lon="6.5134">
        <ele>1174</ele>
        <time>2020-03-24T13:41:16.540Z</time>
      </trkpt>
      <trkpt lat="44.09376" lon="6.5131">
        <ele>1170</ele>
        <time>2020-03-24T13:41:17.540Z</time>
      </trkpt>
      <trkpt lat="44.09366" lon="6.51268">
        <ele>1164</ele>
        <time>2020-03-24T13:41:18.540Z</time>
      </trkpt>
      <trkpt lat="44.09365" lon="6.51187">
        <ele>1162</ele>
        <time>2020-03-24T13:41:19.540Z</time>
      </trkpt>
      <trkpt lat="44.09364" lon="6.51174">
        <ele>1162</ele>
        <time>2020-03-24T13:41:20.540Z</time>
      </trkpt>
      <trkpt lat="44.0935" lon="6.51134">
        <ele>1160</ele>
        <time>2020-03-24T13:41:21.540Z</time>
      </trkpt>
      <trkpt lat="44.09348" lon="6.51117">
        <ele>1160</ele>
        <time>2020-03-24T13:41:22.540Z</time>
      </trkpt>
      <trkpt lat="44.09347" lon="6.5109">
        <ele>1160</ele>
        <time>2020-03-24T13:41:23.540Z</time>
      </trkpt>
      <trkpt lat="44.09345" lon="6.51041">
        <ele>1159</ele>
        <time>2020-03-24T13:41:24.540Z</time>
      </trkpt>
      <trkpt lat="44.09342" lon="6.5103">
        <ele>1159</ele>
        <time>2020-03-24T13:41:25.540Z</time>
      </trkpt>
      <trkpt lat="44.09336" lon="6.51008">
        <ele>1157</ele>
        <time>2020-03-24T13:41:26.540Z</time>
      </trkpt>
      <trkpt lat="44.09329" lon="6.50962">
        <ele>1156</ele>
        <time>2020-03-24T13:41:27.540Z</time>
      </trkpt>
      <trkpt lat="44.09328" lon="6.50949">
        <ele>1156</ele>
        <time>2020-03-24T13:41:28.540Z</time>
      </trkpt>
      <trkpt lat="44.09325" lon="6.50925">
        <ele>1155</ele>
        <time>2020-03-24T13:41:29.540Z</time>
      </trkpt>
      <trkpt lat="44.09307" lon="6.50866">
        <ele>1150</ele>
        <time>2020-03-24T13:41:30.540Z</time>
      </trkpt>
      <trkpt lat="44.09288" lon="6.50792">
        <ele>1144</ele>
        <time>2020-03-24T13:41:31.540Z</time>
      </trkpt>
      <trkpt lat="44.09285" lon="6.5078">
        <ele>1143</ele>
        <time>2020-03-24T13:41:32.540Z</time>
      </trkpt>
      <trkpt lat="44.09269" lon="6.50716">
        <ele>1140</ele>
        <time>2020-03-24T13:41:33.540Z</time>
      </trkpt>
      <trkpt lat="44.09267" lon="6.50704">
        <ele>1140</ele>
        <time>2020-03-24T13:41:34.540Z</time>
      </trkpt>
      <trkpt lat="44.0925" lon="6.50657">
        <ele>1138</ele>
        <time>2020-03-24T13:41:35.540Z</time>
      </trkpt>
      <trkpt lat="44.09242" lon="6.50635">
        <ele>1138</ele>
        <time>2020-03-24T13:41:36.540Z</time>
      </trkpt>
      <trkpt lat="44.09237" lon="6.50613">
        <ele>1138</ele>
        <time>2020-03-24T13:41:37.540Z</time>
      </trkpt>
      <trkpt lat="44.09232" lon="6.50594">
        <ele>1138</ele>
        <time>2020-03-24T13:41:38.540Z</time>
      </trkpt>
      <trkpt lat="44.09199" lon="6.50504">
        <ele>1138</ele>
        <time>2020-03-24T13:41:39.540Z</time>
      </trkpt>
      <trkpt lat="44.09168" lon="6.5045">
        <ele>1137</ele>
        <time>2020-03-24T13:41:40.540Z</time>
      </trkpt>
      <trkpt lat="44.09155" lon="6.50429">
        <ele>1137</ele>
        <time>2020-03-24T13:41:41.540Z</time>
      </trkpt>
      <trkpt lat="44.09141" lon="6.50393">
        <ele>1137</ele>
        <time>2020-03-24T13:41:42.540Z</time>
      </trkpt>
      <trkpt lat="44.09129" lon="6.50392">
        <ele>1136</ele>
        <time>2020-03-24T13:41:43.540Z</time>
      </trkpt>
      <trkpt lat="44.0912" lon="6.50381">
        <ele>1135</ele>
        <time>2020-03-24T13:41:44.540Z</time>
      </trkpt>
      <trkpt lat="44.09116" lon="6.50363">
        <ele>1134</ele>
        <time>2020-03-24T13:41:45.540Z</time>
      </trkpt>
      <trkpt lat="44.09108" lon="6.5029">
        <ele>1130</ele>
        <time>2020-03-24T13:41:46.540Z</time>
      </trkpt>
      <trkpt lat="44.09095" lon="6.50206">
        <ele>1126</ele>
        <time>2020-03-24T13:41:47.540Z</time>
      </trkpt>
      <trkpt lat="44.0909" lon="6.5016">
        <ele>1125</ele>
        <time>2020-03-24T13:41:48.540Z</time>
      </trkpt>
      <trkpt lat="44.09089" lon="6.50154">
        <ele>1125</ele>
        <time>2020-03-24T13:41:49.540Z</time>
      </trkpt>
    </trkseg>
  </trk>
</gpx>